<?xml version="1.0" encoding="UTF-8" standalone="no" ?>
<gpx xmlns="http://www.topografix.com/GPX/1/1" xmlns:xsi="http://www.w3.org/2001/XMLSchema-instance" xsi:schemaLocation="http://www.topografix.com/GPX/1/1 http://www.topografix.com/GPX/1/1/gpx.xsd" version="1.1" creator="VisuGPX - https://www.visugpx.com">
  <metadata>
    <name>2015-10-12-01-Erquy</name>
    <desc><![CDATA[Départ Erquy, escapade sur le cap avant de rattraper le circuit 3]]></desc>
  </metadata>
  <trk>
    <name><![CDATA[2015-10-12-01-Erquy]]></name>
    <trkseg>
      <trkpt lat="48.62929" lon="-2.4692">
        <ele>8.5</ele>
        <time>2015-10-12T12:54:27Z</time>
      </trkpt>
      <trkpt lat="48.62931" lon="-2.46916">
        <ele>8.5</ele>
        <time>2015-10-12T12:54:28Z</time>
      </trkpt>
      <trkpt lat="48.62939" lon="-2.46903">
        <ele>8.6</ele>
        <time>2015-10-12T12:54:31Z</time>
      </trkpt>
      <trkpt lat="48.62946" lon="-2.4689">
        <ele>8.6</ele>
        <time>2015-10-12T12:54:34Z</time>
      </trkpt>
      <trkpt lat="48.62954" lon="-2.46876">
        <ele>8.6</ele>
        <time>2015-10-12T12:54:37Z</time>
      </trkpt>
      <trkpt lat="48.62963" lon="-2.46863">
        <ele>8.6</ele>
        <time>2015-10-12T12:54:40Z</time>
      </trkpt>
      <trkpt lat="48.62973" lon="-2.46851">
        <ele>8.6</ele>
        <time>2015-10-12T12:54:43Z</time>
      </trkpt>
      <trkpt lat="48.62982" lon="-2.46839">
        <ele>8.6</ele>
        <time>2015-10-12T12:54:46Z</time>
      </trkpt>
      <trkpt lat="48.62991" lon="-2.46828">
        <ele>8.6</ele>
        <time>2015-10-12T12:54:49Z</time>
      </trkpt>
      <trkpt lat="48.63" lon="-2.46815">
        <ele>8.6</ele>
        <time>2015-10-12T12:54:52Z</time>
      </trkpt>
      <trkpt lat="48.63006" lon="-2.468">
        <ele>8.6</ele>
        <time>2015-10-12T12:54:55Z</time>
      </trkpt>
      <trkpt lat="48.63013" lon="-2.46788">
        <ele>8.6</ele>
        <time>2015-10-12T12:54:58Z</time>
      </trkpt>
      <trkpt lat="48.63019" lon="-2.46775">
        <ele>8.7</ele>
        <time>2015-10-12T12:55:02Z</time>
      </trkpt>
      <trkpt lat="48.63028" lon="-2.4678">
        <ele>8.6</ele>
        <time>2015-10-12T12:55:08Z</time>
      </trkpt>
      <trkpt lat="48.63039" lon="-2.46777">
        <ele>8.6</ele>
        <time>2015-10-12T12:55:12Z</time>
      </trkpt>
      <trkpt lat="48.63048" lon="-2.46771">
        <ele>8.6</ele>
        <time>2015-10-12T12:55:15Z</time>
      </trkpt>
      <trkpt lat="48.63057" lon="-2.46763">
        <ele>8.6</ele>
        <time>2015-10-12T12:55:18Z</time>
      </trkpt>
      <trkpt lat="48.63066" lon="-2.46756">
        <ele>8.6</ele>
        <time>2015-10-12T12:55:21Z</time>
      </trkpt>
      <trkpt lat="48.63076" lon="-2.46749">
        <ele>8.5</ele>
        <time>2015-10-12T12:55:24Z</time>
      </trkpt>
      <trkpt lat="48.63088" lon="-2.46741">
        <ele>8.5</ele>
        <time>2015-10-12T12:55:27Z</time>
      </trkpt>
      <trkpt lat="48.63099" lon="-2.46734">
        <ele>8.5</ele>
        <time>2015-10-12T12:55:30Z</time>
      </trkpt>
      <trkpt lat="48.63111" lon="-2.46728">
        <ele>8.5</ele>
        <time>2015-10-12T12:55:33Z</time>
      </trkpt>
      <trkpt lat="48.63123" lon="-2.46722">
        <ele>8.5</ele>
        <time>2015-10-12T12:55:36Z</time>
      </trkpt>
      <trkpt lat="48.63135" lon="-2.46717">
        <ele>8.5</ele>
        <time>2015-10-12T12:55:39Z</time>
      </trkpt>
      <trkpt lat="48.63147" lon="-2.46712">
        <ele>8.5</ele>
        <time>2015-10-12T12:55:42Z</time>
      </trkpt>
      <trkpt lat="48.63158" lon="-2.46708">
        <ele>8.5</ele>
        <time>2015-10-12T12:55:45Z</time>
      </trkpt>
      <trkpt lat="48.63168" lon="-2.46714">
        <ele>8.5</ele>
        <time>2015-10-12T12:55:48Z</time>
      </trkpt>
      <trkpt lat="48.63179" lon="-2.46714">
        <ele>8.5</ele>
        <time>2015-10-12T12:55:51Z</time>
      </trkpt>
      <trkpt lat="48.63191" lon="-2.4671">
        <ele>8.5</ele>
        <time>2015-10-12T12:55:54Z</time>
      </trkpt>
      <trkpt lat="48.63202" lon="-2.46704">
        <ele>8.5</ele>
        <time>2015-10-12T12:55:57Z</time>
      </trkpt>
      <trkpt lat="48.63212" lon="-2.46692">
        <ele>8.5</ele>
        <time>2015-10-12T12:56:00Z</time>
      </trkpt>
      <trkpt lat="48.63225" lon="-2.46686">
        <ele>8.5</ele>
        <time>2015-10-12T12:56:03Z</time>
      </trkpt>
      <trkpt lat="48.63237" lon="-2.46682">
        <ele>8.5</ele>
        <time>2015-10-12T12:56:06Z</time>
      </trkpt>
      <trkpt lat="48.63251" lon="-2.4668">
        <ele>8.5</ele>
        <time>2015-10-12T12:56:09Z</time>
      </trkpt>
      <trkpt lat="48.6326" lon="-2.46679">
        <ele>8.5</ele>
        <time>2015-10-12T12:56:11Z</time>
      </trkpt>
      <trkpt lat="48.63269" lon="-2.46677">
        <ele>8.5</ele>
        <time>2015-10-12T12:56:13Z</time>
      </trkpt>
      <trkpt lat="48.63282" lon="-2.46675">
        <ele>8.5</ele>
        <time>2015-10-12T12:56:16Z</time>
      </trkpt>
      <trkpt lat="48.63295" lon="-2.46673">
        <ele>8.5</ele>
        <time>2015-10-12T12:56:19Z</time>
      </trkpt>
      <trkpt lat="48.63308" lon="-2.46672">
        <ele>8.5</ele>
        <time>2015-10-12T12:56:22Z</time>
      </trkpt>
      <trkpt lat="48.63321" lon="-2.46671">
        <ele>8.5</ele>
        <time>2015-10-12T12:56:25Z</time>
      </trkpt>
      <trkpt lat="48.63335" lon="-2.4667">
        <ele>8.5</ele>
        <time>2015-10-12T12:56:28Z</time>
      </trkpt>
      <trkpt lat="48.63348" lon="-2.46671">
        <ele>8.5</ele>
        <time>2015-10-12T12:56:31Z</time>
      </trkpt>
      <trkpt lat="48.63361" lon="-2.46671">
        <ele>8.5</ele>
        <time>2015-10-12T12:56:34Z</time>
      </trkpt>
      <trkpt lat="48.63374" lon="-2.46673">
        <ele>8.5</ele>
        <time>2015-10-12T12:56:37Z</time>
      </trkpt>
      <trkpt lat="48.63387" lon="-2.46675">
        <ele>8.5</ele>
        <time>2015-10-12T12:56:40Z</time>
      </trkpt>
      <trkpt lat="48.63399" lon="-2.4668">
        <ele>8.5</ele>
        <time>2015-10-12T12:56:43Z</time>
      </trkpt>
      <trkpt lat="48.63412" lon="-2.46685">
        <ele>8.5</ele>
        <time>2015-10-12T12:56:46Z</time>
      </trkpt>
      <trkpt lat="48.63421" lon="-2.46688">
        <ele>8.5</ele>
        <time>2015-10-12T12:56:48Z</time>
      </trkpt>
      <trkpt lat="48.6343" lon="-2.46692">
        <ele>8.5</ele>
        <time>2015-10-12T12:56:50Z</time>
      </trkpt>
      <trkpt lat="48.63439" lon="-2.46695">
        <ele>8.5</ele>
        <time>2015-10-12T12:56:52Z</time>
      </trkpt>
      <trkpt lat="48.63448" lon="-2.46699">
        <ele>8.5</ele>
        <time>2015-10-12T12:56:54Z</time>
      </trkpt>
      <trkpt lat="48.63456" lon="-2.46703">
        <ele>8.5</ele>
        <time>2015-10-12T12:56:56Z</time>
      </trkpt>
      <trkpt lat="48.63465" lon="-2.46706">
        <ele>8.5</ele>
        <time>2015-10-12T12:56:58Z</time>
      </trkpt>
      <trkpt lat="48.63477" lon="-2.46712">
        <ele>8.5</ele>
        <time>2015-10-12T12:57:01Z</time>
      </trkpt>
      <trkpt lat="48.63488" lon="-2.46708">
        <ele>8.5</ele>
        <time>2015-10-12T12:57:04Z</time>
      </trkpt>
      <trkpt lat="48.63495" lon="-2.46696">
        <ele>8.5</ele>
        <time>2015-10-12T12:57:07Z</time>
      </trkpt>
      <trkpt lat="48.63503" lon="-2.4669">
        <ele>8.5</ele>
        <time>2015-10-12T12:57:14Z</time>
      </trkpt>
      <trkpt lat="48.63513" lon="-2.46685">
        <ele>8.5</ele>
        <time>2015-10-12T12:57:19Z</time>
      </trkpt>
      <trkpt lat="48.63523" lon="-2.46688">
        <ele>8.5</ele>
        <time>2015-10-12T12:57:22Z</time>
      </trkpt>
      <trkpt lat="48.63533" lon="-2.46693">
        <ele>8.5</ele>
        <time>2015-10-12T12:57:25Z</time>
      </trkpt>
      <trkpt lat="48.63544" lon="-2.46699">
        <ele>8.5</ele>
        <time>2015-10-12T12:57:28Z</time>
      </trkpt>
      <trkpt lat="48.63556" lon="-2.46706">
        <ele>8.5</ele>
        <time>2015-10-12T12:57:31Z</time>
      </trkpt>
      <trkpt lat="48.63567" lon="-2.46704">
        <ele>8.5</ele>
        <time>2015-10-12T12:57:34Z</time>
      </trkpt>
      <trkpt lat="48.63571" lon="-2.46688">
        <ele>8.5</ele>
        <time>2015-10-12T12:57:37Z</time>
      </trkpt>
      <trkpt lat="48.63573" lon="-2.46671">
        <ele>8.5</ele>
        <time>2015-10-12T12:57:40Z</time>
      </trkpt>
      <trkpt lat="48.63575" lon="-2.46655">
        <ele>8.6</ele>
        <time>2015-10-12T12:57:43Z</time>
      </trkpt>
      <trkpt lat="48.63577" lon="-2.46638">
        <ele>8.8</ele>
        <time>2015-10-12T12:57:46Z</time>
      </trkpt>
      <trkpt lat="48.63579" lon="-2.46623">
        <ele>9</ele>
        <time>2015-10-12T12:57:49Z</time>
      </trkpt>
      <trkpt lat="48.63579" lon="-2.4661">
        <ele>9.2</ele>
        <time>2015-10-12T12:57:52Z</time>
      </trkpt>
      <trkpt lat="48.63578" lon="-2.46595">
        <ele>9.4</ele>
        <time>2015-10-12T12:57:55Z</time>
      </trkpt>
      <trkpt lat="48.63576" lon="-2.4658">
        <ele>9.7</ele>
        <time>2015-10-12T12:57:58Z</time>
      </trkpt>
      <trkpt lat="48.63571" lon="-2.46567">
        <ele>10.1</ele>
        <time>2015-10-12T12:58:01Z</time>
      </trkpt>
      <trkpt lat="48.63564" lon="-2.46553">
        <ele>10.4</ele>
        <time>2015-10-12T12:58:04Z</time>
      </trkpt>
      <trkpt lat="48.63558" lon="-2.46539">
        <ele>10.6</ele>
        <time>2015-10-12T12:58:07Z</time>
      </trkpt>
      <trkpt lat="48.6355" lon="-2.46525">
        <ele>10.9</ele>
        <time>2015-10-12T12:58:10Z</time>
      </trkpt>
      <trkpt lat="48.63543" lon="-2.46509">
        <ele>11.1</ele>
        <time>2015-10-12T12:58:13Z</time>
      </trkpt>
      <trkpt lat="48.63535" lon="-2.46494">
        <ele>11.4</ele>
        <time>2015-10-12T12:58:16Z</time>
      </trkpt>
      <trkpt lat="48.63527" lon="-2.46479">
        <ele>11.6</ele>
        <time>2015-10-12T12:58:19Z</time>
      </trkpt>
      <trkpt lat="48.63519" lon="-2.46462">
        <ele>11.8</ele>
        <time>2015-10-12T12:58:22Z</time>
      </trkpt>
      <trkpt lat="48.63512" lon="-2.46447">
        <ele>11.9</ele>
        <time>2015-10-12T12:58:25Z</time>
      </trkpt>
      <trkpt lat="48.63508" lon="-2.46431">
        <ele>12.1</ele>
        <time>2015-10-12T12:58:28Z</time>
      </trkpt>
      <trkpt lat="48.63509" lon="-2.46414">
        <ele>12.2</ele>
        <time>2015-10-12T12:58:31Z</time>
      </trkpt>
      <trkpt lat="48.63513" lon="-2.46395">
        <ele>12.3</ele>
        <time>2015-10-12T12:58:34Z</time>
      </trkpt>
      <trkpt lat="48.63514" lon="-2.46376">
        <ele>12.4</ele>
        <time>2015-10-12T12:58:37Z</time>
      </trkpt>
      <trkpt lat="48.63514" lon="-2.46356">
        <ele>12.4</ele>
        <time>2015-10-12T12:58:40Z</time>
      </trkpt>
      <trkpt lat="48.63509" lon="-2.4634">
        <ele>12.5</ele>
        <time>2015-10-12T12:58:43Z</time>
      </trkpt>
      <trkpt lat="48.63501" lon="-2.46327">
        <ele>12.7</ele>
        <time>2015-10-12T12:58:46Z</time>
      </trkpt>
      <trkpt lat="48.63492" lon="-2.46317">
        <ele>12.8</ele>
        <time>2015-10-12T12:58:49Z</time>
      </trkpt>
      <trkpt lat="48.63483" lon="-2.46309">
        <ele>13</ele>
        <time>2015-10-12T12:58:52Z</time>
      </trkpt>
      <trkpt lat="48.63475" lon="-2.46302">
        <ele>13.2</ele>
        <time>2015-10-12T12:58:55Z</time>
      </trkpt>
      <trkpt lat="48.63465" lon="-2.46293">
        <ele>13.7</ele>
        <time>2015-10-12T12:58:59Z</time>
      </trkpt>
      <trkpt lat="48.63458" lon="-2.46283">
        <ele>14.4</ele>
        <time>2015-10-12T12:59:03Z</time>
      </trkpt>
      <trkpt lat="48.63449" lon="-2.46272">
        <ele>15.3</ele>
        <time>2015-10-12T12:59:08Z</time>
      </trkpt>
      <trkpt lat="48.63442" lon="-2.4626">
        <ele>16.4</ele>
        <time>2015-10-12T12:59:13Z</time>
      </trkpt>
      <trkpt lat="48.63435" lon="-2.46248">
        <ele>17.6</ele>
        <time>2015-10-12T12:59:18Z</time>
      </trkpt>
      <trkpt lat="48.63428" lon="-2.46236">
        <ele>18.8</ele>
        <time>2015-10-12T12:59:23Z</time>
      </trkpt>
      <trkpt lat="48.63419" lon="-2.46226">
        <ele>20.1</ele>
        <time>2015-10-12T12:59:28Z</time>
      </trkpt>
      <trkpt lat="48.63411" lon="-2.4622">
        <ele>21.2</ele>
        <time>2015-10-12T12:59:32Z</time>
      </trkpt>
      <trkpt lat="48.63402" lon="-2.46215">
        <ele>22.1</ele>
        <time>2015-10-12T12:59:36Z</time>
      </trkpt>
      <trkpt lat="48.63393" lon="-2.46213">
        <ele>23</ele>
        <time>2015-10-12T12:59:40Z</time>
      </trkpt>
      <trkpt lat="48.63382" lon="-2.4621">
        <ele>23.7</ele>
        <time>2015-10-12T12:59:44Z</time>
      </trkpt>
      <trkpt lat="48.63372" lon="-2.46208">
        <ele>24.2</ele>
        <time>2015-10-12T12:59:48Z</time>
      </trkpt>
      <trkpt lat="48.63361" lon="-2.46204">
        <ele>24.5</ele>
        <time>2015-10-12T12:59:51Z</time>
      </trkpt>
      <trkpt lat="48.63352" lon="-2.46199">
        <ele>24.5</ele>
        <time>2015-10-12T12:59:53Z</time>
      </trkpt>
      <trkpt lat="48.63342" lon="-2.46191">
        <ele>24.5</ele>
        <time>2015-10-12T12:59:55Z</time>
      </trkpt>
      <trkpt lat="48.63333" lon="-2.4618">
        <ele>24.4</ele>
        <time>2015-10-12T12:59:57Z</time>
      </trkpt>
      <trkpt lat="48.63326" lon="-2.46168">
        <ele>24.3</ele>
        <time>2015-10-12T12:59:59Z</time>
      </trkpt>
      <trkpt lat="48.63321" lon="-2.46152">
        <ele>24.1</ele>
        <time>2015-10-12T13:00:02Z</time>
      </trkpt>
      <trkpt lat="48.63332" lon="-2.46145">
        <ele>23.9</ele>
        <time>2015-10-12T13:00:06Z</time>
      </trkpt>
      <trkpt lat="48.63341" lon="-2.46142">
        <ele>23.9</ele>
        <time>2015-10-12T13:00:09Z</time>
      </trkpt>
      <trkpt lat="48.63352" lon="-2.46136">
        <ele>24</ele>
        <time>2015-10-12T13:00:13Z</time>
      </trkpt>
      <trkpt lat="48.6336" lon="-2.46127">
        <ele>24.1</ele>
        <time>2015-10-12T13:00:16Z</time>
      </trkpt>
      <trkpt lat="48.6336" lon="-2.46111">
        <ele>24.2</ele>
        <time>2015-10-12T13:00:21Z</time>
      </trkpt>
      <trkpt lat="48.63356" lon="-2.46099">
        <ele>25.3</ele>
        <time>2015-10-12T13:01:08Z</time>
      </trkpt>
      <trkpt lat="48.63352" lon="-2.46082">
        <ele>25.3</ele>
        <time>2015-10-12T13:01:41Z</time>
      </trkpt>
      <trkpt lat="48.63349" lon="-2.46065">
        <ele>25.3</ele>
        <time>2015-10-12T13:01:44Z</time>
      </trkpt>
      <trkpt lat="48.63347" lon="-2.46045">
        <ele>25.3</ele>
        <time>2015-10-12T13:01:47Z</time>
      </trkpt>
      <trkpt lat="48.63345" lon="-2.46032">
        <ele>25.3</ele>
        <time>2015-10-12T13:01:49Z</time>
      </trkpt>
      <trkpt lat="48.63343" lon="-2.46017">
        <ele>25.3</ele>
        <time>2015-10-12T13:01:51Z</time>
      </trkpt>
      <trkpt lat="48.63342" lon="-2.46003">
        <ele>25.2</ele>
        <time>2015-10-12T13:01:53Z</time>
      </trkpt>
      <trkpt lat="48.6334" lon="-2.45989">
        <ele>25.2</ele>
        <time>2015-10-12T13:01:55Z</time>
      </trkpt>
      <trkpt lat="48.63339" lon="-2.45975">
        <ele>25.1</ele>
        <time>2015-10-12T13:01:57Z</time>
      </trkpt>
      <trkpt lat="48.63337" lon="-2.45961">
        <ele>25.1</ele>
        <time>2015-10-12T13:01:59Z</time>
      </trkpt>
      <trkpt lat="48.63336" lon="-2.45947">
        <ele>25.1</ele>
        <time>2015-10-12T13:02:01Z</time>
      </trkpt>
      <trkpt lat="48.63335" lon="-2.45932">
        <ele>25</ele>
        <time>2015-10-12T13:02:03Z</time>
      </trkpt>
      <trkpt lat="48.63334" lon="-2.45917">
        <ele>25</ele>
        <time>2015-10-12T13:02:05Z</time>
      </trkpt>
      <trkpt lat="48.63333" lon="-2.45902">
        <ele>25</ele>
        <time>2015-10-12T13:02:07Z</time>
      </trkpt>
      <trkpt lat="48.63332" lon="-2.45887">
        <ele>24.9</ele>
        <time>2015-10-12T13:02:09Z</time>
      </trkpt>
      <trkpt lat="48.6333" lon="-2.45873">
        <ele>24.9</ele>
        <time>2015-10-12T13:02:11Z</time>
      </trkpt>
      <trkpt lat="48.63329" lon="-2.45858">
        <ele>24.9</ele>
        <time>2015-10-12T13:02:13Z</time>
      </trkpt>
      <trkpt lat="48.63328" lon="-2.45844">
        <ele>24.9</ele>
        <time>2015-10-12T13:02:15Z</time>
      </trkpt>
      <trkpt lat="48.63327" lon="-2.4583">
        <ele>24.9</ele>
        <time>2015-10-12T13:02:17Z</time>
      </trkpt>
      <trkpt lat="48.63326" lon="-2.45816">
        <ele>24.9</ele>
        <time>2015-10-12T13:02:19Z</time>
      </trkpt>
      <trkpt lat="48.63325" lon="-2.45802">
        <ele>24.9</ele>
        <time>2015-10-12T13:02:21Z</time>
      </trkpt>
      <trkpt lat="48.63324" lon="-2.45787">
        <ele>24.8</ele>
        <time>2015-10-12T13:02:23Z</time>
      </trkpt>
      <trkpt lat="48.63323" lon="-2.45774">
        <ele>24.8</ele>
        <time>2015-10-12T13:02:25Z</time>
      </trkpt>
      <trkpt lat="48.63322" lon="-2.45754">
        <ele>24.9</ele>
        <time>2015-10-12T13:02:28Z</time>
      </trkpt>
      <trkpt lat="48.63321" lon="-2.45736">
        <ele>25</ele>
        <time>2015-10-12T13:02:31Z</time>
      </trkpt>
      <trkpt lat="48.6332" lon="-2.45718">
        <ele>25.3</ele>
        <time>2015-10-12T13:02:34Z</time>
      </trkpt>
      <trkpt lat="48.63319" lon="-2.457">
        <ele>25.6</ele>
        <time>2015-10-12T13:02:37Z</time>
      </trkpt>
      <trkpt lat="48.63319" lon="-2.45684">
        <ele>26</ele>
        <time>2015-10-12T13:02:40Z</time>
      </trkpt>
      <trkpt lat="48.63319" lon="-2.45667">
        <ele>26.5</ele>
        <time>2015-10-12T13:02:43Z</time>
      </trkpt>
      <trkpt lat="48.63321" lon="-2.4565">
        <ele>27.1</ele>
        <time>2015-10-12T13:02:46Z</time>
      </trkpt>
      <trkpt lat="48.63322" lon="-2.45634">
        <ele>27.6</ele>
        <time>2015-10-12T13:02:49Z</time>
      </trkpt>
      <trkpt lat="48.63323" lon="-2.45618">
        <ele>28.1</ele>
        <time>2015-10-12T13:02:52Z</time>
      </trkpt>
      <trkpt lat="48.63325" lon="-2.45602">
        <ele>28.6</ele>
        <time>2015-10-12T13:02:55Z</time>
      </trkpt>
      <trkpt lat="48.63326" lon="-2.45586">
        <ele>29.2</ele>
        <time>2015-10-12T13:02:58Z</time>
      </trkpt>
      <trkpt lat="48.63328" lon="-2.4557">
        <ele>29.7</ele>
        <time>2015-10-12T13:03:01Z</time>
      </trkpt>
      <trkpt lat="48.6333" lon="-2.45554">
        <ele>30.3</ele>
        <time>2015-10-12T13:03:04Z</time>
      </trkpt>
      <trkpt lat="48.63333" lon="-2.45538">
        <ele>30.9</ele>
        <time>2015-10-12T13:03:07Z</time>
      </trkpt>
      <trkpt lat="48.63336" lon="-2.45522">
        <ele>31.6</ele>
        <time>2015-10-12T13:03:10Z</time>
      </trkpt>
      <trkpt lat="48.63339" lon="-2.45506">
        <ele>32.2</ele>
        <time>2015-10-12T13:03:13Z</time>
      </trkpt>
      <trkpt lat="48.63343" lon="-2.45489">
        <ele>32.7</ele>
        <time>2015-10-12T13:03:16Z</time>
      </trkpt>
      <trkpt lat="48.63347" lon="-2.45471">
        <ele>33.1</ele>
        <time>2015-10-12T13:03:19Z</time>
      </trkpt>
      <trkpt lat="48.63352" lon="-2.45453">
        <ele>33.5</ele>
        <time>2015-10-12T13:03:22Z</time>
      </trkpt>
      <trkpt lat="48.63357" lon="-2.45436">
        <ele>33.8</ele>
        <time>2015-10-12T13:03:25Z</time>
      </trkpt>
      <trkpt lat="48.63362" lon="-2.45418">
        <ele>34.1</ele>
        <time>2015-10-12T13:03:28Z</time>
      </trkpt>
      <trkpt lat="48.63367" lon="-2.45402">
        <ele>34.4</ele>
        <time>2015-10-12T13:03:31Z</time>
      </trkpt>
      <trkpt lat="48.6337" lon="-2.45389">
        <ele>34.6</ele>
        <time>2015-10-12T13:03:34Z</time>
      </trkpt>
      <trkpt lat="48.63375" lon="-2.45377">
        <ele>34.8</ele>
        <time>2015-10-12T13:03:37Z</time>
      </trkpt>
      <trkpt lat="48.63381" lon="-2.45363">
        <ele>34.9</ele>
        <time>2015-10-12T13:03:40Z</time>
      </trkpt>
      <trkpt lat="48.63386" lon="-2.45348">
        <ele>35</ele>
        <time>2015-10-12T13:03:43Z</time>
      </trkpt>
      <trkpt lat="48.63392" lon="-2.45331">
        <ele>35.1</ele>
        <time>2015-10-12T13:03:46Z</time>
      </trkpt>
      <trkpt lat="48.63397" lon="-2.45313">
        <ele>35.3</ele>
        <time>2015-10-12T13:03:49Z</time>
      </trkpt>
      <trkpt lat="48.634" lon="-2.45295">
        <ele>35.5</ele>
        <time>2015-10-12T13:03:52Z</time>
      </trkpt>
      <trkpt lat="48.63402" lon="-2.45276">
        <ele>35.8</ele>
        <time>2015-10-12T13:03:55Z</time>
      </trkpt>
      <trkpt lat="48.63403" lon="-2.45257">
        <ele>36.1</ele>
        <time>2015-10-12T13:03:58Z</time>
      </trkpt>
      <trkpt lat="48.63402" lon="-2.45238">
        <ele>36.4</ele>
        <time>2015-10-12T13:04:01Z</time>
      </trkpt>
      <trkpt lat="48.63402" lon="-2.45219">
        <ele>36.6</ele>
        <time>2015-10-12T13:04:04Z</time>
      </trkpt>
      <trkpt lat="48.63408" lon="-2.45206">
        <ele>36.8</ele>
        <time>2015-10-12T13:04:08Z</time>
      </trkpt>
      <trkpt lat="48.63418" lon="-2.45204">
        <ele>37</ele>
        <time>2015-10-12T13:04:12Z</time>
      </trkpt>
      <trkpt lat="48.63429" lon="-2.45203">
        <ele>37.3</ele>
        <time>2015-10-12T13:04:16Z</time>
      </trkpt>
      <trkpt lat="48.63439" lon="-2.45204">
        <ele>37.7</ele>
        <time>2015-10-12T13:04:20Z</time>
      </trkpt>
      <trkpt lat="48.6345" lon="-2.45204">
        <ele>38.4</ele>
        <time>2015-10-12T13:04:24Z</time>
      </trkpt>
      <trkpt lat="48.6346" lon="-2.45203">
        <ele>39.1</ele>
        <time>2015-10-12T13:04:28Z</time>
      </trkpt>
      <trkpt lat="48.6347" lon="-2.45203">
        <ele>39.9</ele>
        <time>2015-10-12T13:04:32Z</time>
      </trkpt>
      <trkpt lat="48.6348" lon="-2.45203">
        <ele>40.7</ele>
        <time>2015-10-12T13:04:36Z</time>
      </trkpt>
      <trkpt lat="48.6349" lon="-2.45202">
        <ele>41.6</ele>
        <time>2015-10-12T13:04:40Z</time>
      </trkpt>
      <trkpt lat="48.63501" lon="-2.45202">
        <ele>42.4</ele>
        <time>2015-10-12T13:04:44Z</time>
      </trkpt>
      <trkpt lat="48.6351" lon="-2.45201">
        <ele>43.3</ele>
        <time>2015-10-12T13:04:48Z</time>
      </trkpt>
      <trkpt lat="48.6352" lon="-2.45201">
        <ele>44.3</ele>
        <time>2015-10-12T13:04:52Z</time>
      </trkpt>
      <trkpt lat="48.63529" lon="-2.452">
        <ele>45.3</ele>
        <time>2015-10-12T13:04:56Z</time>
      </trkpt>
      <trkpt lat="48.63539" lon="-2.45199">
        <ele>46.4</ele>
        <time>2015-10-12T13:05:00Z</time>
      </trkpt>
      <trkpt lat="48.63548" lon="-2.45199">
        <ele>47.5</ele>
        <time>2015-10-12T13:05:04Z</time>
      </trkpt>
      <trkpt lat="48.63557" lon="-2.45201">
        <ele>48.7</ele>
        <time>2015-10-12T13:05:08Z</time>
      </trkpt>
      <trkpt lat="48.63566" lon="-2.45203">
        <ele>50</ele>
        <time>2015-10-12T13:05:12Z</time>
      </trkpt>
      <trkpt lat="48.63576" lon="-2.45206">
        <ele>51.5</ele>
        <time>2015-10-12T13:05:16Z</time>
      </trkpt>
      <trkpt lat="48.63585" lon="-2.4521">
        <ele>53</ele>
        <time>2015-10-12T13:05:20Z</time>
      </trkpt>
      <trkpt lat="48.63594" lon="-2.45214">
        <ele>54.6</ele>
        <time>2015-10-12T13:05:24Z</time>
      </trkpt>
      <trkpt lat="48.63604" lon="-2.45219">
        <ele>56</ele>
        <time>2015-10-12T13:05:28Z</time>
      </trkpt>
      <trkpt lat="48.63614" lon="-2.45226">
        <ele>57.2</ele>
        <time>2015-10-12T13:05:32Z</time>
      </trkpt>
      <trkpt lat="48.63622" lon="-2.45233">
        <ele>58.1</ele>
        <time>2015-10-12T13:05:35Z</time>
      </trkpt>
      <trkpt lat="48.63632" lon="-2.45239">
        <ele>58.9</ele>
        <time>2015-10-12T13:05:38Z</time>
      </trkpt>
      <trkpt lat="48.63641" lon="-2.45241">
        <ele>59.7</ele>
        <time>2015-10-12T13:05:41Z</time>
      </trkpt>
      <trkpt lat="48.63652" lon="-2.45242">
        <ele>60.8</ele>
        <time>2015-10-12T13:05:45Z</time>
      </trkpt>
      <trkpt lat="48.63661" lon="-2.45242">
        <ele>61.9</ele>
        <time>2015-10-12T13:05:49Z</time>
      </trkpt>
      <trkpt lat="48.63672" lon="-2.45243">
        <ele>62.8</ele>
        <time>2015-10-12T13:05:53Z</time>
      </trkpt>
      <trkpt lat="48.63682" lon="-2.45243">
        <ele>63.5</ele>
        <time>2015-10-12T13:05:56Z</time>
      </trkpt>
      <trkpt lat="48.63692" lon="-2.45244">
        <ele>64.1</ele>
        <time>2015-10-12T13:05:59Z</time>
      </trkpt>
      <trkpt lat="48.63703" lon="-2.45245">
        <ele>64.5</ele>
        <time>2015-10-12T13:06:02Z</time>
      </trkpt>
      <trkpt lat="48.63714" lon="-2.45245">
        <ele>64.9</ele>
        <time>2015-10-12T13:06:05Z</time>
      </trkpt>
      <trkpt lat="48.63725" lon="-2.45246">
        <ele>65.3</ele>
        <time>2015-10-12T13:06:08Z</time>
      </trkpt>
      <trkpt lat="48.63737" lon="-2.45247">
        <ele>65.6</ele>
        <time>2015-10-12T13:06:11Z</time>
      </trkpt>
      <trkpt lat="48.63749" lon="-2.45248">
        <ele>65.9</ele>
        <time>2015-10-12T13:06:14Z</time>
      </trkpt>
      <trkpt lat="48.63761" lon="-2.45249">
        <ele>66.1</ele>
        <time>2015-10-12T13:06:17Z</time>
      </trkpt>
      <trkpt lat="48.63773" lon="-2.45249">
        <ele>66.3</ele>
        <time>2015-10-12T13:06:20Z</time>
      </trkpt>
      <trkpt lat="48.63785" lon="-2.4525">
        <ele>66.4</ele>
        <time>2015-10-12T13:06:23Z</time>
      </trkpt>
      <trkpt lat="48.63796" lon="-2.4525">
        <ele>66.5</ele>
        <time>2015-10-12T13:06:26Z</time>
      </trkpt>
      <trkpt lat="48.63801" lon="-2.45263">
        <ele>66.6</ele>
        <time>2015-10-12T13:06:30Z</time>
      </trkpt>
      <trkpt lat="48.63801" lon="-2.45279">
        <ele>66.7</ele>
        <time>2015-10-12T13:06:33Z</time>
      </trkpt>
      <trkpt lat="48.63801" lon="-2.45297">
        <ele>66.8</ele>
        <time>2015-10-12T13:06:36Z</time>
      </trkpt>
      <trkpt lat="48.63801" lon="-2.45317">
        <ele>66.8</ele>
        <time>2015-10-12T13:06:39Z</time>
      </trkpt>
      <trkpt lat="48.63801" lon="-2.45332">
        <ele>66.9</ele>
        <time>2015-10-12T13:06:41Z</time>
      </trkpt>
      <trkpt lat="48.63801" lon="-2.45347">
        <ele>66.9</ele>
        <time>2015-10-12T13:06:43Z</time>
      </trkpt>
      <trkpt lat="48.638" lon="-2.45362">
        <ele>66.8</ele>
        <time>2015-10-12T13:06:45Z</time>
      </trkpt>
      <trkpt lat="48.638" lon="-2.45379">
        <ele>66.8</ele>
        <time>2015-10-12T13:06:47Z</time>
      </trkpt>
      <trkpt lat="48.638" lon="-2.45395">
        <ele>66.7</ele>
        <time>2015-10-12T13:06:49Z</time>
      </trkpt>
      <trkpt lat="48.63799" lon="-2.45412">
        <ele>66.6</ele>
        <time>2015-10-12T13:06:51Z</time>
      </trkpt>
      <trkpt lat="48.63798" lon="-2.45429">
        <ele>66.6</ele>
        <time>2015-10-12T13:06:53Z</time>
      </trkpt>
      <trkpt lat="48.63798" lon="-2.45445">
        <ele>66.5</ele>
        <time>2015-10-12T13:06:55Z</time>
      </trkpt>
      <trkpt lat="48.63798" lon="-2.45462">
        <ele>66.4</ele>
        <time>2015-10-12T13:06:57Z</time>
      </trkpt>
      <trkpt lat="48.63797" lon="-2.45478">
        <ele>66.3</ele>
        <time>2015-10-12T13:06:59Z</time>
      </trkpt>
      <trkpt lat="48.63797" lon="-2.45494">
        <ele>66.3</ele>
        <time>2015-10-12T13:07:01Z</time>
      </trkpt>
      <trkpt lat="48.63797" lon="-2.45509">
        <ele>66.2</ele>
        <time>2015-10-12T13:07:03Z</time>
      </trkpt>
      <trkpt lat="48.63797" lon="-2.45524">
        <ele>66.1</ele>
        <time>2015-10-12T13:07:05Z</time>
      </trkpt>
      <trkpt lat="48.63796" lon="-2.45538">
        <ele>66.1</ele>
        <time>2015-10-12T13:07:07Z</time>
      </trkpt>
      <trkpt lat="48.63796" lon="-2.45553">
        <ele>66</ele>
        <time>2015-10-12T13:07:09Z</time>
      </trkpt>
      <trkpt lat="48.63801" lon="-2.45571">
        <ele>66</ele>
        <time>2015-10-12T13:07:12Z</time>
      </trkpt>
      <trkpt lat="48.6381" lon="-2.45586">
        <ele>65.9</ele>
        <time>2015-10-12T13:07:15Z</time>
      </trkpt>
      <trkpt lat="48.63816" lon="-2.45598">
        <ele>65.9</ele>
        <time>2015-10-12T13:07:17Z</time>
      </trkpt>
      <trkpt lat="48.6382" lon="-2.45613">
        <ele>65.8</ele>
        <time>2015-10-12T13:07:19Z</time>
      </trkpt>
      <trkpt lat="48.63823" lon="-2.45628">
        <ele>65.8</ele>
        <time>2015-10-12T13:07:21Z</time>
      </trkpt>
      <trkpt lat="48.63826" lon="-2.45644">
        <ele>65.7</ele>
        <time>2015-10-12T13:07:23Z</time>
      </trkpt>
      <trkpt lat="48.6383" lon="-2.45659">
        <ele>65.6</ele>
        <time>2015-10-12T13:07:25Z</time>
      </trkpt>
      <trkpt lat="48.63833" lon="-2.45675">
        <ele>65.6</ele>
        <time>2015-10-12T13:07:27Z</time>
      </trkpt>
      <trkpt lat="48.63836" lon="-2.45691">
        <ele>65.5</ele>
        <time>2015-10-12T13:07:29Z</time>
      </trkpt>
      <trkpt lat="48.63839" lon="-2.45706">
        <ele>65.5</ele>
        <time>2015-10-12T13:07:31Z</time>
      </trkpt>
      <trkpt lat="48.63842" lon="-2.45722">
        <ele>65.4</ele>
        <time>2015-10-12T13:07:33Z</time>
      </trkpt>
      <trkpt lat="48.63845" lon="-2.45739">
        <ele>65.4</ele>
        <time>2015-10-12T13:07:35Z</time>
      </trkpt>
      <trkpt lat="48.63848" lon="-2.45755">
        <ele>65.3</ele>
        <time>2015-10-12T13:07:37Z</time>
      </trkpt>
      <trkpt lat="48.63851" lon="-2.45772">
        <ele>65.3</ele>
        <time>2015-10-12T13:07:39Z</time>
      </trkpt>
      <trkpt lat="48.63855" lon="-2.45788">
        <ele>65.3</ele>
        <time>2015-10-12T13:07:41Z</time>
      </trkpt>
      <trkpt lat="48.63858" lon="-2.45805">
        <ele>65.2</ele>
        <time>2015-10-12T13:07:43Z</time>
      </trkpt>
      <trkpt lat="48.63862" lon="-2.45821">
        <ele>65.2</ele>
        <time>2015-10-12T13:07:45Z</time>
      </trkpt>
      <trkpt lat="48.63865" lon="-2.45838">
        <ele>65.2</ele>
        <time>2015-10-12T13:07:47Z</time>
      </trkpt>
      <trkpt lat="48.63868" lon="-2.45854">
        <ele>65.2</ele>
        <time>2015-10-12T13:07:49Z</time>
      </trkpt>
      <trkpt lat="48.63872" lon="-2.4587">
        <ele>65.2</ele>
        <time>2015-10-12T13:07:51Z</time>
      </trkpt>
      <trkpt lat="48.63875" lon="-2.45886">
        <ele>65.2</ele>
        <time>2015-10-12T13:07:53Z</time>
      </trkpt>
      <trkpt lat="48.63878" lon="-2.45903">
        <ele>65.2</ele>
        <time>2015-10-12T13:07:55Z</time>
      </trkpt>
      <trkpt lat="48.63882" lon="-2.4592">
        <ele>65.2</ele>
        <time>2015-10-12T13:07:57Z</time>
      </trkpt>
      <trkpt lat="48.63885" lon="-2.45936">
        <ele>65.2</ele>
        <time>2015-10-12T13:07:59Z</time>
      </trkpt>
      <trkpt lat="48.63889" lon="-2.45953">
        <ele>65.2</ele>
        <time>2015-10-12T13:08:01Z</time>
      </trkpt>
      <trkpt lat="48.63893" lon="-2.4597">
        <ele>65.2</ele>
        <time>2015-10-12T13:08:03Z</time>
      </trkpt>
      <trkpt lat="48.63896" lon="-2.45988">
        <ele>65.2</ele>
        <time>2015-10-12T13:08:05Z</time>
      </trkpt>
      <trkpt lat="48.639" lon="-2.46005">
        <ele>65.2</ele>
        <time>2015-10-12T13:08:07Z</time>
      </trkpt>
      <trkpt lat="48.63904" lon="-2.46023">
        <ele>65.2</ele>
        <time>2015-10-12T13:08:09Z</time>
      </trkpt>
      <trkpt lat="48.63907" lon="-2.4604">
        <ele>65.2</ele>
        <time>2015-10-12T13:08:11Z</time>
      </trkpt>
      <trkpt lat="48.6391" lon="-2.46057">
        <ele>65.2</ele>
        <time>2015-10-12T13:08:13Z</time>
      </trkpt>
      <trkpt lat="48.63913" lon="-2.46074">
        <ele>65.2</ele>
        <time>2015-10-12T13:08:15Z</time>
      </trkpt>
      <trkpt lat="48.63916" lon="-2.46091">
        <ele>65.2</ele>
        <time>2015-10-12T13:08:17Z</time>
      </trkpt>
      <trkpt lat="48.63919" lon="-2.46109">
        <ele>65.2</ele>
        <time>2015-10-12T13:08:19Z</time>
      </trkpt>
      <trkpt lat="48.63922" lon="-2.46127">
        <ele>65.2</ele>
        <time>2015-10-12T13:08:21Z</time>
      </trkpt>
      <trkpt lat="48.63925" lon="-2.46144">
        <ele>65.1</ele>
        <time>2015-10-12T13:08:23Z</time>
      </trkpt>
      <trkpt lat="48.63928" lon="-2.46162">
        <ele>65.1</ele>
        <time>2015-10-12T13:08:25Z</time>
      </trkpt>
      <trkpt lat="48.63931" lon="-2.46179">
        <ele>65.1</ele>
        <time>2015-10-12T13:08:27Z</time>
      </trkpt>
      <trkpt lat="48.63935" lon="-2.46195">
        <ele>65.1</ele>
        <time>2015-10-12T13:08:29Z</time>
      </trkpt>
      <trkpt lat="48.63938" lon="-2.46211">
        <ele>65.1</ele>
        <time>2015-10-12T13:08:31Z</time>
      </trkpt>
      <trkpt lat="48.63941" lon="-2.46226">
        <ele>65.1</ele>
        <time>2015-10-12T13:08:33Z</time>
      </trkpt>
      <trkpt lat="48.63944" lon="-2.46241">
        <ele>65</ele>
        <time>2015-10-12T13:08:35Z</time>
      </trkpt>
      <trkpt lat="48.63947" lon="-2.46256">
        <ele>65</ele>
        <time>2015-10-12T13:08:37Z</time>
      </trkpt>
      <trkpt lat="48.63949" lon="-2.4627">
        <ele>65</ele>
        <time>2015-10-12T13:08:39Z</time>
      </trkpt>
      <trkpt lat="48.63951" lon="-2.46285">
        <ele>65</ele>
        <time>2015-10-12T13:08:41Z</time>
      </trkpt>
      <trkpt lat="48.63954" lon="-2.46299">
        <ele>65</ele>
        <time>2015-10-12T13:08:43Z</time>
      </trkpt>
      <trkpt lat="48.63957" lon="-2.46316">
        <ele>65</ele>
        <time>2015-10-12T13:08:46Z</time>
      </trkpt>
      <trkpt lat="48.63967" lon="-2.46324">
        <ele>65.1</ele>
        <time>2015-10-12T13:08:50Z</time>
      </trkpt>
      <trkpt lat="48.6398" lon="-2.46326">
        <ele>65</ele>
        <time>2015-10-12T13:08:53Z</time>
      </trkpt>
      <trkpt lat="48.6399" lon="-2.46326">
        <ele>65</ele>
        <time>2015-10-12T13:08:55Z</time>
      </trkpt>
      <trkpt lat="48.64002" lon="-2.46328">
        <ele>64.8</ele>
        <time>2015-10-12T13:08:57Z</time>
      </trkpt>
      <trkpt lat="48.64016" lon="-2.46328">
        <ele>64.5</ele>
        <time>2015-10-12T13:08:59Z</time>
      </trkpt>
      <trkpt lat="48.6403" lon="-2.46329">
        <ele>64.1</ele>
        <time>2015-10-12T13:09:01Z</time>
      </trkpt>
      <trkpt lat="48.64045" lon="-2.4633">
        <ele>63.7</ele>
        <time>2015-10-12T13:09:03Z</time>
      </trkpt>
      <trkpt lat="48.64059" lon="-2.46331">
        <ele>63.3</ele>
        <time>2015-10-12T13:09:05Z</time>
      </trkpt>
      <trkpt lat="48.64072" lon="-2.46332">
        <ele>62.8</ele>
        <time>2015-10-12T13:09:07Z</time>
      </trkpt>
      <trkpt lat="48.64085" lon="-2.46332">
        <ele>62.4</ele>
        <time>2015-10-12T13:09:09Z</time>
      </trkpt>
      <trkpt lat="48.64098" lon="-2.46333">
        <ele>62</ele>
        <time>2015-10-12T13:09:11Z</time>
      </trkpt>
      <trkpt lat="48.6411" lon="-2.46334">
        <ele>61.6</ele>
        <time>2015-10-12T13:09:13Z</time>
      </trkpt>
      <trkpt lat="48.64122" lon="-2.46334">
        <ele>61.2</ele>
        <time>2015-10-12T13:09:15Z</time>
      </trkpt>
      <trkpt lat="48.64134" lon="-2.46335">
        <ele>60.8</ele>
        <time>2015-10-12T13:09:17Z</time>
      </trkpt>
      <trkpt lat="48.64146" lon="-2.46336">
        <ele>60.4</ele>
        <time>2015-10-12T13:09:19Z</time>
      </trkpt>
      <trkpt lat="48.64159" lon="-2.46337">
        <ele>59.9</ele>
        <time>2015-10-12T13:09:21Z</time>
      </trkpt>
      <trkpt lat="48.64172" lon="-2.46338">
        <ele>59.4</ele>
        <time>2015-10-12T13:09:23Z</time>
      </trkpt>
      <trkpt lat="48.64183" lon="-2.46338">
        <ele>58.9</ele>
        <time>2015-10-12T13:09:25Z</time>
      </trkpt>
      <trkpt lat="48.64195" lon="-2.46339">
        <ele>58.4</ele>
        <time>2015-10-12T13:09:27Z</time>
      </trkpt>
      <trkpt lat="48.64208" lon="-2.4634">
        <ele>57.9</ele>
        <time>2015-10-12T13:09:29Z</time>
      </trkpt>
      <trkpt lat="48.64221" lon="-2.4634">
        <ele>57.3</ele>
        <time>2015-10-12T13:09:31Z</time>
      </trkpt>
      <trkpt lat="48.64235" lon="-2.46341">
        <ele>56.6</ele>
        <time>2015-10-12T13:09:33Z</time>
      </trkpt>
      <trkpt lat="48.64249" lon="-2.46342">
        <ele>55.9</ele>
        <time>2015-10-12T13:09:35Z</time>
      </trkpt>
      <trkpt lat="48.64263" lon="-2.46343">
        <ele>55.2</ele>
        <time>2015-10-12T13:09:37Z</time>
      </trkpt>
      <trkpt lat="48.64278" lon="-2.46343">
        <ele>54.5</ele>
        <time>2015-10-12T13:09:39Z</time>
      </trkpt>
      <trkpt lat="48.64292" lon="-2.46344">
        <ele>53.8</ele>
        <time>2015-10-12T13:09:41Z</time>
      </trkpt>
      <trkpt lat="48.64303" lon="-2.46345">
        <ele>53.1</ele>
        <time>2015-10-12T13:09:43Z</time>
      </trkpt>
      <trkpt lat="48.64313" lon="-2.46348">
        <ele>52.4</ele>
        <time>2015-10-12T13:09:45Z</time>
      </trkpt>
      <trkpt lat="48.64319" lon="-2.46366">
        <ele>51.5</ele>
        <time>2015-10-12T13:09:48Z</time>
      </trkpt>
      <trkpt lat="48.64319" lon="-2.4638">
        <ele>51</ele>
        <time>2015-10-12T13:09:50Z</time>
      </trkpt>
      <trkpt lat="48.64318" lon="-2.46395">
        <ele>50.5</ele>
        <time>2015-10-12T13:09:52Z</time>
      </trkpt>
      <trkpt lat="48.64318" lon="-2.46411">
        <ele>50</ele>
        <time>2015-10-12T13:09:54Z</time>
      </trkpt>
      <trkpt lat="48.64318" lon="-2.46427">
        <ele>49.7</ele>
        <time>2015-10-12T13:09:56Z</time>
      </trkpt>
      <trkpt lat="48.64318" lon="-2.46442">
        <ele>49.3</ele>
        <time>2015-10-12T13:09:58Z</time>
      </trkpt>
      <trkpt lat="48.64318" lon="-2.46458">
        <ele>49</ele>
        <time>2015-10-12T13:10:00Z</time>
      </trkpt>
      <trkpt lat="48.64318" lon="-2.46473">
        <ele>48.8</ele>
        <time>2015-10-12T13:10:02Z</time>
      </trkpt>
      <trkpt lat="48.64318" lon="-2.46488">
        <ele>48.6</ele>
        <time>2015-10-12T13:10:04Z</time>
      </trkpt>
      <trkpt lat="48.64319" lon="-2.46503">
        <ele>48.4</ele>
        <time>2015-10-12T13:10:06Z</time>
      </trkpt>
      <trkpt lat="48.64319" lon="-2.46518">
        <ele>48.2</ele>
        <time>2015-10-12T13:10:08Z</time>
      </trkpt>
      <trkpt lat="48.64319" lon="-2.46533">
        <ele>48.2</ele>
        <time>2015-10-12T13:10:10Z</time>
      </trkpt>
      <trkpt lat="48.64319" lon="-2.46548">
        <ele>48.2</ele>
        <time>2015-10-12T13:10:12Z</time>
      </trkpt>
      <trkpt lat="48.6432" lon="-2.46564">
        <ele>48.2</ele>
        <time>2015-10-12T13:10:14Z</time>
      </trkpt>
      <trkpt lat="48.6432" lon="-2.46579">
        <ele>48.1</ele>
        <time>2015-10-12T13:10:16Z</time>
      </trkpt>
      <trkpt lat="48.6432" lon="-2.46595">
        <ele>48.1</ele>
        <time>2015-10-12T13:10:18Z</time>
      </trkpt>
      <trkpt lat="48.6432" lon="-2.4661">
        <ele>48.1</ele>
        <time>2015-10-12T13:10:20Z</time>
      </trkpt>
      <trkpt lat="48.64319" lon="-2.46626">
        <ele>48.1</ele>
        <time>2015-10-12T13:10:22Z</time>
      </trkpt>
      <trkpt lat="48.64319" lon="-2.46642">
        <ele>48.1</ele>
        <time>2015-10-12T13:10:24Z</time>
      </trkpt>
      <trkpt lat="48.64319" lon="-2.46658">
        <ele>48.1</ele>
        <time>2015-10-12T13:10:26Z</time>
      </trkpt>
      <trkpt lat="48.64319" lon="-2.46675">
        <ele>48.1</ele>
        <time>2015-10-12T13:10:28Z</time>
      </trkpt>
      <trkpt lat="48.64319" lon="-2.46691">
        <ele>48.2</ele>
        <time>2015-10-12T13:10:30Z</time>
      </trkpt>
      <trkpt lat="48.64319" lon="-2.46706">
        <ele>48.2</ele>
        <time>2015-10-12T13:10:32Z</time>
      </trkpt>
      <trkpt lat="48.64319" lon="-2.46722">
        <ele>48.3</ele>
        <time>2015-10-12T13:10:34Z</time>
      </trkpt>
      <trkpt lat="48.64318" lon="-2.46737">
        <ele>48.3</ele>
        <time>2015-10-12T13:10:36Z</time>
      </trkpt>
      <trkpt lat="48.64318" lon="-2.46752">
        <ele>48.4</ele>
        <time>2015-10-12T13:10:38Z</time>
      </trkpt>
      <trkpt lat="48.64319" lon="-2.46772">
        <ele>48.5</ele>
        <time>2015-10-12T13:10:41Z</time>
      </trkpt>
      <trkpt lat="48.64318" lon="-2.46787">
        <ele>48.6</ele>
        <time>2015-10-12T13:10:44Z</time>
      </trkpt>
      <trkpt lat="48.64318" lon="-2.46805">
        <ele>48.8</ele>
        <time>2015-10-12T13:10:47Z</time>
      </trkpt>
      <trkpt lat="48.64318" lon="-2.46826">
        <ele>48.9</ele>
        <time>2015-10-12T13:10:50Z</time>
      </trkpt>
      <trkpt lat="48.64318" lon="-2.4684">
        <ele>49</ele>
        <time>2015-10-12T13:10:52Z</time>
      </trkpt>
      <trkpt lat="48.64318" lon="-2.46854">
        <ele>49.1</ele>
        <time>2015-10-12T13:10:54Z</time>
      </trkpt>
      <trkpt lat="48.64319" lon="-2.46869">
        <ele>49.2</ele>
        <time>2015-10-12T13:10:56Z</time>
      </trkpt>
      <trkpt lat="48.64319" lon="-2.46884">
        <ele>49.2</ele>
        <time>2015-10-12T13:10:58Z</time>
      </trkpt>
      <trkpt lat="48.64319" lon="-2.46899">
        <ele>49.3</ele>
        <time>2015-10-12T13:11:00Z</time>
      </trkpt>
      <trkpt lat="48.64319" lon="-2.46913">
        <ele>49.4</ele>
        <time>2015-10-12T13:11:02Z</time>
      </trkpt>
      <trkpt lat="48.64319" lon="-2.46928">
        <ele>49.5</ele>
        <time>2015-10-12T13:11:04Z</time>
      </trkpt>
      <trkpt lat="48.64319" lon="-2.46943">
        <ele>49.6</ele>
        <time>2015-10-12T13:11:06Z</time>
      </trkpt>
      <trkpt lat="48.64319" lon="-2.46958">
        <ele>49.7</ele>
        <time>2015-10-12T13:11:08Z</time>
      </trkpt>
      <trkpt lat="48.64319" lon="-2.46973">
        <ele>49.8</ele>
        <time>2015-10-12T13:11:10Z</time>
      </trkpt>
      <trkpt lat="48.64319" lon="-2.46988">
        <ele>49.9</ele>
        <time>2015-10-12T13:11:12Z</time>
      </trkpt>
      <trkpt lat="48.64319" lon="-2.47002">
        <ele>50.1</ele>
        <time>2015-10-12T13:11:14Z</time>
      </trkpt>
      <trkpt lat="48.64319" lon="-2.47017">
        <ele>50.2</ele>
        <time>2015-10-12T13:11:16Z</time>
      </trkpt>
      <trkpt lat="48.64317" lon="-2.47032">
        <ele>50.3</ele>
        <time>2015-10-12T13:11:18Z</time>
      </trkpt>
      <trkpt lat="48.64313" lon="-2.47044">
        <ele>50.4</ele>
        <time>2015-10-12T13:11:20Z</time>
      </trkpt>
      <trkpt lat="48.64304" lon="-2.47059">
        <ele>50.7</ele>
        <time>2015-10-12T13:11:23Z</time>
      </trkpt>
      <trkpt lat="48.64294" lon="-2.47073">
        <ele>51</ele>
        <time>2015-10-12T13:11:26Z</time>
      </trkpt>
      <trkpt lat="48.64286" lon="-2.47081">
        <ele>51.2</ele>
        <time>2015-10-12T13:11:28Z</time>
      </trkpt>
      <trkpt lat="48.64278" lon="-2.47084">
        <ele>51.4</ele>
        <time>2015-10-12T13:11:30Z</time>
      </trkpt>
      <trkpt lat="48.64265" lon="-2.47086">
        <ele>51.7</ele>
        <time>2015-10-12T13:11:33Z</time>
      </trkpt>
      <trkpt lat="48.64253" lon="-2.47088">
        <ele>52.1</ele>
        <time>2015-10-12T13:11:36Z</time>
      </trkpt>
      <trkpt lat="48.64241" lon="-2.4709">
        <ele>52.5</ele>
        <time>2015-10-12T13:11:39Z</time>
      </trkpt>
      <trkpt lat="48.64231" lon="-2.47091">
        <ele>53</ele>
        <time>2015-10-12T13:11:42Z</time>
      </trkpt>
      <trkpt lat="48.6422" lon="-2.47093">
        <ele>53.5</ele>
        <time>2015-10-12T13:11:46Z</time>
      </trkpt>
      <trkpt lat="48.6421" lon="-2.47094">
        <ele>54.2</ele>
        <time>2015-10-12T13:11:52Z</time>
      </trkpt>
      <trkpt lat="48.64198" lon="-2.47093">
        <ele>54.5</ele>
        <time>2015-10-12T13:11:55Z</time>
      </trkpt>
      <trkpt lat="48.64188" lon="-2.4709">
        <ele>54.8</ele>
        <time>2015-10-12T13:11:58Z</time>
      </trkpt>
      <trkpt lat="48.64179" lon="-2.47094">
        <ele>55.1</ele>
        <time>2015-10-12T13:12:01Z</time>
      </trkpt>
      <trkpt lat="48.64177" lon="-2.47108">
        <ele>55.5</ele>
        <time>2015-10-12T13:12:04Z</time>
      </trkpt>
      <trkpt lat="48.64176" lon="-2.47126">
        <ele>55.8</ele>
        <time>2015-10-12T13:12:07Z</time>
      </trkpt>
      <trkpt lat="48.64175" lon="-2.47145">
        <ele>56.2</ele>
        <time>2015-10-12T13:12:10Z</time>
      </trkpt>
      <trkpt lat="48.64175" lon="-2.4716">
        <ele>56.4</ele>
        <time>2015-10-12T13:12:12Z</time>
      </trkpt>
      <trkpt lat="48.64174" lon="-2.47176">
        <ele>56.6</ele>
        <time>2015-10-12T13:12:14Z</time>
      </trkpt>
      <trkpt lat="48.64173" lon="-2.47191">
        <ele>56.7</ele>
        <time>2015-10-12T13:12:16Z</time>
      </trkpt>
      <trkpt lat="48.64173" lon="-2.47205">
        <ele>56.9</ele>
        <time>2015-10-12T13:12:18Z</time>
      </trkpt>
      <trkpt lat="48.64172" lon="-2.4722">
        <ele>57</ele>
        <time>2015-10-12T13:12:20Z</time>
      </trkpt>
      <trkpt lat="48.64172" lon="-2.47235">
        <ele>57.1</ele>
        <time>2015-10-12T13:12:22Z</time>
      </trkpt>
      <trkpt lat="48.64171" lon="-2.4725">
        <ele>57.2</ele>
        <time>2015-10-12T13:12:24Z</time>
      </trkpt>
      <trkpt lat="48.6417" lon="-2.47264">
        <ele>57.3</ele>
        <time>2015-10-12T13:12:26Z</time>
      </trkpt>
      <trkpt lat="48.6417" lon="-2.47278">
        <ele>57.3</ele>
        <time>2015-10-12T13:12:29Z</time>
      </trkpt>
      <trkpt lat="48.6417" lon="-2.47293">
        <ele>57.4</ele>
        <time>2015-10-12T13:12:35Z</time>
      </trkpt>
      <trkpt lat="48.64169" lon="-2.47313">
        <ele>57.4</ele>
        <time>2015-10-12T13:12:38Z</time>
      </trkpt>
      <trkpt lat="48.64169" lon="-2.47328">
        <ele>57.3</ele>
        <time>2015-10-12T13:12:40Z</time>
      </trkpt>
      <trkpt lat="48.64169" lon="-2.47343">
        <ele>57.3</ele>
        <time>2015-10-12T13:12:42Z</time>
      </trkpt>
      <trkpt lat="48.64169" lon="-2.47358">
        <ele>57.2</ele>
        <time>2015-10-12T13:12:44Z</time>
      </trkpt>
      <trkpt lat="48.64169" lon="-2.47373">
        <ele>57.1</ele>
        <time>2015-10-12T13:12:46Z</time>
      </trkpt>
      <trkpt lat="48.64169" lon="-2.47388">
        <ele>56.9</ele>
        <time>2015-10-12T13:12:48Z</time>
      </trkpt>
      <trkpt lat="48.64168" lon="-2.47403">
        <ele>56.8</ele>
        <time>2015-10-12T13:12:50Z</time>
      </trkpt>
      <trkpt lat="48.64168" lon="-2.47419">
        <ele>56.6</ele>
        <time>2015-10-12T13:12:52Z</time>
      </trkpt>
      <trkpt lat="48.64168" lon="-2.47436">
        <ele>56.4</ele>
        <time>2015-10-12T13:12:54Z</time>
      </trkpt>
      <trkpt lat="48.6417" lon="-2.47455">
        <ele>56.1</ele>
        <time>2015-10-12T13:12:56Z</time>
      </trkpt>
      <trkpt lat="48.64167" lon="-2.47475">
        <ele>55.6</ele>
        <time>2015-10-12T13:12:58Z</time>
      </trkpt>
      <trkpt lat="48.64162" lon="-2.47495">
        <ele>55</ele>
        <time>2015-10-12T13:13:00Z</time>
      </trkpt>
      <trkpt lat="48.64159" lon="-2.47518">
        <ele>54.3</ele>
        <time>2015-10-12T13:13:02Z</time>
      </trkpt>
      <trkpt lat="48.64159" lon="-2.47533">
        <ele>53.9</ele>
        <time>2015-10-12T13:13:03Z</time>
      </trkpt>
      <trkpt lat="48.64159" lon="-2.47549">
        <ele>53.4</ele>
        <time>2015-10-12T13:13:04Z</time>
      </trkpt>
      <trkpt lat="48.6416" lon="-2.47565">
        <ele>53</ele>
        <time>2015-10-12T13:13:05Z</time>
      </trkpt>
      <trkpt lat="48.64159" lon="-2.47581">
        <ele>52.5</ele>
        <time>2015-10-12T13:13:06Z</time>
      </trkpt>
      <trkpt lat="48.6416" lon="-2.47597">
        <ele>52.1</ele>
        <time>2015-10-12T13:13:07Z</time>
      </trkpt>
      <trkpt lat="48.6416" lon="-2.47613">
        <ele>51.8</ele>
        <time>2015-10-12T13:13:08Z</time>
      </trkpt>
      <trkpt lat="48.6416" lon="-2.47627">
        <ele>51.5</ele>
        <time>2015-10-12T13:13:09Z</time>
      </trkpt>
      <trkpt lat="48.64157" lon="-2.47653">
        <ele>51</ele>
        <time>2015-10-12T13:13:11Z</time>
      </trkpt>
      <trkpt lat="48.64154" lon="-2.47675">
        <ele>50.7</ele>
        <time>2015-10-12T13:13:13Z</time>
      </trkpt>
      <trkpt lat="48.64154" lon="-2.47694">
        <ele>50.7</ele>
        <time>2015-10-12T13:13:15Z</time>
      </trkpt>
      <trkpt lat="48.64156" lon="-2.4771">
        <ele>50.9</ele>
        <time>2015-10-12T13:13:17Z</time>
      </trkpt>
      <trkpt lat="48.64159" lon="-2.47724">
        <ele>51.1</ele>
        <time>2015-10-12T13:13:19Z</time>
      </trkpt>
      <trkpt lat="48.64161" lon="-2.47743">
        <ele>51.3</ele>
        <time>2015-10-12T13:13:22Z</time>
      </trkpt>
      <trkpt lat="48.6416" lon="-2.47757">
        <ele>51.4</ele>
        <time>2015-10-12T13:13:24Z</time>
      </trkpt>
      <trkpt lat="48.64158" lon="-2.47772">
        <ele>51.5</ele>
        <time>2015-10-12T13:13:26Z</time>
      </trkpt>
      <trkpt lat="48.64159" lon="-2.47788">
        <ele>51.5</ele>
        <time>2015-10-12T13:13:28Z</time>
      </trkpt>
      <trkpt lat="48.64165" lon="-2.47801">
        <ele>51.6</ele>
        <time>2015-10-12T13:13:30Z</time>
      </trkpt>
      <trkpt lat="48.64172" lon="-2.47816">
        <ele>51.6</ele>
        <time>2015-10-12T13:13:33Z</time>
      </trkpt>
      <trkpt lat="48.64178" lon="-2.47827">
        <ele>51.6</ele>
        <time>2015-10-12T13:13:36Z</time>
      </trkpt>
      <trkpt lat="48.64185" lon="-2.47842">
        <ele>51.6</ele>
        <time>2015-10-12T13:13:40Z</time>
      </trkpt>
      <trkpt lat="48.64188" lon="-2.47857">
        <ele>51.6</ele>
        <time>2015-10-12T13:13:43Z</time>
      </trkpt>
      <trkpt lat="48.64188" lon="-2.47875">
        <ele>51.6</ele>
        <time>2015-10-12T13:13:46Z</time>
      </trkpt>
      <trkpt lat="48.6419" lon="-2.47895">
        <ele>51.5</ele>
        <time>2015-10-12T13:13:49Z</time>
      </trkpt>
      <trkpt lat="48.64191" lon="-2.47915">
        <ele>51.2</ele>
        <time>2015-10-12T13:13:52Z</time>
      </trkpt>
      <trkpt lat="48.64191" lon="-2.4793">
        <ele>51.1</ele>
        <time>2015-10-12T13:13:54Z</time>
      </trkpt>
      <trkpt lat="48.64189" lon="-2.47944">
        <ele>51</ele>
        <time>2015-10-12T13:13:56Z</time>
      </trkpt>
      <trkpt lat="48.64177" lon="-2.47953">
        <ele>50.8</ele>
        <time>2015-10-12T13:13:59Z</time>
      </trkpt>
      <trkpt lat="48.64167" lon="-2.47957">
        <ele>50.7</ele>
        <time>2015-10-12T13:14:02Z</time>
      </trkpt>
      <trkpt lat="48.64156" lon="-2.4796">
        <ele>50.6</ele>
        <time>2015-10-12T13:14:05Z</time>
      </trkpt>
      <trkpt lat="48.64143" lon="-2.47964">
        <ele>50.5</ele>
        <time>2015-10-12T13:14:08Z</time>
      </trkpt>
      <trkpt lat="48.64133" lon="-2.4797">
        <ele>50.5</ele>
        <time>2015-10-12T13:14:10Z</time>
      </trkpt>
      <trkpt lat="48.64122" lon="-2.47976">
        <ele>50.5</ele>
        <time>2015-10-12T13:14:12Z</time>
      </trkpt>
      <trkpt lat="48.6411" lon="-2.47984">
        <ele>50.4</ele>
        <time>2015-10-12T13:14:14Z</time>
      </trkpt>
      <trkpt lat="48.64098" lon="-2.47992">
        <ele>50.4</ele>
        <time>2015-10-12T13:14:16Z</time>
      </trkpt>
      <trkpt lat="48.64088" lon="-2.47999">
        <ele>50.4</ele>
        <time>2015-10-12T13:14:18Z</time>
      </trkpt>
      <trkpt lat="48.64078" lon="-2.48005">
        <ele>50.4</ele>
        <time>2015-10-12T13:14:20Z</time>
      </trkpt>
      <trkpt lat="48.64069" lon="-2.48012">
        <ele>50.6</ele>
        <time>2015-10-12T13:14:22Z</time>
      </trkpt>
      <trkpt lat="48.6406" lon="-2.4802">
        <ele>50.8</ele>
        <time>2015-10-12T13:14:24Z</time>
      </trkpt>
      <trkpt lat="48.6405" lon="-2.48026">
        <ele>51.1</ele>
        <time>2015-10-12T13:14:26Z</time>
      </trkpt>
      <trkpt lat="48.6404" lon="-2.48029">
        <ele>51.4</ele>
        <time>2015-10-12T13:14:28Z</time>
      </trkpt>
      <trkpt lat="48.6403" lon="-2.4803">
        <ele>51.8</ele>
        <time>2015-10-12T13:14:30Z</time>
      </trkpt>
      <trkpt lat="48.6402" lon="-2.4803">
        <ele>52.3</ele>
        <time>2015-10-12T13:14:32Z</time>
      </trkpt>
      <trkpt lat="48.64011" lon="-2.4803">
        <ele>52.9</ele>
        <time>2015-10-12T13:14:34Z</time>
      </trkpt>
      <trkpt lat="48.63998" lon="-2.48029">
        <ele>53.6</ele>
        <time>2015-10-12T13:14:37Z</time>
      </trkpt>
      <trkpt lat="48.63987" lon="-2.4803">
        <ele>54.4</ele>
        <time>2015-10-12T13:14:40Z</time>
      </trkpt>
      <trkpt lat="48.63977" lon="-2.4803">
        <ele>55.1</ele>
        <time>2015-10-12T13:14:43Z</time>
      </trkpt>
      <trkpt lat="48.63968" lon="-2.48033">
        <ele>55.7</ele>
        <time>2015-10-12T13:14:46Z</time>
      </trkpt>
      <trkpt lat="48.63958" lon="-2.48035">
        <ele>56.3</ele>
        <time>2015-10-12T13:14:49Z</time>
      </trkpt>
      <trkpt lat="48.63947" lon="-2.48041">
        <ele>56.7</ele>
        <time>2015-10-12T13:14:52Z</time>
      </trkpt>
      <trkpt lat="48.63941" lon="-2.48054">
        <ele>57.2</ele>
        <time>2015-10-12T13:15:01Z</time>
      </trkpt>
      <trkpt lat="48.63945" lon="-2.48069">
        <ele>57.3</ele>
        <time>2015-10-12T13:15:05Z</time>
      </trkpt>
      <trkpt lat="48.63949" lon="-2.48083">
        <ele>57.4</ele>
        <time>2015-10-12T13:15:08Z</time>
      </trkpt>
      <trkpt lat="48.63954" lon="-2.48097">
        <ele>57.6</ele>
        <time>2015-10-12T13:15:11Z</time>
      </trkpt>
      <trkpt lat="48.6396" lon="-2.48111">
        <ele>58</ele>
        <time>2015-10-12T13:15:14Z</time>
      </trkpt>
      <trkpt lat="48.63967" lon="-2.48124">
        <ele>58.3</ele>
        <time>2015-10-12T13:15:17Z</time>
      </trkpt>
      <trkpt lat="48.63975" lon="-2.48139">
        <ele>58.6</ele>
        <time>2015-10-12T13:15:20Z</time>
      </trkpt>
      <trkpt lat="48.63983" lon="-2.4815">
        <ele>58.8</ele>
        <time>2015-10-12T13:15:22Z</time>
      </trkpt>
      <trkpt lat="48.63993" lon="-2.48161">
        <ele>58.9</ele>
        <time>2015-10-12T13:15:24Z</time>
      </trkpt>
      <trkpt lat="48.64005" lon="-2.48171">
        <ele>58.8</ele>
        <time>2015-10-12T13:15:26Z</time>
      </trkpt>
      <trkpt lat="48.64019" lon="-2.48182">
        <ele>58.7</ele>
        <time>2015-10-12T13:15:28Z</time>
      </trkpt>
      <trkpt lat="48.64032" lon="-2.48191">
        <ele>58.3</ele>
        <time>2015-10-12T13:15:30Z</time>
      </trkpt>
      <trkpt lat="48.64046" lon="-2.48201">
        <ele>58</ele>
        <time>2015-10-12T13:15:32Z</time>
      </trkpt>
      <trkpt lat="48.64058" lon="-2.48209">
        <ele>57.7</ele>
        <time>2015-10-12T13:15:34Z</time>
      </trkpt>
      <trkpt lat="48.64068" lon="-2.48216">
        <ele>57.5</ele>
        <time>2015-10-12T13:15:36Z</time>
      </trkpt>
      <trkpt lat="48.64077" lon="-2.48222">
        <ele>57.3</ele>
        <time>2015-10-12T13:15:38Z</time>
      </trkpt>
      <trkpt lat="48.64089" lon="-2.48231">
        <ele>57.1</ele>
        <time>2015-10-12T13:15:41Z</time>
      </trkpt>
      <trkpt lat="48.64097" lon="-2.48237">
        <ele>56.9</ele>
        <time>2015-10-12T13:15:43Z</time>
      </trkpt>
      <trkpt lat="48.64108" lon="-2.48245">
        <ele>56.8</ele>
        <time>2015-10-12T13:15:45Z</time>
      </trkpt>
      <trkpt lat="48.6412" lon="-2.48253">
        <ele>56.5</ele>
        <time>2015-10-12T13:15:47Z</time>
      </trkpt>
      <trkpt lat="48.64133" lon="-2.48263">
        <ele>56.1</ele>
        <time>2015-10-12T13:15:49Z</time>
      </trkpt>
      <trkpt lat="48.64145" lon="-2.48274">
        <ele>55.7</ele>
        <time>2015-10-12T13:15:51Z</time>
      </trkpt>
      <trkpt lat="48.64155" lon="-2.48286">
        <ele>55.2</ele>
        <time>2015-10-12T13:15:53Z</time>
      </trkpt>
      <trkpt lat="48.64164" lon="-2.48297">
        <ele>54.9</ele>
        <time>2015-10-12T13:15:55Z</time>
      </trkpt>
      <trkpt lat="48.64171" lon="-2.48307">
        <ele>54.5</ele>
        <time>2015-10-12T13:15:57Z</time>
      </trkpt>
      <trkpt lat="48.64181" lon="-2.48319">
        <ele>54</ele>
        <time>2015-10-12T13:16:00Z</time>
      </trkpt>
      <trkpt lat="48.64192" lon="-2.48329">
        <ele>53.7</ele>
        <time>2015-10-12T13:16:03Z</time>
      </trkpt>
      <trkpt lat="48.64204" lon="-2.48336">
        <ele>53.3</ele>
        <time>2015-10-12T13:16:06Z</time>
      </trkpt>
      <trkpt lat="48.64213" lon="-2.48339">
        <ele>52.9</ele>
        <time>2015-10-12T13:16:08Z</time>
      </trkpt>
      <trkpt lat="48.64224" lon="-2.48345">
        <ele>52.3</ele>
        <time>2015-10-12T13:16:11Z</time>
      </trkpt>
      <trkpt lat="48.64232" lon="-2.48354">
        <ele>51.7</ele>
        <time>2015-10-12T13:16:14Z</time>
      </trkpt>
      <trkpt lat="48.64243" lon="-2.48362">
        <ele>51.2</ele>
        <time>2015-10-12T13:16:17Z</time>
      </trkpt>
      <trkpt lat="48.64255" lon="-2.4837">
        <ele>50.8</ele>
        <time>2015-10-12T13:16:20Z</time>
      </trkpt>
      <trkpt lat="48.64266" lon="-2.48376">
        <ele>50.4</ele>
        <time>2015-10-12T13:16:23Z</time>
      </trkpt>
      <trkpt lat="48.64277" lon="-2.48381">
        <ele>50</ele>
        <time>2015-10-12T13:16:26Z</time>
      </trkpt>
      <trkpt lat="48.64289" lon="-2.48383">
        <ele>49.7</ele>
        <time>2015-10-12T13:16:29Z</time>
      </trkpt>
      <trkpt lat="48.643" lon="-2.48389">
        <ele>49.3</ele>
        <time>2015-10-12T13:16:32Z</time>
      </trkpt>
      <trkpt lat="48.64309" lon="-2.484">
        <ele>49</ele>
        <time>2015-10-12T13:16:35Z</time>
      </trkpt>
      <trkpt lat="48.64319" lon="-2.484">
        <ele>48.6</ele>
        <time>2015-10-12T13:16:38Z</time>
      </trkpt>
      <trkpt lat="48.6433" lon="-2.48395">
        <ele>48.3</ele>
        <time>2015-10-12T13:16:41Z</time>
      </trkpt>
      <trkpt lat="48.64339" lon="-2.48394">
        <ele>48.1</ele>
        <time>2015-10-12T13:16:44Z</time>
      </trkpt>
      <trkpt lat="48.64349" lon="-2.48394">
        <ele>47.9</ele>
        <time>2015-10-12T13:16:48Z</time>
      </trkpt>
      <trkpt lat="48.64358" lon="-2.4839">
        <ele>47.9</ele>
        <time>2015-10-12T13:16:52Z</time>
      </trkpt>
      <trkpt lat="48.64369" lon="-2.48388">
        <ele>48.3</ele>
        <time>2015-10-12T13:16:57Z</time>
      </trkpt>
      <trkpt lat="48.64378" lon="-2.48387">
        <ele>50</ele>
        <time>2015-10-12T13:17:11Z</time>
      </trkpt>
      <trkpt lat="48.64388" lon="-2.48388">
        <ele>50.5</ele>
        <time>2015-10-12T13:17:15Z</time>
      </trkpt>
      <trkpt lat="48.64398" lon="-2.48388">
        <ele>51</ele>
        <time>2015-10-12T13:17:20Z</time>
      </trkpt>
      <trkpt lat="48.64408" lon="-2.48388">
        <ele>51.4</ele>
        <time>2015-10-12T13:17:24Z</time>
      </trkpt>
      <trkpt lat="48.64419" lon="-2.48386">
        <ele>51.7</ele>
        <time>2015-10-12T13:17:29Z</time>
      </trkpt>
      <trkpt lat="48.6443" lon="-2.48386">
        <ele>51.9</ele>
        <time>2015-10-12T13:17:33Z</time>
      </trkpt>
      <trkpt lat="48.6444" lon="-2.48384">
        <ele>52.1</ele>
        <time>2015-10-12T13:17:37Z</time>
      </trkpt>
      <trkpt lat="48.6445" lon="-2.48381">
        <ele>52.3</ele>
        <time>2015-10-12T13:17:43Z</time>
      </trkpt>
      <trkpt lat="48.64451" lon="-2.48366">
        <ele>53.6</ele>
        <time>2015-10-12T13:18:10Z</time>
      </trkpt>
      <trkpt lat="48.64447" lon="-2.4835">
        <ele>53.5</ele>
        <time>2015-10-12T13:18:15Z</time>
      </trkpt>
      <trkpt lat="48.64443" lon="-2.48333">
        <ele>53.1</ele>
        <time>2015-10-12T13:18:19Z</time>
      </trkpt>
      <trkpt lat="48.64438" lon="-2.4832">
        <ele>52.4</ele>
        <time>2015-10-12T13:18:22Z</time>
      </trkpt>
      <trkpt lat="48.64429" lon="-2.48305">
        <ele>51.6</ele>
        <time>2015-10-12T13:18:25Z</time>
      </trkpt>
      <trkpt lat="48.64423" lon="-2.48292">
        <ele>51.2</ele>
        <time>2015-10-12T13:18:27Z</time>
      </trkpt>
      <trkpt lat="48.6442" lon="-2.48277">
        <ele>50.8</ele>
        <time>2015-10-12T13:18:29Z</time>
      </trkpt>
      <trkpt lat="48.64418" lon="-2.48261">
        <ele>50.2</ele>
        <time>2015-10-12T13:18:32Z</time>
      </trkpt>
      <trkpt lat="48.64408" lon="-2.48256">
        <ele>49.5</ele>
        <time>2015-10-12T13:18:37Z</time>
      </trkpt>
      <trkpt lat="48.64396" lon="-2.48254">
        <ele>48.9</ele>
        <time>2015-10-12T13:18:42Z</time>
      </trkpt>
      <trkpt lat="48.64386" lon="-2.48254">
        <ele>48.5</ele>
        <time>2015-10-12T13:18:46Z</time>
      </trkpt>
      <trkpt lat="48.64379" lon="-2.48243">
        <ele>48.2</ele>
        <time>2015-10-12T13:18:49Z</time>
      </trkpt>
      <trkpt lat="48.64367" lon="-2.48244">
        <ele>47.6</ele>
        <time>2015-10-12T13:18:52Z</time>
      </trkpt>
      <trkpt lat="48.64357" lon="-2.48241">
        <ele>45.3</ele>
        <time>2015-10-12T13:19:11Z</time>
      </trkpt>
      <trkpt lat="48.64346" lon="-2.48241">
        <ele>45</ele>
        <time>2015-10-12T13:19:15Z</time>
      </trkpt>
      <trkpt lat="48.64338" lon="-2.48247">
        <ele>44.5</ele>
        <time>2015-10-12T13:19:20Z</time>
      </trkpt>
      <trkpt lat="48.64327" lon="-2.4825">
        <ele>44.2</ele>
        <time>2015-10-12T13:19:24Z</time>
      </trkpt>
      <trkpt lat="48.64316" lon="-2.48251">
        <ele>43.9</ele>
        <time>2015-10-12T13:19:28Z</time>
      </trkpt>
      <trkpt lat="48.64309" lon="-2.48259">
        <ele>43.9</ele>
        <time>2015-10-12T13:19:31Z</time>
      </trkpt>
      <trkpt lat="48.64302" lon="-2.48269">
        <ele>44</ele>
        <time>2015-10-12T13:19:34Z</time>
      </trkpt>
      <trkpt lat="48.64294" lon="-2.48279">
        <ele>44.3</ele>
        <time>2015-10-12T13:19:38Z</time>
      </trkpt>
      <trkpt lat="48.64287" lon="-2.48289">
        <ele>44.6</ele>
        <time>2015-10-12T13:19:42Z</time>
      </trkpt>
      <trkpt lat="48.64279" lon="-2.48301">
        <ele>45.1</ele>
        <time>2015-10-12T13:19:46Z</time>
      </trkpt>
      <trkpt lat="48.64272" lon="-2.48311">
        <ele>45.6</ele>
        <time>2015-10-12T13:19:49Z</time>
      </trkpt>
      <trkpt lat="48.64264" lon="-2.48324">
        <ele>46</ele>
        <time>2015-10-12T13:19:52Z</time>
      </trkpt>
      <trkpt lat="48.64253" lon="-2.48335">
        <ele>46.4</ele>
        <time>2015-10-12T13:19:55Z</time>
      </trkpt>
      <trkpt lat="48.64245" lon="-2.48346">
        <ele>46.6</ele>
        <time>2015-10-12T13:19:58Z</time>
      </trkpt>
      <trkpt lat="48.64237" lon="-2.48353">
        <ele>46.8</ele>
        <time>2015-10-12T13:20:01Z</time>
      </trkpt>
      <trkpt lat="48.64228" lon="-2.48349">
        <ele>47.1</ele>
        <time>2015-10-12T13:20:05Z</time>
      </trkpt>
      <trkpt lat="48.6422" lon="-2.48342">
        <ele>47.3</ele>
        <time>2015-10-12T13:20:10Z</time>
      </trkpt>
      <trkpt lat="48.64209" lon="-2.48338">
        <ele>47.6</ele>
        <time>2015-10-12T13:20:14Z</time>
      </trkpt>
      <trkpt lat="48.64198" lon="-2.48333">
        <ele>48</ele>
        <time>2015-10-12T13:20:18Z</time>
      </trkpt>
      <trkpt lat="48.6419" lon="-2.48326">
        <ele>48.3</ele>
        <time>2015-10-12T13:20:21Z</time>
      </trkpt>
      <trkpt lat="48.64182" lon="-2.48318">
        <ele>48.8</ele>
        <time>2015-10-12T13:20:24Z</time>
      </trkpt>
      <trkpt lat="48.64173" lon="-2.48308">
        <ele>49.1</ele>
        <time>2015-10-12T13:20:27Z</time>
      </trkpt>
      <trkpt lat="48.64164" lon="-2.48298">
        <ele>49.4</ele>
        <time>2015-10-12T13:20:30Z</time>
      </trkpt>
      <trkpt lat="48.64156" lon="-2.48287">
        <ele>49.7</ele>
        <time>2015-10-12T13:20:33Z</time>
      </trkpt>
      <trkpt lat="48.64148" lon="-2.48278">
        <ele>49.9</ele>
        <time>2015-10-12T13:20:36Z</time>
      </trkpt>
      <trkpt lat="48.64138" lon="-2.48268">
        <ele>50.1</ele>
        <time>2015-10-12T13:20:40Z</time>
      </trkpt>
      <trkpt lat="48.6413" lon="-2.48261">
        <ele>50.3</ele>
        <time>2015-10-12T13:20:45Z</time>
      </trkpt>
      <trkpt lat="48.64121" lon="-2.48256">
        <ele>50.5</ele>
        <time>2015-10-12T13:20:53Z</time>
      </trkpt>
      <trkpt lat="48.64112" lon="-2.48249">
        <ele>51</ele>
        <time>2015-10-12T13:20:59Z</time>
      </trkpt>
      <trkpt lat="48.64104" lon="-2.48242">
        <ele>51.3</ele>
        <time>2015-10-12T13:21:02Z</time>
      </trkpt>
      <trkpt lat="48.64096" lon="-2.48235">
        <ele>51.7</ele>
        <time>2015-10-12T13:21:05Z</time>
      </trkpt>
      <trkpt lat="48.64087" lon="-2.4823">
        <ele>52.3</ele>
        <time>2015-10-12T13:21:08Z</time>
      </trkpt>
      <trkpt lat="48.64078" lon="-2.48223">
        <ele>52.9</ele>
        <time>2015-10-12T13:21:11Z</time>
      </trkpt>
      <trkpt lat="48.64068" lon="-2.48216">
        <ele>53.4</ele>
        <time>2015-10-12T13:21:14Z</time>
      </trkpt>
      <trkpt lat="48.64056" lon="-2.48209">
        <ele>53.8</ele>
        <time>2015-10-12T13:21:17Z</time>
      </trkpt>
      <trkpt lat="48.64045" lon="-2.48202">
        <ele>54.2</ele>
        <time>2015-10-12T13:21:20Z</time>
      </trkpt>
      <trkpt lat="48.64036" lon="-2.48196">
        <ele>54.4</ele>
        <time>2015-10-12T13:21:22Z</time>
      </trkpt>
      <trkpt lat="48.64027" lon="-2.48191">
        <ele>54.5</ele>
        <time>2015-10-12T13:21:24Z</time>
      </trkpt>
      <trkpt lat="48.64016" lon="-2.48183">
        <ele>54.8</ele>
        <time>2015-10-12T13:21:27Z</time>
      </trkpt>
      <trkpt lat="48.64006" lon="-2.48176">
        <ele>54.9</ele>
        <time>2015-10-12T13:21:30Z</time>
      </trkpt>
      <trkpt lat="48.63997" lon="-2.48169">
        <ele>55.1</ele>
        <time>2015-10-12T13:21:33Z</time>
      </trkpt>
      <trkpt lat="48.63988" lon="-2.48161">
        <ele>55.4</ele>
        <time>2015-10-12T13:21:36Z</time>
      </trkpt>
      <trkpt lat="48.63979" lon="-2.48151">
        <ele>55.9</ele>
        <time>2015-10-12T13:21:40Z</time>
      </trkpt>
      <trkpt lat="48.63971" lon="-2.48139">
        <ele>56.6</ele>
        <time>2015-10-12T13:21:44Z</time>
      </trkpt>
      <trkpt lat="48.63965" lon="-2.48128">
        <ele>57.1</ele>
        <time>2015-10-12T13:21:47Z</time>
      </trkpt>
      <trkpt lat="48.63958" lon="-2.48114">
        <ele>57.8</ele>
        <time>2015-10-12T13:21:51Z</time>
      </trkpt>
      <trkpt lat="48.63951" lon="-2.481">
        <ele>58.3</ele>
        <time>2015-10-12T13:21:54Z</time>
      </trkpt>
      <trkpt lat="48.63947" lon="-2.48087">
        <ele>58.5</ele>
        <time>2015-10-12T13:21:56Z</time>
      </trkpt>
      <trkpt lat="48.63943" lon="-2.48074">
        <ele>58.7</ele>
        <time>2015-10-12T13:21:58Z</time>
      </trkpt>
      <trkpt lat="48.63939" lon="-2.48061">
        <ele>58.8</ele>
        <time>2015-10-12T13:22:00Z</time>
      </trkpt>
      <trkpt lat="48.63935" lon="-2.48046">
        <ele>58.8</ele>
        <time>2015-10-12T13:22:02Z</time>
      </trkpt>
      <trkpt lat="48.63931" lon="-2.48032">
        <ele>58.7</ele>
        <time>2015-10-12T13:22:04Z</time>
      </trkpt>
      <trkpt lat="48.63927" lon="-2.48015">
        <ele>58.5</ele>
        <time>2015-10-12T13:22:07Z</time>
      </trkpt>
      <trkpt lat="48.63923" lon="-2.48">
        <ele>58.3</ele>
        <time>2015-10-12T13:22:10Z</time>
      </trkpt>
      <trkpt lat="48.63919" lon="-2.47984">
        <ele>58.2</ele>
        <time>2015-10-12T13:22:13Z</time>
      </trkpt>
      <trkpt lat="48.63916" lon="-2.47968">
        <ele>58.1</ele>
        <time>2015-10-12T13:22:16Z</time>
      </trkpt>
      <trkpt lat="48.63913" lon="-2.47954">
        <ele>58</ele>
        <time>2015-10-12T13:22:19Z</time>
      </trkpt>
      <trkpt lat="48.63902" lon="-2.4795">
        <ele>57.8</ele>
        <time>2015-10-12T13:22:27Z</time>
      </trkpt>
      <trkpt lat="48.63893" lon="-2.47948">
        <ele>57.8</ele>
        <time>2015-10-12T13:22:30Z</time>
      </trkpt>
      <trkpt lat="48.63881" lon="-2.47947">
        <ele>57.7</ele>
        <time>2015-10-12T13:22:33Z</time>
      </trkpt>
      <trkpt lat="48.6387" lon="-2.47949">
        <ele>57.7</ele>
        <time>2015-10-12T13:22:36Z</time>
      </trkpt>
      <trkpt lat="48.63861" lon="-2.47944">
        <ele>57.7</ele>
        <time>2015-10-12T13:22:39Z</time>
      </trkpt>
      <trkpt lat="48.63856" lon="-2.47932">
        <ele>57.8</ele>
        <time>2015-10-12T13:22:42Z</time>
      </trkpt>
      <trkpt lat="48.63851" lon="-2.47918">
        <ele>58.1</ele>
        <time>2015-10-12T13:22:46Z</time>
      </trkpt>
      <trkpt lat="48.63845" lon="-2.47905">
        <ele>58.4</ele>
        <time>2015-10-12T13:22:50Z</time>
      </trkpt>
      <trkpt lat="48.63839" lon="-2.47894">
        <ele>58.6</ele>
        <time>2015-10-12T13:22:53Z</time>
      </trkpt>
      <trkpt lat="48.6383" lon="-2.47885">
        <ele>59.1</ele>
        <time>2015-10-12T13:22:57Z</time>
      </trkpt>
      <trkpt lat="48.63823" lon="-2.47872">
        <ele>60</ele>
        <time>2015-10-12T13:23:02Z</time>
      </trkpt>
      <trkpt lat="48.63814" lon="-2.47864">
        <ele>60.7</ele>
        <time>2015-10-12T13:23:06Z</time>
      </trkpt>
      <trkpt lat="48.63805" lon="-2.47855">
        <ele>61.5</ele>
        <time>2015-10-12T13:23:11Z</time>
      </trkpt>
      <trkpt lat="48.63796" lon="-2.47846">
        <ele>62.3</ele>
        <time>2015-10-12T13:23:15Z</time>
      </trkpt>
      <trkpt lat="48.63789" lon="-2.47836">
        <ele>63.3</ele>
        <time>2015-10-12T13:23:20Z</time>
      </trkpt>
      <trkpt lat="48.63791" lon="-2.47819">
        <ele>64.1</ele>
        <time>2015-10-12T13:23:25Z</time>
      </trkpt>
      <trkpt lat="48.63793" lon="-2.47801">
        <ele>64.1</ele>
        <time>2015-10-12T13:23:28Z</time>
      </trkpt>
      <trkpt lat="48.638" lon="-2.47791">
        <ele>63.9</ele>
        <time>2015-10-12T13:23:30Z</time>
      </trkpt>
      <trkpt lat="48.63807" lon="-2.47782">
        <ele>63.8</ele>
        <time>2015-10-12T13:23:32Z</time>
      </trkpt>
      <trkpt lat="48.63805" lon="-2.47768">
        <ele>63.3</ele>
        <time>2015-10-12T13:23:38Z</time>
      </trkpt>
      <trkpt lat="48.63815" lon="-2.47767">
        <ele>61.7</ele>
        <time>2015-10-12T13:24:09Z</time>
      </trkpt>
      <trkpt lat="48.63824" lon="-2.4776">
        <ele>61.7</ele>
        <time>2015-10-12T13:24:12Z</time>
      </trkpt>
      <trkpt lat="48.63831" lon="-2.47746">
        <ele>61.6</ele>
        <time>2015-10-12T13:24:15Z</time>
      </trkpt>
      <trkpt lat="48.6384" lon="-2.47737">
        <ele>61.5</ele>
        <time>2015-10-12T13:24:18Z</time>
      </trkpt>
      <trkpt lat="48.6385" lon="-2.47736">
        <ele>61.3</ele>
        <time>2015-10-12T13:24:23Z</time>
      </trkpt>
      <trkpt lat="48.63852" lon="-2.47719">
        <ele>60.9</ele>
        <time>2015-10-12T13:24:28Z</time>
      </trkpt>
      <trkpt lat="48.63848" lon="-2.47702">
        <ele>60.6</ele>
        <time>2015-10-12T13:24:32Z</time>
      </trkpt>
      <trkpt lat="48.63844" lon="-2.47686">
        <ele>60.5</ele>
        <time>2015-10-12T13:24:35Z</time>
      </trkpt>
      <trkpt lat="48.6384" lon="-2.4767">
        <ele>60.4</ele>
        <time>2015-10-12T13:24:38Z</time>
      </trkpt>
      <trkpt lat="48.63836" lon="-2.47652">
        <ele>60.3</ele>
        <time>2015-10-12T13:24:41Z</time>
      </trkpt>
      <trkpt lat="48.63832" lon="-2.47639">
        <ele>60.2</ele>
        <time>2015-10-12T13:24:43Z</time>
      </trkpt>
      <trkpt lat="48.63829" lon="-2.47625">
        <ele>60.2</ele>
        <time>2015-10-12T13:24:45Z</time>
      </trkpt>
      <trkpt lat="48.63825" lon="-2.4761">
        <ele>60.1</ele>
        <time>2015-10-12T13:24:47Z</time>
      </trkpt>
      <trkpt lat="48.63822" lon="-2.47595">
        <ele>60.1</ele>
        <time>2015-10-12T13:24:49Z</time>
      </trkpt>
      <trkpt lat="48.63818" lon="-2.4758">
        <ele>60</ele>
        <time>2015-10-12T13:24:51Z</time>
      </trkpt>
      <trkpt lat="48.63814" lon="-2.47566">
        <ele>60</ele>
        <time>2015-10-12T13:24:53Z</time>
      </trkpt>
      <trkpt lat="48.6381" lon="-2.47552">
        <ele>60</ele>
        <time>2015-10-12T13:24:55Z</time>
      </trkpt>
      <trkpt lat="48.63807" lon="-2.47539">
        <ele>60</ele>
        <time>2015-10-12T13:24:57Z</time>
      </trkpt>
      <trkpt lat="48.63803" lon="-2.47526">
        <ele>60</ele>
        <time>2015-10-12T13:24:59Z</time>
      </trkpt>
      <trkpt lat="48.638" lon="-2.47511">
        <ele>59.9</ele>
        <time>2015-10-12T13:25:01Z</time>
      </trkpt>
      <trkpt lat="48.63796" lon="-2.47495">
        <ele>59.9</ele>
        <time>2015-10-12T13:25:03Z</time>
      </trkpt>
      <trkpt lat="48.63793" lon="-2.4748">
        <ele>59.9</ele>
        <time>2015-10-12T13:25:05Z</time>
      </trkpt>
      <trkpt lat="48.63789" lon="-2.47465">
        <ele>59.9</ele>
        <time>2015-10-12T13:25:07Z</time>
      </trkpt>
      <trkpt lat="48.63788" lon="-2.47449">
        <ele>59.9</ele>
        <time>2015-10-12T13:25:10Z</time>
      </trkpt>
      <trkpt lat="48.63798" lon="-2.47449">
        <ele>59.9</ele>
        <time>2015-10-12T13:25:15Z</time>
      </trkpt>
      <trkpt lat="48.63808" lon="-2.47459">
        <ele>59.8</ele>
        <time>2015-10-12T13:25:18Z</time>
      </trkpt>
      <trkpt lat="48.63818" lon="-2.47469">
        <ele>59.8</ele>
        <time>2015-10-12T13:25:21Z</time>
      </trkpt>
      <trkpt lat="48.63829" lon="-2.47473">
        <ele>59.8</ele>
        <time>2015-10-12T13:25:24Z</time>
      </trkpt>
      <trkpt lat="48.63841" lon="-2.47467">
        <ele>59.8</ele>
        <time>2015-10-12T13:25:27Z</time>
      </trkpt>
      <trkpt lat="48.63852" lon="-2.4746">
        <ele>59.8</ele>
        <time>2015-10-12T13:25:30Z</time>
      </trkpt>
      <trkpt lat="48.63863" lon="-2.47453">
        <ele>59.8</ele>
        <time>2015-10-12T13:25:33Z</time>
      </trkpt>
      <trkpt lat="48.63875" lon="-2.47447">
        <ele>59.8</ele>
        <time>2015-10-12T13:25:36Z</time>
      </trkpt>
      <trkpt lat="48.63887" lon="-2.47444">
        <ele>59.9</ele>
        <time>2015-10-12T13:25:39Z</time>
      </trkpt>
      <trkpt lat="48.63896" lon="-2.47442">
        <ele>60</ele>
        <time>2015-10-12T13:25:41Z</time>
      </trkpt>
      <trkpt lat="48.63905" lon="-2.4744">
        <ele>60.1</ele>
        <time>2015-10-12T13:25:43Z</time>
      </trkpt>
      <trkpt lat="48.63915" lon="-2.47438">
        <ele>60.1</ele>
        <time>2015-10-12T13:25:45Z</time>
      </trkpt>
      <trkpt lat="48.63925" lon="-2.47435">
        <ele>60.2</ele>
        <time>2015-10-12T13:25:47Z</time>
      </trkpt>
      <trkpt lat="48.63934" lon="-2.47434">
        <ele>60.2</ele>
        <time>2015-10-12T13:25:49Z</time>
      </trkpt>
      <trkpt lat="48.63944" lon="-2.47434">
        <ele>60.2</ele>
        <time>2015-10-12T13:25:51Z</time>
      </trkpt>
      <trkpt lat="48.63954" lon="-2.47431">
        <ele>60.1</ele>
        <time>2015-10-12T13:25:53Z</time>
      </trkpt>
      <trkpt lat="48.63965" lon="-2.47428">
        <ele>59.9</ele>
        <time>2015-10-12T13:25:55Z</time>
      </trkpt>
      <trkpt lat="48.63976" lon="-2.47424">
        <ele>59.8</ele>
        <time>2015-10-12T13:25:57Z</time>
      </trkpt>
      <trkpt lat="48.63988" lon="-2.4742">
        <ele>59.7</ele>
        <time>2015-10-12T13:25:59Z</time>
      </trkpt>
      <trkpt lat="48.64" lon="-2.47418">
        <ele>59.5</ele>
        <time>2015-10-12T13:26:01Z</time>
      </trkpt>
      <trkpt lat="48.64012" lon="-2.47416">
        <ele>59.3</ele>
        <time>2015-10-12T13:26:03Z</time>
      </trkpt>
      <trkpt lat="48.64023" lon="-2.47414">
        <ele>59</ele>
        <time>2015-10-12T13:26:05Z</time>
      </trkpt>
      <trkpt lat="48.64035" lon="-2.47411">
        <ele>58.7</ele>
        <time>2015-10-12T13:26:07Z</time>
      </trkpt>
      <trkpt lat="48.64047" lon="-2.47408">
        <ele>58.4</ele>
        <time>2015-10-12T13:26:09Z</time>
      </trkpt>
      <trkpt lat="48.64062" lon="-2.47404">
        <ele>58</ele>
        <time>2015-10-12T13:26:11Z</time>
      </trkpt>
      <trkpt lat="48.64079" lon="-2.47401">
        <ele>57.5</ele>
        <time>2015-10-12T13:26:13Z</time>
      </trkpt>
      <trkpt lat="48.64095" lon="-2.47396">
        <ele>57.1</ele>
        <time>2015-10-12T13:26:15Z</time>
      </trkpt>
      <trkpt lat="48.64111" lon="-2.47391">
        <ele>56.7</ele>
        <time>2015-10-12T13:26:17Z</time>
      </trkpt>
      <trkpt lat="48.64125" lon="-2.47388">
        <ele>56.4</ele>
        <time>2015-10-12T13:26:19Z</time>
      </trkpt>
      <trkpt lat="48.64137" lon="-2.47386">
        <ele>56.1</ele>
        <time>2015-10-12T13:26:21Z</time>
      </trkpt>
      <trkpt lat="48.64147" lon="-2.47384">
        <ele>55.9</ele>
        <time>2015-10-12T13:26:23Z</time>
      </trkpt>
      <trkpt lat="48.64159" lon="-2.47384">
        <ele>55.6</ele>
        <time>2015-10-12T13:26:26Z</time>
      </trkpt>
      <trkpt lat="48.64167" lon="-2.47377">
        <ele>55.3</ele>
        <time>2015-10-12T13:26:31Z</time>
      </trkpt>
      <trkpt lat="48.64168" lon="-2.47363">
        <ele>55.2</ele>
        <time>2015-10-12T13:26:34Z</time>
      </trkpt>
      <trkpt lat="48.64168" lon="-2.47346">
        <ele>55.2</ele>
        <time>2015-10-12T13:26:37Z</time>
      </trkpt>
      <trkpt lat="48.64168" lon="-2.47327">
        <ele>55.2</ele>
        <time>2015-10-12T13:26:40Z</time>
      </trkpt>
      <trkpt lat="48.64168" lon="-2.4731">
        <ele>55.4</ele>
        <time>2015-10-12T13:26:43Z</time>
      </trkpt>
      <trkpt lat="48.64169" lon="-2.47295">
        <ele>55.6</ele>
        <time>2015-10-12T13:26:46Z</time>
      </trkpt>
      <trkpt lat="48.64168" lon="-2.47278">
        <ele>55.9</ele>
        <time>2015-10-12T13:26:53Z</time>
      </trkpt>
      <trkpt lat="48.6417" lon="-2.47256">
        <ele>56.1</ele>
        <time>2015-10-12T13:26:56Z</time>
      </trkpt>
      <trkpt lat="48.64171" lon="-2.47238">
        <ele>56.2</ele>
        <time>2015-10-12T13:26:58Z</time>
      </trkpt>
      <trkpt lat="48.64172" lon="-2.47222">
        <ele>56.3</ele>
        <time>2015-10-12T13:27:00Z</time>
      </trkpt>
      <trkpt lat="48.64172" lon="-2.47206">
        <ele>56.4</ele>
        <time>2015-10-12T13:27:02Z</time>
      </trkpt>
      <trkpt lat="48.64172" lon="-2.47191">
        <ele>56.5</ele>
        <time>2015-10-12T13:27:04Z</time>
      </trkpt>
      <trkpt lat="48.64173" lon="-2.47177">
        <ele>56.7</ele>
        <time>2015-10-12T13:27:06Z</time>
      </trkpt>
      <trkpt lat="48.64173" lon="-2.47163">
        <ele>56.8</ele>
        <time>2015-10-12T13:27:08Z</time>
      </trkpt>
      <trkpt lat="48.64173" lon="-2.47148">
        <ele>56.9</ele>
        <time>2015-10-12T13:27:10Z</time>
      </trkpt>
      <trkpt lat="48.64173" lon="-2.47134">
        <ele>57</ele>
        <time>2015-10-12T13:27:12Z</time>
      </trkpt>
      <trkpt lat="48.64173" lon="-2.4712">
        <ele>57.1</ele>
        <time>2015-10-12T13:27:14Z</time>
      </trkpt>
      <trkpt lat="48.64173" lon="-2.47102">
        <ele>57.2</ele>
        <time>2015-10-12T13:27:17Z</time>
      </trkpt>
      <trkpt lat="48.64182" lon="-2.47093">
        <ele>57.3</ele>
        <time>2015-10-12T13:27:22Z</time>
      </trkpt>
      <trkpt lat="48.64191" lon="-2.47094">
        <ele>57.3</ele>
        <time>2015-10-12T13:27:25Z</time>
      </trkpt>
      <trkpt lat="48.64201" lon="-2.47093">
        <ele>57.4</ele>
        <time>2015-10-12T13:27:29Z</time>
      </trkpt>
      <trkpt lat="48.64212" lon="-2.47092">
        <ele>57.4</ele>
        <time>2015-10-12T13:27:34Z</time>
      </trkpt>
      <trkpt lat="48.64222" lon="-2.47089">
        <ele>57.3</ele>
        <time>2015-10-12T13:27:40Z</time>
      </trkpt>
      <trkpt lat="48.64232" lon="-2.47087">
        <ele>57.2</ele>
        <time>2015-10-12T13:27:44Z</time>
      </trkpt>
      <trkpt lat="48.64243" lon="-2.47085">
        <ele>57</ele>
        <time>2015-10-12T13:27:47Z</time>
      </trkpt>
      <trkpt lat="48.64253" lon="-2.47085">
        <ele>56.8</ele>
        <time>2015-10-12T13:27:50Z</time>
      </trkpt>
      <trkpt lat="48.64266" lon="-2.47084">
        <ele>56.5</ele>
        <time>2015-10-12T13:27:53Z</time>
      </trkpt>
      <trkpt lat="48.64277" lon="-2.47082">
        <ele>56.1</ele>
        <time>2015-10-12T13:27:56Z</time>
      </trkpt>
      <trkpt lat="48.64287" lon="-2.47075">
        <ele>55.8</ele>
        <time>2015-10-12T13:27:59Z</time>
      </trkpt>
      <trkpt lat="48.64294" lon="-2.47064">
        <ele>55.6</ele>
        <time>2015-10-12T13:28:01Z</time>
      </trkpt>
      <trkpt lat="48.64302" lon="-2.47054">
        <ele>55.5</ele>
        <time>2015-10-12T13:28:03Z</time>
      </trkpt>
      <trkpt lat="48.6431" lon="-2.47041">
        <ele>55.2</ele>
        <time>2015-10-12T13:28:05Z</time>
      </trkpt>
      <trkpt lat="48.64315" lon="-2.47025">
        <ele>54.9</ele>
        <time>2015-10-12T13:28:07Z</time>
      </trkpt>
      <trkpt lat="48.64316" lon="-2.47007">
        <ele>54.7</ele>
        <time>2015-10-12T13:28:09Z</time>
      </trkpt>
      <trkpt lat="48.64316" lon="-2.4699">
        <ele>54.4</ele>
        <time>2015-10-12T13:28:11Z</time>
      </trkpt>
      <trkpt lat="48.64316" lon="-2.46972">
        <ele>54.2</ele>
        <time>2015-10-12T13:28:13Z</time>
      </trkpt>
      <trkpt lat="48.64317" lon="-2.46955">
        <ele>54</ele>
        <time>2015-10-12T13:28:15Z</time>
      </trkpt>
      <trkpt lat="48.64317" lon="-2.46939">
        <ele>53.8</ele>
        <time>2015-10-12T13:28:17Z</time>
      </trkpt>
      <trkpt lat="48.64317" lon="-2.46923">
        <ele>53.7</ele>
        <time>2015-10-12T13:28:19Z</time>
      </trkpt>
      <trkpt lat="48.64317" lon="-2.46905">
        <ele>53.5</ele>
        <time>2015-10-12T13:28:21Z</time>
      </trkpt>
      <trkpt lat="48.64318" lon="-2.46887">
        <ele>53.3</ele>
        <time>2015-10-12T13:28:23Z</time>
      </trkpt>
      <trkpt lat="48.64318" lon="-2.46868">
        <ele>53</ele>
        <time>2015-10-12T13:28:25Z</time>
      </trkpt>
      <trkpt lat="48.64318" lon="-2.4685">
        <ele>52.8</ele>
        <time>2015-10-12T13:28:27Z</time>
      </trkpt>
      <trkpt lat="48.64318" lon="-2.46831">
        <ele>52.6</ele>
        <time>2015-10-12T13:28:29Z</time>
      </trkpt>
      <trkpt lat="48.64318" lon="-2.46814">
        <ele>52.4</ele>
        <time>2015-10-12T13:28:31Z</time>
      </trkpt>
      <trkpt lat="48.64319" lon="-2.46798">
        <ele>52.3</ele>
        <time>2015-10-12T13:28:33Z</time>
      </trkpt>
      <trkpt lat="48.64323" lon="-2.46784">
        <ele>52.1</ele>
        <time>2015-10-12T13:28:35Z</time>
      </trkpt>
      <trkpt lat="48.64328" lon="-2.46769">
        <ele>52</ele>
        <time>2015-10-12T13:28:37Z</time>
      </trkpt>
      <trkpt lat="48.64334" lon="-2.46758">
        <ele>51.8</ele>
        <time>2015-10-12T13:28:39Z</time>
      </trkpt>
      <trkpt lat="48.64345" lon="-2.46757">
        <ele>51.6</ele>
        <time>2015-10-12T13:28:41Z</time>
      </trkpt>
      <trkpt lat="48.64358" lon="-2.46757">
        <ele>51.4</ele>
        <time>2015-10-12T13:28:43Z</time>
      </trkpt>
      <trkpt lat="48.64372" lon="-2.46758">
        <ele>51.2</ele>
        <time>2015-10-12T13:28:45Z</time>
      </trkpt>
      <trkpt lat="48.64387" lon="-2.46758">
        <ele>51</ele>
        <time>2015-10-12T13:28:47Z</time>
      </trkpt>
      <trkpt lat="48.64403" lon="-2.46759">
        <ele>50.7</ele>
        <time>2015-10-12T13:28:49Z</time>
      </trkpt>
      <trkpt lat="48.64421" lon="-2.46759">
        <ele>50.4</ele>
        <time>2015-10-12T13:28:51Z</time>
      </trkpt>
      <trkpt lat="48.64439" lon="-2.4676">
        <ele>50</ele>
        <time>2015-10-12T13:28:53Z</time>
      </trkpt>
      <trkpt lat="48.64456" lon="-2.46761">
        <ele>49.6</ele>
        <time>2015-10-12T13:28:55Z</time>
      </trkpt>
      <trkpt lat="48.64472" lon="-2.46763">
        <ele>49.2</ele>
        <time>2015-10-12T13:28:57Z</time>
      </trkpt>
      <trkpt lat="48.64481" lon="-2.46753">
        <ele>48.8</ele>
        <time>2015-10-12T13:28:59Z</time>
      </trkpt>
      <trkpt lat="48.6448" lon="-2.46739">
        <ele>48.4</ele>
        <time>2015-10-12T13:29:01Z</time>
      </trkpt>
      <trkpt lat="48.64477" lon="-2.46722">
        <ele>48</ele>
        <time>2015-10-12T13:29:03Z</time>
      </trkpt>
      <trkpt lat="48.64474" lon="-2.46703">
        <ele>47.7</ele>
        <time>2015-10-12T13:29:05Z</time>
      </trkpt>
      <trkpt lat="48.64471" lon="-2.46682">
        <ele>47.4</ele>
        <time>2015-10-12T13:29:07Z</time>
      </trkpt>
      <trkpt lat="48.64467" lon="-2.46661">
        <ele>47.1</ele>
        <time>2015-10-12T13:29:09Z</time>
      </trkpt>
      <trkpt lat="48.64464" lon="-2.4664">
        <ele>46.9</ele>
        <time>2015-10-12T13:29:11Z</time>
      </trkpt>
      <trkpt lat="48.64461" lon="-2.46619">
        <ele>46.7</ele>
        <time>2015-10-12T13:29:13Z</time>
      </trkpt>
      <trkpt lat="48.64457" lon="-2.46597">
        <ele>46.5</ele>
        <time>2015-10-12T13:29:15Z</time>
      </trkpt>
      <trkpt lat="48.64454" lon="-2.46575">
        <ele>46.3</ele>
        <time>2015-10-12T13:29:17Z</time>
      </trkpt>
      <trkpt lat="48.6445" lon="-2.46553">
        <ele>46.1</ele>
        <time>2015-10-12T13:29:19Z</time>
      </trkpt>
      <trkpt lat="48.64447" lon="-2.4653">
        <ele>45.9</ele>
        <time>2015-10-12T13:29:21Z</time>
      </trkpt>
      <trkpt lat="48.64443" lon="-2.46507">
        <ele>45.8</ele>
        <time>2015-10-12T13:29:23Z</time>
      </trkpt>
      <trkpt lat="48.6444" lon="-2.46484">
        <ele>45.6</ele>
        <time>2015-10-12T13:29:25Z</time>
      </trkpt>
      <trkpt lat="48.64436" lon="-2.46462">
        <ele>45.4</ele>
        <time>2015-10-12T13:29:27Z</time>
      </trkpt>
      <trkpt lat="48.64433" lon="-2.46439">
        <ele>45.3</ele>
        <time>2015-10-12T13:29:29Z</time>
      </trkpt>
      <trkpt lat="48.64429" lon="-2.46417">
        <ele>45.1</ele>
        <time>2015-10-12T13:29:31Z</time>
      </trkpt>
      <trkpt lat="48.64426" lon="-2.46395">
        <ele>45</ele>
        <time>2015-10-12T13:29:33Z</time>
      </trkpt>
      <trkpt lat="48.64423" lon="-2.46375">
        <ele>44.9</ele>
        <time>2015-10-12T13:29:35Z</time>
      </trkpt>
      <trkpt lat="48.64419" lon="-2.46359">
        <ele>44.8</ele>
        <time>2015-10-12T13:29:37Z</time>
      </trkpt>
      <trkpt lat="48.64411" lon="-2.46349">
        <ele>44.6</ele>
        <time>2015-10-12T13:29:42Z</time>
      </trkpt>
      <trkpt lat="48.64401" lon="-2.46349">
        <ele>44.6</ele>
        <time>2015-10-12T13:29:45Z</time>
      </trkpt>
      <trkpt lat="48.6439" lon="-2.46348">
        <ele>44.5</ele>
        <time>2015-10-12T13:29:48Z</time>
      </trkpt>
      <trkpt lat="48.6438" lon="-2.46348">
        <ele>44.4</ele>
        <time>2015-10-12T13:29:50Z</time>
      </trkpt>
      <trkpt lat="48.64371" lon="-2.46347">
        <ele>44.4</ele>
        <time>2015-10-12T13:29:52Z</time>
      </trkpt>
      <trkpt lat="48.64362" lon="-2.46344">
        <ele>44.4</ele>
        <time>2015-10-12T13:29:54Z</time>
      </trkpt>
      <trkpt lat="48.64351" lon="-2.46343">
        <ele>44.4</ele>
        <time>2015-10-12T13:29:56Z</time>
      </trkpt>
      <trkpt lat="48.64342" lon="-2.46343">
        <ele>44.4</ele>
        <time>2015-10-12T13:29:58Z</time>
      </trkpt>
      <trkpt lat="48.64329" lon="-2.4634">
        <ele>44.4</ele>
        <time>2015-10-12T13:30:01Z</time>
      </trkpt>
      <trkpt lat="48.64323" lon="-2.46327">
        <ele>44.6</ele>
        <time>2015-10-12T13:30:04Z</time>
      </trkpt>
      <trkpt lat="48.64323" lon="-2.46312">
        <ele>44.7</ele>
        <time>2015-10-12T13:30:06Z</time>
      </trkpt>
      <trkpt lat="48.64325" lon="-2.46296">
        <ele>44.7</ele>
        <time>2015-10-12T13:30:08Z</time>
      </trkpt>
      <trkpt lat="48.64327" lon="-2.46277">
        <ele>44.8</ele>
        <time>2015-10-12T13:30:10Z</time>
      </trkpt>
      <trkpt lat="48.64328" lon="-2.46258">
        <ele>44.9</ele>
        <time>2015-10-12T13:30:12Z</time>
      </trkpt>
      <trkpt lat="48.64329" lon="-2.46238">
        <ele>44.8</ele>
        <time>2015-10-12T13:30:14Z</time>
      </trkpt>
      <trkpt lat="48.64331" lon="-2.46218">
        <ele>44.8</ele>
        <time>2015-10-12T13:30:16Z</time>
      </trkpt>
      <trkpt lat="48.64332" lon="-2.46197">
        <ele>44.7</ele>
        <time>2015-10-12T13:30:18Z</time>
      </trkpt>
      <trkpt lat="48.64334" lon="-2.46175">
        <ele>44.5</ele>
        <time>2015-10-12T13:30:20Z</time>
      </trkpt>
      <trkpt lat="48.64335" lon="-2.46153">
        <ele>44.2</ele>
        <time>2015-10-12T13:30:22Z</time>
      </trkpt>
      <trkpt lat="48.64337" lon="-2.4613">
        <ele>43.8</ele>
        <time>2015-10-12T13:30:24Z</time>
      </trkpt>
      <trkpt lat="48.64339" lon="-2.46107">
        <ele>43.4</ele>
        <time>2015-10-12T13:30:26Z</time>
      </trkpt>
      <trkpt lat="48.64341" lon="-2.46083">
        <ele>42.9</ele>
        <time>2015-10-12T13:30:28Z</time>
      </trkpt>
      <trkpt lat="48.64343" lon="-2.46059">
        <ele>42.4</ele>
        <time>2015-10-12T13:30:30Z</time>
      </trkpt>
      <trkpt lat="48.64346" lon="-2.46035">
        <ele>41.8</ele>
        <time>2015-10-12T13:30:32Z</time>
      </trkpt>
      <trkpt lat="48.64347" lon="-2.46012">
        <ele>41.2</ele>
        <time>2015-10-12T13:30:34Z</time>
      </trkpt>
      <trkpt lat="48.64347" lon="-2.45996">
        <ele>40.6</ele>
        <time>2015-10-12T13:30:36Z</time>
      </trkpt>
      <trkpt lat="48.64335" lon="-2.45988">
        <ele>39.7</ele>
        <time>2015-10-12T13:30:39Z</time>
      </trkpt>
      <trkpt lat="48.64322" lon="-2.45987">
        <ele>39.1</ele>
        <time>2015-10-12T13:30:42Z</time>
      </trkpt>
      <trkpt lat="48.64311" lon="-2.45985">
        <ele>38.8</ele>
        <time>2015-10-12T13:30:45Z</time>
      </trkpt>
      <trkpt lat="48.64299" lon="-2.45984">
        <ele>38.7</ele>
        <time>2015-10-12T13:30:48Z</time>
      </trkpt>
      <trkpt lat="48.64291" lon="-2.45973">
        <ele>38.7</ele>
        <time>2015-10-12T13:30:52Z</time>
      </trkpt>
      <trkpt lat="48.64291" lon="-2.45958">
        <ele>38.8</ele>
        <time>2015-10-12T13:30:55Z</time>
      </trkpt>
      <trkpt lat="48.64295" lon="-2.4594">
        <ele>38.9</ele>
        <time>2015-10-12T13:30:58Z</time>
      </trkpt>
      <trkpt lat="48.643" lon="-2.45923">
        <ele>39</ele>
        <time>2015-10-12T13:31:01Z</time>
      </trkpt>
      <trkpt lat="48.64302" lon="-2.45906">
        <ele>39.4</ele>
        <time>2015-10-12T13:31:05Z</time>
      </trkpt>
      <trkpt lat="48.64302" lon="-2.45892">
        <ele>39.8</ele>
        <time>2015-10-12T13:31:08Z</time>
      </trkpt>
      <trkpt lat="48.64302" lon="-2.45874">
        <ele>40.3</ele>
        <time>2015-10-12T13:31:11Z</time>
      </trkpt>
      <trkpt lat="48.64303" lon="-2.45856">
        <ele>40.7</ele>
        <time>2015-10-12T13:31:14Z</time>
      </trkpt>
      <trkpt lat="48.64306" lon="-2.45839">
        <ele>41.2</ele>
        <time>2015-10-12T13:31:17Z</time>
      </trkpt>
      <trkpt lat="48.64307" lon="-2.45821">
        <ele>41.6</ele>
        <time>2015-10-12T13:31:20Z</time>
      </trkpt>
      <trkpt lat="48.64305" lon="-2.45801">
        <ele>42</ele>
        <time>2015-10-12T13:31:23Z</time>
      </trkpt>
      <trkpt lat="48.64307" lon="-2.45785">
        <ele>42.3</ele>
        <time>2015-10-12T13:31:26Z</time>
      </trkpt>
      <trkpt lat="48.64312" lon="-2.45767">
        <ele>42.5</ele>
        <time>2015-10-12T13:31:29Z</time>
      </trkpt>
      <trkpt lat="48.64322" lon="-2.45759">
        <ele>42.8</ele>
        <time>2015-10-12T13:31:32Z</time>
      </trkpt>
      <trkpt lat="48.64332" lon="-2.4576">
        <ele>42.9</ele>
        <time>2015-10-12T13:31:34Z</time>
      </trkpt>
      <trkpt lat="48.64341" lon="-2.45759">
        <ele>43</ele>
        <time>2015-10-12T13:31:36Z</time>
      </trkpt>
      <trkpt lat="48.64351" lon="-2.4576">
        <ele>43</ele>
        <time>2015-10-12T13:31:38Z</time>
      </trkpt>
      <trkpt lat="48.64361" lon="-2.45758">
        <ele>42.9</ele>
        <time>2015-10-12T13:31:40Z</time>
      </trkpt>
      <trkpt lat="48.64371" lon="-2.4576">
        <ele>42.8</ele>
        <time>2015-10-12T13:31:42Z</time>
      </trkpt>
      <trkpt lat="48.64382" lon="-2.45759">
        <ele>42.7</ele>
        <time>2015-10-12T13:31:44Z</time>
      </trkpt>
      <trkpt lat="48.64392" lon="-2.45758">
        <ele>42.5</ele>
        <time>2015-10-12T13:31:46Z</time>
      </trkpt>
      <trkpt lat="48.64405" lon="-2.4576">
        <ele>42.2</ele>
        <time>2015-10-12T13:31:49Z</time>
      </trkpt>
      <trkpt lat="48.64415" lon="-2.45761">
        <ele>42</ele>
        <time>2015-10-12T13:31:51Z</time>
      </trkpt>
      <trkpt lat="48.64423" lon="-2.45745">
        <ele>41.6</ele>
        <time>2015-10-12T13:31:54Z</time>
      </trkpt>
      <trkpt lat="48.64425" lon="-2.45725">
        <ele>41.3</ele>
        <time>2015-10-12T13:31:57Z</time>
      </trkpt>
      <trkpt lat="48.64425" lon="-2.4571">
        <ele>41.1</ele>
        <time>2015-10-12T13:31:59Z</time>
      </trkpt>
      <trkpt lat="48.64424" lon="-2.45695">
        <ele>41</ele>
        <time>2015-10-12T13:32:01Z</time>
      </trkpt>
      <trkpt lat="48.64425" lon="-2.4568">
        <ele>40.8</ele>
        <time>2015-10-12T13:32:03Z</time>
      </trkpt>
      <trkpt lat="48.64426" lon="-2.45662">
        <ele>40.7</ele>
        <time>2015-10-12T13:32:06Z</time>
      </trkpt>
      <trkpt lat="48.64428" lon="-2.45646">
        <ele>40.5</ele>
        <time>2015-10-12T13:32:09Z</time>
      </trkpt>
      <trkpt lat="48.64428" lon="-2.45632">
        <ele>40.4</ele>
        <time>2015-10-12T13:32:12Z</time>
      </trkpt>
      <trkpt lat="48.64424" lon="-2.45619">
        <ele>40.2</ele>
        <time>2015-10-12T13:32:18Z</time>
      </trkpt>
      <trkpt lat="48.64413" lon="-2.45618">
        <ele>40.1</ele>
        <time>2015-10-12T13:32:24Z</time>
      </trkpt>
      <trkpt lat="48.64404" lon="-2.45618">
        <ele>40.1</ele>
        <time>2015-10-12T13:32:27Z</time>
      </trkpt>
      <trkpt lat="48.64393" lon="-2.45617">
        <ele>40.3</ele>
        <time>2015-10-12T13:32:30Z</time>
      </trkpt>
      <trkpt lat="48.64381" lon="-2.45617">
        <ele>40.5</ele>
        <time>2015-10-12T13:32:33Z</time>
      </trkpt>
      <trkpt lat="48.64369" lon="-2.45616">
        <ele>40.8</ele>
        <time>2015-10-12T13:32:36Z</time>
      </trkpt>
      <trkpt lat="48.64356" lon="-2.45615">
        <ele>41.1</ele>
        <time>2015-10-12T13:32:39Z</time>
      </trkpt>
      <trkpt lat="48.64344" lon="-2.45614">
        <ele>41.4</ele>
        <time>2015-10-12T13:32:42Z</time>
      </trkpt>
      <trkpt lat="48.64332" lon="-2.45613">
        <ele>41.8</ele>
        <time>2015-10-12T13:32:45Z</time>
      </trkpt>
      <trkpt lat="48.6432" lon="-2.45612">
        <ele>42.2</ele>
        <time>2015-10-12T13:32:48Z</time>
      </trkpt>
      <trkpt lat="48.64308" lon="-2.45611">
        <ele>42.7</ele>
        <time>2015-10-12T13:32:51Z</time>
      </trkpt>
      <trkpt lat="48.64296" lon="-2.45609">
        <ele>43.2</ele>
        <time>2015-10-12T13:32:54Z</time>
      </trkpt>
      <trkpt lat="48.64284" lon="-2.45609">
        <ele>43.7</ele>
        <time>2015-10-12T13:32:57Z</time>
      </trkpt>
      <trkpt lat="48.64272" lon="-2.45608">
        <ele>44.3</ele>
        <time>2015-10-12T13:33:00Z</time>
      </trkpt>
      <trkpt lat="48.6426" lon="-2.45607">
        <ele>44.8</ele>
        <time>2015-10-12T13:33:03Z</time>
      </trkpt>
      <trkpt lat="48.64249" lon="-2.45606">
        <ele>45.4</ele>
        <time>2015-10-12T13:33:06Z</time>
      </trkpt>
      <trkpt lat="48.64238" lon="-2.45604">
        <ele>46.1</ele>
        <time>2015-10-12T13:33:09Z</time>
      </trkpt>
      <trkpt lat="48.64227" lon="-2.45603">
        <ele>46.8</ele>
        <time>2015-10-12T13:33:12Z</time>
      </trkpt>
      <trkpt lat="48.64217" lon="-2.45596">
        <ele>47.7</ele>
        <time>2015-10-12T13:33:16Z</time>
      </trkpt>
      <trkpt lat="48.64216" lon="-2.45582">
        <ele>48.3</ele>
        <time>2015-10-12T13:33:19Z</time>
      </trkpt>
      <trkpt lat="48.64215" lon="-2.45566">
        <ele>48.7</ele>
        <time>2015-10-12T13:33:22Z</time>
      </trkpt>
      <trkpt lat="48.64215" lon="-2.45551">
        <ele>49.1</ele>
        <time>2015-10-12T13:33:25Z</time>
      </trkpt>
      <trkpt lat="48.64215" lon="-2.45565">
        <ele>50.1</ele>
        <time>2015-10-12T13:33:38Z</time>
      </trkpt>
      <trkpt lat="48.64224" lon="-2.45573">
        <ele>50.5</ele>
        <time>2015-10-12T13:33:49Z</time>
      </trkpt>
      <trkpt lat="48.64234" lon="-2.45574">
        <ele>50.6</ele>
        <time>2015-10-12T13:33:53Z</time>
      </trkpt>
      <trkpt lat="48.64244" lon="-2.45573">
        <ele>50.5</ele>
        <time>2015-10-12T13:33:56Z</time>
      </trkpt>
      <trkpt lat="48.64255" lon="-2.45563">
        <ele>50.3</ele>
        <time>2015-10-12T13:34:00Z</time>
      </trkpt>
      <trkpt lat="48.64266" lon="-2.45568">
        <ele>50</ele>
        <time>2015-10-12T13:34:03Z</time>
      </trkpt>
      <trkpt lat="48.64276" lon="-2.45571">
        <ele>49.8</ele>
        <time>2015-10-12T13:34:05Z</time>
      </trkpt>
      <trkpt lat="48.64286" lon="-2.45571">
        <ele>49.5</ele>
        <time>2015-10-12T13:34:07Z</time>
      </trkpt>
      <trkpt lat="48.64296" lon="-2.45569">
        <ele>49.2</ele>
        <time>2015-10-12T13:34:09Z</time>
      </trkpt>
      <trkpt lat="48.64305" lon="-2.45568">
        <ele>48.9</ele>
        <time>2015-10-12T13:34:11Z</time>
      </trkpt>
      <trkpt lat="48.64314" lon="-2.45569">
        <ele>48.5</ele>
        <time>2015-10-12T13:34:13Z</time>
      </trkpt>
      <trkpt lat="48.64323" lon="-2.45569">
        <ele>48.2</ele>
        <time>2015-10-12T13:34:15Z</time>
      </trkpt>
      <trkpt lat="48.64333" lon="-2.45569">
        <ele>47.8</ele>
        <time>2015-10-12T13:34:17Z</time>
      </trkpt>
      <trkpt lat="48.64344" lon="-2.45568">
        <ele>47.5</ele>
        <time>2015-10-12T13:34:19Z</time>
      </trkpt>
      <trkpt lat="48.64355" lon="-2.45569">
        <ele>47.1</ele>
        <time>2015-10-12T13:34:21Z</time>
      </trkpt>
      <trkpt lat="48.64367" lon="-2.45574">
        <ele>46.7</ele>
        <time>2015-10-12T13:34:23Z</time>
      </trkpt>
      <trkpt lat="48.64381" lon="-2.45577">
        <ele>46.3</ele>
        <time>2015-10-12T13:34:25Z</time>
      </trkpt>
      <trkpt lat="48.6439" lon="-2.45581">
        <ele>45.9</ele>
        <time>2015-10-12T13:34:27Z</time>
      </trkpt>
      <trkpt lat="48.64402" lon="-2.45581">
        <ele>45.4</ele>
        <time>2015-10-12T13:34:29Z</time>
      </trkpt>
      <trkpt lat="48.64413" lon="-2.4558">
        <ele>45</ele>
        <time>2015-10-12T13:34:31Z</time>
      </trkpt>
      <trkpt lat="48.64425" lon="-2.45576">
        <ele>44.3</ele>
        <time>2015-10-12T13:34:34Z</time>
      </trkpt>
      <trkpt lat="48.64434" lon="-2.45577">
        <ele>43.8</ele>
        <time>2015-10-12T13:34:36Z</time>
      </trkpt>
      <trkpt lat="48.64446" lon="-2.45572">
        <ele>43.3</ele>
        <time>2015-10-12T13:34:38Z</time>
      </trkpt>
      <trkpt lat="48.64457" lon="-2.45573">
        <ele>42.8</ele>
        <time>2015-10-12T13:34:40Z</time>
      </trkpt>
      <trkpt lat="48.64467" lon="-2.45575">
        <ele>42.3</ele>
        <time>2015-10-12T13:34:42Z</time>
      </trkpt>
      <trkpt lat="48.64478" lon="-2.45575">
        <ele>41.9</ele>
        <time>2015-10-12T13:34:44Z</time>
      </trkpt>
      <trkpt lat="48.64487" lon="-2.45581">
        <ele>41.5</ele>
        <time>2015-10-12T13:34:46Z</time>
      </trkpt>
      <trkpt lat="48.64499" lon="-2.45585">
        <ele>41.2</ele>
        <time>2015-10-12T13:34:48Z</time>
      </trkpt>
      <trkpt lat="48.64512" lon="-2.45587">
        <ele>40.8</ele>
        <time>2015-10-12T13:34:50Z</time>
      </trkpt>
      <trkpt lat="48.64526" lon="-2.45588">
        <ele>40.5</ele>
        <time>2015-10-12T13:34:52Z</time>
      </trkpt>
      <trkpt lat="48.64539" lon="-2.4559">
        <ele>40.2</ele>
        <time>2015-10-12T13:34:54Z</time>
      </trkpt>
      <trkpt lat="48.64551" lon="-2.45589">
        <ele>39.9</ele>
        <time>2015-10-12T13:34:56Z</time>
      </trkpt>
      <trkpt lat="48.64564" lon="-2.45589">
        <ele>39.5</ele>
        <time>2015-10-12T13:34:58Z</time>
      </trkpt>
      <trkpt lat="48.64574" lon="-2.45583">
        <ele>39.2</ele>
        <time>2015-10-12T13:35:00Z</time>
      </trkpt>
      <trkpt lat="48.64587" lon="-2.45581">
        <ele>38.5</ele>
        <time>2015-10-12T13:35:03Z</time>
      </trkpt>
      <trkpt lat="48.64597" lon="-2.45583">
        <ele>38.1</ele>
        <time>2015-10-12T13:35:05Z</time>
      </trkpt>
      <trkpt lat="48.64605" lon="-2.45574">
        <ele>37.6</ele>
        <time>2015-10-12T13:35:07Z</time>
      </trkpt>
      <trkpt lat="48.64613" lon="-2.45559">
        <ele>37</ele>
        <time>2015-10-12T13:35:10Z</time>
      </trkpt>
      <trkpt lat="48.64622" lon="-2.45543">
        <ele>36.3</ele>
        <time>2015-10-12T13:35:13Z</time>
      </trkpt>
      <trkpt lat="48.64629" lon="-2.45531">
        <ele>35.8</ele>
        <time>2015-10-12T13:35:15Z</time>
      </trkpt>
      <trkpt lat="48.64638" lon="-2.45519">
        <ele>35.3</ele>
        <time>2015-10-12T13:35:17Z</time>
      </trkpt>
      <trkpt lat="48.64646" lon="-2.45506">
        <ele>34.8</ele>
        <time>2015-10-12T13:35:19Z</time>
      </trkpt>
      <trkpt lat="48.64655" lon="-2.45492">
        <ele>34.1</ele>
        <time>2015-10-12T13:35:21Z</time>
      </trkpt>
      <trkpt lat="48.64664" lon="-2.45477">
        <ele>33.5</ele>
        <time>2015-10-12T13:35:23Z</time>
      </trkpt>
      <trkpt lat="48.64674" lon="-2.45462">
        <ele>32.7</ele>
        <time>2015-10-12T13:35:25Z</time>
      </trkpt>
      <trkpt lat="48.64685" lon="-2.45447">
        <ele>31.9</ele>
        <time>2015-10-12T13:35:27Z</time>
      </trkpt>
      <trkpt lat="48.64696" lon="-2.45433">
        <ele>31</ele>
        <time>2015-10-12T13:35:29Z</time>
      </trkpt>
      <trkpt lat="48.64707" lon="-2.45422">
        <ele>30.1</ele>
        <time>2015-10-12T13:35:31Z</time>
      </trkpt>
      <trkpt lat="48.64719" lon="-2.45413">
        <ele>29.2</ele>
        <time>2015-10-12T13:35:33Z</time>
      </trkpt>
      <trkpt lat="48.64732" lon="-2.45403">
        <ele>28.2</ele>
        <time>2015-10-12T13:35:35Z</time>
      </trkpt>
      <trkpt lat="48.64743" lon="-2.45393">
        <ele>27.2</ele>
        <time>2015-10-12T13:35:37Z</time>
      </trkpt>
      <trkpt lat="48.64737" lon="-2.45379">
        <ele>24.7</ele>
        <time>2015-10-12T13:35:42Z</time>
      </trkpt>
      <trkpt lat="48.64725" lon="-2.45373">
        <ele>23.5</ele>
        <time>2015-10-12T13:35:45Z</time>
      </trkpt>
      <trkpt lat="48.64713" lon="-2.45365">
        <ele>22.5</ele>
        <time>2015-10-12T13:35:48Z</time>
      </trkpt>
      <trkpt lat="48.64705" lon="-2.45361">
        <ele>21.9</ele>
        <time>2015-10-12T13:35:50Z</time>
      </trkpt>
      <trkpt lat="48.64696" lon="-2.45355">
        <ele>21.4</ele>
        <time>2015-10-12T13:35:52Z</time>
      </trkpt>
      <trkpt lat="48.64687" lon="-2.45345">
        <ele>20.8</ele>
        <time>2015-10-12T13:35:55Z</time>
      </trkpt>
      <trkpt lat="48.64694" lon="-2.45332">
        <ele>20.2</ele>
        <time>2015-10-12T13:35:58Z</time>
      </trkpt>
      <trkpt lat="48.64702" lon="-2.45317">
        <ele>19.9</ele>
        <time>2015-10-12T13:36:01Z</time>
      </trkpt>
      <trkpt lat="48.64707" lon="-2.45298">
        <ele>19.8</ele>
        <time>2015-10-12T13:36:04Z</time>
      </trkpt>
      <trkpt lat="48.64713" lon="-2.45281">
        <ele>20</ele>
        <time>2015-10-12T13:36:07Z</time>
      </trkpt>
      <trkpt lat="48.64716" lon="-2.45263">
        <ele>20.2</ele>
        <time>2015-10-12T13:36:10Z</time>
      </trkpt>
      <trkpt lat="48.64718" lon="-2.45244">
        <ele>20.4</ele>
        <time>2015-10-12T13:36:13Z</time>
      </trkpt>
      <trkpt lat="48.64721" lon="-2.45225">
        <ele>20.7</ele>
        <time>2015-10-12T13:36:16Z</time>
      </trkpt>
      <trkpt lat="48.64725" lon="-2.45212">
        <ele>21</ele>
        <time>2015-10-12T13:36:18Z</time>
      </trkpt>
      <trkpt lat="48.6473" lon="-2.45199">
        <ele>21.2</ele>
        <time>2015-10-12T13:36:20Z</time>
      </trkpt>
      <trkpt lat="48.64737" lon="-2.45186">
        <ele>21.4</ele>
        <time>2015-10-12T13:36:22Z</time>
      </trkpt>
      <trkpt lat="48.64746" lon="-2.45173">
        <ele>21.5</ele>
        <time>2015-10-12T13:36:24Z</time>
      </trkpt>
      <trkpt lat="48.64752" lon="-2.45159">
        <ele>21.6</ele>
        <time>2015-10-12T13:36:26Z</time>
      </trkpt>
      <trkpt lat="48.64754" lon="-2.45143">
        <ele>21.7</ele>
        <time>2015-10-12T13:36:28Z</time>
      </trkpt>
      <trkpt lat="48.64753" lon="-2.45126">
        <ele>21.7</ele>
        <time>2015-10-12T13:36:30Z</time>
      </trkpt>
      <trkpt lat="48.64752" lon="-2.4511">
        <ele>21.8</ele>
        <time>2015-10-12T13:36:32Z</time>
      </trkpt>
      <trkpt lat="48.64752" lon="-2.45095">
        <ele>21.9</ele>
        <time>2015-10-12T13:36:34Z</time>
      </trkpt>
      <trkpt lat="48.64752" lon="-2.4508">
        <ele>22</ele>
        <time>2015-10-12T13:36:36Z</time>
      </trkpt>
      <trkpt lat="48.64752" lon="-2.45064">
        <ele>22.1</ele>
        <time>2015-10-12T13:36:38Z</time>
      </trkpt>
      <trkpt lat="48.64753" lon="-2.45048">
        <ele>22.3</ele>
        <time>2015-10-12T13:36:40Z</time>
      </trkpt>
      <trkpt lat="48.64756" lon="-2.45033">
        <ele>22.5</ele>
        <time>2015-10-12T13:36:42Z</time>
      </trkpt>
      <trkpt lat="48.64762" lon="-2.45022">
        <ele>22.7</ele>
        <time>2015-10-12T13:36:44Z</time>
      </trkpt>
      <trkpt lat="48.64773" lon="-2.45013">
        <ele>23.1</ele>
        <time>2015-10-12T13:36:47Z</time>
      </trkpt>
      <trkpt lat="48.64782" lon="-2.45011">
        <ele>23.3</ele>
        <time>2015-10-12T13:36:49Z</time>
      </trkpt>
      <trkpt lat="48.64793" lon="-2.45008">
        <ele>23.4</ele>
        <time>2015-10-12T13:36:51Z</time>
      </trkpt>
      <trkpt lat="48.64805" lon="-2.44998">
        <ele>23.4</ele>
        <time>2015-10-12T13:36:53Z</time>
      </trkpt>
      <trkpt lat="48.64817" lon="-2.44982">
        <ele>23.1</ele>
        <time>2015-10-12T13:36:55Z</time>
      </trkpt>
      <trkpt lat="48.64827" lon="-2.44963">
        <ele>22.8</ele>
        <time>2015-10-12T13:36:57Z</time>
      </trkpt>
      <trkpt lat="48.64834" lon="-2.44943">
        <ele>22.4</ele>
        <time>2015-10-12T13:36:59Z</time>
      </trkpt>
      <trkpt lat="48.64839" lon="-2.44924">
        <ele>22</ele>
        <time>2015-10-12T13:37:01Z</time>
      </trkpt>
      <trkpt lat="48.64843" lon="-2.44907">
        <ele>21.7</ele>
        <time>2015-10-12T13:37:03Z</time>
      </trkpt>
      <trkpt lat="48.64839" lon="-2.44889">
        <ele>21.1</ele>
        <time>2015-10-12T13:37:06Z</time>
      </trkpt>
      <trkpt lat="48.64831" lon="-2.4488">
        <ele>20.2</ele>
        <time>2015-10-12T13:37:11Z</time>
      </trkpt>
      <trkpt lat="48.6482" lon="-2.44875">
        <ele>19.8</ele>
        <time>2015-10-12T13:37:14Z</time>
      </trkpt>
      <trkpt lat="48.64807" lon="-2.4487">
        <ele>19.5</ele>
        <time>2015-10-12T13:37:17Z</time>
      </trkpt>
      <trkpt lat="48.64794" lon="-2.44868">
        <ele>19.2</ele>
        <time>2015-10-12T13:37:20Z</time>
      </trkpt>
      <trkpt lat="48.64783" lon="-2.44868">
        <ele>19.1</ele>
        <time>2015-10-12T13:37:23Z</time>
      </trkpt>
      <trkpt lat="48.64773" lon="-2.44868">
        <ele>19.2</ele>
        <time>2015-10-12T13:37:26Z</time>
      </trkpt>
      <trkpt lat="48.64763" lon="-2.44865">
        <ele>19.3</ele>
        <time>2015-10-12T13:37:29Z</time>
      </trkpt>
      <trkpt lat="48.64754" lon="-2.44859">
        <ele>19.6</ele>
        <time>2015-10-12T13:37:32Z</time>
      </trkpt>
      <trkpt lat="48.64744" lon="-2.44849">
        <ele>19.9</ele>
        <time>2015-10-12T13:37:35Z</time>
      </trkpt>
      <trkpt lat="48.64734" lon="-2.44837">
        <ele>20.2</ele>
        <time>2015-10-12T13:37:38Z</time>
      </trkpt>
      <trkpt lat="48.64725" lon="-2.44824">
        <ele>20.5</ele>
        <time>2015-10-12T13:37:41Z</time>
      </trkpt>
      <trkpt lat="48.64717" lon="-2.4481">
        <ele>21</ele>
        <time>2015-10-12T13:37:44Z</time>
      </trkpt>
      <trkpt lat="48.64711" lon="-2.44796">
        <ele>21.5</ele>
        <time>2015-10-12T13:37:47Z</time>
      </trkpt>
      <trkpt lat="48.64707" lon="-2.4478">
        <ele>22</ele>
        <time>2015-10-12T13:37:50Z</time>
      </trkpt>
      <trkpt lat="48.64705" lon="-2.44765">
        <ele>22.6</ele>
        <time>2015-10-12T13:37:53Z</time>
      </trkpt>
      <trkpt lat="48.64701" lon="-2.44749">
        <ele>23.2</ele>
        <time>2015-10-12T13:37:56Z</time>
      </trkpt>
      <trkpt lat="48.64695" lon="-2.44734">
        <ele>23.7</ele>
        <time>2015-10-12T13:37:59Z</time>
      </trkpt>
      <trkpt lat="48.64689" lon="-2.4472">
        <ele>24.3</ele>
        <time>2015-10-12T13:38:02Z</time>
      </trkpt>
      <trkpt lat="48.64682" lon="-2.44706">
        <ele>24.9</ele>
        <time>2015-10-12T13:38:05Z</time>
      </trkpt>
      <trkpt lat="48.64673" lon="-2.44692">
        <ele>25.5</ele>
        <time>2015-10-12T13:38:08Z</time>
      </trkpt>
      <trkpt lat="48.64667" lon="-2.44677">
        <ele>26.2</ele>
        <time>2015-10-12T13:38:11Z</time>
      </trkpt>
      <trkpt lat="48.64661" lon="-2.44665">
        <ele>26.8</ele>
        <time>2015-10-12T13:38:14Z</time>
      </trkpt>
      <trkpt lat="48.64656" lon="-2.44654">
        <ele>27.4</ele>
        <time>2015-10-12T13:38:17Z</time>
      </trkpt>
      <trkpt lat="48.6465" lon="-2.44641">
        <ele>28</ele>
        <time>2015-10-12T13:38:20Z</time>
      </trkpt>
      <trkpt lat="48.64643" lon="-2.44628">
        <ele>28.8</ele>
        <time>2015-10-12T13:38:24Z</time>
      </trkpt>
      <trkpt lat="48.64636" lon="-2.44619">
        <ele>29.7</ele>
        <time>2015-10-12T13:38:28Z</time>
      </trkpt>
      <trkpt lat="48.64629" lon="-2.44607">
        <ele>30.3</ele>
        <time>2015-10-12T13:38:31Z</time>
      </trkpt>
      <trkpt lat="48.64622" lon="-2.44595">
        <ele>30.8</ele>
        <time>2015-10-12T13:38:34Z</time>
      </trkpt>
      <trkpt lat="48.64616" lon="-2.44584">
        <ele>31.3</ele>
        <time>2015-10-12T13:38:37Z</time>
      </trkpt>
      <trkpt lat="48.64611" lon="-2.44572">
        <ele>31.8</ele>
        <time>2015-10-12T13:38:40Z</time>
      </trkpt>
      <trkpt lat="48.64606" lon="-2.44557">
        <ele>32.4</ele>
        <time>2015-10-12T13:38:43Z</time>
      </trkpt>
      <trkpt lat="48.64601" lon="-2.44543">
        <ele>32.9</ele>
        <time>2015-10-12T13:38:46Z</time>
      </trkpt>
      <trkpt lat="48.64593" lon="-2.44526">
        <ele>33.4</ele>
        <time>2015-10-12T13:38:49Z</time>
      </trkpt>
      <trkpt lat="48.64584" lon="-2.44512">
        <ele>34</ele>
        <time>2015-10-12T13:38:52Z</time>
      </trkpt>
      <trkpt lat="48.6458" lon="-2.44495">
        <ele>34.4</ele>
        <time>2015-10-12T13:38:55Z</time>
      </trkpt>
      <trkpt lat="48.64582" lon="-2.44483">
        <ele>34.8</ele>
        <time>2015-10-12T13:38:58Z</time>
      </trkpt>
      <trkpt lat="48.64593" lon="-2.44478">
        <ele>35.1</ele>
        <time>2015-10-12T13:39:01Z</time>
      </trkpt>
      <trkpt lat="48.64603" lon="-2.44475">
        <ele>35.4</ele>
        <time>2015-10-12T13:39:04Z</time>
      </trkpt>
      <trkpt lat="48.64612" lon="-2.44469">
        <ele>35.5</ele>
        <time>2015-10-12T13:39:07Z</time>
      </trkpt>
      <trkpt lat="48.6462" lon="-2.44463">
        <ele>35.6</ele>
        <time>2015-10-12T13:39:12Z</time>
      </trkpt>
      <trkpt lat="48.64617" lon="-2.44448">
        <ele>35.8</ele>
        <time>2015-10-12T13:39:29Z</time>
      </trkpt>
      <trkpt lat="48.64613" lon="-2.44434">
        <ele>36.2</ele>
        <time>2015-10-12T13:39:33Z</time>
      </trkpt>
      <trkpt lat="48.64607" lon="-2.4442">
        <ele>36.8</ele>
        <time>2015-10-12T13:39:37Z</time>
      </trkpt>
      <trkpt lat="48.64601" lon="-2.44405">
        <ele>37.5</ele>
        <time>2015-10-12T13:39:41Z</time>
      </trkpt>
      <trkpt lat="48.64594" lon="-2.44395">
        <ele>38.1</ele>
        <time>2015-10-12T13:39:44Z</time>
      </trkpt>
      <trkpt lat="48.64586" lon="-2.44383">
        <ele>39.1</ele>
        <time>2015-10-12T13:39:48Z</time>
      </trkpt>
      <trkpt lat="48.64578" lon="-2.44373">
        <ele>39.8</ele>
        <time>2015-10-12T13:39:51Z</time>
      </trkpt>
      <trkpt lat="48.6457" lon="-2.44364">
        <ele>40.6</ele>
        <time>2015-10-12T13:39:54Z</time>
      </trkpt>
      <trkpt lat="48.64562" lon="-2.44355">
        <ele>41.3</ele>
        <time>2015-10-12T13:39:57Z</time>
      </trkpt>
      <trkpt lat="48.64556" lon="-2.44345">
        <ele>42.1</ele>
        <time>2015-10-12T13:40:00Z</time>
      </trkpt>
      <trkpt lat="48.6455" lon="-2.44332">
        <ele>42.9</ele>
        <time>2015-10-12T13:40:03Z</time>
      </trkpt>
      <trkpt lat="48.64547" lon="-2.44318">
        <ele>43.8</ele>
        <time>2015-10-12T13:40:06Z</time>
      </trkpt>
      <trkpt lat="48.64546" lon="-2.44302">
        <ele>44.5</ele>
        <time>2015-10-12T13:40:09Z</time>
      </trkpt>
      <trkpt lat="48.64548" lon="-2.44287">
        <ele>45.2</ele>
        <time>2015-10-12T13:40:12Z</time>
      </trkpt>
      <trkpt lat="48.64551" lon="-2.44271">
        <ele>45.9</ele>
        <time>2015-10-12T13:40:15Z</time>
      </trkpt>
      <trkpt lat="48.64553" lon="-2.44255">
        <ele>46.5</ele>
        <time>2015-10-12T13:40:18Z</time>
      </trkpt>
      <trkpt lat="48.64556" lon="-2.44238">
        <ele>47</ele>
        <time>2015-10-12T13:40:21Z</time>
      </trkpt>
      <trkpt lat="48.64559" lon="-2.4422">
        <ele>47.5</ele>
        <time>2015-10-12T13:40:24Z</time>
      </trkpt>
      <trkpt lat="48.6456" lon="-2.44202">
        <ele>47.8</ele>
        <time>2015-10-12T13:40:27Z</time>
      </trkpt>
      <trkpt lat="48.64562" lon="-2.44183">
        <ele>48.1</ele>
        <time>2015-10-12T13:40:30Z</time>
      </trkpt>
      <trkpt lat="48.64563" lon="-2.44164">
        <ele>48.4</ele>
        <time>2015-10-12T13:40:33Z</time>
      </trkpt>
      <trkpt lat="48.64565" lon="-2.44145">
        <ele>48.8</ele>
        <time>2015-10-12T13:40:36Z</time>
      </trkpt>
      <trkpt lat="48.64565" lon="-2.44126">
        <ele>49.2</ele>
        <time>2015-10-12T13:40:39Z</time>
      </trkpt>
      <trkpt lat="48.64565" lon="-2.44106">
        <ele>49.4</ele>
        <time>2015-10-12T13:40:42Z</time>
      </trkpt>
      <trkpt lat="48.64565" lon="-2.44086">
        <ele>49.6</ele>
        <time>2015-10-12T13:40:45Z</time>
      </trkpt>
      <trkpt lat="48.64565" lon="-2.44072">
        <ele>49.8</ele>
        <time>2015-10-12T13:40:47Z</time>
      </trkpt>
      <trkpt lat="48.64565" lon="-2.44058">
        <ele>49.9</ele>
        <time>2015-10-12T13:40:49Z</time>
      </trkpt>
      <trkpt lat="48.64565" lon="-2.44044">
        <ele>50</ele>
        <time>2015-10-12T13:40:51Z</time>
      </trkpt>
      <trkpt lat="48.64565" lon="-2.44029">
        <ele>50.1</ele>
        <time>2015-10-12T13:40:53Z</time>
      </trkpt>
      <trkpt lat="48.64565" lon="-2.44014">
        <ele>50.2</ele>
        <time>2015-10-12T13:40:55Z</time>
      </trkpt>
      <trkpt lat="48.64566" lon="-2.43998">
        <ele>50.3</ele>
        <time>2015-10-12T13:40:57Z</time>
      </trkpt>
      <trkpt lat="48.64565" lon="-2.43983">
        <ele>50.4</ele>
        <time>2015-10-12T13:40:59Z</time>
      </trkpt>
      <trkpt lat="48.64566" lon="-2.43967">
        <ele>50.4</ele>
        <time>2015-10-12T13:41:01Z</time>
      </trkpt>
      <trkpt lat="48.64566" lon="-2.43947">
        <ele>50.3</ele>
        <time>2015-10-12T13:41:04Z</time>
      </trkpt>
      <trkpt lat="48.64566" lon="-2.43932">
        <ele>50.2</ele>
        <time>2015-10-12T13:41:06Z</time>
      </trkpt>
      <trkpt lat="48.64566" lon="-2.43916">
        <ele>50.1</ele>
        <time>2015-10-12T13:41:08Z</time>
      </trkpt>
      <trkpt lat="48.64564" lon="-2.439">
        <ele>50</ele>
        <time>2015-10-12T13:41:10Z</time>
      </trkpt>
      <trkpt lat="48.6456" lon="-2.43885">
        <ele>49.9</ele>
        <time>2015-10-12T13:41:12Z</time>
      </trkpt>
      <trkpt lat="48.64554" lon="-2.43872">
        <ele>49.8</ele>
        <time>2015-10-12T13:41:14Z</time>
      </trkpt>
      <trkpt lat="48.64548" lon="-2.43859">
        <ele>49.7</ele>
        <time>2015-10-12T13:41:16Z</time>
      </trkpt>
      <trkpt lat="48.64542" lon="-2.43846">
        <ele>49.6</ele>
        <time>2015-10-12T13:41:18Z</time>
      </trkpt>
      <trkpt lat="48.64536" lon="-2.43833">
        <ele>49.5</ele>
        <time>2015-10-12T13:41:20Z</time>
      </trkpt>
      <trkpt lat="48.64529" lon="-2.4382">
        <ele>49.4</ele>
        <time>2015-10-12T13:41:22Z</time>
      </trkpt>
      <trkpt lat="48.64523" lon="-2.43807">
        <ele>49.3</ele>
        <time>2015-10-12T13:41:24Z</time>
      </trkpt>
      <trkpt lat="48.64516" lon="-2.43793">
        <ele>49.2</ele>
        <time>2015-10-12T13:41:26Z</time>
      </trkpt>
      <trkpt lat="48.6451" lon="-2.43781">
        <ele>49.1</ele>
        <time>2015-10-12T13:41:28Z</time>
      </trkpt>
      <trkpt lat="48.64504" lon="-2.43769">
        <ele>49</ele>
        <time>2015-10-12T13:41:30Z</time>
      </trkpt>
      <trkpt lat="48.64498" lon="-2.43757">
        <ele>48.9</ele>
        <time>2015-10-12T13:41:32Z</time>
      </trkpt>
      <trkpt lat="48.64493" lon="-2.43746">
        <ele>48.9</ele>
        <time>2015-10-12T13:41:34Z</time>
      </trkpt>
      <trkpt lat="48.64487" lon="-2.43734">
        <ele>48.8</ele>
        <time>2015-10-12T13:41:36Z</time>
      </trkpt>
      <trkpt lat="48.64481" lon="-2.43722">
        <ele>48.8</ele>
        <time>2015-10-12T13:41:38Z</time>
      </trkpt>
      <trkpt lat="48.64475" lon="-2.4371">
        <ele>48.8</ele>
        <time>2015-10-12T13:41:40Z</time>
      </trkpt>
      <trkpt lat="48.6447" lon="-2.43698">
        <ele>48.9</ele>
        <time>2015-10-12T13:41:42Z</time>
      </trkpt>
      <trkpt lat="48.64478" lon="-2.43708">
        <ele>49</ele>
        <time>2015-10-12T13:41:51Z</time>
      </trkpt>
      <trkpt lat="48.64484" lon="-2.43719">
        <ele>49</ele>
        <time>2015-10-12T13:41:53Z</time>
      </trkpt>
      <trkpt lat="48.64489" lon="-2.4373">
        <ele>49</ele>
        <time>2015-10-12T13:41:55Z</time>
      </trkpt>
      <trkpt lat="48.64497" lon="-2.43746">
        <ele>49</ele>
        <time>2015-10-12T13:41:58Z</time>
      </trkpt>
      <trkpt lat="48.64505" lon="-2.43762">
        <ele>49.1</ele>
        <time>2015-10-12T13:42:01Z</time>
      </trkpt>
      <trkpt lat="48.64511" lon="-2.43773">
        <ele>49.1</ele>
        <time>2015-10-12T13:42:03Z</time>
      </trkpt>
      <trkpt lat="48.64516" lon="-2.43784">
        <ele>49.1</ele>
        <time>2015-10-12T13:42:05Z</time>
      </trkpt>
      <trkpt lat="48.64527" lon="-2.43782">
        <ele>49.1</ele>
        <time>2015-10-12T13:42:08Z</time>
      </trkpt>
      <trkpt lat="48.64536" lon="-2.43772">
        <ele>49</ele>
        <time>2015-10-12T13:42:11Z</time>
      </trkpt>
      <trkpt lat="48.64545" lon="-2.43762">
        <ele>48.9</ele>
        <time>2015-10-12T13:42:14Z</time>
      </trkpt>
      <trkpt lat="48.64554" lon="-2.43751">
        <ele>48.8</ele>
        <time>2015-10-12T13:42:17Z</time>
      </trkpt>
      <trkpt lat="48.64563" lon="-2.43739">
        <ele>48.8</ele>
        <time>2015-10-12T13:42:20Z</time>
      </trkpt>
      <trkpt lat="48.64573" lon="-2.43726">
        <ele>48.7</ele>
        <time>2015-10-12T13:42:23Z</time>
      </trkpt>
      <trkpt lat="48.64582" lon="-2.43714">
        <ele>48.6</ele>
        <time>2015-10-12T13:42:26Z</time>
      </trkpt>
      <trkpt lat="48.64591" lon="-2.43702">
        <ele>48.6</ele>
        <time>2015-10-12T13:42:29Z</time>
      </trkpt>
      <trkpt lat="48.64597" lon="-2.4369">
        <ele>48.6</ele>
        <time>2015-10-12T13:42:32Z</time>
      </trkpt>
      <trkpt lat="48.64601" lon="-2.43678">
        <ele>48.4</ele>
        <time>2015-10-12T13:42:35Z</time>
      </trkpt>
      <trkpt lat="48.64607" lon="-2.43665">
        <ele>48.3</ele>
        <time>2015-10-12T13:42:38Z</time>
      </trkpt>
      <trkpt lat="48.64614" lon="-2.43653">
        <ele>48.1</ele>
        <time>2015-10-12T13:42:41Z</time>
      </trkpt>
      <trkpt lat="48.6462" lon="-2.4364">
        <ele>48</ele>
        <time>2015-10-12T13:42:44Z</time>
      </trkpt>
      <trkpt lat="48.64623" lon="-2.43626">
        <ele>47.8</ele>
        <time>2015-10-12T13:42:48Z</time>
      </trkpt>
      <trkpt lat="48.64611" lon="-2.43622">
        <ele>47.6</ele>
        <time>2015-10-12T13:42:52Z</time>
      </trkpt>
      <trkpt lat="48.646" lon="-2.43619">
        <ele>47.5</ele>
        <time>2015-10-12T13:42:55Z</time>
      </trkpt>
      <trkpt lat="48.64591" lon="-2.43613">
        <ele>47.4</ele>
        <time>2015-10-12T13:42:58Z</time>
      </trkpt>
      <trkpt lat="48.64583" lon="-2.43608">
        <ele>47.3</ele>
        <time>2015-10-12T13:43:01Z</time>
      </trkpt>
      <trkpt lat="48.64575" lon="-2.43602">
        <ele>47.2</ele>
        <time>2015-10-12T13:43:04Z</time>
      </trkpt>
      <trkpt lat="48.64566" lon="-2.43596">
        <ele>47.2</ele>
        <time>2015-10-12T13:43:07Z</time>
      </trkpt>
      <trkpt lat="48.64557" lon="-2.43592">
        <ele>47.1</ele>
        <time>2015-10-12T13:43:09Z</time>
      </trkpt>
      <trkpt lat="48.64548" lon="-2.43588">
        <ele>47.1</ele>
        <time>2015-10-12T13:43:11Z</time>
      </trkpt>
      <trkpt lat="48.64535" lon="-2.43586">
        <ele>47.1</ele>
        <time>2015-10-12T13:43:14Z</time>
      </trkpt>
      <trkpt lat="48.64523" lon="-2.4359">
        <ele>47.1</ele>
        <time>2015-10-12T13:43:17Z</time>
      </trkpt>
      <trkpt lat="48.64511" lon="-2.43595">
        <ele>47.2</ele>
        <time>2015-10-12T13:43:20Z</time>
      </trkpt>
      <trkpt lat="48.64499" lon="-2.43601">
        <ele>47.3</ele>
        <time>2015-10-12T13:43:23Z</time>
      </trkpt>
      <trkpt lat="48.64489" lon="-2.436">
        <ele>47.4</ele>
        <time>2015-10-12T13:43:25Z</time>
      </trkpt>
      <trkpt lat="48.64479" lon="-2.43596">
        <ele>47.5</ele>
        <time>2015-10-12T13:43:27Z</time>
      </trkpt>
      <trkpt lat="48.64469" lon="-2.43591">
        <ele>47.5</ele>
        <time>2015-10-12T13:43:29Z</time>
      </trkpt>
      <trkpt lat="48.6446" lon="-2.43585">
        <ele>47.6</ele>
        <time>2015-10-12T13:43:31Z</time>
      </trkpt>
      <trkpt lat="48.64448" lon="-2.4358">
        <ele>47.6</ele>
        <time>2015-10-12T13:43:34Z</time>
      </trkpt>
      <trkpt lat="48.64447" lon="-2.43562">
        <ele>47.8</ele>
        <time>2015-10-12T13:43:42Z</time>
      </trkpt>
      <trkpt lat="48.6445" lon="-2.43545">
        <ele>47.8</ele>
        <time>2015-10-12T13:43:45Z</time>
      </trkpt>
      <trkpt lat="48.64453" lon="-2.43529">
        <ele>47.8</ele>
        <time>2015-10-12T13:43:48Z</time>
      </trkpt>
      <trkpt lat="48.64462" lon="-2.43517">
        <ele>47.9</ele>
        <time>2015-10-12T13:43:51Z</time>
      </trkpt>
      <trkpt lat="48.6447" lon="-2.43508">
        <ele>47.9</ele>
        <time>2015-10-12T13:43:53Z</time>
      </trkpt>
      <trkpt lat="48.64479" lon="-2.43498">
        <ele>47.9</ele>
        <time>2015-10-12T13:43:55Z</time>
      </trkpt>
      <trkpt lat="48.64487" lon="-2.43487">
        <ele>47.9</ele>
        <time>2015-10-12T13:43:57Z</time>
      </trkpt>
      <trkpt lat="48.64494" lon="-2.43475">
        <ele>47.9</ele>
        <time>2015-10-12T13:43:59Z</time>
      </trkpt>
      <trkpt lat="48.64501" lon="-2.43463">
        <ele>47.9</ele>
        <time>2015-10-12T13:44:01Z</time>
      </trkpt>
      <trkpt lat="48.64509" lon="-2.43453">
        <ele>47.9</ele>
        <time>2015-10-12T13:44:03Z</time>
      </trkpt>
      <trkpt lat="48.64517" lon="-2.43446">
        <ele>47.9</ele>
        <time>2015-10-12T13:44:05Z</time>
      </trkpt>
      <trkpt lat="48.64526" lon="-2.43442">
        <ele>47.9</ele>
        <time>2015-10-12T13:44:07Z</time>
      </trkpt>
      <trkpt lat="48.64536" lon="-2.43441">
        <ele>47.9</ele>
        <time>2015-10-12T13:44:09Z</time>
      </trkpt>
      <trkpt lat="48.64545" lon="-2.43441">
        <ele>47.9</ele>
        <time>2015-10-12T13:44:11Z</time>
      </trkpt>
      <trkpt lat="48.64555" lon="-2.43442">
        <ele>48</ele>
        <time>2015-10-12T13:44:13Z</time>
      </trkpt>
      <trkpt lat="48.64565" lon="-2.43441">
        <ele>48</ele>
        <time>2015-10-12T13:44:15Z</time>
      </trkpt>
      <trkpt lat="48.64575" lon="-2.4344">
        <ele>48</ele>
        <time>2015-10-12T13:44:17Z</time>
      </trkpt>
      <trkpt lat="48.64584" lon="-2.43438">
        <ele>48.1</ele>
        <time>2015-10-12T13:44:19Z</time>
      </trkpt>
      <trkpt lat="48.64597" lon="-2.43432">
        <ele>48.2</ele>
        <time>2015-10-12T13:44:22Z</time>
      </trkpt>
      <trkpt lat="48.64607" lon="-2.4342">
        <ele>48.4</ele>
        <time>2015-10-12T13:44:25Z</time>
      </trkpt>
      <trkpt lat="48.64614" lon="-2.43408">
        <ele>48.5</ele>
        <time>2015-10-12T13:44:27Z</time>
      </trkpt>
      <trkpt lat="48.6462" lon="-2.43394">
        <ele>48.6</ele>
        <time>2015-10-12T13:44:29Z</time>
      </trkpt>
      <trkpt lat="48.64624" lon="-2.43378">
        <ele>48.7</ele>
        <time>2015-10-12T13:44:31Z</time>
      </trkpt>
      <trkpt lat="48.64627" lon="-2.4336">
        <ele>48.7</ele>
        <time>2015-10-12T13:44:33Z</time>
      </trkpt>
      <trkpt lat="48.64627" lon="-2.4334">
        <ele>48.8</ele>
        <time>2015-10-12T13:44:35Z</time>
      </trkpt>
      <trkpt lat="48.64627" lon="-2.43319">
        <ele>48.7</ele>
        <time>2015-10-12T13:44:37Z</time>
      </trkpt>
      <trkpt lat="48.64627" lon="-2.43297">
        <ele>48.4</ele>
        <time>2015-10-12T13:44:39Z</time>
      </trkpt>
      <trkpt lat="48.64632" lon="-2.4328">
        <ele>48</ele>
        <time>2015-10-12T13:44:41Z</time>
      </trkpt>
      <trkpt lat="48.64641" lon="-2.43271">
        <ele>47.5</ele>
        <time>2015-10-12T13:44:43Z</time>
      </trkpt>
      <trkpt lat="48.64654" lon="-2.43267">
        <ele>46.9</ele>
        <time>2015-10-12T13:44:45Z</time>
      </trkpt>
      <trkpt lat="48.64669" lon="-2.43263">
        <ele>46</ele>
        <time>2015-10-12T13:44:47Z</time>
      </trkpt>
      <trkpt lat="48.64683" lon="-2.43256">
        <ele>44.9</ele>
        <time>2015-10-12T13:44:49Z</time>
      </trkpt>
      <trkpt lat="48.64697" lon="-2.43244">
        <ele>43.7</ele>
        <time>2015-10-12T13:44:51Z</time>
      </trkpt>
      <trkpt lat="48.64713" lon="-2.43231">
        <ele>42.3</ele>
        <time>2015-10-12T13:44:53Z</time>
      </trkpt>
      <trkpt lat="48.64722" lon="-2.43224">
        <ele>41.5</ele>
        <time>2015-10-12T13:44:54Z</time>
      </trkpt>
      <trkpt lat="48.6473" lon="-2.43216">
        <ele>40.7</ele>
        <time>2015-10-12T13:44:55Z</time>
      </trkpt>
      <trkpt lat="48.6474" lon="-2.43207">
        <ele>39.9</ele>
        <time>2015-10-12T13:44:56Z</time>
      </trkpt>
      <trkpt lat="48.64747" lon="-2.43197">
        <ele>39.1</ele>
        <time>2015-10-12T13:44:57Z</time>
      </trkpt>
      <trkpt lat="48.64755" lon="-2.43188">
        <ele>38.2</ele>
        <time>2015-10-12T13:44:58Z</time>
      </trkpt>
      <trkpt lat="48.64763" lon="-2.43179">
        <ele>37.3</ele>
        <time>2015-10-12T13:44:59Z</time>
      </trkpt>
      <trkpt lat="48.64772" lon="-2.43171">
        <ele>36.4</ele>
        <time>2015-10-12T13:45:00Z</time>
      </trkpt>
      <trkpt lat="48.64781" lon="-2.43164">
        <ele>35.6</ele>
        <time>2015-10-12T13:45:01Z</time>
      </trkpt>
      <trkpt lat="48.6479" lon="-2.43158">
        <ele>34.7</ele>
        <time>2015-10-12T13:45:02Z</time>
      </trkpt>
      <trkpt lat="48.64799" lon="-2.43152">
        <ele>33.9</ele>
        <time>2015-10-12T13:45:03Z</time>
      </trkpt>
      <trkpt lat="48.64814" lon="-2.43138">
        <ele>32.3</ele>
        <time>2015-10-12T13:45:05Z</time>
      </trkpt>
      <trkpt lat="48.64822" lon="-2.43118">
        <ele>30.8</ele>
        <time>2015-10-12T13:45:07Z</time>
      </trkpt>
      <trkpt lat="48.64823" lon="-2.43098">
        <ele>29.4</ele>
        <time>2015-10-12T13:45:09Z</time>
      </trkpt>
      <trkpt lat="48.6482" lon="-2.43084">
        <ele>28.2</ele>
        <time>2015-10-12T13:45:11Z</time>
      </trkpt>
      <trkpt lat="48.64814" lon="-2.43071">
        <ele>26.8</ele>
        <time>2015-10-12T13:45:14Z</time>
      </trkpt>
      <trkpt lat="48.64811" lon="-2.43057">
        <ele>25.7</ele>
        <time>2015-10-12T13:45:17Z</time>
      </trkpt>
      <trkpt lat="48.64811" lon="-2.43043">
        <ele>25</ele>
        <time>2015-10-12T13:45:19Z</time>
      </trkpt>
      <trkpt lat="48.64812" lon="-2.43027">
        <ele>24.3</ele>
        <time>2015-10-12T13:45:21Z</time>
      </trkpt>
      <trkpt lat="48.64814" lon="-2.4301">
        <ele>23.6</ele>
        <time>2015-10-12T13:45:23Z</time>
      </trkpt>
      <trkpt lat="48.64816" lon="-2.42992">
        <ele>23</ele>
        <time>2015-10-12T13:45:25Z</time>
      </trkpt>
      <trkpt lat="48.6482" lon="-2.42975">
        <ele>22.4</ele>
        <time>2015-10-12T13:45:27Z</time>
      </trkpt>
      <trkpt lat="48.64824" lon="-2.42958">
        <ele>21.8</ele>
        <time>2015-10-12T13:45:29Z</time>
      </trkpt>
      <trkpt lat="48.64828" lon="-2.4294">
        <ele>21.2</ele>
        <time>2015-10-12T13:45:31Z</time>
      </trkpt>
      <trkpt lat="48.64832" lon="-2.42922">
        <ele>20.5</ele>
        <time>2015-10-12T13:45:33Z</time>
      </trkpt>
      <trkpt lat="48.64836" lon="-2.42903">
        <ele>19.8</ele>
        <time>2015-10-12T13:45:35Z</time>
      </trkpt>
      <trkpt lat="48.64841" lon="-2.42885">
        <ele>19.1</ele>
        <time>2015-10-12T13:45:37Z</time>
      </trkpt>
      <trkpt lat="48.64844" lon="-2.42866">
        <ele>18.3</ele>
        <time>2015-10-12T13:45:39Z</time>
      </trkpt>
      <trkpt lat="48.64847" lon="-2.42847">
        <ele>17.6</ele>
        <time>2015-10-12T13:45:41Z</time>
      </trkpt>
      <trkpt lat="48.64845" lon="-2.4283">
        <ele>16.8</ele>
        <time>2015-10-12T13:45:43Z</time>
      </trkpt>
      <trkpt lat="48.64839" lon="-2.42817">
        <ele>16.2</ele>
        <time>2015-10-12T13:45:45Z</time>
      </trkpt>
      <trkpt lat="48.64831" lon="-2.42804">
        <ele>15.4</ele>
        <time>2015-10-12T13:45:48Z</time>
      </trkpt>
      <trkpt lat="48.64824" lon="-2.42791">
        <ele>14.7</ele>
        <time>2015-10-12T13:45:51Z</time>
      </trkpt>
      <trkpt lat="48.64819" lon="-2.4278">
        <ele>14.4</ele>
        <time>2015-10-12T13:45:53Z</time>
      </trkpt>
      <trkpt lat="48.64813" lon="-2.42768">
        <ele>14.1</ele>
        <time>2015-10-12T13:45:55Z</time>
      </trkpt>
      <trkpt lat="48.64808" lon="-2.42756">
        <ele>13.9</ele>
        <time>2015-10-12T13:45:57Z</time>
      </trkpt>
      <trkpt lat="48.64804" lon="-2.42742">
        <ele>13.7</ele>
        <time>2015-10-12T13:45:59Z</time>
      </trkpt>
      <trkpt lat="48.64801" lon="-2.42727">
        <ele>13.5</ele>
        <time>2015-10-12T13:46:01Z</time>
      </trkpt>
      <trkpt lat="48.64797" lon="-2.42712">
        <ele>13.3</ele>
        <time>2015-10-12T13:46:03Z</time>
      </trkpt>
      <trkpt lat="48.64793" lon="-2.42697">
        <ele>13.2</ele>
        <time>2015-10-12T13:46:05Z</time>
      </trkpt>
      <trkpt lat="48.6479" lon="-2.42681">
        <ele>13</ele>
        <time>2015-10-12T13:46:07Z</time>
      </trkpt>
      <trkpt lat="48.64785" lon="-2.42665">
        <ele>12.8</ele>
        <time>2015-10-12T13:46:09Z</time>
      </trkpt>
      <trkpt lat="48.64781" lon="-2.4265">
        <ele>12.7</ele>
        <time>2015-10-12T13:46:11Z</time>
      </trkpt>
      <trkpt lat="48.64778" lon="-2.42635">
        <ele>12.5</ele>
        <time>2015-10-12T13:46:13Z</time>
      </trkpt>
      <trkpt lat="48.64774" lon="-2.4262">
        <ele>12.3</ele>
        <time>2015-10-12T13:46:15Z</time>
      </trkpt>
      <trkpt lat="48.64771" lon="-2.42606">
        <ele>12.2</ele>
        <time>2015-10-12T13:46:17Z</time>
      </trkpt>
      <trkpt lat="48.64767" lon="-2.42592">
        <ele>12.1</ele>
        <time>2015-10-12T13:46:19Z</time>
      </trkpt>
      <trkpt lat="48.64764" lon="-2.42577">
        <ele>12</ele>
        <time>2015-10-12T13:46:21Z</time>
      </trkpt>
      <trkpt lat="48.6476" lon="-2.42563">
        <ele>11.9</ele>
        <time>2015-10-12T13:46:23Z</time>
      </trkpt>
      <trkpt lat="48.64757" lon="-2.42548">
        <ele>11.8</ele>
        <time>2015-10-12T13:46:25Z</time>
      </trkpt>
      <trkpt lat="48.64753" lon="-2.42534">
        <ele>11.7</ele>
        <time>2015-10-12T13:46:27Z</time>
      </trkpt>
      <trkpt lat="48.6475" lon="-2.42519">
        <ele>11.7</ele>
        <time>2015-10-12T13:46:29Z</time>
      </trkpt>
      <trkpt lat="48.64746" lon="-2.42503">
        <ele>11.6</ele>
        <time>2015-10-12T13:46:31Z</time>
      </trkpt>
      <trkpt lat="48.64742" lon="-2.42488">
        <ele>11.5</ele>
        <time>2015-10-12T13:46:33Z</time>
      </trkpt>
      <trkpt lat="48.64738" lon="-2.42473">
        <ele>11.4</ele>
        <time>2015-10-12T13:46:35Z</time>
      </trkpt>
      <trkpt lat="48.64734" lon="-2.42458">
        <ele>11.3</ele>
        <time>2015-10-12T13:46:37Z</time>
      </trkpt>
      <trkpt lat="48.6473" lon="-2.42442">
        <ele>11.2</ele>
        <time>2015-10-12T13:46:39Z</time>
      </trkpt>
      <trkpt lat="48.64726" lon="-2.42427">
        <ele>11.1</ele>
        <time>2015-10-12T13:46:41Z</time>
      </trkpt>
      <trkpt lat="48.64722" lon="-2.42412">
        <ele>11</ele>
        <time>2015-10-12T13:46:43Z</time>
      </trkpt>
      <trkpt lat="48.64718" lon="-2.42397">
        <ele>10.9</ele>
        <time>2015-10-12T13:46:45Z</time>
      </trkpt>
      <trkpt lat="48.64714" lon="-2.42383">
        <ele>10.9</ele>
        <time>2015-10-12T13:46:47Z</time>
      </trkpt>
      <trkpt lat="48.6471" lon="-2.42369">
        <ele>10.8</ele>
        <time>2015-10-12T13:46:49Z</time>
      </trkpt>
      <trkpt lat="48.64706" lon="-2.42354">
        <ele>10.7</ele>
        <time>2015-10-12T13:46:51Z</time>
      </trkpt>
      <trkpt lat="48.64703" lon="-2.4234">
        <ele>10.7</ele>
        <time>2015-10-12T13:46:53Z</time>
      </trkpt>
      <trkpt lat="48.64699" lon="-2.42326">
        <ele>10.7</ele>
        <time>2015-10-12T13:46:55Z</time>
      </trkpt>
      <trkpt lat="48.64696" lon="-2.42313">
        <ele>10.7</ele>
        <time>2015-10-12T13:46:57Z</time>
      </trkpt>
      <trkpt lat="48.64691" lon="-2.42295">
        <ele>10.9</ele>
        <time>2015-10-12T13:47:00Z</time>
      </trkpt>
      <trkpt lat="48.64688" lon="-2.42282">
        <ele>11</ele>
        <time>2015-10-12T13:47:02Z</time>
      </trkpt>
      <trkpt lat="48.64683" lon="-2.42264">
        <ele>11.2</ele>
        <time>2015-10-12T13:47:05Z</time>
      </trkpt>
      <trkpt lat="48.6468" lon="-2.42251">
        <ele>11.4</ele>
        <time>2015-10-12T13:47:07Z</time>
      </trkpt>
      <trkpt lat="48.64677" lon="-2.42238">
        <ele>11.5</ele>
        <time>2015-10-12T13:47:09Z</time>
      </trkpt>
      <trkpt lat="48.64674" lon="-2.42224">
        <ele>11.6</ele>
        <time>2015-10-12T13:47:11Z</time>
      </trkpt>
      <trkpt lat="48.6467" lon="-2.42207">
        <ele>11.9</ele>
        <time>2015-10-12T13:47:14Z</time>
      </trkpt>
      <trkpt lat="48.64666" lon="-2.42191">
        <ele>12.3</ele>
        <time>2015-10-12T13:47:18Z</time>
      </trkpt>
      <trkpt lat="48.64663" lon="-2.42177">
        <ele>12.8</ele>
        <time>2015-10-12T13:47:24Z</time>
      </trkpt>
      <trkpt lat="48.64657" lon="-2.42166">
        <ele>14.6</ele>
        <time>2015-10-12T13:50:09Z</time>
      </trkpt>
      <trkpt lat="48.64649" lon="-2.42156">
        <ele>14.9</ele>
        <time>2015-10-12T13:50:21Z</time>
      </trkpt>
      <trkpt lat="48.64639" lon="-2.42154">
        <ele>15.3</ele>
        <time>2015-10-12T13:50:24Z</time>
      </trkpt>
      <trkpt lat="48.64629" lon="-2.42152">
        <ele>16</ele>
        <time>2015-10-12T13:50:27Z</time>
      </trkpt>
      <trkpt lat="48.6462" lon="-2.42151">
        <ele>16.9</ele>
        <time>2015-10-12T13:50:30Z</time>
      </trkpt>
      <trkpt lat="48.64609" lon="-2.42149">
        <ele>18.5</ele>
        <time>2015-10-12T13:50:34Z</time>
      </trkpt>
      <trkpt lat="48.64599" lon="-2.4215">
        <ele>20.1</ele>
        <time>2015-10-12T13:50:38Z</time>
      </trkpt>
      <trkpt lat="48.6459" lon="-2.42155">
        <ele>21.9</ele>
        <time>2015-10-12T13:50:43Z</time>
      </trkpt>
      <trkpt lat="48.64582" lon="-2.42165">
        <ele>23.6</ele>
        <time>2015-10-12T13:50:49Z</time>
      </trkpt>
      <trkpt lat="48.64575" lon="-2.42175">
        <ele>24.6</ele>
        <time>2015-10-12T13:50:53Z</time>
      </trkpt>
      <trkpt lat="48.64568" lon="-2.42185">
        <ele>25.5</ele>
        <time>2015-10-12T13:50:57Z</time>
      </trkpt>
      <trkpt lat="48.64562" lon="-2.42195">
        <ele>26.1</ele>
        <time>2015-10-12T13:51:00Z</time>
      </trkpt>
      <trkpt lat="48.64553" lon="-2.42206">
        <ele>26.8</ele>
        <time>2015-10-12T13:51:04Z</time>
      </trkpt>
      <trkpt lat="48.64546" lon="-2.42215">
        <ele>27.4</ele>
        <time>2015-10-12T13:51:08Z</time>
      </trkpt>
      <trkpt lat="48.64535" lon="-2.42224">
        <ele>27.9</ele>
        <time>2015-10-12T13:51:12Z</time>
      </trkpt>
      <trkpt lat="48.64525" lon="-2.42232">
        <ele>28.6</ele>
        <time>2015-10-12T13:51:16Z</time>
      </trkpt>
      <trkpt lat="48.64514" lon="-2.42236">
        <ele>29</ele>
        <time>2015-10-12T13:51:19Z</time>
      </trkpt>
      <trkpt lat="48.64503" lon="-2.42238">
        <ele>29.4</ele>
        <time>2015-10-12T13:51:22Z</time>
      </trkpt>
      <trkpt lat="48.64492" lon="-2.4224">
        <ele>29.9</ele>
        <time>2015-10-12T13:51:25Z</time>
      </trkpt>
      <trkpt lat="48.6448" lon="-2.42242">
        <ele>30.2</ele>
        <time>2015-10-12T13:51:28Z</time>
      </trkpt>
      <trkpt lat="48.64471" lon="-2.42244">
        <ele>30.5</ele>
        <time>2015-10-12T13:51:31Z</time>
      </trkpt>
      <trkpt lat="48.6446" lon="-2.42245">
        <ele>30.9</ele>
        <time>2015-10-12T13:51:35Z</time>
      </trkpt>
      <trkpt lat="48.64448" lon="-2.42245">
        <ele>31.3</ele>
        <time>2015-10-12T13:51:38Z</time>
      </trkpt>
      <trkpt lat="48.64436" lon="-2.42245">
        <ele>31.8</ele>
        <time>2015-10-12T13:51:42Z</time>
      </trkpt>
      <trkpt lat="48.64426" lon="-2.42248">
        <ele>32.3</ele>
        <time>2015-10-12T13:51:45Z</time>
      </trkpt>
      <trkpt lat="48.64415" lon="-2.42248">
        <ele>32.7</ele>
        <time>2015-10-12T13:51:48Z</time>
      </trkpt>
      <trkpt lat="48.64403" lon="-2.42252">
        <ele>33.2</ele>
        <time>2015-10-12T13:51:51Z</time>
      </trkpt>
      <trkpt lat="48.64392" lon="-2.42261">
        <ele>33.6</ele>
        <time>2015-10-12T13:51:54Z</time>
      </trkpt>
      <trkpt lat="48.64379" lon="-2.42268">
        <ele>34</ele>
        <time>2015-10-12T13:51:57Z</time>
      </trkpt>
      <trkpt lat="48.6437" lon="-2.42274">
        <ele>34.3</ele>
        <time>2015-10-12T13:51:59Z</time>
      </trkpt>
      <trkpt lat="48.64359" lon="-2.42285">
        <ele>34.7</ele>
        <time>2015-10-12T13:52:02Z</time>
      </trkpt>
      <trkpt lat="48.64351" lon="-2.42293">
        <ele>35</ele>
        <time>2015-10-12T13:52:04Z</time>
      </trkpt>
      <trkpt lat="48.64344" lon="-2.42302">
        <ele>35.5</ele>
        <time>2015-10-12T13:52:06Z</time>
      </trkpt>
      <trkpt lat="48.64337" lon="-2.42311">
        <ele>35.9</ele>
        <time>2015-10-12T13:52:08Z</time>
      </trkpt>
      <trkpt lat="48.6433" lon="-2.42319">
        <ele>36.4</ele>
        <time>2015-10-12T13:52:10Z</time>
      </trkpt>
      <trkpt lat="48.64319" lon="-2.4233">
        <ele>37.3</ele>
        <time>2015-10-12T13:52:13Z</time>
      </trkpt>
      <trkpt lat="48.64308" lon="-2.42338">
        <ele>38.2</ele>
        <time>2015-10-12T13:52:16Z</time>
      </trkpt>
      <trkpt lat="48.64299" lon="-2.42346">
        <ele>39</ele>
        <time>2015-10-12T13:52:19Z</time>
      </trkpt>
      <trkpt lat="48.6429" lon="-2.42353">
        <ele>39.8</ele>
        <time>2015-10-12T13:52:22Z</time>
      </trkpt>
      <trkpt lat="48.64281" lon="-2.42359">
        <ele>40.6</ele>
        <time>2015-10-12T13:52:25Z</time>
      </trkpt>
      <trkpt lat="48.64273" lon="-2.42365">
        <ele>41.3</ele>
        <time>2015-10-12T13:52:28Z</time>
      </trkpt>
      <trkpt lat="48.64264" lon="-2.42371">
        <ele>41.9</ele>
        <time>2015-10-12T13:52:31Z</time>
      </trkpt>
      <trkpt lat="48.64254" lon="-2.42378">
        <ele>42.4</ele>
        <time>2015-10-12T13:52:34Z</time>
      </trkpt>
      <trkpt lat="48.64242" lon="-2.42387">
        <ele>42.9</ele>
        <time>2015-10-12T13:52:37Z</time>
      </trkpt>
      <trkpt lat="48.64234" lon="-2.42392">
        <ele>43.1</ele>
        <time>2015-10-12T13:52:39Z</time>
      </trkpt>
      <trkpt lat="48.64224" lon="-2.42399">
        <ele>43.3</ele>
        <time>2015-10-12T13:52:41Z</time>
      </trkpt>
      <trkpt lat="48.64214" lon="-2.42406">
        <ele>43.5</ele>
        <time>2015-10-12T13:52:43Z</time>
      </trkpt>
      <trkpt lat="48.64203" lon="-2.42412">
        <ele>43.7</ele>
        <time>2015-10-12T13:52:45Z</time>
      </trkpt>
      <trkpt lat="48.64193" lon="-2.4242">
        <ele>43.8</ele>
        <time>2015-10-12T13:52:47Z</time>
      </trkpt>
      <trkpt lat="48.64182" lon="-2.42426">
        <ele>43.9</ele>
        <time>2015-10-12T13:52:49Z</time>
      </trkpt>
      <trkpt lat="48.64173" lon="-2.42432">
        <ele>44</ele>
        <time>2015-10-12T13:52:51Z</time>
      </trkpt>
      <trkpt lat="48.64163" lon="-2.42436">
        <ele>44.1</ele>
        <time>2015-10-12T13:52:53Z</time>
      </trkpt>
      <trkpt lat="48.64151" lon="-2.42442">
        <ele>44.2</ele>
        <time>2015-10-12T13:52:56Z</time>
      </trkpt>
      <trkpt lat="48.64139" lon="-2.42446">
        <ele>44.3</ele>
        <time>2015-10-12T13:52:59Z</time>
      </trkpt>
      <trkpt lat="48.64131" lon="-2.42452">
        <ele>44.4</ele>
        <time>2015-10-12T13:53:01Z</time>
      </trkpt>
      <trkpt lat="48.64121" lon="-2.42462">
        <ele>44.7</ele>
        <time>2015-10-12T13:53:04Z</time>
      </trkpt>
      <trkpt lat="48.64112" lon="-2.4247">
        <ele>45</ele>
        <time>2015-10-12T13:53:07Z</time>
      </trkpt>
      <trkpt lat="48.64103" lon="-2.42478">
        <ele>45.5</ele>
        <time>2015-10-12T13:53:11Z</time>
      </trkpt>
      <trkpt lat="48.64095" lon="-2.42488">
        <ele>46.2</ele>
        <time>2015-10-12T13:53:16Z</time>
      </trkpt>
      <trkpt lat="48.64085" lon="-2.42497">
        <ele>46.5</ele>
        <time>2015-10-12T13:53:19Z</time>
      </trkpt>
      <trkpt lat="48.64074" lon="-2.42506">
        <ele>47</ele>
        <time>2015-10-12T13:53:22Z</time>
      </trkpt>
      <trkpt lat="48.64064" lon="-2.42515">
        <ele>47.5</ele>
        <time>2015-10-12T13:53:25Z</time>
      </trkpt>
      <trkpt lat="48.64054" lon="-2.42524">
        <ele>48</ele>
        <time>2015-10-12T13:53:28Z</time>
      </trkpt>
      <trkpt lat="48.64043" lon="-2.42533">
        <ele>48.6</ele>
        <time>2015-10-12T13:53:31Z</time>
      </trkpt>
      <trkpt lat="48.64033" lon="-2.42542">
        <ele>49.1</ele>
        <time>2015-10-12T13:53:34Z</time>
      </trkpt>
      <trkpt lat="48.64023" lon="-2.4255">
        <ele>49.7</ele>
        <time>2015-10-12T13:53:37Z</time>
      </trkpt>
      <trkpt lat="48.64013" lon="-2.42558">
        <ele>50.2</ele>
        <time>2015-10-12T13:53:40Z</time>
      </trkpt>
      <trkpt lat="48.64002" lon="-2.42567">
        <ele>50.8</ele>
        <time>2015-10-12T13:53:43Z</time>
      </trkpt>
      <trkpt lat="48.63992" lon="-2.42576">
        <ele>51.3</ele>
        <time>2015-10-12T13:53:46Z</time>
      </trkpt>
      <trkpt lat="48.63982" lon="-2.42584">
        <ele>51.9</ele>
        <time>2015-10-12T13:53:49Z</time>
      </trkpt>
      <trkpt lat="48.63973" lon="-2.42592">
        <ele>52.4</ele>
        <time>2015-10-12T13:53:52Z</time>
      </trkpt>
      <trkpt lat="48.63964" lon="-2.42599">
        <ele>52.8</ele>
        <time>2015-10-12T13:53:55Z</time>
      </trkpt>
      <trkpt lat="48.63954" lon="-2.42608">
        <ele>53.5</ele>
        <time>2015-10-12T13:53:59Z</time>
      </trkpt>
      <trkpt lat="48.63945" lon="-2.42617">
        <ele>54</ele>
        <time>2015-10-12T13:54:02Z</time>
      </trkpt>
      <trkpt lat="48.63935" lon="-2.42625">
        <ele>54.5</ele>
        <time>2015-10-12T13:54:05Z</time>
      </trkpt>
      <trkpt lat="48.63925" lon="-2.4263">
        <ele>55</ele>
        <time>2015-10-12T13:54:08Z</time>
      </trkpt>
      <trkpt lat="48.63915" lon="-2.42634">
        <ele>55.5</ele>
        <time>2015-10-12T13:54:11Z</time>
      </trkpt>
      <trkpt lat="48.63906" lon="-2.42637">
        <ele>55.9</ele>
        <time>2015-10-12T13:54:14Z</time>
      </trkpt>
      <trkpt lat="48.63894" lon="-2.42632">
        <ele>56.3</ele>
        <time>2015-10-12T13:54:18Z</time>
      </trkpt>
      <trkpt lat="48.63881" lon="-2.42629">
        <ele>56.5</ele>
        <time>2015-10-12T13:54:21Z</time>
      </trkpt>
      <trkpt lat="48.63869" lon="-2.42632">
        <ele>56.7</ele>
        <time>2015-10-12T13:54:24Z</time>
      </trkpt>
      <trkpt lat="48.63856" lon="-2.42638">
        <ele>56.9</ele>
        <time>2015-10-12T13:54:27Z</time>
      </trkpt>
      <trkpt lat="48.63848" lon="-2.42642">
        <ele>57</ele>
        <time>2015-10-12T13:54:29Z</time>
      </trkpt>
      <trkpt lat="48.6384" lon="-2.42649">
        <ele>57.1</ele>
        <time>2015-10-12T13:54:31Z</time>
      </trkpt>
      <trkpt lat="48.63831" lon="-2.42663">
        <ele>57.3</ele>
        <time>2015-10-12T13:54:34Z</time>
      </trkpt>
      <trkpt lat="48.63824" lon="-2.42654">
        <ele>57.6</ele>
        <time>2015-10-12T13:54:43Z</time>
      </trkpt>
      <trkpt lat="48.63822" lon="-2.42641">
        <ele>57.7</ele>
        <time>2015-10-12T13:54:47Z</time>
      </trkpt>
      <trkpt lat="48.63819" lon="-2.42624">
        <ele>57.7</ele>
        <time>2015-10-12T13:54:52Z</time>
      </trkpt>
      <trkpt lat="48.63817" lon="-2.42606">
        <ele>57.8</ele>
        <time>2015-10-12T13:54:56Z</time>
      </trkpt>
      <trkpt lat="48.63815" lon="-2.42588">
        <ele>57.8</ele>
        <time>2015-10-12T13:54:59Z</time>
      </trkpt>
      <trkpt lat="48.63812" lon="-2.42569">
        <ele>57.9</ele>
        <time>2015-10-12T13:55:02Z</time>
      </trkpt>
      <trkpt lat="48.63809" lon="-2.42549">
        <ele>57.9</ele>
        <time>2015-10-12T13:55:05Z</time>
      </trkpt>
      <trkpt lat="48.63804" lon="-2.42531">
        <ele>57.9</ele>
        <time>2015-10-12T13:55:08Z</time>
      </trkpt>
      <trkpt lat="48.63798" lon="-2.42513">
        <ele>57.9</ele>
        <time>2015-10-12T13:55:11Z</time>
      </trkpt>
      <trkpt lat="48.63794" lon="-2.42501">
        <ele>57.9</ele>
        <time>2015-10-12T13:55:13Z</time>
      </trkpt>
      <trkpt lat="48.63788" lon="-2.42483">
        <ele>57.9</ele>
        <time>2015-10-12T13:55:16Z</time>
      </trkpt>
      <trkpt lat="48.63783" lon="-2.42465">
        <ele>58</ele>
        <time>2015-10-12T13:55:19Z</time>
      </trkpt>
      <trkpt lat="48.63778" lon="-2.42446">
        <ele>58.1</ele>
        <time>2015-10-12T13:55:22Z</time>
      </trkpt>
      <trkpt lat="48.63773" lon="-2.42427">
        <ele>58.5</ele>
        <time>2015-10-12T13:55:25Z</time>
      </trkpt>
      <trkpt lat="48.6377" lon="-2.42414">
        <ele>58.7</ele>
        <time>2015-10-12T13:55:27Z</time>
      </trkpt>
      <trkpt lat="48.63767" lon="-2.42394">
        <ele>58.9</ele>
        <time>2015-10-12T13:55:30Z</time>
      </trkpt>
      <trkpt lat="48.63764" lon="-2.42379">
        <ele>59</ele>
        <time>2015-10-12T13:55:32Z</time>
      </trkpt>
      <trkpt lat="48.63761" lon="-2.42366">
        <ele>59.2</ele>
        <time>2015-10-12T13:55:34Z</time>
      </trkpt>
      <trkpt lat="48.63758" lon="-2.42353">
        <ele>59.3</ele>
        <time>2015-10-12T13:55:36Z</time>
      </trkpt>
      <trkpt lat="48.63756" lon="-2.42339">
        <ele>59.4</ele>
        <time>2015-10-12T13:55:38Z</time>
      </trkpt>
      <trkpt lat="48.63754" lon="-2.42325">
        <ele>59.5</ele>
        <time>2015-10-12T13:55:40Z</time>
      </trkpt>
      <trkpt lat="48.63752" lon="-2.42305">
        <ele>59.6</ele>
        <time>2015-10-12T13:55:43Z</time>
      </trkpt>
      <trkpt lat="48.6375" lon="-2.42291">
        <ele>59.6</ele>
        <time>2015-10-12T13:55:45Z</time>
      </trkpt>
      <trkpt lat="48.63748" lon="-2.42271">
        <ele>59.7</ele>
        <time>2015-10-12T13:55:48Z</time>
      </trkpt>
      <trkpt lat="48.63745" lon="-2.42252">
        <ele>59.8</ele>
        <time>2015-10-12T13:55:51Z</time>
      </trkpt>
      <trkpt lat="48.63741" lon="-2.42234">
        <ele>59.9</ele>
        <time>2015-10-12T13:55:54Z</time>
      </trkpt>
      <trkpt lat="48.63738" lon="-2.42219">
        <ele>60</ele>
        <time>2015-10-12T13:55:56Z</time>
      </trkpt>
      <trkpt lat="48.63736" lon="-2.42203">
        <ele>60</ele>
        <time>2015-10-12T13:55:58Z</time>
      </trkpt>
      <trkpt lat="48.63738" lon="-2.42186">
        <ele>59.7</ele>
        <time>2015-10-12T13:56:01Z</time>
      </trkpt>
      <trkpt lat="48.63744" lon="-2.42173">
        <ele>59</ele>
        <time>2015-10-12T13:56:04Z</time>
      </trkpt>
      <trkpt lat="48.6375" lon="-2.42158">
        <ele>57.9</ele>
        <time>2015-10-12T13:56:07Z</time>
      </trkpt>
      <trkpt lat="48.6376" lon="-2.42142">
        <ele>56.9</ele>
        <time>2015-10-12T13:56:09Z</time>
      </trkpt>
      <trkpt lat="48.63769" lon="-2.42125">
        <ele>55.9</ele>
        <time>2015-10-12T13:56:11Z</time>
      </trkpt>
      <trkpt lat="48.63774" lon="-2.4211">
        <ele>54.9</ele>
        <time>2015-10-12T13:56:13Z</time>
      </trkpt>
      <trkpt lat="48.63779" lon="-2.42094">
        <ele>53.9</ele>
        <time>2015-10-12T13:56:15Z</time>
      </trkpt>
      <trkpt lat="48.63785" lon="-2.42075">
        <ele>52.8</ele>
        <time>2015-10-12T13:56:17Z</time>
      </trkpt>
      <trkpt lat="48.6379" lon="-2.42056">
        <ele>51.7</ele>
        <time>2015-10-12T13:56:19Z</time>
      </trkpt>
      <trkpt lat="48.63793" lon="-2.42041">
        <ele>50.6</ele>
        <time>2015-10-12T13:56:21Z</time>
      </trkpt>
      <trkpt lat="48.63788" lon="-2.42025">
        <ele>48.8</ele>
        <time>2015-10-12T13:56:24Z</time>
      </trkpt>
      <trkpt lat="48.63784" lon="-2.42011">
        <ele>47.5</ele>
        <time>2015-10-12T13:56:26Z</time>
      </trkpt>
      <trkpt lat="48.6378" lon="-2.41996">
        <ele>46.1</ele>
        <time>2015-10-12T13:56:28Z</time>
      </trkpt>
      <trkpt lat="48.63776" lon="-2.41976">
        <ele>44.5</ele>
        <time>2015-10-12T13:56:30Z</time>
      </trkpt>
      <trkpt lat="48.63767" lon="-2.41955">
        <ele>42.8</ele>
        <time>2015-10-12T13:56:32Z</time>
      </trkpt>
      <trkpt lat="48.63762" lon="-2.41943">
        <ele>42</ele>
        <time>2015-10-12T13:56:33Z</time>
      </trkpt>
      <trkpt lat="48.63755" lon="-2.41928">
        <ele>40.2</ele>
        <time>2015-10-12T13:56:35Z</time>
      </trkpt>
      <trkpt lat="48.63753" lon="-2.41907">
        <ele>38.5</ele>
        <time>2015-10-12T13:56:37Z</time>
      </trkpt>
      <trkpt lat="48.63748" lon="-2.4189">
        <ele>36.7</ele>
        <time>2015-10-12T13:56:39Z</time>
      </trkpt>
      <trkpt lat="48.63741" lon="-2.41876">
        <ele>34.4</ele>
        <time>2015-10-12T13:56:42Z</time>
      </trkpt>
      <trkpt lat="48.63743" lon="-2.41862">
        <ele>30.6</ele>
        <time>2015-10-12T13:56:48Z</time>
      </trkpt>
      <trkpt lat="48.63737" lon="-2.41846">
        <ele>27.6</ele>
        <time>2015-10-12T13:56:55Z</time>
      </trkpt>
      <trkpt lat="48.63731" lon="-2.4183">
        <ele>26.6</ele>
        <time>2015-10-12T13:56:58Z</time>
      </trkpt>
      <trkpt lat="48.63724" lon="-2.41816">
        <ele>25.9</ele>
        <time>2015-10-12T13:57:00Z</time>
      </trkpt>
      <trkpt lat="48.63716" lon="-2.41801">
        <ele>25.1</ele>
        <time>2015-10-12T13:57:02Z</time>
      </trkpt>
      <trkpt lat="48.63708" lon="-2.41784">
        <ele>24.3</ele>
        <time>2015-10-12T13:57:04Z</time>
      </trkpt>
      <trkpt lat="48.63699" lon="-2.41767">
        <ele>23.5</ele>
        <time>2015-10-12T13:57:06Z</time>
      </trkpt>
      <trkpt lat="48.63688" lon="-2.4175">
        <ele>22.7</ele>
        <time>2015-10-12T13:57:08Z</time>
      </trkpt>
      <trkpt lat="48.63678" lon="-2.41732">
        <ele>21.8</ele>
        <time>2015-10-12T13:57:10Z</time>
      </trkpt>
      <trkpt lat="48.63667" lon="-2.41715">
        <ele>21</ele>
        <time>2015-10-12T13:57:12Z</time>
      </trkpt>
      <trkpt lat="48.63658" lon="-2.417">
        <ele>20.1</ele>
        <time>2015-10-12T13:57:14Z</time>
      </trkpt>
      <trkpt lat="48.63648" lon="-2.4169">
        <ele>18.7</ele>
        <time>2015-10-12T13:57:17Z</time>
      </trkpt>
      <trkpt lat="48.63637" lon="-2.41693">
        <ele>17.5</ele>
        <time>2015-10-12T13:57:20Z</time>
      </trkpt>
      <trkpt lat="48.63628" lon="-2.41705">
        <ele>16.3</ele>
        <time>2015-10-12T13:57:23Z</time>
      </trkpt>
      <trkpt lat="48.63619" lon="-2.41712">
        <ele>15.6</ele>
        <time>2015-10-12T13:57:25Z</time>
      </trkpt>
      <trkpt lat="48.63609" lon="-2.41722">
        <ele>14.8</ele>
        <time>2015-10-12T13:57:27Z</time>
      </trkpt>
      <trkpt lat="48.636" lon="-2.41733">
        <ele>14.2</ele>
        <time>2015-10-12T13:57:29Z</time>
      </trkpt>
      <trkpt lat="48.63592" lon="-2.41746">
        <ele>13.6</ele>
        <time>2015-10-12T13:57:31Z</time>
      </trkpt>
      <trkpt lat="48.63584" lon="-2.41757">
        <ele>13.1</ele>
        <time>2015-10-12T13:57:33Z</time>
      </trkpt>
      <trkpt lat="48.63577" lon="-2.41769">
        <ele>12.6</ele>
        <time>2015-10-12T13:57:35Z</time>
      </trkpt>
      <trkpt lat="48.6357" lon="-2.41781">
        <ele>12.2</ele>
        <time>2015-10-12T13:57:37Z</time>
      </trkpt>
      <trkpt lat="48.63563" lon="-2.41793">
        <ele>11.8</ele>
        <time>2015-10-12T13:57:39Z</time>
      </trkpt>
      <trkpt lat="48.63555" lon="-2.41805">
        <ele>11.4</ele>
        <time>2015-10-12T13:57:41Z</time>
      </trkpt>
      <trkpt lat="48.63547" lon="-2.41818">
        <ele>11.1</ele>
        <time>2015-10-12T13:57:43Z</time>
      </trkpt>
      <trkpt lat="48.6354" lon="-2.4183">
        <ele>10.8</ele>
        <time>2015-10-12T13:57:45Z</time>
      </trkpt>
      <trkpt lat="48.63532" lon="-2.41843">
        <ele>10.6</ele>
        <time>2015-10-12T13:57:47Z</time>
      </trkpt>
      <trkpt lat="48.63525" lon="-2.41855">
        <ele>10.3</ele>
        <time>2015-10-12T13:57:49Z</time>
      </trkpt>
      <trkpt lat="48.63516" lon="-2.41864">
        <ele>10.1</ele>
        <time>2015-10-12T13:57:51Z</time>
      </trkpt>
      <trkpt lat="48.63506" lon="-2.41874">
        <ele>10</ele>
        <time>2015-10-12T13:57:53Z</time>
      </trkpt>
      <trkpt lat="48.63497" lon="-2.41882">
        <ele>9.8</ele>
        <time>2015-10-12T13:57:55Z</time>
      </trkpt>
      <trkpt lat="48.63488" lon="-2.41891">
        <ele>9.7</ele>
        <time>2015-10-12T13:57:57Z</time>
      </trkpt>
      <trkpt lat="48.6348" lon="-2.419">
        <ele>9.6</ele>
        <time>2015-10-12T13:57:59Z</time>
      </trkpt>
      <trkpt lat="48.63471" lon="-2.4191">
        <ele>9.5</ele>
        <time>2015-10-12T13:58:01Z</time>
      </trkpt>
      <trkpt lat="48.63461" lon="-2.4192">
        <ele>9.4</ele>
        <time>2015-10-12T13:58:03Z</time>
      </trkpt>
      <trkpt lat="48.63453" lon="-2.41932">
        <ele>9.3</ele>
        <time>2015-10-12T13:58:05Z</time>
      </trkpt>
      <trkpt lat="48.63446" lon="-2.41944">
        <ele>9.2</ele>
        <time>2015-10-12T13:58:07Z</time>
      </trkpt>
      <trkpt lat="48.63439" lon="-2.41957">
        <ele>9</ele>
        <time>2015-10-12T13:58:09Z</time>
      </trkpt>
      <trkpt lat="48.63434" lon="-2.41972">
        <ele>8.9</ele>
        <time>2015-10-12T13:58:11Z</time>
      </trkpt>
      <trkpt lat="48.63431" lon="-2.41987">
        <ele>8.8</ele>
        <time>2015-10-12T13:58:13Z</time>
      </trkpt>
      <trkpt lat="48.63428" lon="-2.42">
        <ele>8.8</ele>
        <time>2015-10-12T13:58:15Z</time>
      </trkpt>
      <trkpt lat="48.63422" lon="-2.42017">
        <ele>8.7</ele>
        <time>2015-10-12T13:58:18Z</time>
      </trkpt>
      <trkpt lat="48.63414" lon="-2.42031">
        <ele>8.6</ele>
        <time>2015-10-12T13:58:21Z</time>
      </trkpt>
      <trkpt lat="48.63405" lon="-2.42041">
        <ele>8.6</ele>
        <time>2015-10-12T13:58:24Z</time>
      </trkpt>
      <trkpt lat="48.63397" lon="-2.42051">
        <ele>8.7</ele>
        <time>2015-10-12T13:58:27Z</time>
      </trkpt>
      <trkpt lat="48.63387" lon="-2.4206">
        <ele>8.9</ele>
        <time>2015-10-12T13:58:30Z</time>
      </trkpt>
      <trkpt lat="48.63378" lon="-2.42066">
        <ele>9.1</ele>
        <time>2015-10-12T13:58:33Z</time>
      </trkpt>
      <trkpt lat="48.63367" lon="-2.42071">
        <ele>9.6</ele>
        <time>2015-10-12T13:58:37Z</time>
      </trkpt>
      <trkpt lat="48.63356" lon="-2.42076">
        <ele>10</ele>
        <time>2015-10-12T13:58:40Z</time>
      </trkpt>
      <trkpt lat="48.63345" lon="-2.42083">
        <ele>10.4</ele>
        <time>2015-10-12T13:58:43Z</time>
      </trkpt>
      <trkpt lat="48.63335" lon="-2.42092">
        <ele>10.9</ele>
        <time>2015-10-12T13:58:47Z</time>
      </trkpt>
      <trkpt lat="48.63325" lon="-2.42102">
        <ele>11.5</ele>
        <time>2015-10-12T13:58:51Z</time>
      </trkpt>
      <trkpt lat="48.63317" lon="-2.4211">
        <ele>12.3</ele>
        <time>2015-10-12T13:58:56Z</time>
      </trkpt>
      <trkpt lat="48.63307" lon="-2.42117">
        <ele>13.5</ele>
        <time>2015-10-12T13:59:02Z</time>
      </trkpt>
      <trkpt lat="48.63299" lon="-2.42123">
        <ele>14.6</ele>
        <time>2015-10-12T13:59:08Z</time>
      </trkpt>
      <trkpt lat="48.6329" lon="-2.42133">
        <ele>16</ele>
        <time>2015-10-12T13:59:15Z</time>
      </trkpt>
      <trkpt lat="48.63283" lon="-2.42142">
        <ele>16.9</ele>
        <time>2015-10-12T13:59:19Z</time>
      </trkpt>
      <trkpt lat="48.63277" lon="-2.42153">
        <ele>18.6</ele>
        <time>2015-10-12T13:59:25Z</time>
      </trkpt>
      <trkpt lat="48.63274" lon="-2.42168">
        <ele>20.7</ele>
        <time>2015-10-12T13:59:32Z</time>
      </trkpt>
      <trkpt lat="48.6327" lon="-2.42181">
        <ele>22.5</ele>
        <time>2015-10-12T13:59:38Z</time>
      </trkpt>
      <trkpt lat="48.63267" lon="-2.42194">
        <ele>24.4</ele>
        <time>2015-10-12T13:59:45Z</time>
      </trkpt>
      <trkpt lat="48.63266" lon="-2.42208">
        <ele>28.3</ele>
        <time>2015-10-12T14:00:06Z</time>
      </trkpt>
      <trkpt lat="48.63263" lon="-2.42221">
        <ele>29.7</ele>
        <time>2015-10-12T14:00:17Z</time>
      </trkpt>
      <trkpt lat="48.63261" lon="-2.42236">
        <ele>30.7</ele>
        <time>2015-10-12T14:00:23Z</time>
      </trkpt>
      <trkpt lat="48.63257" lon="-2.4225">
        <ele>32.4</ele>
        <time>2015-10-12T14:00:32Z</time>
      </trkpt>
      <trkpt lat="48.63253" lon="-2.42262">
        <ele>33.8</ele>
        <time>2015-10-12T14:00:39Z</time>
      </trkpt>
      <trkpt lat="48.63247" lon="-2.42273">
        <ele>35.9</ele>
        <time>2015-10-12T14:00:51Z</time>
      </trkpt>
      <trkpt lat="48.63239" lon="-2.42283">
        <ele>37</ele>
        <time>2015-10-12T14:00:58Z</time>
      </trkpt>
      <trkpt lat="48.63231" lon="-2.42294">
        <ele>37.5</ele>
        <time>2015-10-12T14:01:02Z</time>
      </trkpt>
      <trkpt lat="48.63224" lon="-2.42306">
        <ele>38.2</ele>
        <time>2015-10-12T14:01:06Z</time>
      </trkpt>
      <trkpt lat="48.63216" lon="-2.42316">
        <ele>39.1</ele>
        <time>2015-10-12T14:01:11Z</time>
      </trkpt>
      <trkpt lat="48.63213" lon="-2.4233">
        <ele>39.9</ele>
        <time>2015-10-12T14:01:15Z</time>
      </trkpt>
      <trkpt lat="48.63213" lon="-2.42344">
        <ele>40.4</ele>
        <time>2015-10-12T14:01:18Z</time>
      </trkpt>
      <trkpt lat="48.63207" lon="-2.42358">
        <ele>40.8</ele>
        <time>2015-10-12T14:01:21Z</time>
      </trkpt>
      <trkpt lat="48.632" lon="-2.42372">
        <ele>41.2</ele>
        <time>2015-10-12T14:01:25Z</time>
      </trkpt>
      <trkpt lat="48.63193" lon="-2.42384">
        <ele>41.5</ele>
        <time>2015-10-12T14:01:28Z</time>
      </trkpt>
      <trkpt lat="48.63187" lon="-2.42395">
        <ele>41.7</ele>
        <time>2015-10-12T14:01:31Z</time>
      </trkpt>
      <trkpt lat="48.63181" lon="-2.42407">
        <ele>42</ele>
        <time>2015-10-12T14:01:34Z</time>
      </trkpt>
      <trkpt lat="48.63175" lon="-2.42419">
        <ele>42.2</ele>
        <time>2015-10-12T14:01:37Z</time>
      </trkpt>
      <trkpt lat="48.63169" lon="-2.42431">
        <ele>42.5</ele>
        <time>2015-10-12T14:01:40Z</time>
      </trkpt>
      <trkpt lat="48.63163" lon="-2.42443">
        <ele>42.8</ele>
        <time>2015-10-12T14:01:43Z</time>
      </trkpt>
      <trkpt lat="48.63156" lon="-2.42455">
        <ele>43.1</ele>
        <time>2015-10-12T14:01:46Z</time>
      </trkpt>
      <trkpt lat="48.6315" lon="-2.42467">
        <ele>43.4</ele>
        <time>2015-10-12T14:01:49Z</time>
      </trkpt>
      <trkpt lat="48.63145" lon="-2.42479">
        <ele>43.7</ele>
        <time>2015-10-12T14:01:52Z</time>
      </trkpt>
      <trkpt lat="48.63138" lon="-2.42493">
        <ele>44.1</ele>
        <time>2015-10-12T14:01:56Z</time>
      </trkpt>
      <trkpt lat="48.63131" lon="-2.42507">
        <ele>44.6</ele>
        <time>2015-10-12T14:02:00Z</time>
      </trkpt>
      <trkpt lat="48.63125" lon="-2.42518">
        <ele>45</ele>
        <time>2015-10-12T14:02:03Z</time>
      </trkpt>
      <trkpt lat="48.6312" lon="-2.42529">
        <ele>45.4</ele>
        <time>2015-10-12T14:02:06Z</time>
      </trkpt>
      <trkpt lat="48.63114" lon="-2.42541">
        <ele>45.8</ele>
        <time>2015-10-12T14:02:09Z</time>
      </trkpt>
      <trkpt lat="48.63108" lon="-2.42554">
        <ele>46.1</ele>
        <time>2015-10-12T14:02:12Z</time>
      </trkpt>
      <trkpt lat="48.63102" lon="-2.42567">
        <ele>46.5</ele>
        <time>2015-10-12T14:02:15Z</time>
      </trkpt>
      <trkpt lat="48.63095" lon="-2.42581">
        <ele>46.9</ele>
        <time>2015-10-12T14:02:18Z</time>
      </trkpt>
      <trkpt lat="48.63088" lon="-2.42595">
        <ele>47.3</ele>
        <time>2015-10-12T14:02:21Z</time>
      </trkpt>
      <trkpt lat="48.63081" lon="-2.4261">
        <ele>47.6</ele>
        <time>2015-10-12T14:02:24Z</time>
      </trkpt>
      <trkpt lat="48.63074" lon="-2.42625">
        <ele>47.9</ele>
        <time>2015-10-12T14:02:27Z</time>
      </trkpt>
      <trkpt lat="48.63066" lon="-2.42639">
        <ele>48.1</ele>
        <time>2015-10-12T14:02:30Z</time>
      </trkpt>
      <trkpt lat="48.63058" lon="-2.42655">
        <ele>48.4</ele>
        <time>2015-10-12T14:02:33Z</time>
      </trkpt>
      <trkpt lat="48.6305" lon="-2.4267">
        <ele>48.9</ele>
        <time>2015-10-12T14:02:36Z</time>
      </trkpt>
      <trkpt lat="48.63043" lon="-2.42685">
        <ele>49.3</ele>
        <time>2015-10-12T14:02:39Z</time>
      </trkpt>
      <trkpt lat="48.63036" lon="-2.427">
        <ele>49.7</ele>
        <time>2015-10-12T14:02:42Z</time>
      </trkpt>
      <trkpt lat="48.63029" lon="-2.42715">
        <ele>50</ele>
        <time>2015-10-12T14:02:45Z</time>
      </trkpt>
      <trkpt lat="48.63022" lon="-2.4273">
        <ele>50.4</ele>
        <time>2015-10-12T14:02:48Z</time>
      </trkpt>
      <trkpt lat="48.63015" lon="-2.42744">
        <ele>50.9</ele>
        <time>2015-10-12T14:02:51Z</time>
      </trkpt>
      <trkpt lat="48.63007" lon="-2.42759">
        <ele>51.3</ele>
        <time>2015-10-12T14:02:54Z</time>
      </trkpt>
      <trkpt lat="48.62999" lon="-2.42774">
        <ele>51.8</ele>
        <time>2015-10-12T14:02:57Z</time>
      </trkpt>
      <trkpt lat="48.62991" lon="-2.42788">
        <ele>52.2</ele>
        <time>2015-10-12T14:03:00Z</time>
      </trkpt>
      <trkpt lat="48.62983" lon="-2.42802">
        <ele>52.6</ele>
        <time>2015-10-12T14:03:03Z</time>
      </trkpt>
      <trkpt lat="48.62974" lon="-2.42813">
        <ele>53.1</ele>
        <time>2015-10-12T14:03:06Z</time>
      </trkpt>
      <trkpt lat="48.62964" lon="-2.42812">
        <ele>53.5</ele>
        <time>2015-10-12T14:03:09Z</time>
      </trkpt>
      <trkpt lat="48.62953" lon="-2.42806">
        <ele>53.8</ele>
        <time>2015-10-12T14:03:12Z</time>
      </trkpt>
      <trkpt lat="48.6294" lon="-2.42809">
        <ele>54.1</ele>
        <time>2015-10-12T14:03:15Z</time>
      </trkpt>
      <trkpt lat="48.62928" lon="-2.42815">
        <ele>54.4</ele>
        <time>2015-10-12T14:03:18Z</time>
      </trkpt>
      <trkpt lat="48.62915" lon="-2.42821">
        <ele>54.7</ele>
        <time>2015-10-12T14:03:21Z</time>
      </trkpt>
      <trkpt lat="48.62903" lon="-2.42827">
        <ele>55.1</ele>
        <time>2015-10-12T14:03:24Z</time>
      </trkpt>
      <trkpt lat="48.62891" lon="-2.42833">
        <ele>55.4</ele>
        <time>2015-10-12T14:03:27Z</time>
      </trkpt>
      <trkpt lat="48.62882" lon="-2.42837">
        <ele>55.7</ele>
        <time>2015-10-12T14:03:29Z</time>
      </trkpt>
      <trkpt lat="48.62873" lon="-2.42841">
        <ele>55.9</ele>
        <time>2015-10-12T14:03:31Z</time>
      </trkpt>
      <trkpt lat="48.62864" lon="-2.42846">
        <ele>56.1</ele>
        <time>2015-10-12T14:03:33Z</time>
      </trkpt>
      <trkpt lat="48.62851" lon="-2.42852">
        <ele>56.4</ele>
        <time>2015-10-12T14:03:36Z</time>
      </trkpt>
      <trkpt lat="48.62842" lon="-2.42856">
        <ele>56.7</ele>
        <time>2015-10-12T14:03:38Z</time>
      </trkpt>
      <trkpt lat="48.62833" lon="-2.4286">
        <ele>57</ele>
        <time>2015-10-12T14:03:40Z</time>
      </trkpt>
      <trkpt lat="48.62821" lon="-2.42867">
        <ele>57.3</ele>
        <time>2015-10-12T14:03:43Z</time>
      </trkpt>
      <trkpt lat="48.62812" lon="-2.42871">
        <ele>57.6</ele>
        <time>2015-10-12T14:03:45Z</time>
      </trkpt>
      <trkpt lat="48.62803" lon="-2.42876">
        <ele>57.8</ele>
        <time>2015-10-12T14:03:47Z</time>
      </trkpt>
      <trkpt lat="48.62791" lon="-2.42884">
        <ele>58.2</ele>
        <time>2015-10-12T14:03:50Z</time>
      </trkpt>
      <trkpt lat="48.6278" lon="-2.42892">
        <ele>58.6</ele>
        <time>2015-10-12T14:03:53Z</time>
      </trkpt>
      <trkpt lat="48.62768" lon="-2.429">
        <ele>59</ele>
        <time>2015-10-12T14:03:56Z</time>
      </trkpt>
      <trkpt lat="48.62756" lon="-2.42909">
        <ele>59.4</ele>
        <time>2015-10-12T14:03:59Z</time>
      </trkpt>
      <trkpt lat="48.62744" lon="-2.42917">
        <ele>59.7</ele>
        <time>2015-10-12T14:04:02Z</time>
      </trkpt>
      <trkpt lat="48.62732" lon="-2.42924">
        <ele>60</ele>
        <time>2015-10-12T14:04:05Z</time>
      </trkpt>
      <trkpt lat="48.6272" lon="-2.42931">
        <ele>60.2</ele>
        <time>2015-10-12T14:04:08Z</time>
      </trkpt>
      <trkpt lat="48.62708" lon="-2.42936">
        <ele>60.5</ele>
        <time>2015-10-12T14:04:11Z</time>
      </trkpt>
      <trkpt lat="48.62696" lon="-2.42941">
        <ele>60.8</ele>
        <time>2015-10-12T14:04:14Z</time>
      </trkpt>
      <trkpt lat="48.62685" lon="-2.42951">
        <ele>61.1</ele>
        <time>2015-10-12T14:04:17Z</time>
      </trkpt>
      <trkpt lat="48.62677" lon="-2.42959">
        <ele>61.2</ele>
        <time>2015-10-12T14:04:19Z</time>
      </trkpt>
      <trkpt lat="48.6267" lon="-2.42968">
        <ele>61.4</ele>
        <time>2015-10-12T14:04:21Z</time>
      </trkpt>
      <trkpt lat="48.62661" lon="-2.42976">
        <ele>61.5</ele>
        <time>2015-10-12T14:04:23Z</time>
      </trkpt>
      <trkpt lat="48.62653" lon="-2.42983">
        <ele>61.6</ele>
        <time>2015-10-12T14:04:25Z</time>
      </trkpt>
      <trkpt lat="48.62643" lon="-2.42988">
        <ele>61.7</ele>
        <time>2015-10-12T14:04:27Z</time>
      </trkpt>
      <trkpt lat="48.62633" lon="-2.42992">
        <ele>61.8</ele>
        <time>2015-10-12T14:04:29Z</time>
      </trkpt>
      <trkpt lat="48.62622" lon="-2.42994">
        <ele>61.9</ele>
        <time>2015-10-12T14:04:31Z</time>
      </trkpt>
      <trkpt lat="48.6261" lon="-2.42995">
        <ele>62</ele>
        <time>2015-10-12T14:04:33Z</time>
      </trkpt>
      <trkpt lat="48.62598" lon="-2.42996">
        <ele>62</ele>
        <time>2015-10-12T14:04:35Z</time>
      </trkpt>
      <trkpt lat="48.62584" lon="-2.42996">
        <ele>61.9</ele>
        <time>2015-10-12T14:04:37Z</time>
      </trkpt>
      <trkpt lat="48.6257" lon="-2.42995">
        <ele>61.8</ele>
        <time>2015-10-12T14:04:39Z</time>
      </trkpt>
      <trkpt lat="48.62555" lon="-2.42995">
        <ele>61.6</ele>
        <time>2015-10-12T14:04:41Z</time>
      </trkpt>
      <trkpt lat="48.6254" lon="-2.42994">
        <ele>61.3</ele>
        <time>2015-10-12T14:04:43Z</time>
      </trkpt>
      <trkpt lat="48.62525" lon="-2.42992">
        <ele>61</ele>
        <time>2015-10-12T14:04:45Z</time>
      </trkpt>
      <trkpt lat="48.62509" lon="-2.4299">
        <ele>60.7</ele>
        <time>2015-10-12T14:04:47Z</time>
      </trkpt>
      <trkpt lat="48.62493" lon="-2.42988">
        <ele>60.4</ele>
        <time>2015-10-12T14:04:49Z</time>
      </trkpt>
      <trkpt lat="48.62478" lon="-2.42986">
        <ele>59.9</ele>
        <time>2015-10-12T14:04:51Z</time>
      </trkpt>
      <trkpt lat="48.62462" lon="-2.42984">
        <ele>59.5</ele>
        <time>2015-10-12T14:04:53Z</time>
      </trkpt>
      <trkpt lat="48.62447" lon="-2.42982">
        <ele>59.1</ele>
        <time>2015-10-12T14:04:55Z</time>
      </trkpt>
      <trkpt lat="48.62431" lon="-2.42981">
        <ele>58.7</ele>
        <time>2015-10-12T14:04:57Z</time>
      </trkpt>
      <trkpt lat="48.62415" lon="-2.4298">
        <ele>58.2</ele>
        <time>2015-10-12T14:04:59Z</time>
      </trkpt>
      <trkpt lat="48.624" lon="-2.4298">
        <ele>57.7</ele>
        <time>2015-10-12T14:05:01Z</time>
      </trkpt>
      <trkpt lat="48.62384" lon="-2.42982">
        <ele>57.2</ele>
        <time>2015-10-12T14:05:03Z</time>
      </trkpt>
      <trkpt lat="48.6237" lon="-2.42984">
        <ele>56.7</ele>
        <time>2015-10-12T14:05:05Z</time>
      </trkpt>
      <trkpt lat="48.62355" lon="-2.42988">
        <ele>56.2</ele>
        <time>2015-10-12T14:05:07Z</time>
      </trkpt>
      <trkpt lat="48.62341" lon="-2.42993">
        <ele>55.8</ele>
        <time>2015-10-12T14:05:09Z</time>
      </trkpt>
      <trkpt lat="48.62328" lon="-2.42997">
        <ele>55.4</ele>
        <time>2015-10-12T14:05:11Z</time>
      </trkpt>
      <trkpt lat="48.62314" lon="-2.43002">
        <ele>54.9</ele>
        <time>2015-10-12T14:05:13Z</time>
      </trkpt>
      <trkpt lat="48.62301" lon="-2.43006">
        <ele>54.4</ele>
        <time>2015-10-12T14:05:15Z</time>
      </trkpt>
      <trkpt lat="48.62287" lon="-2.43011">
        <ele>53.9</ele>
        <time>2015-10-12T14:05:17Z</time>
      </trkpt>
      <trkpt lat="48.62274" lon="-2.43014">
        <ele>53.5</ele>
        <time>2015-10-12T14:05:19Z</time>
      </trkpt>
      <trkpt lat="48.62262" lon="-2.43015">
        <ele>53</ele>
        <time>2015-10-12T14:05:21Z</time>
      </trkpt>
      <trkpt lat="48.62252" lon="-2.43014">
        <ele>52.5</ele>
        <time>2015-10-12T14:05:23Z</time>
      </trkpt>
      <trkpt lat="48.62242" lon="-2.43013">
        <ele>51.5</ele>
        <time>2015-10-12T14:05:27Z</time>
      </trkpt>
      <trkpt lat="48.62232" lon="-2.43014">
        <ele>50.6</ele>
        <time>2015-10-12T14:05:31Z</time>
      </trkpt>
      <trkpt lat="48.6222" lon="-2.43015">
        <ele>49.8</ele>
        <time>2015-10-12T14:05:34Z</time>
      </trkpt>
      <trkpt lat="48.62211" lon="-2.43012">
        <ele>49</ele>
        <time>2015-10-12T14:05:37Z</time>
      </trkpt>
      <trkpt lat="48.62209" lon="-2.42994">
        <ele>48.3</ele>
        <time>2015-10-12T14:05:40Z</time>
      </trkpt>
      <trkpt lat="48.62208" lon="-2.42979">
        <ele>47.7</ele>
        <time>2015-10-12T14:05:42Z</time>
      </trkpt>
      <trkpt lat="48.62209" lon="-2.42964">
        <ele>47.2</ele>
        <time>2015-10-12T14:05:44Z</time>
      </trkpt>
      <trkpt lat="48.62211" lon="-2.42948">
        <ele>46.4</ele>
        <time>2015-10-12T14:05:46Z</time>
      </trkpt>
      <trkpt lat="48.62211" lon="-2.42929">
        <ele>45.6</ele>
        <time>2015-10-12T14:05:48Z</time>
      </trkpt>
      <trkpt lat="48.62211" lon="-2.42911">
        <ele>44.8</ele>
        <time>2015-10-12T14:05:50Z</time>
      </trkpt>
      <trkpt lat="48.62204" lon="-2.429">
        <ele>43.6</ele>
        <time>2015-10-12T14:05:53Z</time>
      </trkpt>
      <trkpt lat="48.62203" lon="-2.4288">
        <ele>42.2</ele>
        <time>2015-10-12T14:05:56Z</time>
      </trkpt>
      <trkpt lat="48.62205" lon="-2.42864">
        <ele>41.4</ele>
        <time>2015-10-12T14:05:58Z</time>
      </trkpt>
      <trkpt lat="48.62206" lon="-2.42846">
        <ele>40.6</ele>
        <time>2015-10-12T14:06:00Z</time>
      </trkpt>
      <trkpt lat="48.62211" lon="-2.42832">
        <ele>39.9</ele>
        <time>2015-10-12T14:06:02Z</time>
      </trkpt>
      <trkpt lat="48.62219" lon="-2.4282">
        <ele>39.3</ele>
        <time>2015-10-12T14:06:04Z</time>
      </trkpt>
      <trkpt lat="48.62226" lon="-2.42809">
        <ele>38.7</ele>
        <time>2015-10-12T14:06:06Z</time>
      </trkpt>
      <trkpt lat="48.62232" lon="-2.42798">
        <ele>38.2</ele>
        <time>2015-10-12T14:06:08Z</time>
      </trkpt>
      <trkpt lat="48.62239" lon="-2.4278">
        <ele>37.6</ele>
        <time>2015-10-12T14:06:11Z</time>
      </trkpt>
      <trkpt lat="48.62245" lon="-2.42766">
        <ele>37.1</ele>
        <time>2015-10-12T14:06:14Z</time>
      </trkpt>
      <trkpt lat="48.6225" lon="-2.42752">
        <ele>36.8</ele>
        <time>2015-10-12T14:06:16Z</time>
      </trkpt>
      <trkpt lat="48.62257" lon="-2.42741">
        <ele>36.5</ele>
        <time>2015-10-12T14:06:18Z</time>
      </trkpt>
      <trkpt lat="48.62266" lon="-2.42735">
        <ele>36.3</ele>
        <time>2015-10-12T14:06:20Z</time>
      </trkpt>
      <trkpt lat="48.62275" lon="-2.42726">
        <ele>35.9</ele>
        <time>2015-10-12T14:06:23Z</time>
      </trkpt>
      <trkpt lat="48.62275" lon="-2.42712">
        <ele>35</ele>
        <time>2015-10-12T14:06:30Z</time>
      </trkpt>
      <trkpt lat="48.62268" lon="-2.42698">
        <ele>34.5</ele>
        <time>2015-10-12T14:06:35Z</time>
      </trkpt>
      <trkpt lat="48.62262" lon="-2.42686">
        <ele>34.2</ele>
        <time>2015-10-12T14:06:38Z</time>
      </trkpt>
      <trkpt lat="48.62257" lon="-2.42674">
        <ele>34</ele>
        <time>2015-10-12T14:06:41Z</time>
      </trkpt>
      <trkpt lat="48.62252" lon="-2.42661">
        <ele>33.8</ele>
        <time>2015-10-12T14:06:44Z</time>
      </trkpt>
      <trkpt lat="48.62247" lon="-2.42647">
        <ele>33.7</ele>
        <time>2015-10-12T14:06:47Z</time>
      </trkpt>
      <trkpt lat="48.6225" lon="-2.42632">
        <ele>33.5</ele>
        <time>2015-10-12T14:06:51Z</time>
      </trkpt>
      <trkpt lat="48.62254" lon="-2.42619">
        <ele>33.7</ele>
        <time>2015-10-12T14:09:44Z</time>
      </trkpt>
      <trkpt lat="48.62245" lon="-2.42628">
        <ele>33.7</ele>
        <time>2015-10-12T14:09:50Z</time>
      </trkpt>
      <trkpt lat="48.62238" lon="-2.42636">
        <ele>34.1</ele>
        <time>2015-10-12T14:09:54Z</time>
      </trkpt>
      <trkpt lat="48.62229" lon="-2.42642">
        <ele>34.7</ele>
        <time>2015-10-12T14:09:59Z</time>
      </trkpt>
      <trkpt lat="48.6222" lon="-2.42647">
        <ele>35.3</ele>
        <time>2015-10-12T14:10:04Z</time>
      </trkpt>
      <trkpt lat="48.62209" lon="-2.42648">
        <ele>36</ele>
        <time>2015-10-12T14:10:09Z</time>
      </trkpt>
      <trkpt lat="48.62199" lon="-2.42647">
        <ele>36.5</ele>
        <time>2015-10-12T14:10:13Z</time>
      </trkpt>
      <trkpt lat="48.62189" lon="-2.42645">
        <ele>37.3</ele>
        <time>2015-10-12T14:10:17Z</time>
      </trkpt>
      <trkpt lat="48.62178" lon="-2.42641">
        <ele>38</ele>
        <time>2015-10-12T14:10:21Z</time>
      </trkpt>
      <trkpt lat="48.62166" lon="-2.42637">
        <ele>38.6</ele>
        <time>2015-10-12T14:10:25Z</time>
      </trkpt>
      <trkpt lat="48.62155" lon="-2.42633">
        <ele>39.5</ele>
        <time>2015-10-12T14:10:29Z</time>
      </trkpt>
      <trkpt lat="48.62144" lon="-2.4263">
        <ele>40.2</ele>
        <time>2015-10-12T14:10:33Z</time>
      </trkpt>
      <trkpt lat="48.62135" lon="-2.42628">
        <ele>40.7</ele>
        <time>2015-10-12T14:10:36Z</time>
      </trkpt>
      <trkpt lat="48.62126" lon="-2.42625">
        <ele>41.2</ele>
        <time>2015-10-12T14:10:39Z</time>
      </trkpt>
      <trkpt lat="48.62117" lon="-2.42623">
        <ele>41.8</ele>
        <time>2015-10-12T14:10:42Z</time>
      </trkpt>
      <trkpt lat="48.62106" lon="-2.42619">
        <ele>42.6</ele>
        <time>2015-10-12T14:10:46Z</time>
      </trkpt>
      <trkpt lat="48.62096" lon="-2.42615">
        <ele>43.3</ele>
        <time>2015-10-12T14:10:50Z</time>
      </trkpt>
      <trkpt lat="48.62086" lon="-2.42607">
        <ele>44</ele>
        <time>2015-10-12T14:10:54Z</time>
      </trkpt>
      <trkpt lat="48.62078" lon="-2.42601">
        <ele>44.5</ele>
        <time>2015-10-12T14:10:57Z</time>
      </trkpt>
      <trkpt lat="48.62068" lon="-2.42596">
        <ele>44.9</ele>
        <time>2015-10-12T14:11:00Z</time>
      </trkpt>
      <trkpt lat="48.62059" lon="-2.42588">
        <ele>45.3</ele>
        <time>2015-10-12T14:11:03Z</time>
      </trkpt>
      <trkpt lat="48.62049" lon="-2.42583">
        <ele>45.8</ele>
        <time>2015-10-12T14:11:06Z</time>
      </trkpt>
      <trkpt lat="48.62037" lon="-2.42579">
        <ele>46.2</ele>
        <time>2015-10-12T14:11:09Z</time>
      </trkpt>
      <trkpt lat="48.62026" lon="-2.42574">
        <ele>46.7</ele>
        <time>2015-10-12T14:11:12Z</time>
      </trkpt>
      <trkpt lat="48.62014" lon="-2.42571">
        <ele>47.1</ele>
        <time>2015-10-12T14:11:15Z</time>
      </trkpt>
      <trkpt lat="48.62002" lon="-2.42568">
        <ele>47.4</ele>
        <time>2015-10-12T14:11:18Z</time>
      </trkpt>
      <trkpt lat="48.61989" lon="-2.42565">
        <ele>47.9</ele>
        <time>2015-10-12T14:11:21Z</time>
      </trkpt>
      <trkpt lat="48.61976" lon="-2.42563">
        <ele>48.2</ele>
        <time>2015-10-12T14:11:24Z</time>
      </trkpt>
      <trkpt lat="48.61963" lon="-2.42557">
        <ele>48.6</ele>
        <time>2015-10-12T14:11:27Z</time>
      </trkpt>
      <trkpt lat="48.61954" lon="-2.42552">
        <ele>48.7</ele>
        <time>2015-10-12T14:11:29Z</time>
      </trkpt>
      <trkpt lat="48.61945" lon="-2.42547">
        <ele>48.9</ele>
        <time>2015-10-12T14:11:31Z</time>
      </trkpt>
      <trkpt lat="48.61935" lon="-2.42541">
        <ele>49</ele>
        <time>2015-10-12T14:11:33Z</time>
      </trkpt>
      <trkpt lat="48.61926" lon="-2.42533">
        <ele>49</ele>
        <time>2015-10-12T14:11:35Z</time>
      </trkpt>
      <trkpt lat="48.61917" lon="-2.42523">
        <ele>49</ele>
        <time>2015-10-12T14:11:38Z</time>
      </trkpt>
      <trkpt lat="48.6191" lon="-2.42506">
        <ele>48.9</ele>
        <time>2015-10-12T14:11:41Z</time>
      </trkpt>
      <trkpt lat="48.61908" lon="-2.42492">
        <ele>48.8</ele>
        <time>2015-10-12T14:11:43Z</time>
      </trkpt>
      <trkpt lat="48.61908" lon="-2.42476">
        <ele>48.6</ele>
        <time>2015-10-12T14:11:45Z</time>
      </trkpt>
      <trkpt lat="48.6191" lon="-2.42459">
        <ele>48.4</ele>
        <time>2015-10-12T14:11:47Z</time>
      </trkpt>
      <trkpt lat="48.61913" lon="-2.42444">
        <ele>48.1</ele>
        <time>2015-10-12T14:11:49Z</time>
      </trkpt>
      <trkpt lat="48.61916" lon="-2.42427">
        <ele>47.9</ele>
        <time>2015-10-12T14:11:51Z</time>
      </trkpt>
      <trkpt lat="48.61918" lon="-2.42412">
        <ele>47.6</ele>
        <time>2015-10-12T14:11:53Z</time>
      </trkpt>
      <trkpt lat="48.61912" lon="-2.42399">
        <ele>47.3</ele>
        <time>2015-10-12T14:11:56Z</time>
      </trkpt>
      <trkpt lat="48.61905" lon="-2.4241">
        <ele>46.9</ele>
        <time>2015-10-12T14:12:00Z</time>
      </trkpt>
      <trkpt lat="48.61904" lon="-2.42429">
        <ele>46.7</ele>
        <time>2015-10-12T14:12:03Z</time>
      </trkpt>
      <trkpt lat="48.61902" lon="-2.42448">
        <ele>46.6</ele>
        <time>2015-10-12T14:12:06Z</time>
      </trkpt>
      <trkpt lat="48.61901" lon="-2.42462">
        <ele>46.5</ele>
        <time>2015-10-12T14:12:08Z</time>
      </trkpt>
      <trkpt lat="48.619" lon="-2.42477">
        <ele>46.5</ele>
        <time>2015-10-12T14:12:10Z</time>
      </trkpt>
      <trkpt lat="48.61899" lon="-2.42492">
        <ele>46.4</ele>
        <time>2015-10-12T14:12:12Z</time>
      </trkpt>
      <trkpt lat="48.61898" lon="-2.42507">
        <ele>46.4</ele>
        <time>2015-10-12T14:12:14Z</time>
      </trkpt>
      <trkpt lat="48.61897" lon="-2.42522">
        <ele>46.5</ele>
        <time>2015-10-12T14:12:16Z</time>
      </trkpt>
      <trkpt lat="48.61896" lon="-2.42536">
        <ele>46.5</ele>
        <time>2015-10-12T14:12:18Z</time>
      </trkpt>
      <trkpt lat="48.61895" lon="-2.42551">
        <ele>46.6</ele>
        <time>2015-10-12T14:12:20Z</time>
      </trkpt>
      <trkpt lat="48.61894" lon="-2.42566">
        <ele>46.8</ele>
        <time>2015-10-12T14:12:22Z</time>
      </trkpt>
      <trkpt lat="48.61893" lon="-2.42581">
        <ele>47</ele>
        <time>2015-10-12T14:12:24Z</time>
      </trkpt>
      <trkpt lat="48.61891" lon="-2.42595">
        <ele>47.2</ele>
        <time>2015-10-12T14:12:26Z</time>
      </trkpt>
      <trkpt lat="48.61889" lon="-2.4261">
        <ele>47.3</ele>
        <time>2015-10-12T14:12:28Z</time>
      </trkpt>
      <trkpt lat="48.61885" lon="-2.42625">
        <ele>47.4</ele>
        <time>2015-10-12T14:12:30Z</time>
      </trkpt>
      <trkpt lat="48.61882" lon="-2.4264">
        <ele>47.6</ele>
        <time>2015-10-12T14:12:32Z</time>
      </trkpt>
      <trkpt lat="48.61877" lon="-2.42653">
        <ele>47.7</ele>
        <time>2015-10-12T14:12:34Z</time>
      </trkpt>
      <trkpt lat="48.61868" lon="-2.42662">
        <ele>47.7</ele>
        <time>2015-10-12T14:12:36Z</time>
      </trkpt>
      <trkpt lat="48.61858" lon="-2.42666">
        <ele>47.8</ele>
        <time>2015-10-12T14:12:38Z</time>
      </trkpt>
      <trkpt lat="48.61848" lon="-2.42669">
        <ele>47.8</ele>
        <time>2015-10-12T14:12:40Z</time>
      </trkpt>
      <trkpt lat="48.61837" lon="-2.42671">
        <ele>47.8</ele>
        <time>2015-10-12T14:12:42Z</time>
      </trkpt>
      <trkpt lat="48.61828" lon="-2.42673">
        <ele>47.9</ele>
        <time>2015-10-12T14:12:44Z</time>
      </trkpt>
      <trkpt lat="48.61818" lon="-2.42674">
        <ele>47.9</ele>
        <time>2015-10-12T14:12:46Z</time>
      </trkpt>
      <trkpt lat="48.61807" lon="-2.42675">
        <ele>47.9</ele>
        <time>2015-10-12T14:12:48Z</time>
      </trkpt>
      <trkpt lat="48.61796" lon="-2.42677">
        <ele>47.9</ele>
        <time>2015-10-12T14:12:50Z</time>
      </trkpt>
      <trkpt lat="48.61785" lon="-2.42679">
        <ele>47.9</ele>
        <time>2015-10-12T14:12:52Z</time>
      </trkpt>
      <trkpt lat="48.61774" lon="-2.4268">
        <ele>47.9</ele>
        <time>2015-10-12T14:12:54Z</time>
      </trkpt>
      <trkpt lat="48.61762" lon="-2.42681">
        <ele>47.8</ele>
        <time>2015-10-12T14:12:56Z</time>
      </trkpt>
      <trkpt lat="48.6175" lon="-2.42681">
        <ele>47.7</ele>
        <time>2015-10-12T14:12:58Z</time>
      </trkpt>
      <trkpt lat="48.61738" lon="-2.42678">
        <ele>47.5</ele>
        <time>2015-10-12T14:13:00Z</time>
      </trkpt>
      <trkpt lat="48.61725" lon="-2.42673">
        <ele>47.3</ele>
        <time>2015-10-12T14:13:02Z</time>
      </trkpt>
      <trkpt lat="48.61714" lon="-2.42667">
        <ele>47.1</ele>
        <time>2015-10-12T14:13:04Z</time>
      </trkpt>
      <trkpt lat="48.61703" lon="-2.42667">
        <ele>46.9</ele>
        <time>2015-10-12T14:13:06Z</time>
      </trkpt>
      <trkpt lat="48.61694" lon="-2.42677">
        <ele>46.8</ele>
        <time>2015-10-12T14:13:08Z</time>
      </trkpt>
      <trkpt lat="48.61686" lon="-2.4269">
        <ele>46.6</ele>
        <time>2015-10-12T14:13:10Z</time>
      </trkpt>
      <trkpt lat="48.61679" lon="-2.42704">
        <ele>46.4</ele>
        <time>2015-10-12T14:13:12Z</time>
      </trkpt>
      <trkpt lat="48.61671" lon="-2.42718">
        <ele>46.2</ele>
        <time>2015-10-12T14:13:14Z</time>
      </trkpt>
      <trkpt lat="48.61664" lon="-2.42733">
        <ele>46</ele>
        <time>2015-10-12T14:13:16Z</time>
      </trkpt>
      <trkpt lat="48.61657" lon="-2.42748">
        <ele>45.8</ele>
        <time>2015-10-12T14:13:18Z</time>
      </trkpt>
      <trkpt lat="48.6165" lon="-2.42763">
        <ele>45.6</ele>
        <time>2015-10-12T14:13:20Z</time>
      </trkpt>
      <trkpt lat="48.61642" lon="-2.42779">
        <ele>45.5</ele>
        <time>2015-10-12T14:13:22Z</time>
      </trkpt>
      <trkpt lat="48.61633" lon="-2.42792">
        <ele>45.3</ele>
        <time>2015-10-12T14:13:24Z</time>
      </trkpt>
      <trkpt lat="48.61622" lon="-2.42803">
        <ele>45.1</ele>
        <time>2015-10-12T14:13:26Z</time>
      </trkpt>
      <trkpt lat="48.61611" lon="-2.42811">
        <ele>44.9</ele>
        <time>2015-10-12T14:13:28Z</time>
      </trkpt>
      <trkpt lat="48.61599" lon="-2.42819">
        <ele>44.8</ele>
        <time>2015-10-12T14:13:30Z</time>
      </trkpt>
      <trkpt lat="48.61589" lon="-2.42827">
        <ele>44.6</ele>
        <time>2015-10-12T14:13:32Z</time>
      </trkpt>
      <trkpt lat="48.61578" lon="-2.42835">
        <ele>44.5</ele>
        <time>2015-10-12T14:13:34Z</time>
      </trkpt>
      <trkpt lat="48.61567" lon="-2.42844">
        <ele>44.4</ele>
        <time>2015-10-12T14:13:36Z</time>
      </trkpt>
      <trkpt lat="48.61556" lon="-2.42852">
        <ele>44.3</ele>
        <time>2015-10-12T14:13:38Z</time>
      </trkpt>
      <trkpt lat="48.61545" lon="-2.42857">
        <ele>44.2</ele>
        <time>2015-10-12T14:13:40Z</time>
      </trkpt>
      <trkpt lat="48.61533" lon="-2.42857">
        <ele>44.2</ele>
        <time>2015-10-12T14:13:42Z</time>
      </trkpt>
      <trkpt lat="48.61521" lon="-2.42852">
        <ele>44.1</ele>
        <time>2015-10-12T14:13:44Z</time>
      </trkpt>
      <trkpt lat="48.6151" lon="-2.42846">
        <ele>44</ele>
        <time>2015-10-12T14:13:46Z</time>
      </trkpt>
      <trkpt lat="48.61498" lon="-2.42839">
        <ele>43.9</ele>
        <time>2015-10-12T14:13:48Z</time>
      </trkpt>
      <trkpt lat="48.61488" lon="-2.42833">
        <ele>43.7</ele>
        <time>2015-10-12T14:13:50Z</time>
      </trkpt>
      <trkpt lat="48.61477" lon="-2.42828">
        <ele>43.7</ele>
        <time>2015-10-12T14:13:52Z</time>
      </trkpt>
      <trkpt lat="48.61466" lon="-2.42822">
        <ele>43.6</ele>
        <time>2015-10-12T14:13:54Z</time>
      </trkpt>
      <trkpt lat="48.61455" lon="-2.42817">
        <ele>43.6</ele>
        <time>2015-10-12T14:13:56Z</time>
      </trkpt>
      <trkpt lat="48.61445" lon="-2.42811">
        <ele>43.5</ele>
        <time>2015-10-12T14:13:58Z</time>
      </trkpt>
      <trkpt lat="48.61435" lon="-2.42806">
        <ele>43.6</ele>
        <time>2015-10-12T14:14:00Z</time>
      </trkpt>
      <trkpt lat="48.61425" lon="-2.428">
        <ele>43.6</ele>
        <time>2015-10-12T14:14:02Z</time>
      </trkpt>
      <trkpt lat="48.61415" lon="-2.42796">
        <ele>43.7</ele>
        <time>2015-10-12T14:14:04Z</time>
      </trkpt>
      <trkpt lat="48.61405" lon="-2.42792">
        <ele>43.8</ele>
        <time>2015-10-12T14:14:06Z</time>
      </trkpt>
      <trkpt lat="48.61394" lon="-2.42791">
        <ele>43.9</ele>
        <time>2015-10-12T14:14:08Z</time>
      </trkpt>
      <trkpt lat="48.61383" lon="-2.4279">
        <ele>44</ele>
        <time>2015-10-12T14:14:10Z</time>
      </trkpt>
      <trkpt lat="48.61372" lon="-2.4279">
        <ele>44</ele>
        <time>2015-10-12T14:14:12Z</time>
      </trkpt>
      <trkpt lat="48.61361" lon="-2.42789">
        <ele>44.1</ele>
        <time>2015-10-12T14:14:14Z</time>
      </trkpt>
      <trkpt lat="48.6135" lon="-2.42789">
        <ele>44.1</ele>
        <time>2015-10-12T14:14:16Z</time>
      </trkpt>
      <trkpt lat="48.61338" lon="-2.42787">
        <ele>44.2</ele>
        <time>2015-10-12T14:14:18Z</time>
      </trkpt>
      <trkpt lat="48.61327" lon="-2.42785">
        <ele>44.2</ele>
        <time>2015-10-12T14:14:20Z</time>
      </trkpt>
      <trkpt lat="48.61316" lon="-2.42783">
        <ele>44.3</ele>
        <time>2015-10-12T14:14:22Z</time>
      </trkpt>
      <trkpt lat="48.61306" lon="-2.42786">
        <ele>44.4</ele>
        <time>2015-10-12T14:14:24Z</time>
      </trkpt>
      <trkpt lat="48.61298" lon="-2.42796">
        <ele>44.5</ele>
        <time>2015-10-12T14:14:26Z</time>
      </trkpt>
      <trkpt lat="48.61291" lon="-2.42809">
        <ele>44.6</ele>
        <time>2015-10-12T14:14:28Z</time>
      </trkpt>
      <trkpt lat="48.61286" lon="-2.42822">
        <ele>44.6</ele>
        <time>2015-10-12T14:14:30Z</time>
      </trkpt>
      <trkpt lat="48.6128" lon="-2.42835">
        <ele>44.7</ele>
        <time>2015-10-12T14:14:32Z</time>
      </trkpt>
      <trkpt lat="48.61275" lon="-2.42847">
        <ele>44.8</ele>
        <time>2015-10-12T14:14:34Z</time>
      </trkpt>
      <trkpt lat="48.6127" lon="-2.4286">
        <ele>44.9</ele>
        <time>2015-10-12T14:14:36Z</time>
      </trkpt>
      <trkpt lat="48.61267" lon="-2.42873">
        <ele>45.1</ele>
        <time>2015-10-12T14:14:38Z</time>
      </trkpt>
      <trkpt lat="48.61265" lon="-2.42887">
        <ele>45.3</ele>
        <time>2015-10-12T14:14:40Z</time>
      </trkpt>
      <trkpt lat="48.61263" lon="-2.42901">
        <ele>45.4</ele>
        <time>2015-10-12T14:14:42Z</time>
      </trkpt>
      <trkpt lat="48.61261" lon="-2.42916">
        <ele>45.6</ele>
        <time>2015-10-12T14:14:44Z</time>
      </trkpt>
      <trkpt lat="48.61259" lon="-2.4293">
        <ele>45.9</ele>
        <time>2015-10-12T14:14:46Z</time>
      </trkpt>
      <trkpt lat="48.61257" lon="-2.42945">
        <ele>46.1</ele>
        <time>2015-10-12T14:14:48Z</time>
      </trkpt>
      <trkpt lat="48.61255" lon="-2.42959">
        <ele>46.3</ele>
        <time>2015-10-12T14:14:50Z</time>
      </trkpt>
      <trkpt lat="48.61254" lon="-2.42974">
        <ele>46.5</ele>
        <time>2015-10-12T14:14:52Z</time>
      </trkpt>
      <trkpt lat="48.6125" lon="-2.42988">
        <ele>46.7</ele>
        <time>2015-10-12T14:14:54Z</time>
      </trkpt>
      <trkpt lat="48.61248" lon="-2.43002">
        <ele>46.9</ele>
        <time>2015-10-12T14:14:56Z</time>
      </trkpt>
      <trkpt lat="48.61247" lon="-2.43016">
        <ele>47.1</ele>
        <time>2015-10-12T14:14:58Z</time>
      </trkpt>
      <trkpt lat="48.61252" lon="-2.43035">
        <ele>47.4</ele>
        <time>2015-10-12T14:15:01Z</time>
      </trkpt>
      <trkpt lat="48.61258" lon="-2.43045">
        <ele>47.5</ele>
        <time>2015-10-12T14:15:03Z</time>
      </trkpt>
      <trkpt lat="48.61267" lon="-2.43052">
        <ele>47.7</ele>
        <time>2015-10-12T14:15:05Z</time>
      </trkpt>
      <trkpt lat="48.61276" lon="-2.43057">
        <ele>47.7</ele>
        <time>2015-10-12T14:15:07Z</time>
      </trkpt>
      <trkpt lat="48.61286" lon="-2.4306">
        <ele>47.8</ele>
        <time>2015-10-12T14:15:09Z</time>
      </trkpt>
      <trkpt lat="48.61296" lon="-2.43064">
        <ele>47.8</ele>
        <time>2015-10-12T14:15:11Z</time>
      </trkpt>
      <trkpt lat="48.61305" lon="-2.43068">
        <ele>47.8</ele>
        <time>2015-10-12T14:15:13Z</time>
      </trkpt>
      <trkpt lat="48.61314" lon="-2.43071">
        <ele>47.9</ele>
        <time>2015-10-12T14:15:15Z</time>
      </trkpt>
      <trkpt lat="48.61326" lon="-2.43077">
        <ele>47.8</ele>
        <time>2015-10-12T14:15:18Z</time>
      </trkpt>
      <trkpt lat="48.61339" lon="-2.43084">
        <ele>47.8</ele>
        <time>2015-10-12T14:15:21Z</time>
      </trkpt>
      <trkpt lat="48.61348" lon="-2.43089">
        <ele>47.7</ele>
        <time>2015-10-12T14:15:23Z</time>
      </trkpt>
      <trkpt lat="48.61356" lon="-2.43096">
        <ele>47.6</ele>
        <time>2015-10-12T14:15:25Z</time>
      </trkpt>
      <trkpt lat="48.6136" lon="-2.43109">
        <ele>47.6</ele>
        <time>2015-10-12T14:15:27Z</time>
      </trkpt>
      <trkpt lat="48.61356" lon="-2.43122">
        <ele>47.5</ele>
        <time>2015-10-12T14:15:29Z</time>
      </trkpt>
      <trkpt lat="48.61349" lon="-2.43131">
        <ele>47.5</ele>
        <time>2015-10-12T14:15:31Z</time>
      </trkpt>
      <trkpt lat="48.61342" lon="-2.43139">
        <ele>47.4</ele>
        <time>2015-10-12T14:15:33Z</time>
      </trkpt>
      <trkpt lat="48.61334" lon="-2.43146">
        <ele>47.4</ele>
        <time>2015-10-12T14:15:35Z</time>
      </trkpt>
      <trkpt lat="48.61326" lon="-2.43154">
        <ele>47.4</ele>
        <time>2015-10-12T14:15:37Z</time>
      </trkpt>
      <trkpt lat="48.61319" lon="-2.43163">
        <ele>47.4</ele>
        <time>2015-10-12T14:15:39Z</time>
      </trkpt>
      <trkpt lat="48.61312" lon="-2.43173">
        <ele>47.4</ele>
        <time>2015-10-12T14:15:41Z</time>
      </trkpt>
      <trkpt lat="48.61306" lon="-2.43184">
        <ele>47.4</ele>
        <time>2015-10-12T14:15:43Z</time>
      </trkpt>
      <trkpt lat="48.613" lon="-2.43196">
        <ele>47.5</ele>
        <time>2015-10-12T14:15:45Z</time>
      </trkpt>
      <trkpt lat="48.61294" lon="-2.43208">
        <ele>47.5</ele>
        <time>2015-10-12T14:15:47Z</time>
      </trkpt>
      <trkpt lat="48.61289" lon="-2.4322">
        <ele>47.5</ele>
        <time>2015-10-12T14:15:49Z</time>
      </trkpt>
      <trkpt lat="48.61283" lon="-2.43232">
        <ele>47.6</ele>
        <time>2015-10-12T14:15:51Z</time>
      </trkpt>
      <trkpt lat="48.61277" lon="-2.43243">
        <ele>47.6</ele>
        <time>2015-10-12T14:15:53Z</time>
      </trkpt>
      <trkpt lat="48.6127" lon="-2.43258">
        <ele>47.7</ele>
        <time>2015-10-12T14:15:56Z</time>
      </trkpt>
      <trkpt lat="48.6126" lon="-2.43268">
        <ele>47.7</ele>
        <time>2015-10-12T14:15:59Z</time>
      </trkpt>
      <trkpt lat="48.61248" lon="-2.4327">
        <ele>48</ele>
        <time>2015-10-12T14:16:02Z</time>
      </trkpt>
      <trkpt lat="48.61236" lon="-2.43261">
        <ele>48.3</ele>
        <time>2015-10-12T14:16:05Z</time>
      </trkpt>
      <trkpt lat="48.61228" lon="-2.43257">
        <ele>48.5</ele>
        <time>2015-10-12T14:16:07Z</time>
      </trkpt>
      <trkpt lat="48.61218" lon="-2.43251">
        <ele>48.6</ele>
        <time>2015-10-12T14:16:09Z</time>
      </trkpt>
      <trkpt lat="48.6121" lon="-2.43245">
        <ele>48.8</ele>
        <time>2015-10-12T14:16:11Z</time>
      </trkpt>
      <trkpt lat="48.612" lon="-2.43239">
        <ele>48.9</ele>
        <time>2015-10-12T14:16:13Z</time>
      </trkpt>
      <trkpt lat="48.6119" lon="-2.43239">
        <ele>49.1</ele>
        <time>2015-10-12T14:16:15Z</time>
      </trkpt>
      <trkpt lat="48.61179" lon="-2.43242">
        <ele>49.2</ele>
        <time>2015-10-12T14:16:17Z</time>
      </trkpt>
      <trkpt lat="48.61169" lon="-2.43248">
        <ele>49.3</ele>
        <time>2015-10-12T14:16:19Z</time>
      </trkpt>
      <trkpt lat="48.61159" lon="-2.43253">
        <ele>49.4</ele>
        <time>2015-10-12T14:16:21Z</time>
      </trkpt>
      <trkpt lat="48.6115" lon="-2.43257">
        <ele>49.5</ele>
        <time>2015-10-12T14:16:23Z</time>
      </trkpt>
      <trkpt lat="48.61141" lon="-2.43261">
        <ele>49.6</ele>
        <time>2015-10-12T14:16:25Z</time>
      </trkpt>
      <trkpt lat="48.61128" lon="-2.43264">
        <ele>49.8</ele>
        <time>2015-10-12T14:16:28Z</time>
      </trkpt>
      <trkpt lat="48.61115" lon="-2.43267">
        <ele>50.1</ele>
        <time>2015-10-12T14:16:31Z</time>
      </trkpt>
      <trkpt lat="48.61102" lon="-2.43271">
        <ele>50.3</ele>
        <time>2015-10-12T14:16:34Z</time>
      </trkpt>
      <trkpt lat="48.61093" lon="-2.43274">
        <ele>50.4</ele>
        <time>2015-10-12T14:16:36Z</time>
      </trkpt>
      <trkpt lat="48.61084" lon="-2.43277">
        <ele>50.6</ele>
        <time>2015-10-12T14:16:38Z</time>
      </trkpt>
      <trkpt lat="48.61075" lon="-2.4328">
        <ele>50.7</ele>
        <time>2015-10-12T14:16:40Z</time>
      </trkpt>
      <trkpt lat="48.61062" lon="-2.43285">
        <ele>50.9</ele>
        <time>2015-10-12T14:16:43Z</time>
      </trkpt>
      <trkpt lat="48.6105" lon="-2.43289">
        <ele>51.2</ele>
        <time>2015-10-12T14:16:46Z</time>
      </trkpt>
      <trkpt lat="48.61038" lon="-2.43294">
        <ele>51.6</ele>
        <time>2015-10-12T14:16:49Z</time>
      </trkpt>
      <trkpt lat="48.61025" lon="-2.43299">
        <ele>51.9</ele>
        <time>2015-10-12T14:16:52Z</time>
      </trkpt>
      <trkpt lat="48.61012" lon="-2.43304">
        <ele>52.3</ele>
        <time>2015-10-12T14:16:55Z</time>
      </trkpt>
      <trkpt lat="48.61003" lon="-2.43308">
        <ele>52.5</ele>
        <time>2015-10-12T14:16:57Z</time>
      </trkpt>
      <trkpt lat="48.60994" lon="-2.43312">
        <ele>52.7</ele>
        <time>2015-10-12T14:16:59Z</time>
      </trkpt>
      <trkpt lat="48.60985" lon="-2.43314">
        <ele>53</ele>
        <time>2015-10-12T14:17:01Z</time>
      </trkpt>
      <trkpt lat="48.60976" lon="-2.43315">
        <ele>53.1</ele>
        <time>2015-10-12T14:17:03Z</time>
      </trkpt>
      <trkpt lat="48.60967" lon="-2.43316">
        <ele>53.3</ele>
        <time>2015-10-12T14:17:05Z</time>
      </trkpt>
      <trkpt lat="48.60954" lon="-2.43314">
        <ele>53.5</ele>
        <time>2015-10-12T14:17:08Z</time>
      </trkpt>
      <trkpt lat="48.60945" lon="-2.43314">
        <ele>53.7</ele>
        <time>2015-10-12T14:17:12Z</time>
      </trkpt>
      <trkpt lat="48.60936" lon="-2.43323">
        <ele>55.2</ele>
        <time>2015-10-12T14:21:11Z</time>
      </trkpt>
      <trkpt lat="48.60927" lon="-2.43324">
        <ele>55.2</ele>
        <time>2015-10-12T14:21:13Z</time>
      </trkpt>
      <trkpt lat="48.60918" lon="-2.43326">
        <ele>55.2</ele>
        <time>2015-10-12T14:21:15Z</time>
      </trkpt>
      <trkpt lat="48.60908" lon="-2.43327">
        <ele>55.2</ele>
        <time>2015-10-12T14:21:17Z</time>
      </trkpt>
      <trkpt lat="48.60898" lon="-2.43328">
        <ele>55.2</ele>
        <time>2015-10-12T14:21:19Z</time>
      </trkpt>
      <trkpt lat="48.60888" lon="-2.43329">
        <ele>55.1</ele>
        <time>2015-10-12T14:21:21Z</time>
      </trkpt>
      <trkpt lat="48.60879" lon="-2.43331">
        <ele>55.1</ele>
        <time>2015-10-12T14:21:23Z</time>
      </trkpt>
      <trkpt lat="48.6087" lon="-2.43333">
        <ele>55.1</ele>
        <time>2015-10-12T14:21:25Z</time>
      </trkpt>
      <trkpt lat="48.6086" lon="-2.43334">
        <ele>55.1</ele>
        <time>2015-10-12T14:21:27Z</time>
      </trkpt>
      <trkpt lat="48.60847" lon="-2.43336">
        <ele>55.1</ele>
        <time>2015-10-12T14:21:30Z</time>
      </trkpt>
      <trkpt lat="48.60836" lon="-2.43336">
        <ele>55.1</ele>
        <time>2015-10-12T14:21:33Z</time>
      </trkpt>
      <trkpt lat="48.60825" lon="-2.43336">
        <ele>55.1</ele>
        <time>2015-10-12T14:21:36Z</time>
      </trkpt>
      <trkpt lat="48.60815" lon="-2.43335">
        <ele>55.1</ele>
        <time>2015-10-12T14:21:38Z</time>
      </trkpt>
      <trkpt lat="48.60805" lon="-2.43334">
        <ele>55.1</ele>
        <time>2015-10-12T14:21:40Z</time>
      </trkpt>
      <trkpt lat="48.60795" lon="-2.43333">
        <ele>55.1</ele>
        <time>2015-10-12T14:21:42Z</time>
      </trkpt>
      <trkpt lat="48.60785" lon="-2.43332">
        <ele>55.1</ele>
        <time>2015-10-12T14:21:44Z</time>
      </trkpt>
      <trkpt lat="48.60775" lon="-2.43332">
        <ele>55.1</ele>
        <time>2015-10-12T14:21:46Z</time>
      </trkpt>
      <trkpt lat="48.60766" lon="-2.43333">
        <ele>55.1</ele>
        <time>2015-10-12T14:21:48Z</time>
      </trkpt>
      <trkpt lat="48.60753" lon="-2.43337">
        <ele>55.3</ele>
        <time>2015-10-12T14:21:51Z</time>
      </trkpt>
      <trkpt lat="48.60744" lon="-2.43341">
        <ele>55.4</ele>
        <time>2015-10-12T14:21:53Z</time>
      </trkpt>
      <trkpt lat="48.60732" lon="-2.43348">
        <ele>55.6</ele>
        <time>2015-10-12T14:21:56Z</time>
      </trkpt>
      <trkpt lat="48.60722" lon="-2.43355">
        <ele>55.8</ele>
        <time>2015-10-12T14:21:59Z</time>
      </trkpt>
      <trkpt lat="48.60713" lon="-2.43361">
        <ele>56</ele>
        <time>2015-10-12T14:22:02Z</time>
      </trkpt>
      <trkpt lat="48.60722" lon="-2.43355">
        <ele>57.6</ele>
        <time>2015-10-12T14:22:44Z</time>
      </trkpt>
      <trkpt lat="48.60731" lon="-2.4335">
        <ele>57.5</ele>
        <time>2015-10-12T14:22:46Z</time>
      </trkpt>
      <trkpt lat="48.60741" lon="-2.43343">
        <ele>57.5</ele>
        <time>2015-10-12T14:22:48Z</time>
      </trkpt>
      <trkpt lat="48.60751" lon="-2.43338">
        <ele>57.4</ele>
        <time>2015-10-12T14:22:50Z</time>
      </trkpt>
      <trkpt lat="48.60762" lon="-2.43334">
        <ele>57.4</ele>
        <time>2015-10-12T14:22:52Z</time>
      </trkpt>
      <trkpt lat="48.60773" lon="-2.43333">
        <ele>57.3</ele>
        <time>2015-10-12T14:22:54Z</time>
      </trkpt>
      <trkpt lat="48.60785" lon="-2.43332">
        <ele>57.3</ele>
        <time>2015-10-12T14:22:56Z</time>
      </trkpt>
      <trkpt lat="48.60797" lon="-2.43333">
        <ele>57.2</ele>
        <time>2015-10-12T14:22:58Z</time>
      </trkpt>
      <trkpt lat="48.60808" lon="-2.43334">
        <ele>57</ele>
        <time>2015-10-12T14:23:00Z</time>
      </trkpt>
      <trkpt lat="48.6082" lon="-2.43334">
        <ele>56.9</ele>
        <time>2015-10-12T14:23:02Z</time>
      </trkpt>
      <trkpt lat="48.60831" lon="-2.43334">
        <ele>56.8</ele>
        <time>2015-10-12T14:23:04Z</time>
      </trkpt>
      <trkpt lat="48.60842" lon="-2.43334">
        <ele>56.6</ele>
        <time>2015-10-12T14:23:06Z</time>
      </trkpt>
      <trkpt lat="48.60853" lon="-2.43333">
        <ele>56.5</ele>
        <time>2015-10-12T14:23:08Z</time>
      </trkpt>
      <trkpt lat="48.60863" lon="-2.43331">
        <ele>56.4</ele>
        <time>2015-10-12T14:23:10Z</time>
      </trkpt>
      <trkpt lat="48.60874" lon="-2.4333">
        <ele>56.2</ele>
        <time>2015-10-12T14:23:12Z</time>
      </trkpt>
      <trkpt lat="48.60885" lon="-2.43328">
        <ele>56.1</ele>
        <time>2015-10-12T14:23:14Z</time>
      </trkpt>
      <trkpt lat="48.60895" lon="-2.43326">
        <ele>56</ele>
        <time>2015-10-12T14:23:16Z</time>
      </trkpt>
      <trkpt lat="48.60905" lon="-2.43324">
        <ele>55.9</ele>
        <time>2015-10-12T14:23:18Z</time>
      </trkpt>
      <trkpt lat="48.60915" lon="-2.43322">
        <ele>55.9</ele>
        <time>2015-10-12T14:23:20Z</time>
      </trkpt>
      <trkpt lat="48.60925" lon="-2.4332">
        <ele>55.8</ele>
        <time>2015-10-12T14:23:22Z</time>
      </trkpt>
      <trkpt lat="48.60935" lon="-2.43318">
        <ele>55.7</ele>
        <time>2015-10-12T14:23:24Z</time>
      </trkpt>
      <trkpt lat="48.60944" lon="-2.43317">
        <ele>55.7</ele>
        <time>2015-10-12T14:23:26Z</time>
      </trkpt>
      <trkpt lat="48.60954" lon="-2.43316">
        <ele>55.6</ele>
        <time>2015-10-12T14:23:28Z</time>
      </trkpt>
      <trkpt lat="48.60965" lon="-2.43317">
        <ele>55.6</ele>
        <time>2015-10-12T14:23:30Z</time>
      </trkpt>
      <trkpt lat="48.60975" lon="-2.43317">
        <ele>55.6</ele>
        <time>2015-10-12T14:23:32Z</time>
      </trkpt>
      <trkpt lat="48.60985" lon="-2.43315">
        <ele>55.5</ele>
        <time>2015-10-12T14:23:34Z</time>
      </trkpt>
      <trkpt lat="48.60997" lon="-2.43318">
        <ele>55.3</ele>
        <time>2015-10-12T14:23:37Z</time>
      </trkpt>
      <trkpt lat="48.61006" lon="-2.43324">
        <ele>55.2</ele>
        <time>2015-10-12T14:23:39Z</time>
      </trkpt>
      <trkpt lat="48.61016" lon="-2.43333">
        <ele>55.1</ele>
        <time>2015-10-12T14:23:41Z</time>
      </trkpt>
      <trkpt lat="48.61026" lon="-2.43343">
        <ele>55</ele>
        <time>2015-10-12T14:23:43Z</time>
      </trkpt>
      <trkpt lat="48.61034" lon="-2.43354">
        <ele>54.9</ele>
        <time>2015-10-12T14:23:45Z</time>
      </trkpt>
      <trkpt lat="48.61043" lon="-2.43366">
        <ele>54.8</ele>
        <time>2015-10-12T14:23:47Z</time>
      </trkpt>
      <trkpt lat="48.61051" lon="-2.43378">
        <ele>54.7</ele>
        <time>2015-10-12T14:23:49Z</time>
      </trkpt>
      <trkpt lat="48.61059" lon="-2.43389">
        <ele>54.7</ele>
        <time>2015-10-12T14:23:51Z</time>
      </trkpt>
      <trkpt lat="48.61067" lon="-2.43398">
        <ele>54.6</ele>
        <time>2015-10-12T14:23:53Z</time>
      </trkpt>
      <trkpt lat="48.61076" lon="-2.43405">
        <ele>54.5</ele>
        <time>2015-10-12T14:23:55Z</time>
      </trkpt>
      <trkpt lat="48.61085" lon="-2.43408">
        <ele>54.5</ele>
        <time>2015-10-12T14:23:57Z</time>
      </trkpt>
      <trkpt lat="48.61094" lon="-2.43408">
        <ele>54.5</ele>
        <time>2015-10-12T14:23:59Z</time>
      </trkpt>
      <trkpt lat="48.61104" lon="-2.43408">
        <ele>54.4</ele>
        <time>2015-10-12T14:24:01Z</time>
      </trkpt>
      <trkpt lat="48.61113" lon="-2.43406">
        <ele>54.4</ele>
        <time>2015-10-12T14:24:03Z</time>
      </trkpt>
      <trkpt lat="48.61123" lon="-2.43404">
        <ele>54.4</ele>
        <time>2015-10-12T14:24:05Z</time>
      </trkpt>
      <trkpt lat="48.61133" lon="-2.43403">
        <ele>54.3</ele>
        <time>2015-10-12T14:24:07Z</time>
      </trkpt>
      <trkpt lat="48.61142" lon="-2.43408">
        <ele>54.3</ele>
        <time>2015-10-12T14:24:09Z</time>
      </trkpt>
      <trkpt lat="48.61149" lon="-2.43419">
        <ele>54.3</ele>
        <time>2015-10-12T14:24:11Z</time>
      </trkpt>
      <trkpt lat="48.61151" lon="-2.43435">
        <ele>54.3</ele>
        <time>2015-10-12T14:24:13Z</time>
      </trkpt>
      <trkpt lat="48.61151" lon="-2.43453">
        <ele>54.4</ele>
        <time>2015-10-12T14:24:15Z</time>
      </trkpt>
      <trkpt lat="48.61152" lon="-2.43471">
        <ele>54.4</ele>
        <time>2015-10-12T14:24:17Z</time>
      </trkpt>
      <trkpt lat="48.61152" lon="-2.43489">
        <ele>54.4</ele>
        <time>2015-10-12T14:24:19Z</time>
      </trkpt>
      <trkpt lat="48.61153" lon="-2.43506">
        <ele>54.4</ele>
        <time>2015-10-12T14:24:21Z</time>
      </trkpt>
      <trkpt lat="48.61153" lon="-2.43525">
        <ele>54.3</ele>
        <time>2015-10-12T14:24:23Z</time>
      </trkpt>
      <trkpt lat="48.61152" lon="-2.43544">
        <ele>54.2</ele>
        <time>2015-10-12T14:24:25Z</time>
      </trkpt>
      <trkpt lat="48.61152" lon="-2.43563">
        <ele>54</ele>
        <time>2015-10-12T14:24:27Z</time>
      </trkpt>
      <trkpt lat="48.61152" lon="-2.43582">
        <ele>53.9</ele>
        <time>2015-10-12T14:24:29Z</time>
      </trkpt>
      <trkpt lat="48.61152" lon="-2.43601">
        <ele>53.6</ele>
        <time>2015-10-12T14:24:31Z</time>
      </trkpt>
      <trkpt lat="48.61151" lon="-2.4362">
        <ele>53.3</ele>
        <time>2015-10-12T14:24:33Z</time>
      </trkpt>
      <trkpt lat="48.61151" lon="-2.4364">
        <ele>53</ele>
        <time>2015-10-12T14:24:35Z</time>
      </trkpt>
      <trkpt lat="48.61151" lon="-2.43661">
        <ele>52.6</ele>
        <time>2015-10-12T14:24:37Z</time>
      </trkpt>
      <trkpt lat="48.61151" lon="-2.43682">
        <ele>52.2</ele>
        <time>2015-10-12T14:24:39Z</time>
      </trkpt>
      <trkpt lat="48.61151" lon="-2.43703">
        <ele>51.8</ele>
        <time>2015-10-12T14:24:41Z</time>
      </trkpt>
      <trkpt lat="48.61152" lon="-2.43723">
        <ele>51.3</ele>
        <time>2015-10-12T14:24:43Z</time>
      </trkpt>
      <trkpt lat="48.61154" lon="-2.43743">
        <ele>50.8</ele>
        <time>2015-10-12T14:24:45Z</time>
      </trkpt>
      <trkpt lat="48.61158" lon="-2.43761">
        <ele>50.3</ele>
        <time>2015-10-12T14:24:47Z</time>
      </trkpt>
      <trkpt lat="48.61164" lon="-2.43777">
        <ele>49.9</ele>
        <time>2015-10-12T14:24:49Z</time>
      </trkpt>
      <trkpt lat="48.61174" lon="-2.43792">
        <ele>49.4</ele>
        <time>2015-10-12T14:24:51Z</time>
      </trkpt>
      <trkpt lat="48.6118" lon="-2.43809">
        <ele>48.9</ele>
        <time>2015-10-12T14:24:53Z</time>
      </trkpt>
      <trkpt lat="48.61182" lon="-2.43828">
        <ele>48.5</ele>
        <time>2015-10-12T14:24:55Z</time>
      </trkpt>
      <trkpt lat="48.61179" lon="-2.43847">
        <ele>48.1</ele>
        <time>2015-10-12T14:24:57Z</time>
      </trkpt>
      <trkpt lat="48.61173" lon="-2.43862">
        <ele>47.7</ele>
        <time>2015-10-12T14:24:59Z</time>
      </trkpt>
      <trkpt lat="48.61167" lon="-2.43877">
        <ele>47.4</ele>
        <time>2015-10-12T14:25:01Z</time>
      </trkpt>
      <trkpt lat="48.61163" lon="-2.43892">
        <ele>47.1</ele>
        <time>2015-10-12T14:25:03Z</time>
      </trkpt>
      <trkpt lat="48.61159" lon="-2.43905">
        <ele>46</ele>
        <time>2015-10-12T14:25:05Z</time>
      </trkpt>
      <trkpt lat="48.61154" lon="-2.43925">
        <ele>46.5</ele>
        <time>2015-10-12T14:25:08Z</time>
      </trkpt>
      <trkpt lat="48.61153" lon="-2.43939">
        <ele>46.4</ele>
        <time>2015-10-12T14:25:10Z</time>
      </trkpt>
      <trkpt lat="48.6115" lon="-2.43952">
        <ele>46.4</ele>
        <time>2015-10-12T14:25:12Z</time>
      </trkpt>
      <trkpt lat="48.61148" lon="-2.43966">
        <ele>46.4</ele>
        <time>2015-10-12T14:25:14Z</time>
      </trkpt>
      <trkpt lat="48.61145" lon="-2.4398">
        <ele>46.4</ele>
        <time>2015-10-12T14:25:16Z</time>
      </trkpt>
      <trkpt lat="48.61142" lon="-2.43994">
        <ele>46.5</ele>
        <time>2015-10-12T14:25:18Z</time>
      </trkpt>
      <trkpt lat="48.61139" lon="-2.44007">
        <ele>46.5</ele>
        <time>2015-10-12T14:25:20Z</time>
      </trkpt>
      <trkpt lat="48.61137" lon="-2.4402">
        <ele>46.7</ele>
        <time>2015-10-12T14:25:22Z</time>
      </trkpt>
      <trkpt lat="48.61131" lon="-2.44039">
        <ele>46.9</ele>
        <time>2015-10-12T14:25:25Z</time>
      </trkpt>
      <trkpt lat="48.61126" lon="-2.4405">
        <ele>47.1</ele>
        <time>2015-10-12T14:25:27Z</time>
      </trkpt>
      <trkpt lat="48.61119" lon="-2.44059">
        <ele>47.3</ele>
        <time>2015-10-12T14:25:29Z</time>
      </trkpt>
      <trkpt lat="48.61112" lon="-2.44068">
        <ele>47.5</ele>
        <time>2015-10-12T14:25:31Z</time>
      </trkpt>
      <trkpt lat="48.61104" lon="-2.44073">
        <ele>47.6</ele>
        <time>2015-10-12T14:25:33Z</time>
      </trkpt>
      <trkpt lat="48.61091" lon="-2.44076">
        <ele>47.9</ele>
        <time>2015-10-12T14:25:36Z</time>
      </trkpt>
      <trkpt lat="48.61082" lon="-2.44071">
        <ele>48</ele>
        <time>2015-10-12T14:25:38Z</time>
      </trkpt>
      <trkpt lat="48.61073" lon="-2.44061">
        <ele>48.2</ele>
        <time>2015-10-12T14:25:40Z</time>
      </trkpt>
      <trkpt lat="48.61065" lon="-2.44051">
        <ele>48.3</ele>
        <time>2015-10-12T14:25:42Z</time>
      </trkpt>
      <trkpt lat="48.61055" lon="-2.44046">
        <ele>48.4</ele>
        <time>2015-10-12T14:25:44Z</time>
      </trkpt>
      <trkpt lat="48.61044" lon="-2.44047">
        <ele>48.5</ele>
        <time>2015-10-12T14:25:46Z</time>
      </trkpt>
      <trkpt lat="48.61034" lon="-2.44053">
        <ele>48.6</ele>
        <time>2015-10-12T14:25:48Z</time>
      </trkpt>
      <trkpt lat="48.61024" lon="-2.4406">
        <ele>48.6</ele>
        <time>2015-10-12T14:25:50Z</time>
      </trkpt>
      <trkpt lat="48.61015" lon="-2.44067">
        <ele>48.7</ele>
        <time>2015-10-12T14:25:52Z</time>
      </trkpt>
      <trkpt lat="48.61005" lon="-2.44074">
        <ele>48.7</ele>
        <time>2015-10-12T14:25:54Z</time>
      </trkpt>
      <trkpt lat="48.60995" lon="-2.4408">
        <ele>48.8</ele>
        <time>2015-10-12T14:25:56Z</time>
      </trkpt>
      <trkpt lat="48.60986" lon="-2.44086">
        <ele>48.8</ele>
        <time>2015-10-12T14:25:58Z</time>
      </trkpt>
      <trkpt lat="48.60977" lon="-2.44093">
        <ele>48.8</ele>
        <time>2015-10-12T14:26:00Z</time>
      </trkpt>
      <trkpt lat="48.60967" lon="-2.441">
        <ele>48</ele>
        <time>2015-10-12T14:26:02Z</time>
      </trkpt>
      <trkpt lat="48.60954" lon="-2.44109">
        <ele>48.9</ele>
        <time>2015-10-12T14:26:05Z</time>
      </trkpt>
      <trkpt lat="48.60945" lon="-2.44117">
        <ele>48.9</ele>
        <time>2015-10-12T14:26:07Z</time>
      </trkpt>
      <trkpt lat="48.60938" lon="-2.44127">
        <ele>49</ele>
        <time>2015-10-12T14:26:09Z</time>
      </trkpt>
      <trkpt lat="48.60933" lon="-2.44141">
        <ele>49.1</ele>
        <time>2015-10-12T14:26:11Z</time>
      </trkpt>
      <trkpt lat="48.60931" lon="-2.44156">
        <ele>49.2</ele>
        <time>2015-10-12T14:26:13Z</time>
      </trkpt>
      <trkpt lat="48.6093" lon="-2.44176">
        <ele>49.6</ele>
        <time>2015-10-12T14:26:16Z</time>
      </trkpt>
      <trkpt lat="48.60931" lon="-2.44197">
        <ele>50</ele>
        <time>2015-10-12T14:26:19Z</time>
      </trkpt>
      <trkpt lat="48.60931" lon="-2.44211">
        <ele>50.3</ele>
        <time>2015-10-12T14:26:21Z</time>
      </trkpt>
      <trkpt lat="48.60931" lon="-2.44225">
        <ele>50.6</ele>
        <time>2015-10-12T14:26:23Z</time>
      </trkpt>
      <trkpt lat="48.60931" lon="-2.44239">
        <ele>50.9</ele>
        <time>2015-10-12T14:26:25Z</time>
      </trkpt>
      <trkpt lat="48.60931" lon="-2.44253">
        <ele>51.2</ele>
        <time>2015-10-12T14:26:27Z</time>
      </trkpt>
      <trkpt lat="48.60931" lon="-2.44267">
        <ele>51.6</ele>
        <time>2015-10-12T14:26:29Z</time>
      </trkpt>
      <trkpt lat="48.60932" lon="-2.44287">
        <ele>52.3</ele>
        <time>2015-10-12T14:26:32Z</time>
      </trkpt>
      <trkpt lat="48.60933" lon="-2.44306">
        <ele>52.9</ele>
        <time>2015-10-12T14:26:35Z</time>
      </trkpt>
      <trkpt lat="48.60927" lon="-2.44323">
        <ele>53.4</ele>
        <time>2015-10-12T14:26:38Z</time>
      </trkpt>
      <trkpt lat="48.60919" lon="-2.4433">
        <ele>53.7</ele>
        <time>2015-10-12T14:26:40Z</time>
      </trkpt>
      <trkpt lat="48.60909" lon="-2.44336">
        <ele>54</ele>
        <time>2015-10-12T14:26:42Z</time>
      </trkpt>
      <trkpt lat="48.60899" lon="-2.44341">
        <ele>54.2</ele>
        <time>2015-10-12T14:26:44Z</time>
      </trkpt>
      <trkpt lat="48.60888" lon="-2.44346">
        <ele>54.4</ele>
        <time>2015-10-12T14:26:46Z</time>
      </trkpt>
      <trkpt lat="48.60877" lon="-2.4435">
        <ele>54.5</ele>
        <time>2015-10-12T14:26:48Z</time>
      </trkpt>
      <trkpt lat="48.60866" lon="-2.44354">
        <ele>54.5</ele>
        <time>2015-10-12T14:26:50Z</time>
      </trkpt>
      <trkpt lat="48.60854" lon="-2.44358">
        <ele>54.6</ele>
        <time>2015-10-12T14:26:52Z</time>
      </trkpt>
      <trkpt lat="48.60842" lon="-2.44362">
        <ele>54.6</ele>
        <time>2015-10-12T14:26:54Z</time>
      </trkpt>
      <trkpt lat="48.60832" lon="-2.44367">
        <ele>54.6</ele>
        <time>2015-10-12T14:26:56Z</time>
      </trkpt>
      <trkpt lat="48.60824" lon="-2.44378">
        <ele>54.6</ele>
        <time>2015-10-12T14:26:58Z</time>
      </trkpt>
      <trkpt lat="48.60823" lon="-2.44393">
        <ele>54.6</ele>
        <time>2015-10-12T14:27:00Z</time>
      </trkpt>
      <trkpt lat="48.60824" lon="-2.44408">
        <ele>54.6</ele>
        <time>2015-10-12T14:27:02Z</time>
      </trkpt>
      <trkpt lat="48.60826" lon="-2.44423">
        <ele>54.7</ele>
        <time>2015-10-12T14:27:04Z</time>
      </trkpt>
      <trkpt lat="48.60828" lon="-2.44439">
        <ele>54.7</ele>
        <time>2015-10-12T14:27:06Z</time>
      </trkpt>
      <trkpt lat="48.60829" lon="-2.44454">
        <ele>54.9</ele>
        <time>2015-10-12T14:27:08Z</time>
      </trkpt>
      <trkpt lat="48.60828" lon="-2.44469">
        <ele>55</ele>
        <time>2015-10-12T14:27:10Z</time>
      </trkpt>
      <trkpt lat="48.60826" lon="-2.44484">
        <ele>55.1</ele>
        <time>2015-10-12T14:27:12Z</time>
      </trkpt>
      <trkpt lat="48.60824" lon="-2.44498">
        <ele>55.2</ele>
        <time>2015-10-12T14:27:14Z</time>
      </trkpt>
      <trkpt lat="48.60821" lon="-2.44512">
        <ele>55.3</ele>
        <time>2015-10-12T14:27:16Z</time>
      </trkpt>
      <trkpt lat="48.60817" lon="-2.44526">
        <ele>55.4</ele>
        <time>2015-10-12T14:27:18Z</time>
      </trkpt>
      <trkpt lat="48.60813" lon="-2.4454">
        <ele>55.4</ele>
        <time>2015-10-12T14:27:20Z</time>
      </trkpt>
      <trkpt lat="48.60807" lon="-2.44552">
        <ele>55.5</ele>
        <time>2015-10-12T14:27:22Z</time>
      </trkpt>
      <trkpt lat="48.608" lon="-2.44562">
        <ele>55.6</ele>
        <time>2015-10-12T14:27:24Z</time>
      </trkpt>
      <trkpt lat="48.60792" lon="-2.44572">
        <ele>55.8</ele>
        <time>2015-10-12T14:27:26Z</time>
      </trkpt>
      <trkpt lat="48.60783" lon="-2.4458">
        <ele>55.9</ele>
        <time>2015-10-12T14:27:28Z</time>
      </trkpt>
      <trkpt lat="48.60773" lon="-2.44586">
        <ele>56</ele>
        <time>2015-10-12T14:27:30Z</time>
      </trkpt>
      <trkpt lat="48.60762" lon="-2.44591">
        <ele>56.1</ele>
        <time>2015-10-12T14:27:32Z</time>
      </trkpt>
      <trkpt lat="48.60752" lon="-2.44599">
        <ele>56.2</ele>
        <time>2015-10-12T14:27:34Z</time>
      </trkpt>
      <trkpt lat="48.60744" lon="-2.44607">
        <ele>56.2</ele>
        <time>2015-10-12T14:27:36Z</time>
      </trkpt>
      <trkpt lat="48.60735" lon="-2.4461">
        <ele>56.2</ele>
        <time>2015-10-12T14:27:38Z</time>
      </trkpt>
      <trkpt lat="48.60724" lon="-2.44612">
        <ele>56.2</ele>
        <time>2015-10-12T14:27:40Z</time>
      </trkpt>
      <trkpt lat="48.60714" lon="-2.44614">
        <ele>56.2</ele>
        <time>2015-10-12T14:27:42Z</time>
      </trkpt>
      <trkpt lat="48.60703" lon="-2.44617">
        <ele>56.2</ele>
        <time>2015-10-12T14:27:44Z</time>
      </trkpt>
      <trkpt lat="48.60693" lon="-2.4462">
        <ele>56.2</ele>
        <time>2015-10-12T14:27:46Z</time>
      </trkpt>
      <trkpt lat="48.60677" lon="-2.44627">
        <ele>56</ele>
        <time>2015-10-12T14:27:49Z</time>
      </trkpt>
      <trkpt lat="48.60661" lon="-2.44633">
        <ele>56.1</ele>
        <time>2015-10-12T14:27:52Z</time>
      </trkpt>
      <trkpt lat="48.6065" lon="-2.44637">
        <ele>56</ele>
        <time>2015-10-12T14:27:54Z</time>
      </trkpt>
      <trkpt lat="48.60639" lon="-2.4464">
        <ele>55.9</ele>
        <time>2015-10-12T14:27:56Z</time>
      </trkpt>
      <trkpt lat="48.60629" lon="-2.44644">
        <ele>55.8</ele>
        <time>2015-10-12T14:27:58Z</time>
      </trkpt>
      <trkpt lat="48.60618" lon="-2.44646">
        <ele>55.8</ele>
        <time>2015-10-12T14:28:00Z</time>
      </trkpt>
      <trkpt lat="48.60608" lon="-2.44648">
        <ele>55.7</ele>
        <time>2015-10-12T14:28:02Z</time>
      </trkpt>
      <trkpt lat="48.60597" lon="-2.4465">
        <ele>55.6</ele>
        <time>2015-10-12T14:28:04Z</time>
      </trkpt>
      <trkpt lat="48.60586" lon="-2.44651">
        <ele>55.6</ele>
        <time>2015-10-12T14:28:06Z</time>
      </trkpt>
      <trkpt lat="48.60575" lon="-2.44654">
        <ele>55.5</ele>
        <time>2015-10-12T14:28:08Z</time>
      </trkpt>
      <trkpt lat="48.60564" lon="-2.44657">
        <ele>55.4</ele>
        <time>2015-10-12T14:28:10Z</time>
      </trkpt>
      <trkpt lat="48.60554" lon="-2.44659">
        <ele>55.4</ele>
        <time>2015-10-12T14:28:12Z</time>
      </trkpt>
      <trkpt lat="48.60543" lon="-2.44659">
        <ele>55.4</ele>
        <time>2015-10-12T14:28:14Z</time>
      </trkpt>
      <trkpt lat="48.60533" lon="-2.44659">
        <ele>55.3</ele>
        <time>2015-10-12T14:28:16Z</time>
      </trkpt>
      <trkpt lat="48.60523" lon="-2.44658">
        <ele>55.2</ele>
        <time>2015-10-12T14:28:18Z</time>
      </trkpt>
      <trkpt lat="48.60512" lon="-2.44658">
        <ele>55.2</ele>
        <time>2015-10-12T14:28:20Z</time>
      </trkpt>
      <trkpt lat="48.60501" lon="-2.44659">
        <ele>55.1</ele>
        <time>2015-10-12T14:28:22Z</time>
      </trkpt>
      <trkpt lat="48.60489" lon="-2.44661">
        <ele>55.1</ele>
        <time>2015-10-12T14:28:24Z</time>
      </trkpt>
      <trkpt lat="48.60478" lon="-2.44665">
        <ele>55.1</ele>
        <time>2015-10-12T14:28:26Z</time>
      </trkpt>
      <trkpt lat="48.60467" lon="-2.44668">
        <ele>55</ele>
        <time>2015-10-12T14:28:28Z</time>
      </trkpt>
      <trkpt lat="48.60457" lon="-2.4467">
        <ele>55</ele>
        <time>2015-10-12T14:28:30Z</time>
      </trkpt>
      <trkpt lat="48.60447" lon="-2.44671">
        <ele>55.1</ele>
        <time>2015-10-12T14:28:32Z</time>
      </trkpt>
      <trkpt lat="48.60437" lon="-2.44671">
        <ele>55.2</ele>
        <time>2015-10-12T14:28:34Z</time>
      </trkpt>
      <trkpt lat="48.60426" lon="-2.44672">
        <ele>55.3</ele>
        <time>2015-10-12T14:28:36Z</time>
      </trkpt>
      <trkpt lat="48.60416" lon="-2.44672">
        <ele>55.5</ele>
        <time>2015-10-12T14:28:38Z</time>
      </trkpt>
      <trkpt lat="48.60406" lon="-2.44673">
        <ele>55.7</ele>
        <time>2015-10-12T14:28:40Z</time>
      </trkpt>
      <trkpt lat="48.60395" lon="-2.44675">
        <ele>55.9</ele>
        <time>2015-10-12T14:28:42Z</time>
      </trkpt>
      <trkpt lat="48.60385" lon="-2.44676">
        <ele>56.1</ele>
        <time>2015-10-12T14:28:44Z</time>
      </trkpt>
      <trkpt lat="48.60374" lon="-2.44678">
        <ele>56.3</ele>
        <time>2015-10-12T14:28:46Z</time>
      </trkpt>
      <trkpt lat="48.60362" lon="-2.44681">
        <ele>56.4</ele>
        <time>2015-10-12T14:28:48Z</time>
      </trkpt>
      <trkpt lat="48.60351" lon="-2.44683">
        <ele>56.6</ele>
        <time>2015-10-12T14:28:50Z</time>
      </trkpt>
      <trkpt lat="48.60339" lon="-2.44685">
        <ele>56.8</ele>
        <time>2015-10-12T14:28:52Z</time>
      </trkpt>
      <trkpt lat="48.60327" lon="-2.44687">
        <ele>57</ele>
        <time>2015-10-12T14:28:54Z</time>
      </trkpt>
      <trkpt lat="48.60316" lon="-2.44687">
        <ele>57.2</ele>
        <time>2015-10-12T14:28:56Z</time>
      </trkpt>
      <trkpt lat="48.60305" lon="-2.44688">
        <ele>57.4</ele>
        <time>2015-10-12T14:28:58Z</time>
      </trkpt>
      <trkpt lat="48.60294" lon="-2.44686">
        <ele>57.6</ele>
        <time>2015-10-12T14:29:00Z</time>
      </trkpt>
      <trkpt lat="48.60284" lon="-2.44687">
        <ele>57.8</ele>
        <time>2015-10-12T14:29:02Z</time>
      </trkpt>
      <trkpt lat="48.60277" lon="-2.44703">
        <ele>58</ele>
        <time>2015-10-12T14:29:05Z</time>
      </trkpt>
      <trkpt lat="48.60272" lon="-2.4472">
        <ele>58.3</ele>
        <time>2015-10-12T14:29:08Z</time>
      </trkpt>
      <trkpt lat="48.60267" lon="-2.44738">
        <ele>58.7</ele>
        <time>2015-10-12T14:29:11Z</time>
      </trkpt>
      <trkpt lat="48.60262" lon="-2.44757">
        <ele>59.1</ele>
        <time>2015-10-12T14:29:14Z</time>
      </trkpt>
      <trkpt lat="48.60257" lon="-2.44775">
        <ele>59.5</ele>
        <time>2015-10-12T14:29:17Z</time>
      </trkpt>
      <trkpt lat="48.60252" lon="-2.44793">
        <ele>60</ele>
        <time>2015-10-12T14:29:20Z</time>
      </trkpt>
      <trkpt lat="48.60248" lon="-2.44806">
        <ele>60.3</ele>
        <time>2015-10-12T14:29:22Z</time>
      </trkpt>
      <trkpt lat="48.60243" lon="-2.44824">
        <ele>60.6</ele>
        <time>2015-10-12T14:29:25Z</time>
      </trkpt>
      <trkpt lat="48.60238" lon="-2.44841">
        <ele>61</ele>
        <time>2015-10-12T14:29:28Z</time>
      </trkpt>
      <trkpt lat="48.60232" lon="-2.44858">
        <ele>61.4</ele>
        <time>2015-10-12T14:29:31Z</time>
      </trkpt>
      <trkpt lat="48.60226" lon="-2.44874">
        <ele>61.8</ele>
        <time>2015-10-12T14:29:34Z</time>
      </trkpt>
      <trkpt lat="48.6022" lon="-2.4489">
        <ele>62.3</ele>
        <time>2015-10-12T14:29:37Z</time>
      </trkpt>
      <trkpt lat="48.60214" lon="-2.44907">
        <ele>62.7</ele>
        <time>2015-10-12T14:29:40Z</time>
      </trkpt>
      <trkpt lat="48.60209" lon="-2.44925">
        <ele>63.1</ele>
        <time>2015-10-12T14:29:43Z</time>
      </trkpt>
      <trkpt lat="48.60206" lon="-2.44942">
        <ele>63.7</ele>
        <time>2015-10-12T14:29:46Z</time>
      </trkpt>
      <trkpt lat="48.60202" lon="-2.4496">
        <ele>64.1</ele>
        <time>2015-10-12T14:29:49Z</time>
      </trkpt>
      <trkpt lat="48.60199" lon="-2.44979">
        <ele>64.6</ele>
        <time>2015-10-12T14:29:52Z</time>
      </trkpt>
      <trkpt lat="48.60196" lon="-2.44997">
        <ele>65</ele>
        <time>2015-10-12T14:29:55Z</time>
      </trkpt>
      <trkpt lat="48.60194" lon="-2.45014">
        <ele>65.4</ele>
        <time>2015-10-12T14:29:58Z</time>
      </trkpt>
      <trkpt lat="48.6019" lon="-2.45032">
        <ele>65.9</ele>
        <time>2015-10-12T14:30:01Z</time>
      </trkpt>
      <trkpt lat="48.60185" lon="-2.4505">
        <ele>66.3</ele>
        <time>2015-10-12T14:30:04Z</time>
      </trkpt>
      <trkpt lat="48.60178" lon="-2.45066">
        <ele>66.6</ele>
        <time>2015-10-12T14:30:07Z</time>
      </trkpt>
      <trkpt lat="48.60168" lon="-2.45078">
        <ele>66.9</ele>
        <time>2015-10-12T14:30:10Z</time>
      </trkpt>
      <trkpt lat="48.60157" lon="-2.45088">
        <ele>67.1</ele>
        <time>2015-10-12T14:30:13Z</time>
      </trkpt>
      <trkpt lat="48.60147" lon="-2.45099">
        <ele>67.4</ele>
        <time>2015-10-12T14:30:16Z</time>
      </trkpt>
      <trkpt lat="48.60137" lon="-2.4511">
        <ele>67.6</ele>
        <time>2015-10-12T14:30:19Z</time>
      </trkpt>
      <trkpt lat="48.60128" lon="-2.45122">
        <ele>67.9</ele>
        <time>2015-10-12T14:30:22Z</time>
      </trkpt>
      <trkpt lat="48.60119" lon="-2.45136">
        <ele>68.1</ele>
        <time>2015-10-12T14:30:25Z</time>
      </trkpt>
      <trkpt lat="48.6011" lon="-2.4515">
        <ele>68.4</ele>
        <time>2015-10-12T14:30:28Z</time>
      </trkpt>
      <trkpt lat="48.601" lon="-2.45162">
        <ele>68.8</ele>
        <time>2015-10-12T14:30:31Z</time>
      </trkpt>
      <trkpt lat="48.6009" lon="-2.45173">
        <ele>69.2</ele>
        <time>2015-10-12T14:30:34Z</time>
      </trkpt>
      <trkpt lat="48.60081" lon="-2.45186">
        <ele>69.7</ele>
        <time>2015-10-12T14:30:37Z</time>
      </trkpt>
      <trkpt lat="48.60072" lon="-2.45201">
        <ele>69</ele>
        <time>2015-10-12T14:30:40Z</time>
      </trkpt>
      <trkpt lat="48.60063" lon="-2.45216">
        <ele>70.5</ele>
        <time>2015-10-12T14:30:43Z</time>
      </trkpt>
      <trkpt lat="48.60055" lon="-2.4523">
        <ele>70.9</ele>
        <time>2015-10-12T14:30:46Z</time>
      </trkpt>
      <trkpt lat="48.60046" lon="-2.45244">
        <ele>71.3</ele>
        <time>2015-10-12T14:30:49Z</time>
      </trkpt>
      <trkpt lat="48.60038" lon="-2.45259">
        <ele>71.6</ele>
        <time>2015-10-12T14:30:52Z</time>
      </trkpt>
      <trkpt lat="48.6003" lon="-2.45273">
        <ele>71.9</ele>
        <time>2015-10-12T14:30:55Z</time>
      </trkpt>
      <trkpt lat="48.60023" lon="-2.45286">
        <ele>72.2</ele>
        <time>2015-10-12T14:30:58Z</time>
      </trkpt>
      <trkpt lat="48.60016" lon="-2.45299">
        <ele>72.6</ele>
        <time>2015-10-12T14:31:01Z</time>
      </trkpt>
      <trkpt lat="48.60009" lon="-2.4531">
        <ele>72.8</ele>
        <time>2015-10-12T14:31:04Z</time>
      </trkpt>
      <trkpt lat="48.60002" lon="-2.4532">
        <ele>73.4</ele>
        <time>2015-10-12T14:31:09Z</time>
      </trkpt>
      <trkpt lat="48.59996" lon="-2.4533">
        <ele>74.1</ele>
        <time>2015-10-12T14:31:17Z</time>
      </trkpt>
      <trkpt lat="48.59988" lon="-2.45341">
        <ele>74.8</ele>
        <time>2015-10-12T14:31:24Z</time>
      </trkpt>
      <trkpt lat="48.59982" lon="-2.45352">
        <ele>75.3</ele>
        <time>2015-10-12T14:31:32Z</time>
      </trkpt>
      <trkpt lat="48.59975" lon="-2.45364">
        <ele>75.7</ele>
        <time>2015-10-12T14:31:39Z</time>
      </trkpt>
      <trkpt lat="48.59966" lon="-2.4537">
        <ele>75.8</ele>
        <time>2015-10-12T14:31:42Z</time>
      </trkpt>
      <trkpt lat="48.59957" lon="-2.45378">
        <ele>75.9</ele>
        <time>2015-10-12T14:31:45Z</time>
      </trkpt>
      <trkpt lat="48.59947" lon="-2.45389">
        <ele>76.2</ele>
        <time>2015-10-12T14:31:48Z</time>
      </trkpt>
      <trkpt lat="48.59937" lon="-2.45399">
        <ele>76.5</ele>
        <time>2015-10-12T14:31:51Z</time>
      </trkpt>
      <trkpt lat="48.59926" lon="-2.45411">
        <ele>76.7</ele>
        <time>2015-10-12T14:31:54Z</time>
      </trkpt>
      <trkpt lat="48.59915" lon="-2.45422">
        <ele>76.8</ele>
        <time>2015-10-12T14:31:57Z</time>
      </trkpt>
      <trkpt lat="48.59905" lon="-2.45434">
        <ele>77</ele>
        <time>2015-10-12T14:32:00Z</time>
      </trkpt>
      <trkpt lat="48.59895" lon="-2.45448">
        <ele>77.1</ele>
        <time>2015-10-12T14:32:03Z</time>
      </trkpt>
      <trkpt lat="48.59889" lon="-2.45459">
        <ele>77.1</ele>
        <time>2015-10-12T14:32:05Z</time>
      </trkpt>
      <trkpt lat="48.59882" lon="-2.4547">
        <ele>77.2</ele>
        <time>2015-10-12T14:32:07Z</time>
      </trkpt>
      <trkpt lat="48.59875" lon="-2.45481">
        <ele>77.2</ele>
        <time>2015-10-12T14:32:09Z</time>
      </trkpt>
      <trkpt lat="48.59868" lon="-2.45492">
        <ele>77.3</ele>
        <time>2015-10-12T14:32:11Z</time>
      </trkpt>
      <trkpt lat="48.59861" lon="-2.45503">
        <ele>77.3</ele>
        <time>2015-10-12T14:32:13Z</time>
      </trkpt>
      <trkpt lat="48.59854" lon="-2.45514">
        <ele>77.3</ele>
        <time>2015-10-12T14:32:15Z</time>
      </trkpt>
      <trkpt lat="48.59847" lon="-2.45525">
        <ele>77.4</ele>
        <time>2015-10-12T14:32:17Z</time>
      </trkpt>
      <trkpt lat="48.59839" lon="-2.45536">
        <ele>77.4</ele>
        <time>2015-10-12T14:32:19Z</time>
      </trkpt>
      <trkpt lat="48.59832" lon="-2.45546">
        <ele>77.4</ele>
        <time>2015-10-12T14:32:21Z</time>
      </trkpt>
      <trkpt lat="48.59825" lon="-2.45557">
        <ele>77.4</ele>
        <time>2015-10-12T14:32:23Z</time>
      </trkpt>
      <trkpt lat="48.59818" lon="-2.45567">
        <ele>77.5</ele>
        <time>2015-10-12T14:32:25Z</time>
      </trkpt>
      <trkpt lat="48.5981" lon="-2.45577">
        <ele>77.4</ele>
        <time>2015-10-12T14:32:27Z</time>
      </trkpt>
      <trkpt lat="48.59803" lon="-2.45587">
        <ele>77.4</ele>
        <time>2015-10-12T14:32:29Z</time>
      </trkpt>
      <trkpt lat="48.59795" lon="-2.45598">
        <ele>77.4</ele>
        <time>2015-10-12T14:32:31Z</time>
      </trkpt>
      <trkpt lat="48.59786" lon="-2.45609">
        <ele>77.3</ele>
        <time>2015-10-12T14:32:33Z</time>
      </trkpt>
      <trkpt lat="48.59779" lon="-2.4562">
        <ele>77.3</ele>
        <time>2015-10-12T14:32:35Z</time>
      </trkpt>
      <trkpt lat="48.59773" lon="-2.45631">
        <ele>77.3</ele>
        <time>2015-10-12T14:32:37Z</time>
      </trkpt>
      <trkpt lat="48.59767" lon="-2.45643">
        <ele>77.3</ele>
        <time>2015-10-12T14:32:39Z</time>
      </trkpt>
      <trkpt lat="48.59762" lon="-2.45656">
        <ele>77.3</ele>
        <time>2015-10-12T14:32:41Z</time>
      </trkpt>
      <trkpt lat="48.5976" lon="-2.45671">
        <ele>77.4</ele>
        <time>2015-10-12T14:32:43Z</time>
      </trkpt>
      <trkpt lat="48.5976" lon="-2.45685">
        <ele>77.4</ele>
        <time>2015-10-12T14:32:45Z</time>
      </trkpt>
      <trkpt lat="48.59762" lon="-2.45699">
        <ele>77.4</ele>
        <time>2015-10-12T14:32:47Z</time>
      </trkpt>
      <trkpt lat="48.59764" lon="-2.45714">
        <ele>77.3</ele>
        <time>2015-10-12T14:32:49Z</time>
      </trkpt>
      <trkpt lat="48.59762" lon="-2.4573">
        <ele>77.3</ele>
        <time>2015-10-12T14:32:51Z</time>
      </trkpt>
      <trkpt lat="48.59756" lon="-2.45745">
        <ele>77.2</ele>
        <time>2015-10-12T14:32:53Z</time>
      </trkpt>
      <trkpt lat="48.59747" lon="-2.4576">
        <ele>77</ele>
        <time>2015-10-12T14:32:55Z</time>
      </trkpt>
      <trkpt lat="48.59737" lon="-2.45774">
        <ele>76.7</ele>
        <time>2015-10-12T14:32:57Z</time>
      </trkpt>
      <trkpt lat="48.59726" lon="-2.45789">
        <ele>76.3</ele>
        <time>2015-10-12T14:32:59Z</time>
      </trkpt>
      <trkpt lat="48.59715" lon="-2.45803">
        <ele>76</ele>
        <time>2015-10-12T14:33:01Z</time>
      </trkpt>
      <trkpt lat="48.59704" lon="-2.45816">
        <ele>75.7</ele>
        <time>2015-10-12T14:33:03Z</time>
      </trkpt>
      <trkpt lat="48.59694" lon="-2.45829">
        <ele>75.5</ele>
        <time>2015-10-12T14:33:05Z</time>
      </trkpt>
      <trkpt lat="48.59683" lon="-2.45841">
        <ele>75.1</ele>
        <time>2015-10-12T14:33:07Z</time>
      </trkpt>
      <trkpt lat="48.59674" lon="-2.45853">
        <ele>74.9</ele>
        <time>2015-10-12T14:33:09Z</time>
      </trkpt>
      <trkpt lat="48.59664" lon="-2.45865">
        <ele>74.6</ele>
        <time>2015-10-12T14:33:11Z</time>
      </trkpt>
      <trkpt lat="48.59656" lon="-2.45878">
        <ele>74.4</ele>
        <time>2015-10-12T14:33:13Z</time>
      </trkpt>
      <trkpt lat="48.59649" lon="-2.45891">
        <ele>74.2</ele>
        <time>2015-10-12T14:33:15Z</time>
      </trkpt>
      <trkpt lat="48.59641" lon="-2.45904">
        <ele>74</ele>
        <time>2015-10-12T14:33:17Z</time>
      </trkpt>
      <trkpt lat="48.59633" lon="-2.45917">
        <ele>73.8</ele>
        <time>2015-10-12T14:33:19Z</time>
      </trkpt>
      <trkpt lat="48.59626" lon="-2.4593">
        <ele>73.7</ele>
        <time>2015-10-12T14:33:21Z</time>
      </trkpt>
      <trkpt lat="48.59619" lon="-2.45943">
        <ele>73.6</ele>
        <time>2015-10-12T14:33:23Z</time>
      </trkpt>
      <trkpt lat="48.59612" lon="-2.45957">
        <ele>73.5</ele>
        <time>2015-10-12T14:33:25Z</time>
      </trkpt>
      <trkpt lat="48.59606" lon="-2.45972">
        <ele>73.4</ele>
        <time>2015-10-12T14:33:27Z</time>
      </trkpt>
      <trkpt lat="48.59601" lon="-2.45987">
        <ele>73.4</ele>
        <time>2015-10-12T14:33:29Z</time>
      </trkpt>
      <trkpt lat="48.59595" lon="-2.46001">
        <ele>73.3</ele>
        <time>2015-10-12T14:33:31Z</time>
      </trkpt>
      <trkpt lat="48.59591" lon="-2.46016">
        <ele>73.3</ele>
        <time>2015-10-12T14:33:33Z</time>
      </trkpt>
      <trkpt lat="48.59586" lon="-2.46028">
        <ele>73.2</ele>
        <time>2015-10-12T14:33:35Z</time>
      </trkpt>
      <trkpt lat="48.59581" lon="-2.46041">
        <ele>73.2</ele>
        <time>2015-10-12T14:33:37Z</time>
      </trkpt>
      <trkpt lat="48.59573" lon="-2.46052">
        <ele>73.2</ele>
        <time>2015-10-12T14:33:39Z</time>
      </trkpt>
      <trkpt lat="48.59564" lon="-2.46062">
        <ele>73.2</ele>
        <time>2015-10-12T14:33:41Z</time>
      </trkpt>
      <trkpt lat="48.59554" lon="-2.46073">
        <ele>73.2</ele>
        <time>2015-10-12T14:33:43Z</time>
      </trkpt>
      <trkpt lat="48.59546" lon="-2.46085">
        <ele>73.3</ele>
        <time>2015-10-12T14:33:45Z</time>
      </trkpt>
      <trkpt lat="48.59538" lon="-2.46096">
        <ele>73.3</ele>
        <time>2015-10-12T14:33:47Z</time>
      </trkpt>
      <trkpt lat="48.59532" lon="-2.46107">
        <ele>73.3</ele>
        <time>2015-10-12T14:33:49Z</time>
      </trkpt>
      <trkpt lat="48.59524" lon="-2.46122">
        <ele>73.4</ele>
        <time>2015-10-12T14:33:52Z</time>
      </trkpt>
      <trkpt lat="48.59515" lon="-2.46133">
        <ele>73.6</ele>
        <time>2015-10-12T14:33:55Z</time>
      </trkpt>
      <trkpt lat="48.59506" lon="-2.46135">
        <ele>73.7</ele>
        <time>2015-10-12T14:33:57Z</time>
      </trkpt>
      <trkpt lat="48.59494" lon="-2.46135">
        <ele>73.8</ele>
        <time>2015-10-12T14:33:59Z</time>
      </trkpt>
      <trkpt lat="48.59483" lon="-2.46133">
        <ele>73.8</ele>
        <time>2015-10-12T14:34:01Z</time>
      </trkpt>
      <trkpt lat="48.59471" lon="-2.46129">
        <ele>73.9</ele>
        <time>2015-10-12T14:34:03Z</time>
      </trkpt>
      <trkpt lat="48.5946" lon="-2.46124">
        <ele>74</ele>
        <time>2015-10-12T14:34:05Z</time>
      </trkpt>
      <trkpt lat="48.59448" lon="-2.46119">
        <ele>74</ele>
        <time>2015-10-12T14:34:07Z</time>
      </trkpt>
      <trkpt lat="48.59436" lon="-2.46112">
        <ele>74</ele>
        <time>2015-10-12T14:34:09Z</time>
      </trkpt>
      <trkpt lat="48.59424" lon="-2.46105">
        <ele>74</ele>
        <time>2015-10-12T14:34:11Z</time>
      </trkpt>
      <trkpt lat="48.59412" lon="-2.46098">
        <ele>73.9</ele>
        <time>2015-10-12T14:34:13Z</time>
      </trkpt>
      <trkpt lat="48.594" lon="-2.46091">
        <ele>73.8</ele>
        <time>2015-10-12T14:34:15Z</time>
      </trkpt>
      <trkpt lat="48.59388" lon="-2.46084">
        <ele>73.5</ele>
        <time>2015-10-12T14:34:17Z</time>
      </trkpt>
      <trkpt lat="48.59377" lon="-2.46077">
        <ele>73.4</ele>
        <time>2015-10-12T14:34:19Z</time>
      </trkpt>
      <trkpt lat="48.59366" lon="-2.4607">
        <ele>73.2</ele>
        <time>2015-10-12T14:34:21Z</time>
      </trkpt>
      <trkpt lat="48.59354" lon="-2.46063">
        <ele>73</ele>
        <time>2015-10-12T14:34:23Z</time>
      </trkpt>
      <trkpt lat="48.59342" lon="-2.46055">
        <ele>72.7</ele>
        <time>2015-10-12T14:34:25Z</time>
      </trkpt>
      <trkpt lat="48.59329" lon="-2.46048">
        <ele>72.4</ele>
        <time>2015-10-12T14:34:27Z</time>
      </trkpt>
      <trkpt lat="48.59315" lon="-2.4604">
        <ele>72.1</ele>
        <time>2015-10-12T14:34:29Z</time>
      </trkpt>
      <trkpt lat="48.59301" lon="-2.46034">
        <ele>71.7</ele>
        <time>2015-10-12T14:34:31Z</time>
      </trkpt>
      <trkpt lat="48.59285" lon="-2.46032">
        <ele>71.2</ele>
        <time>2015-10-12T14:34:33Z</time>
      </trkpt>
      <trkpt lat="48.59269" lon="-2.46034">
        <ele>70.7</ele>
        <time>2015-10-12T14:34:35Z</time>
      </trkpt>
      <trkpt lat="48.59253" lon="-2.4604">
        <ele>70.1</ele>
        <time>2015-10-12T14:34:37Z</time>
      </trkpt>
      <trkpt lat="48.59239" lon="-2.4605">
        <ele>69.4</ele>
        <time>2015-10-12T14:34:39Z</time>
      </trkpt>
      <trkpt lat="48.59227" lon="-2.46062">
        <ele>68.8</ele>
        <time>2015-10-12T14:34:41Z</time>
      </trkpt>
      <trkpt lat="48.59215" lon="-2.46077">
        <ele>68.2</ele>
        <time>2015-10-12T14:34:43Z</time>
      </trkpt>
      <trkpt lat="48.59204" lon="-2.46092">
        <ele>67.5</ele>
        <time>2015-10-12T14:34:45Z</time>
      </trkpt>
      <trkpt lat="48.59191" lon="-2.46103">
        <ele>66.8</ele>
        <time>2015-10-12T14:34:47Z</time>
      </trkpt>
      <trkpt lat="48.59177" lon="-2.46109">
        <ele>66.2</ele>
        <time>2015-10-12T14:34:49Z</time>
      </trkpt>
      <trkpt lat="48.59164" lon="-2.46109">
        <ele>65.6</ele>
        <time>2015-10-12T14:34:51Z</time>
      </trkpt>
      <trkpt lat="48.59152" lon="-2.46107">
        <ele>65.1</ele>
        <time>2015-10-12T14:34:53Z</time>
      </trkpt>
      <trkpt lat="48.5914" lon="-2.46102">
        <ele>64.6</ele>
        <time>2015-10-12T14:34:55Z</time>
      </trkpt>
      <trkpt lat="48.59128" lon="-2.46098">
        <ele>64.1</ele>
        <time>2015-10-12T14:34:57Z</time>
      </trkpt>
      <trkpt lat="48.59117" lon="-2.46092">
        <ele>63.7</ele>
        <time>2015-10-12T14:34:59Z</time>
      </trkpt>
      <trkpt lat="48.59105" lon="-2.46088">
        <ele>63.3</ele>
        <time>2015-10-12T14:35:01Z</time>
      </trkpt>
      <trkpt lat="48.59093" lon="-2.46088">
        <ele>63</ele>
        <time>2015-10-12T14:35:03Z</time>
      </trkpt>
      <trkpt lat="48.59081" lon="-2.46088">
        <ele>62.7</ele>
        <time>2015-10-12T14:35:05Z</time>
      </trkpt>
      <trkpt lat="48.59069" lon="-2.46089">
        <ele>62.5</ele>
        <time>2015-10-12T14:35:07Z</time>
      </trkpt>
      <trkpt lat="48.59057" lon="-2.46089">
        <ele>62.3</ele>
        <time>2015-10-12T14:35:09Z</time>
      </trkpt>
      <trkpt lat="48.59046" lon="-2.46089">
        <ele>62.1</ele>
        <time>2015-10-12T14:35:11Z</time>
      </trkpt>
      <trkpt lat="48.59035" lon="-2.46091">
        <ele>61.9</ele>
        <time>2015-10-12T14:35:13Z</time>
      </trkpt>
      <trkpt lat="48.59024" lon="-2.46096">
        <ele>61.8</ele>
        <time>2015-10-12T14:35:15Z</time>
      </trkpt>
      <trkpt lat="48.59015" lon="-2.46105">
        <ele>61.6</ele>
        <time>2015-10-12T14:35:17Z</time>
      </trkpt>
      <trkpt lat="48.59007" lon="-2.46116">
        <ele>61.5</ele>
        <time>2015-10-12T14:35:19Z</time>
      </trkpt>
      <trkpt lat="48.58998" lon="-2.46126">
        <ele>61.4</ele>
        <time>2015-10-12T14:35:21Z</time>
      </trkpt>
      <trkpt lat="48.5899" lon="-2.46136">
        <ele>61.4</ele>
        <time>2015-10-12T14:35:23Z</time>
      </trkpt>
      <trkpt lat="48.5898" lon="-2.46143">
        <ele>61.4</ele>
        <time>2015-10-12T14:35:25Z</time>
      </trkpt>
      <trkpt lat="48.5897" lon="-2.46146">
        <ele>61.3</ele>
        <time>2015-10-12T14:35:27Z</time>
      </trkpt>
      <trkpt lat="48.58959" lon="-2.46147">
        <ele>61.3</ele>
        <time>2015-10-12T14:35:29Z</time>
      </trkpt>
      <trkpt lat="48.58949" lon="-2.46146">
        <ele>61.3</ele>
        <time>2015-10-12T14:35:31Z</time>
      </trkpt>
      <trkpt lat="48.58939" lon="-2.46145">
        <ele>61.3</ele>
        <time>2015-10-12T14:35:33Z</time>
      </trkpt>
      <trkpt lat="48.5893" lon="-2.46143">
        <ele>61.4</ele>
        <time>2015-10-12T14:35:35Z</time>
      </trkpt>
      <trkpt lat="48.58919" lon="-2.4614">
        <ele>61.5</ele>
        <time>2015-10-12T14:35:37Z</time>
      </trkpt>
      <trkpt lat="48.5891" lon="-2.46137">
        <ele>61.7</ele>
        <time>2015-10-12T14:35:39Z</time>
      </trkpt>
      <trkpt lat="48.58904" lon="-2.4612">
        <ele>62</ele>
        <time>2015-10-12T14:35:42Z</time>
      </trkpt>
      <trkpt lat="48.58904" lon="-2.46102">
        <ele>62.5</ele>
        <time>2015-10-12T14:35:45Z</time>
      </trkpt>
      <trkpt lat="48.58905" lon="-2.46084">
        <ele>63.1</ele>
        <time>2015-10-12T14:35:48Z</time>
      </trkpt>
      <trkpt lat="48.58906" lon="-2.46064">
        <ele>63.6</ele>
        <time>2015-10-12T14:35:51Z</time>
      </trkpt>
      <trkpt lat="48.58907" lon="-2.46049">
        <ele>63.9</ele>
        <time>2015-10-12T14:35:53Z</time>
      </trkpt>
      <trkpt lat="48.58909" lon="-2.46035">
        <ele>64.2</ele>
        <time>2015-10-12T14:35:55Z</time>
      </trkpt>
      <trkpt lat="48.5891" lon="-2.4602">
        <ele>64.5</ele>
        <time>2015-10-12T14:35:57Z</time>
      </trkpt>
      <trkpt lat="48.58911" lon="-2.46006">
        <ele>64.8</ele>
        <time>2015-10-12T14:35:59Z</time>
      </trkpt>
      <trkpt lat="48.58912" lon="-2.45992">
        <ele>65</ele>
        <time>2015-10-12T14:36:01Z</time>
      </trkpt>
      <trkpt lat="48.58907" lon="-2.45973">
        <ele>65.4</ele>
        <time>2015-10-12T14:36:04Z</time>
      </trkpt>
      <trkpt lat="48.589" lon="-2.45963">
        <ele>65.7</ele>
        <time>2015-10-12T14:36:06Z</time>
      </trkpt>
      <trkpt lat="48.58892" lon="-2.45956">
        <ele>66</ele>
        <time>2015-10-12T14:36:08Z</time>
      </trkpt>
      <trkpt lat="48.58883" lon="-2.45951">
        <ele>66.3</ele>
        <time>2015-10-12T14:36:10Z</time>
      </trkpt>
      <trkpt lat="48.5887" lon="-2.45945">
        <ele>66.8</ele>
        <time>2015-10-12T14:36:13Z</time>
      </trkpt>
      <trkpt lat="48.58857" lon="-2.45941">
        <ele>67.3</ele>
        <time>2015-10-12T14:36:16Z</time>
      </trkpt>
      <trkpt lat="48.58845" lon="-2.45938">
        <ele>67.7</ele>
        <time>2015-10-12T14:36:19Z</time>
      </trkpt>
      <trkpt lat="48.58833" lon="-2.45934">
        <ele>68.2</ele>
        <time>2015-10-12T14:36:22Z</time>
      </trkpt>
      <trkpt lat="48.58821" lon="-2.45931">
        <ele>68.7</ele>
        <time>2015-10-12T14:36:25Z</time>
      </trkpt>
      <trkpt lat="48.58808" lon="-2.45927">
        <ele>69.1</ele>
        <time>2015-10-12T14:36:28Z</time>
      </trkpt>
      <trkpt lat="48.58796" lon="-2.45923">
        <ele>69.5</ele>
        <time>2015-10-12T14:36:31Z</time>
      </trkpt>
      <trkpt lat="48.58784" lon="-2.4592">
        <ele>69.9</ele>
        <time>2015-10-12T14:36:34Z</time>
      </trkpt>
      <trkpt lat="48.58771" lon="-2.45917">
        <ele>70.3</ele>
        <time>2015-10-12T14:36:37Z</time>
      </trkpt>
      <trkpt lat="48.58758" lon="-2.45913">
        <ele>70.8</ele>
        <time>2015-10-12T14:36:40Z</time>
      </trkpt>
      <trkpt lat="48.58745" lon="-2.45911">
        <ele>71.2</ele>
        <time>2015-10-12T14:36:43Z</time>
      </trkpt>
      <trkpt lat="48.58733" lon="-2.45909">
        <ele>71.7</ele>
        <time>2015-10-12T14:36:46Z</time>
      </trkpt>
      <trkpt lat="48.5872" lon="-2.45906">
        <ele>72.1</ele>
        <time>2015-10-12T14:36:49Z</time>
      </trkpt>
      <trkpt lat="48.58708" lon="-2.45903">
        <ele>72.6</ele>
        <time>2015-10-12T14:36:52Z</time>
      </trkpt>
      <trkpt lat="48.58696" lon="-2.459">
        <ele>73</ele>
        <time>2015-10-12T14:36:55Z</time>
      </trkpt>
      <trkpt lat="48.58684" lon="-2.45896">
        <ele>73.5</ele>
        <time>2015-10-12T14:36:58Z</time>
      </trkpt>
      <trkpt lat="48.58672" lon="-2.45891">
        <ele>73.9</ele>
        <time>2015-10-12T14:37:01Z</time>
      </trkpt>
      <trkpt lat="48.5866" lon="-2.45886">
        <ele>74.4</ele>
        <time>2015-10-12T14:37:04Z</time>
      </trkpt>
      <trkpt lat="48.58647" lon="-2.45882">
        <ele>75</ele>
        <time>2015-10-12T14:37:07Z</time>
      </trkpt>
      <trkpt lat="48.58635" lon="-2.45878">
        <ele>75.5</ele>
        <time>2015-10-12T14:37:10Z</time>
      </trkpt>
      <trkpt lat="48.58622" lon="-2.45872">
        <ele>75.9</ele>
        <time>2015-10-12T14:37:13Z</time>
      </trkpt>
      <trkpt lat="48.58609" lon="-2.45867">
        <ele>76.3</ele>
        <time>2015-10-12T14:37:16Z</time>
      </trkpt>
      <trkpt lat="48.586" lon="-2.45863">
        <ele>76.5</ele>
        <time>2015-10-12T14:37:18Z</time>
      </trkpt>
      <trkpt lat="48.58591" lon="-2.4586">
        <ele>76.7</ele>
        <time>2015-10-12T14:37:20Z</time>
      </trkpt>
      <trkpt lat="48.58582" lon="-2.45855">
        <ele>76.9</ele>
        <time>2015-10-12T14:37:22Z</time>
      </trkpt>
      <trkpt lat="48.58573" lon="-2.45851">
        <ele>77.1</ele>
        <time>2015-10-12T14:37:24Z</time>
      </trkpt>
      <trkpt lat="48.58563" lon="-2.45846">
        <ele>77.2</ele>
        <time>2015-10-12T14:37:26Z</time>
      </trkpt>
      <trkpt lat="48.58554" lon="-2.45839">
        <ele>77.4</ele>
        <time>2015-10-12T14:37:28Z</time>
      </trkpt>
      <trkpt lat="48.58545" lon="-2.45833">
        <ele>77.5</ele>
        <time>2015-10-12T14:37:30Z</time>
      </trkpt>
      <trkpt lat="48.58536" lon="-2.45825">
        <ele>77.7</ele>
        <time>2015-10-12T14:37:32Z</time>
      </trkpt>
      <trkpt lat="48.58528" lon="-2.45813">
        <ele>77.8</ele>
        <time>2015-10-12T14:37:34Z</time>
      </trkpt>
      <trkpt lat="48.5852" lon="-2.45799">
        <ele>77.8</ele>
        <time>2015-10-12T14:37:36Z</time>
      </trkpt>
      <trkpt lat="48.58512" lon="-2.45785">
        <ele>77.7</ele>
        <time>2015-10-12T14:37:38Z</time>
      </trkpt>
      <trkpt lat="48.58505" lon="-2.4577">
        <ele>77.6</ele>
        <time>2015-10-12T14:37:40Z</time>
      </trkpt>
      <trkpt lat="48.58497" lon="-2.45756">
        <ele>77.5</ele>
        <time>2015-10-12T14:37:42Z</time>
      </trkpt>
      <trkpt lat="48.58488" lon="-2.45744">
        <ele>77.4</ele>
        <time>2015-10-12T14:37:44Z</time>
      </trkpt>
      <trkpt lat="48.58479" lon="-2.45732">
        <ele>77.2</ele>
        <time>2015-10-12T14:37:46Z</time>
      </trkpt>
      <trkpt lat="48.5847" lon="-2.45719">
        <ele>77</ele>
        <time>2015-10-12T14:37:48Z</time>
      </trkpt>
      <trkpt lat="48.58461" lon="-2.45705">
        <ele>76.8</ele>
        <time>2015-10-12T14:37:50Z</time>
      </trkpt>
      <trkpt lat="48.58453" lon="-2.45691">
        <ele>76.6</ele>
        <time>2015-10-12T14:37:52Z</time>
      </trkpt>
      <trkpt lat="48.58446" lon="-2.45677">
        <ele>76.5</ele>
        <time>2015-10-12T14:37:54Z</time>
      </trkpt>
      <trkpt lat="48.58439" lon="-2.45663">
        <ele>76.3</ele>
        <time>2015-10-12T14:37:56Z</time>
      </trkpt>
      <trkpt lat="48.58433" lon="-2.4565">
        <ele>76.2</ele>
        <time>2015-10-12T14:37:58Z</time>
      </trkpt>
      <trkpt lat="48.58426" lon="-2.45639">
        <ele>76</ele>
        <time>2015-10-12T14:38:00Z</time>
      </trkpt>
      <trkpt lat="48.58416" lon="-2.45641">
        <ele>75.8</ele>
        <time>2015-10-12T14:38:03Z</time>
      </trkpt>
      <trkpt lat="48.58412" lon="-2.45655">
        <ele>75.7</ele>
        <time>2015-10-12T14:38:05Z</time>
      </trkpt>
      <trkpt lat="48.5841" lon="-2.45669">
        <ele>75.6</ele>
        <time>2015-10-12T14:38:07Z</time>
      </trkpt>
      <trkpt lat="48.58407" lon="-2.45684">
        <ele>75.5</ele>
        <time>2015-10-12T14:38:09Z</time>
      </trkpt>
      <trkpt lat="48.58404" lon="-2.45703">
        <ele>75.4</ele>
        <time>2015-10-12T14:38:12Z</time>
      </trkpt>
      <trkpt lat="48.58402" lon="-2.45717">
        <ele>75.4</ele>
        <time>2015-10-12T14:38:14Z</time>
      </trkpt>
      <trkpt lat="48.58401" lon="-2.4573">
        <ele>75.4</ele>
        <time>2015-10-12T14:38:16Z</time>
      </trkpt>
      <trkpt lat="48.58399" lon="-2.45744">
        <ele>75.4</ele>
        <time>2015-10-12T14:38:18Z</time>
      </trkpt>
      <trkpt lat="48.58398" lon="-2.45759">
        <ele>75.5</ele>
        <time>2015-10-12T14:38:20Z</time>
      </trkpt>
      <trkpt lat="48.58396" lon="-2.45774">
        <ele>75.5</ele>
        <time>2015-10-12T14:38:22Z</time>
      </trkpt>
      <trkpt lat="48.58396" lon="-2.45787">
        <ele>75.6</ele>
        <time>2015-10-12T14:38:24Z</time>
      </trkpt>
      <trkpt lat="48.58395" lon="-2.45801">
        <ele>75.7</ele>
        <time>2015-10-12T14:38:26Z</time>
      </trkpt>
      <trkpt lat="48.58393" lon="-2.45822">
        <ele>75.9</ele>
        <time>2015-10-12T14:38:29Z</time>
      </trkpt>
      <trkpt lat="48.58392" lon="-2.45842">
        <ele>76.2</ele>
        <time>2015-10-12T14:38:32Z</time>
      </trkpt>
      <trkpt lat="48.58391" lon="-2.45855">
        <ele>76.4</ele>
        <time>2015-10-12T14:38:34Z</time>
      </trkpt>
      <trkpt lat="48.5839" lon="-2.45869">
        <ele>76.5</ele>
        <time>2015-10-12T14:38:36Z</time>
      </trkpt>
      <trkpt lat="48.58388" lon="-2.45889">
        <ele>76.8</ele>
        <time>2015-10-12T14:38:39Z</time>
      </trkpt>
      <trkpt lat="48.5839" lon="-2.45904">
        <ele>77</ele>
        <time>2015-10-12T14:38:42Z</time>
      </trkpt>
      <trkpt lat="48.58401" lon="-2.45909">
        <ele>77.1</ele>
        <time>2015-10-12T14:38:45Z</time>
      </trkpt>
      <trkpt lat="48.58411" lon="-2.45909">
        <ele>77.2</ele>
        <time>2015-10-12T14:38:47Z</time>
      </trkpt>
      <trkpt lat="48.5842" lon="-2.45909">
        <ele>77.3</ele>
        <time>2015-10-12T14:38:49Z</time>
      </trkpt>
      <trkpt lat="48.58434" lon="-2.4591">
        <ele>77.4</ele>
        <time>2015-10-12T14:38:52Z</time>
      </trkpt>
      <trkpt lat="48.58443" lon="-2.45918">
        <ele>77.5</ele>
        <time>2015-10-12T14:38:55Z</time>
      </trkpt>
      <trkpt lat="48.5844" lon="-2.45937">
        <ele>77.7</ele>
        <time>2015-10-12T14:38:58Z</time>
      </trkpt>
      <trkpt lat="48.58436" lon="-2.45949">
        <ele>77.8</ele>
        <time>2015-10-12T14:39:00Z</time>
      </trkpt>
      <trkpt lat="48.58431" lon="-2.45962">
        <ele>77.9</ele>
        <time>2015-10-12T14:39:02Z</time>
      </trkpt>
      <trkpt lat="48.58427" lon="-2.45975">
        <ele>78</ele>
        <time>2015-10-12T14:39:04Z</time>
      </trkpt>
      <trkpt lat="48.58422" lon="-2.45989">
        <ele>78.1</ele>
        <time>2015-10-12T14:39:06Z</time>
      </trkpt>
      <trkpt lat="48.58417" lon="-2.46002">
        <ele>78.2</ele>
        <time>2015-10-12T14:39:08Z</time>
      </trkpt>
      <trkpt lat="48.58411" lon="-2.46016">
        <ele>78.4</ele>
        <time>2015-10-12T14:39:10Z</time>
      </trkpt>
      <trkpt lat="48.58406" lon="-2.46029">
        <ele>78.5</ele>
        <time>2015-10-12T14:39:12Z</time>
      </trkpt>
      <trkpt lat="48.584" lon="-2.46041">
        <ele>78.6</ele>
        <time>2015-10-12T14:39:14Z</time>
      </trkpt>
      <trkpt lat="48.58393" lon="-2.46053">
        <ele>78.6</ele>
        <time>2015-10-12T14:39:16Z</time>
      </trkpt>
      <trkpt lat="48.58387" lon="-2.46066">
        <ele>78.7</ele>
        <time>2015-10-12T14:39:18Z</time>
      </trkpt>
      <trkpt lat="48.58381" lon="-2.46078">
        <ele>78.8</ele>
        <time>2015-10-12T14:39:20Z</time>
      </trkpt>
      <trkpt lat="48.58374" lon="-2.4609">
        <ele>78.8</ele>
        <time>2015-10-12T14:39:22Z</time>
      </trkpt>
      <trkpt lat="48.58368" lon="-2.46102">
        <ele>78.9</ele>
        <time>2015-10-12T14:39:24Z</time>
      </trkpt>
      <trkpt lat="48.58361" lon="-2.46113">
        <ele>78.9</ele>
        <time>2015-10-12T14:39:26Z</time>
      </trkpt>
      <trkpt lat="48.58355" lon="-2.46126">
        <ele>79</ele>
        <time>2015-10-12T14:39:28Z</time>
      </trkpt>
      <trkpt lat="48.58348" lon="-2.46138">
        <ele>79</ele>
        <time>2015-10-12T14:39:30Z</time>
      </trkpt>
      <trkpt lat="48.58341" lon="-2.4615">
        <ele>79</ele>
        <time>2015-10-12T14:39:32Z</time>
      </trkpt>
      <trkpt lat="48.58335" lon="-2.46161">
        <ele>79.1</ele>
        <time>2015-10-12T14:39:34Z</time>
      </trkpt>
      <trkpt lat="48.58327" lon="-2.4617">
        <ele>79.1</ele>
        <time>2015-10-12T14:39:36Z</time>
      </trkpt>
      <trkpt lat="48.58317" lon="-2.46176">
        <ele>79.1</ele>
        <time>2015-10-12T14:39:38Z</time>
      </trkpt>
      <trkpt lat="48.58308" lon="-2.4618">
        <ele>79.1</ele>
        <time>2015-10-12T14:39:40Z</time>
      </trkpt>
      <trkpt lat="48.58298" lon="-2.46182">
        <ele>79.1</ele>
        <time>2015-10-12T14:39:42Z</time>
      </trkpt>
      <trkpt lat="48.58288" lon="-2.46184">
        <ele>79.1</ele>
        <time>2015-10-12T14:39:44Z</time>
      </trkpt>
      <trkpt lat="48.58278" lon="-2.46185">
        <ele>79.2</ele>
        <time>2015-10-12T14:39:46Z</time>
      </trkpt>
      <trkpt lat="48.58269" lon="-2.46187">
        <ele>79.3</ele>
        <time>2015-10-12T14:39:48Z</time>
      </trkpt>
      <trkpt lat="48.58259" lon="-2.46188">
        <ele>79.4</ele>
        <time>2015-10-12T14:39:50Z</time>
      </trkpt>
      <trkpt lat="48.58246" lon="-2.46189">
        <ele>79.5</ele>
        <time>2015-10-12T14:39:53Z</time>
      </trkpt>
      <trkpt lat="48.58237" lon="-2.4619">
        <ele>79.6</ele>
        <time>2015-10-12T14:39:56Z</time>
      </trkpt>
      <trkpt lat="48.58232" lon="-2.46203">
        <ele>79.8</ele>
        <time>2015-10-12T14:39:59Z</time>
      </trkpt>
      <trkpt lat="48.58229" lon="-2.46221">
        <ele>79.9</ele>
        <time>2015-10-12T14:40:02Z</time>
      </trkpt>
      <trkpt lat="48.58226" lon="-2.46234">
        <ele>80</ele>
        <time>2015-10-12T14:40:04Z</time>
      </trkpt>
      <trkpt lat="48.58223" lon="-2.46248">
        <ele>80.1</ele>
        <time>2015-10-12T14:40:06Z</time>
      </trkpt>
      <trkpt lat="48.58219" lon="-2.46262">
        <ele>80.2</ele>
        <time>2015-10-12T14:40:08Z</time>
      </trkpt>
      <trkpt lat="48.58215" lon="-2.46277">
        <ele>80.2</ele>
        <time>2015-10-12T14:40:10Z</time>
      </trkpt>
      <trkpt lat="48.58212" lon="-2.46292">
        <ele>80.3</ele>
        <time>2015-10-12T14:40:12Z</time>
      </trkpt>
      <trkpt lat="48.58209" lon="-2.46308">
        <ele>80.4</ele>
        <time>2015-10-12T14:40:14Z</time>
      </trkpt>
      <trkpt lat="48.58206" lon="-2.46323">
        <ele>80.4</ele>
        <time>2015-10-12T14:40:16Z</time>
      </trkpt>
      <trkpt lat="48.58204" lon="-2.46339">
        <ele>80.4</ele>
        <time>2015-10-12T14:40:18Z</time>
      </trkpt>
      <trkpt lat="48.58201" lon="-2.46355">
        <ele>80.4</ele>
        <time>2015-10-12T14:40:20Z</time>
      </trkpt>
      <trkpt lat="48.58198" lon="-2.46371">
        <ele>80.4</ele>
        <time>2015-10-12T14:40:22Z</time>
      </trkpt>
      <trkpt lat="48.58196" lon="-2.46386">
        <ele>80.4</ele>
        <time>2015-10-12T14:40:24Z</time>
      </trkpt>
      <trkpt lat="48.58191" lon="-2.46401">
        <ele>80.4</ele>
        <time>2015-10-12T14:40:26Z</time>
      </trkpt>
      <trkpt lat="48.58184" lon="-2.46413">
        <ele>80.4</ele>
        <time>2015-10-12T14:40:28Z</time>
      </trkpt>
      <trkpt lat="48.58176" lon="-2.46422">
        <ele>80.4</ele>
        <time>2015-10-12T14:40:30Z</time>
      </trkpt>
      <trkpt lat="48.58166" lon="-2.46428">
        <ele>80.4</ele>
        <time>2015-10-12T14:40:32Z</time>
      </trkpt>
      <trkpt lat="48.58156" lon="-2.46433">
        <ele>80.4</ele>
        <time>2015-10-12T14:40:34Z</time>
      </trkpt>
      <trkpt lat="48.58147" lon="-2.46439">
        <ele>80.4</ele>
        <time>2015-10-12T14:40:36Z</time>
      </trkpt>
      <trkpt lat="48.58138" lon="-2.46446">
        <ele>80.4</ele>
        <time>2015-10-12T14:40:38Z</time>
      </trkpt>
      <trkpt lat="48.5813" lon="-2.46455">
        <ele>80.5</ele>
        <time>2015-10-12T14:40:40Z</time>
      </trkpt>
      <trkpt lat="48.58124" lon="-2.46468">
        <ele>80.6</ele>
        <time>2015-10-12T14:40:42Z</time>
      </trkpt>
      <trkpt lat="48.58118" lon="-2.4648">
        <ele>80.8</ele>
        <time>2015-10-12T14:40:44Z</time>
      </trkpt>
      <trkpt lat="48.58112" lon="-2.46492">
        <ele>80.9</ele>
        <time>2015-10-12T14:40:46Z</time>
      </trkpt>
      <trkpt lat="48.58105" lon="-2.46504">
        <ele>81</ele>
        <time>2015-10-12T14:40:48Z</time>
      </trkpt>
      <trkpt lat="48.58098" lon="-2.46514">
        <ele>81.2</ele>
        <time>2015-10-12T14:40:50Z</time>
      </trkpt>
      <trkpt lat="48.58088" lon="-2.46521">
        <ele>81.4</ele>
        <time>2015-10-12T14:40:52Z</time>
      </trkpt>
      <trkpt lat="48.58077" lon="-2.46523">
        <ele>81.5</ele>
        <time>2015-10-12T14:40:54Z</time>
      </trkpt>
      <trkpt lat="48.58067" lon="-2.46523">
        <ele>81.6</ele>
        <time>2015-10-12T14:40:56Z</time>
      </trkpt>
      <trkpt lat="48.58056" lon="-2.46523">
        <ele>81.8</ele>
        <time>2015-10-12T14:40:58Z</time>
      </trkpt>
      <trkpt lat="48.58046" lon="-2.46521">
        <ele>81.9</ele>
        <time>2015-10-12T14:41:00Z</time>
      </trkpt>
      <trkpt lat="48.58035" lon="-2.46519">
        <ele>82.1</ele>
        <time>2015-10-12T14:41:02Z</time>
      </trkpt>
      <trkpt lat="48.58025" lon="-2.46517">
        <ele>82.2</ele>
        <time>2015-10-12T14:41:04Z</time>
      </trkpt>
      <trkpt lat="48.58014" lon="-2.46515">
        <ele>82.3</ele>
        <time>2015-10-12T14:41:06Z</time>
      </trkpt>
      <trkpt lat="48.58003" lon="-2.46513">
        <ele>82.4</ele>
        <time>2015-10-12T14:41:08Z</time>
      </trkpt>
      <trkpt lat="48.57992" lon="-2.46512">
        <ele>82.5</ele>
        <time>2015-10-12T14:41:10Z</time>
      </trkpt>
      <trkpt lat="48.57982" lon="-2.4651">
        <ele>82.6</ele>
        <time>2015-10-12T14:41:12Z</time>
      </trkpt>
      <trkpt lat="48.57971" lon="-2.46507">
        <ele>82.7</ele>
        <time>2015-10-12T14:41:14Z</time>
      </trkpt>
      <trkpt lat="48.57961" lon="-2.46503">
        <ele>82.8</ele>
        <time>2015-10-12T14:41:16Z</time>
      </trkpt>
      <trkpt lat="48.57951" lon="-2.46498">
        <ele>82.9</ele>
        <time>2015-10-12T14:41:18Z</time>
      </trkpt>
      <trkpt lat="48.57942" lon="-2.46492">
        <ele>83</ele>
        <time>2015-10-12T14:41:20Z</time>
      </trkpt>
      <trkpt lat="48.57932" lon="-2.46485">
        <ele>83.1</ele>
        <time>2015-10-12T14:41:22Z</time>
      </trkpt>
      <trkpt lat="48.57923" lon="-2.46477">
        <ele>83.2</ele>
        <time>2015-10-12T14:41:24Z</time>
      </trkpt>
      <trkpt lat="48.57914" lon="-2.46468">
        <ele>83.4</ele>
        <time>2015-10-12T14:41:26Z</time>
      </trkpt>
      <trkpt lat="48.57905" lon="-2.4646">
        <ele>83.5</ele>
        <time>2015-10-12T14:41:28Z</time>
      </trkpt>
      <trkpt lat="48.57896" lon="-2.4645">
        <ele>83.7</ele>
        <time>2015-10-12T14:41:30Z</time>
      </trkpt>
      <trkpt lat="48.57888" lon="-2.46442">
        <ele>83.8</ele>
        <time>2015-10-12T14:41:32Z</time>
      </trkpt>
      <trkpt lat="48.57879" lon="-2.46436">
        <ele>83.9</ele>
        <time>2015-10-12T14:41:34Z</time>
      </trkpt>
      <trkpt lat="48.57868" lon="-2.4644">
        <ele>84</ele>
        <time>2015-10-12T14:41:36Z</time>
      </trkpt>
      <trkpt lat="48.57859" lon="-2.46452">
        <ele>84.2</ele>
        <time>2015-10-12T14:41:38Z</time>
      </trkpt>
      <trkpt lat="48.57853" lon="-2.46467">
        <ele>84.2</ele>
        <time>2015-10-12T14:41:40Z</time>
      </trkpt>
      <trkpt lat="48.57847" lon="-2.46484">
        <ele>84.3</ele>
        <time>2015-10-12T14:41:42Z</time>
      </trkpt>
      <trkpt lat="48.57841" lon="-2.46501">
        <ele>84.4</ele>
        <time>2015-10-12T14:41:44Z</time>
      </trkpt>
      <trkpt lat="48.57836" lon="-2.46519">
        <ele>84.4</ele>
        <time>2015-10-12T14:41:46Z</time>
      </trkpt>
      <trkpt lat="48.57831" lon="-2.46537">
        <ele>84.3</ele>
        <time>2015-10-12T14:41:48Z</time>
      </trkpt>
      <trkpt lat="48.57826" lon="-2.46556">
        <ele>84.2</ele>
        <time>2015-10-12T14:41:50Z</time>
      </trkpt>
      <trkpt lat="48.57821" lon="-2.46574">
        <ele>84.1</ele>
        <time>2015-10-12T14:41:52Z</time>
      </trkpt>
      <trkpt lat="48.57816" lon="-2.46592">
        <ele>84.1</ele>
        <time>2015-10-12T14:41:54Z</time>
      </trkpt>
      <trkpt lat="48.57811" lon="-2.46609">
        <ele>83.9</ele>
        <time>2015-10-12T14:41:56Z</time>
      </trkpt>
      <trkpt lat="48.57805" lon="-2.46625">
        <ele>83.8</ele>
        <time>2015-10-12T14:41:58Z</time>
      </trkpt>
      <trkpt lat="48.57798" lon="-2.4664">
        <ele>83.8</ele>
        <time>2015-10-12T14:42:00Z</time>
      </trkpt>
      <trkpt lat="48.57792" lon="-2.46653">
        <ele>83.7</ele>
        <time>2015-10-12T14:42:02Z</time>
      </trkpt>
      <trkpt lat="48.57785" lon="-2.46666">
        <ele>83.6</ele>
        <time>2015-10-12T14:42:04Z</time>
      </trkpt>
      <trkpt lat="48.57778" lon="-2.46679">
        <ele>83.5</ele>
        <time>2015-10-12T14:42:06Z</time>
      </trkpt>
      <trkpt lat="48.57772" lon="-2.46692">
        <ele>83.5</ele>
        <time>2015-10-12T14:42:08Z</time>
      </trkpt>
      <trkpt lat="48.57766" lon="-2.46705">
        <ele>83.6</ele>
        <time>2015-10-12T14:42:10Z</time>
      </trkpt>
      <trkpt lat="48.5776" lon="-2.46718">
        <ele>83.6</ele>
        <time>2015-10-12T14:42:12Z</time>
      </trkpt>
      <trkpt lat="48.57754" lon="-2.46731">
        <ele>83.7</ele>
        <time>2015-10-12T14:42:14Z</time>
      </trkpt>
      <trkpt lat="48.57749" lon="-2.46744">
        <ele>84</ele>
        <time>2015-10-12T14:42:16Z</time>
      </trkpt>
      <trkpt lat="48.57744" lon="-2.46758">
        <ele>84.2</ele>
        <time>2015-10-12T14:42:18Z</time>
      </trkpt>
      <trkpt lat="48.57739" lon="-2.46773">
        <ele>84.4</ele>
        <time>2015-10-12T14:42:20Z</time>
      </trkpt>
      <trkpt lat="48.57735" lon="-2.46788">
        <ele>84.6</ele>
        <time>2015-10-12T14:42:22Z</time>
      </trkpt>
      <trkpt lat="48.57731" lon="-2.46804">
        <ele>84.8</ele>
        <time>2015-10-12T14:42:24Z</time>
      </trkpt>
      <trkpt lat="48.57728" lon="-2.46819">
        <ele>84.9</ele>
        <time>2015-10-12T14:42:26Z</time>
      </trkpt>
      <trkpt lat="48.57725" lon="-2.46836">
        <ele>85</ele>
        <time>2015-10-12T14:42:28Z</time>
      </trkpt>
      <trkpt lat="48.57724" lon="-2.46852">
        <ele>85.1</ele>
        <time>2015-10-12T14:42:30Z</time>
      </trkpt>
      <trkpt lat="48.57724" lon="-2.46867">
        <ele>85.2</ele>
        <time>2015-10-12T14:42:32Z</time>
      </trkpt>
      <trkpt lat="48.57724" lon="-2.46883">
        <ele>85.3</ele>
        <time>2015-10-12T14:42:34Z</time>
      </trkpt>
      <trkpt lat="48.57724" lon="-2.469">
        <ele>85.5</ele>
        <time>2015-10-12T14:42:36Z</time>
      </trkpt>
      <trkpt lat="48.57725" lon="-2.46915">
        <ele>85.6</ele>
        <time>2015-10-12T14:42:38Z</time>
      </trkpt>
      <trkpt lat="48.57724" lon="-2.46932">
        <ele>85.9</ele>
        <time>2015-10-12T14:42:40Z</time>
      </trkpt>
      <trkpt lat="48.57725" lon="-2.46948">
        <ele>86.1</ele>
        <time>2015-10-12T14:42:42Z</time>
      </trkpt>
      <trkpt lat="48.57724" lon="-2.46964">
        <ele>86.3</ele>
        <time>2015-10-12T14:42:44Z</time>
      </trkpt>
      <trkpt lat="48.57724" lon="-2.4698">
        <ele>86.5</ele>
        <time>2015-10-12T14:42:46Z</time>
      </trkpt>
      <trkpt lat="48.57724" lon="-2.46996">
        <ele>86.7</ele>
        <time>2015-10-12T14:42:48Z</time>
      </trkpt>
      <trkpt lat="48.57725" lon="-2.47012">
        <ele>86.9</ele>
        <time>2015-10-12T14:42:50Z</time>
      </trkpt>
      <trkpt lat="48.57724" lon="-2.47028">
        <ele>87</ele>
        <time>2015-10-12T14:42:52Z</time>
      </trkpt>
      <trkpt lat="48.57725" lon="-2.47044">
        <ele>87</ele>
        <time>2015-10-12T14:42:54Z</time>
      </trkpt>
      <trkpt lat="48.57726" lon="-2.47061">
        <ele>87.1</ele>
        <time>2015-10-12T14:42:56Z</time>
      </trkpt>
      <trkpt lat="48.57727" lon="-2.47078">
        <ele>87.1</ele>
        <time>2015-10-12T14:42:58Z</time>
      </trkpt>
      <trkpt lat="48.57729" lon="-2.47096">
        <ele>87.2</ele>
        <time>2015-10-12T14:43:00Z</time>
      </trkpt>
      <trkpt lat="48.5773" lon="-2.47114">
        <ele>87.2</ele>
        <time>2015-10-12T14:43:02Z</time>
      </trkpt>
      <trkpt lat="48.57732" lon="-2.47132">
        <ele>87.2</ele>
        <time>2015-10-12T14:43:04Z</time>
      </trkpt>
      <trkpt lat="48.57734" lon="-2.47146">
        <ele>87.2</ele>
        <time>2015-10-12T14:43:06Z</time>
      </trkpt>
      <trkpt lat="48.5774" lon="-2.4716">
        <ele>87.2</ele>
        <time>2015-10-12T14:43:09Z</time>
      </trkpt>
      <trkpt lat="48.57749" lon="-2.47163">
        <ele>85.7</ele>
        <time>2015-10-12T14:46:03Z</time>
      </trkpt>
      <trkpt lat="48.5776" lon="-2.47166">
        <ele>85.7</ele>
        <time>2015-10-12T14:46:07Z</time>
      </trkpt>
      <trkpt lat="48.57772" lon="-2.47168">
        <ele>85.6</ele>
        <time>2015-10-12T14:46:10Z</time>
      </trkpt>
      <trkpt lat="48.57785" lon="-2.47171">
        <ele>85.6</ele>
        <time>2015-10-12T14:46:13Z</time>
      </trkpt>
      <trkpt lat="48.57794" lon="-2.47173">
        <ele>85.6</ele>
        <time>2015-10-12T14:46:15Z</time>
      </trkpt>
      <trkpt lat="48.57804" lon="-2.47175">
        <ele>85.6</ele>
        <time>2015-10-12T14:46:17Z</time>
      </trkpt>
      <trkpt lat="48.57814" lon="-2.47176">
        <ele>85.6</ele>
        <time>2015-10-12T14:46:19Z</time>
      </trkpt>
      <trkpt lat="48.57824" lon="-2.47178">
        <ele>85.6</ele>
        <time>2015-10-12T14:46:21Z</time>
      </trkpt>
      <trkpt lat="48.57836" lon="-2.47178">
        <ele>85.5</ele>
        <time>2015-10-12T14:46:23Z</time>
      </trkpt>
      <trkpt lat="48.57847" lon="-2.47178">
        <ele>85.4</ele>
        <time>2015-10-12T14:46:25Z</time>
      </trkpt>
      <trkpt lat="48.57859" lon="-2.47176">
        <ele>85.3</ele>
        <time>2015-10-12T14:46:27Z</time>
      </trkpt>
      <trkpt lat="48.57871" lon="-2.47174">
        <ele>85.2</ele>
        <time>2015-10-12T14:46:29Z</time>
      </trkpt>
      <trkpt lat="48.57883" lon="-2.47171">
        <ele>85</ele>
        <time>2015-10-12T14:46:31Z</time>
      </trkpt>
      <trkpt lat="48.57894" lon="-2.47169">
        <ele>84.8</ele>
        <time>2015-10-12T14:46:33Z</time>
      </trkpt>
      <trkpt lat="48.57906" lon="-2.47167">
        <ele>84.7</ele>
        <time>2015-10-12T14:46:35Z</time>
      </trkpt>
      <trkpt lat="48.57918" lon="-2.47165">
        <ele>84.5</ele>
        <time>2015-10-12T14:46:37Z</time>
      </trkpt>
      <trkpt lat="48.57929" lon="-2.47163">
        <ele>84.4</ele>
        <time>2015-10-12T14:46:39Z</time>
      </trkpt>
      <trkpt lat="48.57941" lon="-2.47161">
        <ele>84.3</ele>
        <time>2015-10-12T14:46:41Z</time>
      </trkpt>
      <trkpt lat="48.57953" lon="-2.47159">
        <ele>84.1</ele>
        <time>2015-10-12T14:46:43Z</time>
      </trkpt>
      <trkpt lat="48.57964" lon="-2.47157">
        <ele>84</ele>
        <time>2015-10-12T14:46:45Z</time>
      </trkpt>
      <trkpt lat="48.57976" lon="-2.47153">
        <ele>83.9</ele>
        <time>2015-10-12T14:46:47Z</time>
      </trkpt>
      <trkpt lat="48.57988" lon="-2.47149">
        <ele>83.8</ele>
        <time>2015-10-12T14:46:49Z</time>
      </trkpt>
      <trkpt lat="48.57999" lon="-2.47142">
        <ele>83.6</ele>
        <time>2015-10-12T14:46:51Z</time>
      </trkpt>
      <trkpt lat="48.58011" lon="-2.47135">
        <ele>83.4</ele>
        <time>2015-10-12T14:46:53Z</time>
      </trkpt>
      <trkpt lat="48.58022" lon="-2.47127">
        <ele>83.3</ele>
        <time>2015-10-12T14:46:55Z</time>
      </trkpt>
      <trkpt lat="48.58033" lon="-2.47119">
        <ele>83.1</ele>
        <time>2015-10-12T14:46:57Z</time>
      </trkpt>
      <trkpt lat="48.58044" lon="-2.47112">
        <ele>83</ele>
        <time>2015-10-12T14:46:59Z</time>
      </trkpt>
      <trkpt lat="48.58055" lon="-2.47104">
        <ele>82.9</ele>
        <time>2015-10-12T14:47:01Z</time>
      </trkpt>
      <trkpt lat="48.58066" lon="-2.47096">
        <ele>82.8</ele>
        <time>2015-10-12T14:47:03Z</time>
      </trkpt>
      <trkpt lat="48.58077" lon="-2.47089">
        <ele>82.7</ele>
        <time>2015-10-12T14:47:05Z</time>
      </trkpt>
      <trkpt lat="48.58088" lon="-2.4708">
        <ele>82.6</ele>
        <time>2015-10-12T14:47:07Z</time>
      </trkpt>
      <trkpt lat="48.58098" lon="-2.4707">
        <ele>82.5</ele>
        <time>2015-10-12T14:47:09Z</time>
      </trkpt>
      <trkpt lat="48.58108" lon="-2.47059">
        <ele>82.5</ele>
        <time>2015-10-12T14:47:11Z</time>
      </trkpt>
      <trkpt lat="48.58118" lon="-2.47049">
        <ele>82.4</ele>
        <time>2015-10-12T14:47:13Z</time>
      </trkpt>
      <trkpt lat="48.58128" lon="-2.47039">
        <ele>82.3</ele>
        <time>2015-10-12T14:47:15Z</time>
      </trkpt>
      <trkpt lat="48.58138" lon="-2.47029">
        <ele>82.3</ele>
        <time>2015-10-12T14:47:17Z</time>
      </trkpt>
      <trkpt lat="48.58149" lon="-2.4702">
        <ele>82.2</ele>
        <time>2015-10-12T14:47:19Z</time>
      </trkpt>
      <trkpt lat="48.58161" lon="-2.47012">
        <ele>82.2</ele>
        <time>2015-10-12T14:47:21Z</time>
      </trkpt>
      <trkpt lat="48.58173" lon="-2.47007">
        <ele>82.2</ele>
        <time>2015-10-12T14:47:23Z</time>
      </trkpt>
      <trkpt lat="48.58185" lon="-2.47003">
        <ele>82.1</ele>
        <time>2015-10-12T14:47:25Z</time>
      </trkpt>
      <trkpt lat="48.58197" lon="-2.47001">
        <ele>82</ele>
        <time>2015-10-12T14:47:27Z</time>
      </trkpt>
      <trkpt lat="48.58209" lon="-2.46999">
        <ele>81.8</ele>
        <time>2015-10-12T14:47:29Z</time>
      </trkpt>
      <trkpt lat="48.58222" lon="-2.46997">
        <ele>81.6</ele>
        <time>2015-10-12T14:47:31Z</time>
      </trkpt>
      <trkpt lat="48.58234" lon="-2.46994">
        <ele>81.5</ele>
        <time>2015-10-12T14:47:33Z</time>
      </trkpt>
      <trkpt lat="48.58246" lon="-2.46992">
        <ele>81.4</ele>
        <time>2015-10-12T14:47:35Z</time>
      </trkpt>
      <trkpt lat="48.58259" lon="-2.46989">
        <ele>81.2</ele>
        <time>2015-10-12T14:47:37Z</time>
      </trkpt>
      <trkpt lat="48.58271" lon="-2.46985">
        <ele>81.1</ele>
        <time>2015-10-12T14:47:39Z</time>
      </trkpt>
      <trkpt lat="48.58284" lon="-2.46982">
        <ele>80.8</ele>
        <time>2015-10-12T14:47:41Z</time>
      </trkpt>
      <trkpt lat="48.58296" lon="-2.46979">
        <ele>80.5</ele>
        <time>2015-10-12T14:47:43Z</time>
      </trkpt>
      <trkpt lat="48.58308" lon="-2.46975">
        <ele>80.3</ele>
        <time>2015-10-12T14:47:45Z</time>
      </trkpt>
      <trkpt lat="48.5832" lon="-2.46972">
        <ele>80.1</ele>
        <time>2015-10-12T14:47:47Z</time>
      </trkpt>
      <trkpt lat="48.5833" lon="-2.46968">
        <ele>79.8</ele>
        <time>2015-10-12T14:47:49Z</time>
      </trkpt>
      <trkpt lat="48.58339" lon="-2.46964">
        <ele>79.6</ele>
        <time>2015-10-12T14:47:51Z</time>
      </trkpt>
      <trkpt lat="48.58349" lon="-2.46962">
        <ele>79.4</ele>
        <time>2015-10-12T14:47:53Z</time>
      </trkpt>
      <trkpt lat="48.58357" lon="-2.46969">
        <ele>79.2</ele>
        <time>2015-10-12T14:47:55Z</time>
      </trkpt>
      <trkpt lat="48.58363" lon="-2.46983">
        <ele>79</ele>
        <time>2015-10-12T14:47:57Z</time>
      </trkpt>
      <trkpt lat="48.58365" lon="-2.47001">
        <ele>78.8</ele>
        <time>2015-10-12T14:47:59Z</time>
      </trkpt>
      <trkpt lat="48.58367" lon="-2.47019">
        <ele>78.6</ele>
        <time>2015-10-12T14:48:01Z</time>
      </trkpt>
      <trkpt lat="48.58369" lon="-2.47038">
        <ele>78.5</ele>
        <time>2015-10-12T14:48:03Z</time>
      </trkpt>
      <trkpt lat="48.58372" lon="-2.47057">
        <ele>78.3</ele>
        <time>2015-10-12T14:48:05Z</time>
      </trkpt>
      <trkpt lat="48.58376" lon="-2.47076">
        <ele>78.1</ele>
        <time>2015-10-12T14:48:07Z</time>
      </trkpt>
      <trkpt lat="48.58381" lon="-2.47095">
        <ele>78</ele>
        <time>2015-10-12T14:48:09Z</time>
      </trkpt>
      <trkpt lat="48.58386" lon="-2.47113">
        <ele>77.7</ele>
        <time>2015-10-12T14:48:11Z</time>
      </trkpt>
      <trkpt lat="48.58392" lon="-2.47133">
        <ele>77.3</ele>
        <time>2015-10-12T14:48:13Z</time>
      </trkpt>
      <trkpt lat="48.58396" lon="-2.47153">
        <ele>76.9</ele>
        <time>2015-10-12T14:48:15Z</time>
      </trkpt>
      <trkpt lat="48.584" lon="-2.47172">
        <ele>76.6</ele>
        <time>2015-10-12T14:48:17Z</time>
      </trkpt>
      <trkpt lat="48.58405" lon="-2.47188">
        <ele>76.3</ele>
        <time>2015-10-12T14:48:19Z</time>
      </trkpt>
      <trkpt lat="48.58411" lon="-2.47203">
        <ele>76</ele>
        <time>2015-10-12T14:48:21Z</time>
      </trkpt>
      <trkpt lat="48.58417" lon="-2.47216">
        <ele>75.8</ele>
        <time>2015-10-12T14:48:23Z</time>
      </trkpt>
      <trkpt lat="48.58419" lon="-2.4723">
        <ele>75.6</ele>
        <time>2015-10-12T14:48:25Z</time>
      </trkpt>
      <trkpt lat="48.5842" lon="-2.4725">
        <ele>75.4</ele>
        <time>2015-10-12T14:48:28Z</time>
      </trkpt>
      <trkpt lat="48.58419" lon="-2.47263">
        <ele>75.4</ele>
        <time>2015-10-12T14:48:30Z</time>
      </trkpt>
      <trkpt lat="48.58418" lon="-2.47283">
        <ele>75.6</ele>
        <time>2015-10-12T14:48:33Z</time>
      </trkpt>
      <trkpt lat="48.58417" lon="-2.47303">
        <ele>75.8</ele>
        <time>2015-10-12T14:48:36Z</time>
      </trkpt>
      <trkpt lat="48.58419" lon="-2.47317">
        <ele>76.1</ele>
        <time>2015-10-12T14:48:38Z</time>
      </trkpt>
      <trkpt lat="48.58423" lon="-2.47331">
        <ele>76.3</ele>
        <time>2015-10-12T14:48:40Z</time>
      </trkpt>
      <trkpt lat="48.58429" lon="-2.47343">
        <ele>76.6</ele>
        <time>2015-10-12T14:48:42Z</time>
      </trkpt>
      <trkpt lat="48.58435" lon="-2.47354">
        <ele>76.9</ele>
        <time>2015-10-12T14:48:44Z</time>
      </trkpt>
      <trkpt lat="48.58442" lon="-2.47363">
        <ele>77.3</ele>
        <time>2015-10-12T14:48:46Z</time>
      </trkpt>
      <trkpt lat="48.58452" lon="-2.47376">
        <ele>77.8</ele>
        <time>2015-10-12T14:48:49Z</time>
      </trkpt>
      <trkpt lat="48.58462" lon="-2.47389">
        <ele>78.3</ele>
        <time>2015-10-12T14:48:52Z</time>
      </trkpt>
      <trkpt lat="48.5847" lon="-2.47404">
        <ele>78.8</ele>
        <time>2015-10-12T14:48:55Z</time>
      </trkpt>
      <trkpt lat="48.58477" lon="-2.47421">
        <ele>79.2</ele>
        <time>2015-10-12T14:48:58Z</time>
      </trkpt>
      <trkpt lat="48.58481" lon="-2.4744">
        <ele>79.7</ele>
        <time>2015-10-12T14:49:01Z</time>
      </trkpt>
      <trkpt lat="48.58482" lon="-2.47454">
        <ele>80</ele>
        <time>2015-10-12T14:49:03Z</time>
      </trkpt>
      <trkpt lat="48.58483" lon="-2.47468">
        <ele>80.3</ele>
        <time>2015-10-12T14:49:05Z</time>
      </trkpt>
      <trkpt lat="48.58481" lon="-2.47487">
        <ele>80.8</ele>
        <time>2015-10-12T14:49:08Z</time>
      </trkpt>
      <trkpt lat="48.58471" lon="-2.47494">
        <ele>81.3</ele>
        <time>2015-10-12T14:49:11Z</time>
      </trkpt>
      <trkpt lat="48.58458" lon="-2.47495">
        <ele>81.8</ele>
        <time>2015-10-12T14:49:14Z</time>
      </trkpt>
      <trkpt lat="48.58449" lon="-2.47495">
        <ele>82.1</ele>
        <time>2015-10-12T14:49:16Z</time>
      </trkpt>
      <trkpt lat="48.58439" lon="-2.47497">
        <ele>82.4</ele>
        <time>2015-10-12T14:49:18Z</time>
      </trkpt>
      <trkpt lat="48.58429" lon="-2.47498">
        <ele>82.6</ele>
        <time>2015-10-12T14:49:20Z</time>
      </trkpt>
      <trkpt lat="48.58419" lon="-2.47501">
        <ele>82.9</ele>
        <time>2015-10-12T14:49:22Z</time>
      </trkpt>
      <trkpt lat="48.58408" lon="-2.47501">
        <ele>83.1</ele>
        <time>2015-10-12T14:49:24Z</time>
      </trkpt>
      <trkpt lat="48.58398" lon="-2.47501">
        <ele>83.2</ele>
        <time>2015-10-12T14:49:26Z</time>
      </trkpt>
      <trkpt lat="48.58387" lon="-2.475">
        <ele>83.4</ele>
        <time>2015-10-12T14:49:28Z</time>
      </trkpt>
      <trkpt lat="48.58376" lon="-2.47499">
        <ele>83.5</ele>
        <time>2015-10-12T14:49:30Z</time>
      </trkpt>
      <trkpt lat="48.58365" lon="-2.47498">
        <ele>83.6</ele>
        <time>2015-10-12T14:49:32Z</time>
      </trkpt>
      <trkpt lat="48.58354" lon="-2.47496">
        <ele>83.8</ele>
        <time>2015-10-12T14:49:34Z</time>
      </trkpt>
      <trkpt lat="48.58343" lon="-2.47494">
        <ele>83.8</ele>
        <time>2015-10-12T14:49:36Z</time>
      </trkpt>
      <trkpt lat="48.58332" lon="-2.47492">
        <ele>83.9</ele>
        <time>2015-10-12T14:49:38Z</time>
      </trkpt>
      <trkpt lat="48.58321" lon="-2.4749">
        <ele>84</ele>
        <time>2015-10-12T14:49:40Z</time>
      </trkpt>
      <trkpt lat="48.58309" lon="-2.47489">
        <ele>84</ele>
        <time>2015-10-12T14:49:42Z</time>
      </trkpt>
      <trkpt lat="48.58297" lon="-2.47487">
        <ele>83.9</ele>
        <time>2015-10-12T14:49:44Z</time>
      </trkpt>
      <trkpt lat="48.58285" lon="-2.47487">
        <ele>83.9</ele>
        <time>2015-10-12T14:49:46Z</time>
      </trkpt>
      <trkpt lat="48.58272" lon="-2.4749">
        <ele>83.8</ele>
        <time>2015-10-12T14:49:48Z</time>
      </trkpt>
      <trkpt lat="48.58262" lon="-2.47495">
        <ele>83.7</ele>
        <time>2015-10-12T14:49:50Z</time>
      </trkpt>
      <trkpt lat="48.58251" lon="-2.47501">
        <ele>83.6</ele>
        <time>2015-10-12T14:49:52Z</time>
      </trkpt>
      <trkpt lat="48.58241" lon="-2.47507">
        <ele>83.6</ele>
        <time>2015-10-12T14:49:54Z</time>
      </trkpt>
      <trkpt lat="48.58232" lon="-2.47514">
        <ele>83.5</ele>
        <time>2015-10-12T14:49:56Z</time>
      </trkpt>
      <trkpt lat="48.58224" lon="-2.47523">
        <ele>83.4</ele>
        <time>2015-10-12T14:49:58Z</time>
      </trkpt>
      <trkpt lat="48.58216" lon="-2.47534">
        <ele>83.4</ele>
        <time>2015-10-12T14:50:00Z</time>
      </trkpt>
      <trkpt lat="48.5821" lon="-2.47547">
        <ele>83.3</ele>
        <time>2015-10-12T14:50:02Z</time>
      </trkpt>
      <trkpt lat="48.58205" lon="-2.47559">
        <ele>83.3</ele>
        <time>2015-10-12T14:50:04Z</time>
      </trkpt>
      <trkpt lat="48.582" lon="-2.47571">
        <ele>83.4</ele>
        <time>2015-10-12T14:50:06Z</time>
      </trkpt>
      <trkpt lat="48.58189" lon="-2.47582">
        <ele>83.5</ele>
        <time>2015-10-12T14:50:09Z</time>
      </trkpt>
      <trkpt lat="48.58175" lon="-2.4759">
        <ele>83.6</ele>
        <time>2015-10-12T14:50:12Z</time>
      </trkpt>
      <trkpt lat="48.58163" lon="-2.47594">
        <ele>83.7</ele>
        <time>2015-10-12T14:50:14Z</time>
      </trkpt>
      <trkpt lat="48.58152" lon="-2.47599">
        <ele>83.8</ele>
        <time>2015-10-12T14:50:16Z</time>
      </trkpt>
      <trkpt lat="48.58142" lon="-2.47604">
        <ele>83.9</ele>
        <time>2015-10-12T14:50:18Z</time>
      </trkpt>
      <trkpt lat="48.58132" lon="-2.47609">
        <ele>84</ele>
        <time>2015-10-12T14:50:20Z</time>
      </trkpt>
      <trkpt lat="48.58122" lon="-2.47615">
        <ele>84.2</ele>
        <time>2015-10-12T14:50:22Z</time>
      </trkpt>
      <trkpt lat="48.58112" lon="-2.47623">
        <ele>84.3</ele>
        <time>2015-10-12T14:50:24Z</time>
      </trkpt>
      <trkpt lat="48.58104" lon="-2.47633">
        <ele>84.4</ele>
        <time>2015-10-12T14:50:26Z</time>
      </trkpt>
      <trkpt lat="48.58095" lon="-2.47643">
        <ele>84.6</ele>
        <time>2015-10-12T14:50:28Z</time>
      </trkpt>
      <trkpt lat="48.58088" lon="-2.47654">
        <ele>84.7</ele>
        <time>2015-10-12T14:50:30Z</time>
      </trkpt>
      <trkpt lat="48.58081" lon="-2.47665">
        <ele>84.9</ele>
        <time>2015-10-12T14:50:32Z</time>
      </trkpt>
      <trkpt lat="48.58075" lon="-2.47678">
        <ele>85.1</ele>
        <time>2015-10-12T14:50:34Z</time>
      </trkpt>
      <trkpt lat="48.58071" lon="-2.47693">
        <ele>85.2</ele>
        <time>2015-10-12T14:50:36Z</time>
      </trkpt>
      <trkpt lat="48.5807" lon="-2.47709">
        <ele>85.4</ele>
        <time>2015-10-12T14:50:38Z</time>
      </trkpt>
      <trkpt lat="48.58073" lon="-2.47724">
        <ele>85.6</ele>
        <time>2015-10-12T14:50:40Z</time>
      </trkpt>
      <trkpt lat="48.58074" lon="-2.47739">
        <ele>85.8</ele>
        <time>2015-10-12T14:50:42Z</time>
      </trkpt>
      <trkpt lat="48.58078" lon="-2.47752">
        <ele>86</ele>
        <time>2015-10-12T14:50:44Z</time>
      </trkpt>
      <trkpt lat="48.5808" lon="-2.47766">
        <ele>86.2</ele>
        <time>2015-10-12T14:50:46Z</time>
      </trkpt>
      <trkpt lat="48.58083" lon="-2.4778">
        <ele>86.3</ele>
        <time>2015-10-12T14:50:48Z</time>
      </trkpt>
      <trkpt lat="48.58086" lon="-2.47798">
        <ele>86.6</ele>
        <time>2015-10-12T14:50:51Z</time>
      </trkpt>
      <trkpt lat="48.58088" lon="-2.47817">
        <ele>87</ele>
        <time>2015-10-12T14:50:54Z</time>
      </trkpt>
      <trkpt lat="48.58091" lon="-2.47835">
        <ele>87.3</ele>
        <time>2015-10-12T14:50:57Z</time>
      </trkpt>
      <trkpt lat="48.58097" lon="-2.47849">
        <ele>87.6</ele>
        <time>2015-10-12T14:51:00Z</time>
      </trkpt>
      <trkpt lat="48.58107" lon="-2.47853">
        <ele>88</ele>
        <time>2015-10-12T14:51:03Z</time>
      </trkpt>
      <trkpt lat="48.58117" lon="-2.47854">
        <ele>88.4</ele>
        <time>2015-10-12T14:51:06Z</time>
      </trkpt>
      <trkpt lat="48.58128" lon="-2.47853">
        <ele>88.8</ele>
        <time>2015-10-12T14:51:09Z</time>
      </trkpt>
      <trkpt lat="48.5814" lon="-2.47851">
        <ele>89.2</ele>
        <time>2015-10-12T14:51:12Z</time>
      </trkpt>
      <trkpt lat="48.58152" lon="-2.47848">
        <ele>89.5</ele>
        <time>2015-10-12T14:51:15Z</time>
      </trkpt>
      <trkpt lat="48.58164" lon="-2.47844">
        <ele>89.9</ele>
        <time>2015-10-12T14:51:18Z</time>
      </trkpt>
      <trkpt lat="48.58173" lon="-2.4784">
        <ele>90.1</ele>
        <time>2015-10-12T14:51:20Z</time>
      </trkpt>
      <trkpt lat="48.58182" lon="-2.47836">
        <ele>90.2</ele>
        <time>2015-10-12T14:51:22Z</time>
      </trkpt>
      <trkpt lat="48.58192" lon="-2.47832">
        <ele>90.4</ele>
        <time>2015-10-12T14:51:24Z</time>
      </trkpt>
      <trkpt lat="48.58202" lon="-2.47828">
        <ele>90.5</ele>
        <time>2015-10-12T14:51:26Z</time>
      </trkpt>
      <trkpt lat="48.58212" lon="-2.47825">
        <ele>90.7</ele>
        <time>2015-10-12T14:51:28Z</time>
      </trkpt>
      <trkpt lat="48.58222" lon="-2.47823">
        <ele>90.8</ele>
        <time>2015-10-12T14:51:30Z</time>
      </trkpt>
      <trkpt lat="48.58232" lon="-2.47822">
        <ele>90.9</ele>
        <time>2015-10-12T14:51:32Z</time>
      </trkpt>
      <trkpt lat="48.58243" lon="-2.47821">
        <ele>90.9</ele>
        <time>2015-10-12T14:51:34Z</time>
      </trkpt>
      <trkpt lat="48.58253" lon="-2.47821">
        <ele>91</ele>
        <time>2015-10-12T14:51:36Z</time>
      </trkpt>
      <trkpt lat="48.58263" lon="-2.47822">
        <ele>91.1</ele>
        <time>2015-10-12T14:51:38Z</time>
      </trkpt>
      <trkpt lat="48.58273" lon="-2.47822">
        <ele>91.1</ele>
        <time>2015-10-12T14:51:40Z</time>
      </trkpt>
      <trkpt lat="48.58284" lon="-2.47822">
        <ele>91.2</ele>
        <time>2015-10-12T14:51:42Z</time>
      </trkpt>
      <trkpt lat="48.58293" lon="-2.47822">
        <ele>91.2</ele>
        <time>2015-10-12T14:51:44Z</time>
      </trkpt>
      <trkpt lat="48.58302" lon="-2.47822">
        <ele>91.3</ele>
        <time>2015-10-12T14:51:46Z</time>
      </trkpt>
      <trkpt lat="48.58304" lon="-2.47838">
        <ele>91.3</ele>
        <time>2015-10-12T14:51:50Z</time>
      </trkpt>
      <trkpt lat="48.58297" lon="-2.47853">
        <ele>91.4</ele>
        <time>2015-10-12T14:51:53Z</time>
      </trkpt>
      <trkpt lat="48.58288" lon="-2.47868">
        <ele>91.4</ele>
        <time>2015-10-12T14:51:56Z</time>
      </trkpt>
      <trkpt lat="48.58282" lon="-2.47879">
        <ele>91.4</ele>
        <time>2015-10-12T14:51:58Z</time>
      </trkpt>
      <trkpt lat="48.58276" lon="-2.4789">
        <ele>91.4</ele>
        <time>2015-10-12T14:52:00Z</time>
      </trkpt>
      <trkpt lat="48.5827" lon="-2.47901">
        <ele>91.4</ele>
        <time>2015-10-12T14:52:02Z</time>
      </trkpt>
      <trkpt lat="48.58263" lon="-2.47912">
        <ele>91.4</ele>
        <time>2015-10-12T14:52:04Z</time>
      </trkpt>
      <trkpt lat="48.58254" lon="-2.47926">
        <ele>91.5</ele>
        <time>2015-10-12T14:52:07Z</time>
      </trkpt>
      <trkpt lat="48.58246" lon="-2.4794">
        <ele>91.5</ele>
        <time>2015-10-12T14:52:10Z</time>
      </trkpt>
      <trkpt lat="48.58237" lon="-2.47953">
        <ele>91.5</ele>
        <time>2015-10-12T14:52:13Z</time>
      </trkpt>
      <trkpt lat="48.58227" lon="-2.47965">
        <ele>91.5</ele>
        <time>2015-10-12T14:52:16Z</time>
      </trkpt>
      <trkpt lat="48.58218" lon="-2.47976">
        <ele>91.6</ele>
        <time>2015-10-12T14:52:19Z</time>
      </trkpt>
      <trkpt lat="48.58209" lon="-2.47986">
        <ele>91.6</ele>
        <time>2015-10-12T14:52:22Z</time>
      </trkpt>
      <trkpt lat="48.582" lon="-2.47997">
        <ele>91.7</ele>
        <time>2015-10-12T14:52:25Z</time>
      </trkpt>
      <trkpt lat="48.58191" lon="-2.48008">
        <ele>91.8</ele>
        <time>2015-10-12T14:52:28Z</time>
      </trkpt>
      <trkpt lat="48.5818" lon="-2.48019">
        <ele>92</ele>
        <time>2015-10-12T14:52:31Z</time>
      </trkpt>
      <trkpt lat="48.5817" lon="-2.4803">
        <ele>92.1</ele>
        <time>2015-10-12T14:52:34Z</time>
      </trkpt>
      <trkpt lat="48.5816" lon="-2.48039">
        <ele>92.2</ele>
        <time>2015-10-12T14:52:37Z</time>
      </trkpt>
      <trkpt lat="48.58151" lon="-2.4805">
        <ele>92.3</ele>
        <time>2015-10-12T14:52:40Z</time>
      </trkpt>
      <trkpt lat="48.58143" lon="-2.48062">
        <ele>92.4</ele>
        <time>2015-10-12T14:52:43Z</time>
      </trkpt>
      <trkpt lat="48.58137" lon="-2.48077">
        <ele>92.6</ele>
        <time>2015-10-12T14:52:46Z</time>
      </trkpt>
      <trkpt lat="48.58132" lon="-2.48092">
        <ele>92.8</ele>
        <time>2015-10-12T14:52:49Z</time>
      </trkpt>
      <trkpt lat="48.58129" lon="-2.48109">
        <ele>93</ele>
        <time>2015-10-12T14:52:52Z</time>
      </trkpt>
      <trkpt lat="48.58126" lon="-2.48124">
        <ele>93.1</ele>
        <time>2015-10-12T14:52:55Z</time>
      </trkpt>
      <trkpt lat="48.58121" lon="-2.48142">
        <ele>93.3</ele>
        <time>2015-10-12T14:52:58Z</time>
      </trkpt>
      <trkpt lat="48.58116" lon="-2.48155">
        <ele>93.4</ele>
        <time>2015-10-12T14:53:00Z</time>
      </trkpt>
      <trkpt lat="48.58111" lon="-2.48167">
        <ele>93.5</ele>
        <time>2015-10-12T14:53:02Z</time>
      </trkpt>
      <trkpt lat="48.58104" lon="-2.48184">
        <ele>93.7</ele>
        <time>2015-10-12T14:53:05Z</time>
      </trkpt>
      <trkpt lat="48.58097" lon="-2.482">
        <ele>94</ele>
        <time>2015-10-12T14:53:08Z</time>
      </trkpt>
      <trkpt lat="48.58091" lon="-2.48215">
        <ele>94.2</ele>
        <time>2015-10-12T14:53:11Z</time>
      </trkpt>
      <trkpt lat="48.5809" lon="-2.48232">
        <ele>94.4</ele>
        <time>2015-10-12T14:53:14Z</time>
      </trkpt>
      <trkpt lat="48.58098" lon="-2.48245">
        <ele>94.5</ele>
        <time>2015-10-12T14:53:17Z</time>
      </trkpt>
      <trkpt lat="48.58108" lon="-2.48258">
        <ele>94.8</ele>
        <time>2015-10-12T14:53:20Z</time>
      </trkpt>
      <trkpt lat="48.58116" lon="-2.48267">
        <ele>95</ele>
        <time>2015-10-12T14:53:22Z</time>
      </trkpt>
      <trkpt lat="48.58123" lon="-2.48277">
        <ele>95.2</ele>
        <time>2015-10-12T14:53:24Z</time>
      </trkpt>
      <trkpt lat="48.5813" lon="-2.48286">
        <ele>95.3</ele>
        <time>2015-10-12T14:53:26Z</time>
      </trkpt>
      <trkpt lat="48.58138" lon="-2.48297">
        <ele>95.5</ele>
        <time>2015-10-12T14:53:28Z</time>
      </trkpt>
      <trkpt lat="48.58145" lon="-2.48307">
        <ele>95.6</ele>
        <time>2015-10-12T14:53:30Z</time>
      </trkpt>
      <trkpt lat="48.58153" lon="-2.48318">
        <ele>95.7</ele>
        <time>2015-10-12T14:53:32Z</time>
      </trkpt>
      <trkpt lat="48.58162" lon="-2.48329">
        <ele>95.7</ele>
        <time>2015-10-12T14:53:34Z</time>
      </trkpt>
      <trkpt lat="48.58169" lon="-2.48339">
        <ele>95.7</ele>
        <time>2015-10-12T14:53:36Z</time>
      </trkpt>
      <trkpt lat="48.58178" lon="-2.48347">
        <ele>95.7</ele>
        <time>2015-10-12T14:53:38Z</time>
      </trkpt>
      <trkpt lat="48.58186" lon="-2.48355">
        <ele>95.8</ele>
        <time>2015-10-12T14:53:40Z</time>
      </trkpt>
      <trkpt lat="48.58195" lon="-2.48361">
        <ele>95.7</ele>
        <time>2015-10-12T14:53:42Z</time>
      </trkpt>
      <trkpt lat="48.58204" lon="-2.48368">
        <ele>95.7</ele>
        <time>2015-10-12T14:53:44Z</time>
      </trkpt>
      <trkpt lat="48.58212" lon="-2.48374">
        <ele>95.7</ele>
        <time>2015-10-12T14:53:46Z</time>
      </trkpt>
      <trkpt lat="48.58221" lon="-2.48381">
        <ele>95.6</ele>
        <time>2015-10-12T14:53:48Z</time>
      </trkpt>
      <trkpt lat="48.58229" lon="-2.48388">
        <ele>95.5</ele>
        <time>2015-10-12T14:53:50Z</time>
      </trkpt>
      <trkpt lat="48.58237" lon="-2.48397">
        <ele>95.4</ele>
        <time>2015-10-12T14:53:52Z</time>
      </trkpt>
      <trkpt lat="48.58242" lon="-2.48408">
        <ele>95.3</ele>
        <time>2015-10-12T14:53:54Z</time>
      </trkpt>
      <trkpt lat="48.58246" lon="-2.48427">
        <ele>95.2</ele>
        <time>2015-10-12T14:53:57Z</time>
      </trkpt>
      <trkpt lat="48.58246" lon="-2.48441">
        <ele>95.1</ele>
        <time>2015-10-12T14:53:59Z</time>
      </trkpt>
      <trkpt lat="48.58246" lon="-2.48455">
        <ele>95</ele>
        <time>2015-10-12T14:54:01Z</time>
      </trkpt>
      <trkpt lat="48.58246" lon="-2.4847">
        <ele>94.9</ele>
        <time>2015-10-12T14:54:03Z</time>
      </trkpt>
      <trkpt lat="48.58245" lon="-2.48483">
        <ele>94.9</ele>
        <time>2015-10-12T14:54:05Z</time>
      </trkpt>
      <trkpt lat="48.58245" lon="-2.48498">
        <ele>94.8</ele>
        <time>2015-10-12T14:54:07Z</time>
      </trkpt>
      <trkpt lat="48.58244" lon="-2.48512">
        <ele>94.8</ele>
        <time>2015-10-12T14:54:09Z</time>
      </trkpt>
      <trkpt lat="48.58242" lon="-2.48527">
        <ele>94.7</ele>
        <time>2015-10-12T14:54:11Z</time>
      </trkpt>
      <trkpt lat="48.58239" lon="-2.48541">
        <ele>94.7</ele>
        <time>2015-10-12T14:54:13Z</time>
      </trkpt>
      <trkpt lat="48.58234" lon="-2.48554">
        <ele>94.7</ele>
        <time>2015-10-12T14:54:15Z</time>
      </trkpt>
      <trkpt lat="48.58228" lon="-2.48566">
        <ele>94.7</ele>
        <time>2015-10-12T14:54:17Z</time>
      </trkpt>
      <trkpt lat="48.58221" lon="-2.48576">
        <ele>94.7</ele>
        <time>2015-10-12T14:54:19Z</time>
      </trkpt>
      <trkpt lat="48.58213" lon="-2.48585">
        <ele>94.8</ele>
        <time>2015-10-12T14:54:21Z</time>
      </trkpt>
      <trkpt lat="48.58204" lon="-2.48593">
        <ele>94.9</ele>
        <time>2015-10-12T14:54:23Z</time>
      </trkpt>
      <trkpt lat="48.58195" lon="-2.48602">
        <ele>94.9</ele>
        <time>2015-10-12T14:54:25Z</time>
      </trkpt>
      <trkpt lat="48.58187" lon="-2.48611">
        <ele>95</ele>
        <time>2015-10-12T14:54:27Z</time>
      </trkpt>
      <trkpt lat="48.58179" lon="-2.48621">
        <ele>95.1</ele>
        <time>2015-10-12T14:54:29Z</time>
      </trkpt>
      <trkpt lat="48.58171" lon="-2.4863">
        <ele>95.4</ele>
        <time>2015-10-12T14:54:31Z</time>
      </trkpt>
      <trkpt lat="48.58164" lon="-2.4864">
        <ele>95.6</ele>
        <time>2015-10-12T14:54:33Z</time>
      </trkpt>
      <trkpt lat="48.58156" lon="-2.4865">
        <ele>95.7</ele>
        <time>2015-10-12T14:54:35Z</time>
      </trkpt>
      <trkpt lat="48.58151" lon="-2.48661">
        <ele>95.9</ele>
        <time>2015-10-12T14:54:37Z</time>
      </trkpt>
      <trkpt lat="48.58149" lon="-2.48675">
        <ele>96.2</ele>
        <time>2015-10-12T14:54:39Z</time>
      </trkpt>
      <trkpt lat="48.58151" lon="-2.48691">
        <ele>96.4</ele>
        <time>2015-10-12T14:54:41Z</time>
      </trkpt>
      <trkpt lat="48.58156" lon="-2.48704">
        <ele>96.6</ele>
        <time>2015-10-12T14:54:43Z</time>
      </trkpt>
      <trkpt lat="48.58162" lon="-2.48717">
        <ele>96.8</ele>
        <time>2015-10-12T14:54:45Z</time>
      </trkpt>
      <trkpt lat="48.58168" lon="-2.4873">
        <ele>96.9</ele>
        <time>2015-10-12T14:54:47Z</time>
      </trkpt>
      <trkpt lat="48.58174" lon="-2.48743">
        <ele>97</ele>
        <time>2015-10-12T14:54:49Z</time>
      </trkpt>
      <trkpt lat="48.58179" lon="-2.48757">
        <ele>97.1</ele>
        <time>2015-10-12T14:54:51Z</time>
      </trkpt>
      <trkpt lat="48.58185" lon="-2.4877">
        <ele>97.2</ele>
        <time>2015-10-12T14:54:53Z</time>
      </trkpt>
      <trkpt lat="48.58191" lon="-2.48783">
        <ele>97.3</ele>
        <time>2015-10-12T14:54:55Z</time>
      </trkpt>
      <trkpt lat="48.58197" lon="-2.48797">
        <ele>97.4</ele>
        <time>2015-10-12T14:54:57Z</time>
      </trkpt>
      <trkpt lat="48.58203" lon="-2.48811">
        <ele>97.5</ele>
        <time>2015-10-12T14:54:59Z</time>
      </trkpt>
      <trkpt lat="48.58209" lon="-2.48824">
        <ele>97.6</ele>
        <time>2015-10-12T14:55:01Z</time>
      </trkpt>
      <trkpt lat="48.58215" lon="-2.48838">
        <ele>97.7</ele>
        <time>2015-10-12T14:55:03Z</time>
      </trkpt>
      <trkpt lat="48.5822" lon="-2.48852">
        <ele>97.7</ele>
        <time>2015-10-12T14:55:05Z</time>
      </trkpt>
      <trkpt lat="48.58225" lon="-2.48866">
        <ele>97.8</ele>
        <time>2015-10-12T14:55:07Z</time>
      </trkpt>
      <trkpt lat="48.5823" lon="-2.48877">
        <ele>97.8</ele>
        <time>2015-10-12T14:55:09Z</time>
      </trkpt>
      <trkpt lat="48.58242" lon="-2.4887">
        <ele>97.9</ele>
        <time>2015-10-12T14:55:12Z</time>
      </trkpt>
      <trkpt lat="48.58249" lon="-2.48858">
        <ele>97.9</ele>
        <time>2015-10-12T14:55:14Z</time>
      </trkpt>
      <trkpt lat="48.58258" lon="-2.48848">
        <ele>97.9</ele>
        <time>2015-10-12T14:55:16Z</time>
      </trkpt>
      <trkpt lat="48.58268" lon="-2.48839">
        <ele>97.8</ele>
        <time>2015-10-12T14:55:18Z</time>
      </trkpt>
      <trkpt lat="48.58278" lon="-2.48831">
        <ele>97.8</ele>
        <time>2015-10-12T14:55:20Z</time>
      </trkpt>
      <trkpt lat="48.58288" lon="-2.48824">
        <ele>97.7</ele>
        <time>2015-10-12T14:55:22Z</time>
      </trkpt>
      <trkpt lat="48.58298" lon="-2.48817">
        <ele>97.7</ele>
        <time>2015-10-12T14:55:24Z</time>
      </trkpt>
      <trkpt lat="48.58308" lon="-2.48811">
        <ele>97.5</ele>
        <time>2015-10-12T14:55:26Z</time>
      </trkpt>
      <trkpt lat="48.58318" lon="-2.48804">
        <ele>97.4</ele>
        <time>2015-10-12T14:55:28Z</time>
      </trkpt>
      <trkpt lat="48.58328" lon="-2.48798">
        <ele>97.4</ele>
        <time>2015-10-12T14:55:30Z</time>
      </trkpt>
      <trkpt lat="48.58337" lon="-2.48792">
        <ele>97.2</ele>
        <time>2015-10-12T14:55:32Z</time>
      </trkpt>
      <trkpt lat="48.5835" lon="-2.48787">
        <ele>97</ele>
        <time>2015-10-12T14:55:35Z</time>
      </trkpt>
      <trkpt lat="48.58359" lon="-2.48785">
        <ele>96.9</ele>
        <time>2015-10-12T14:55:37Z</time>
      </trkpt>
      <trkpt lat="48.58369" lon="-2.48783">
        <ele>96.8</ele>
        <time>2015-10-12T14:55:39Z</time>
      </trkpt>
      <trkpt lat="48.58379" lon="-2.48782">
        <ele>96.7</ele>
        <time>2015-10-12T14:55:41Z</time>
      </trkpt>
      <trkpt lat="48.5839" lon="-2.48781">
        <ele>96.6</ele>
        <time>2015-10-12T14:55:43Z</time>
      </trkpt>
      <trkpt lat="48.58399" lon="-2.48781">
        <ele>96.5</ele>
        <time>2015-10-12T14:55:45Z</time>
      </trkpt>
      <trkpt lat="48.58409" lon="-2.4878">
        <ele>96.5</ele>
        <time>2015-10-12T14:55:47Z</time>
      </trkpt>
      <trkpt lat="48.58419" lon="-2.4878">
        <ele>96.4</ele>
        <time>2015-10-12T14:55:49Z</time>
      </trkpt>
      <trkpt lat="48.58429" lon="-2.4878">
        <ele>96.4</ele>
        <time>2015-10-12T14:55:51Z</time>
      </trkpt>
      <trkpt lat="48.5844" lon="-2.4878">
        <ele>96.3</ele>
        <time>2015-10-12T14:55:53Z</time>
      </trkpt>
      <trkpt lat="48.58452" lon="-2.48781">
        <ele>96.3</ele>
        <time>2015-10-12T14:55:55Z</time>
      </trkpt>
      <trkpt lat="48.58462" lon="-2.48783">
        <ele>96.4</ele>
        <time>2015-10-12T14:55:57Z</time>
      </trkpt>
      <trkpt lat="48.58472" lon="-2.48784">
        <ele>96.4</ele>
        <time>2015-10-12T14:55:59Z</time>
      </trkpt>
      <trkpt lat="48.58482" lon="-2.48787">
        <ele>96.4</ele>
        <time>2015-10-12T14:56:01Z</time>
      </trkpt>
      <trkpt lat="48.58493" lon="-2.48791">
        <ele>96.4</ele>
        <time>2015-10-12T14:56:03Z</time>
      </trkpt>
      <trkpt lat="48.58502" lon="-2.48798">
        <ele>96.4</ele>
        <time>2015-10-12T14:56:05Z</time>
      </trkpt>
      <trkpt lat="48.58509" lon="-2.48806">
        <ele>96.5</ele>
        <time>2015-10-12T14:56:07Z</time>
      </trkpt>
      <trkpt lat="48.58515" lon="-2.48816">
        <ele>96.6</ele>
        <time>2015-10-12T14:56:09Z</time>
      </trkpt>
      <trkpt lat="48.58525" lon="-2.4883">
        <ele>96.9</ele>
        <time>2015-10-12T14:56:12Z</time>
      </trkpt>
      <trkpt lat="48.58532" lon="-2.4884">
        <ele>97.1</ele>
        <time>2015-10-12T14:56:14Z</time>
      </trkpt>
      <trkpt lat="48.58539" lon="-2.4885">
        <ele>97.3</ele>
        <time>2015-10-12T14:56:16Z</time>
      </trkpt>
      <trkpt lat="48.58547" lon="-2.4886">
        <ele>97.5</ele>
        <time>2015-10-12T14:56:18Z</time>
      </trkpt>
      <trkpt lat="48.58553" lon="-2.48871">
        <ele>97.8</ele>
        <time>2015-10-12T14:56:20Z</time>
      </trkpt>
      <trkpt lat="48.5856" lon="-2.48881">
        <ele>98</ele>
        <time>2015-10-12T14:56:22Z</time>
      </trkpt>
      <trkpt lat="48.5857" lon="-2.48896">
        <ele>98.3</ele>
        <time>2015-10-12T14:56:25Z</time>
      </trkpt>
      <trkpt lat="48.5858" lon="-2.4891">
        <ele>98.6</ele>
        <time>2015-10-12T14:56:28Z</time>
      </trkpt>
      <trkpt lat="48.58588" lon="-2.48919">
        <ele>98.7</ele>
        <time>2015-10-12T14:56:30Z</time>
      </trkpt>
      <trkpt lat="48.58596" lon="-2.48929">
        <ele>98.8</ele>
        <time>2015-10-12T14:56:32Z</time>
      </trkpt>
      <trkpt lat="48.58603" lon="-2.48938">
        <ele>98.9</ele>
        <time>2015-10-12T14:56:34Z</time>
      </trkpt>
      <trkpt lat="48.5861" lon="-2.48948">
        <ele>99.1</ele>
        <time>2015-10-12T14:56:36Z</time>
      </trkpt>
      <trkpt lat="48.58617" lon="-2.48957">
        <ele>99.2</ele>
        <time>2015-10-12T14:56:38Z</time>
      </trkpt>
      <trkpt lat="48.58625" lon="-2.48967">
        <ele>99.3</ele>
        <time>2015-10-12T14:56:40Z</time>
      </trkpt>
      <trkpt lat="48.58632" lon="-2.48981">
        <ele>99.4</ele>
        <time>2015-10-12T14:56:43Z</time>
      </trkpt>
      <trkpt lat="48.58644" lon="-2.48991">
        <ele>99.5</ele>
        <time>2015-10-12T14:56:46Z</time>
      </trkpt>
      <trkpt lat="48.58651" lon="-2.49001">
        <ele>99.6</ele>
        <time>2015-10-12T14:56:48Z</time>
      </trkpt>
      <trkpt lat="48.58658" lon="-2.4901">
        <ele>99.7</ele>
        <time>2015-10-12T14:56:50Z</time>
      </trkpt>
      <trkpt lat="48.58663" lon="-2.49022">
        <ele>99.8</ele>
        <time>2015-10-12T14:56:52Z</time>
      </trkpt>
      <trkpt lat="48.58672" lon="-2.49035">
        <ele>100</ele>
        <time>2015-10-12T14:56:55Z</time>
      </trkpt>
      <trkpt lat="48.58682" lon="-2.49044">
        <ele>100.1</ele>
        <time>2015-10-12T14:56:58Z</time>
      </trkpt>
      <trkpt lat="48.58693" lon="-2.49053">
        <ele>100.2</ele>
        <time>2015-10-12T14:57:01Z</time>
      </trkpt>
      <trkpt lat="48.58704" lon="-2.49062">
        <ele>100.3</ele>
        <time>2015-10-12T14:57:04Z</time>
      </trkpt>
      <trkpt lat="48.58714" lon="-2.4907">
        <ele>100.3</ele>
        <time>2015-10-12T14:57:07Z</time>
      </trkpt>
      <trkpt lat="48.58722" lon="-2.49075">
        <ele>100.5</ele>
        <time>2015-10-12T14:57:10Z</time>
      </trkpt>
      <trkpt lat="48.5873" lon="-2.4908">
        <ele>100.6</ele>
        <time>2015-10-12T14:57:13Z</time>
      </trkpt>
      <trkpt lat="48.5874" lon="-2.49085">
        <ele>100.7</ele>
        <time>2015-10-12T14:57:16Z</time>
      </trkpt>
      <trkpt lat="48.5875" lon="-2.49089">
        <ele>100.9</ele>
        <time>2015-10-12T14:57:19Z</time>
      </trkpt>
      <trkpt lat="48.58761" lon="-2.49093">
        <ele>101.1</ele>
        <time>2015-10-12T14:57:22Z</time>
      </trkpt>
      <trkpt lat="48.58771" lon="-2.49098">
        <ele>101.3</ele>
        <time>2015-10-12T14:57:25Z</time>
      </trkpt>
      <trkpt lat="48.58782" lon="-2.49101">
        <ele>101.6</ele>
        <time>2015-10-12T14:57:28Z</time>
      </trkpt>
      <trkpt lat="48.58792" lon="-2.49105">
        <ele>101.8</ele>
        <time>2015-10-12T14:57:31Z</time>
      </trkpt>
      <trkpt lat="48.58804" lon="-2.4911">
        <ele>102</ele>
        <time>2015-10-12T14:57:34Z</time>
      </trkpt>
      <trkpt lat="48.58815" lon="-2.49115">
        <ele>102.3</ele>
        <time>2015-10-12T14:57:37Z</time>
      </trkpt>
      <trkpt lat="48.58824" lon="-2.4912">
        <ele>102.6</ele>
        <time>2015-10-12T14:57:40Z</time>
      </trkpt>
      <trkpt lat="48.58834" lon="-2.49126">
        <ele>103</ele>
        <time>2015-10-12T14:57:43Z</time>
      </trkpt>
      <trkpt lat="48.58846" lon="-2.49128">
        <ele>103.3</ele>
        <time>2015-10-12T14:57:46Z</time>
      </trkpt>
      <trkpt lat="48.58858" lon="-2.49131">
        <ele>103.7</ele>
        <time>2015-10-12T14:57:49Z</time>
      </trkpt>
      <trkpt lat="48.58869" lon="-2.49135">
        <ele>104.1</ele>
        <time>2015-10-12T14:57:52Z</time>
      </trkpt>
      <trkpt lat="48.5888" lon="-2.49139">
        <ele>104.6</ele>
        <time>2015-10-12T14:57:55Z</time>
      </trkpt>
      <trkpt lat="48.58891" lon="-2.49142">
        <ele>105</ele>
        <time>2015-10-12T14:57:58Z</time>
      </trkpt>
      <trkpt lat="48.58901" lon="-2.49146">
        <ele>105.5</ele>
        <time>2015-10-12T14:58:01Z</time>
      </trkpt>
      <trkpt lat="48.58912" lon="-2.49152">
        <ele>106.1</ele>
        <time>2015-10-12T14:58:04Z</time>
      </trkpt>
      <trkpt lat="48.58923" lon="-2.49156">
        <ele>106.5</ele>
        <time>2015-10-12T14:58:07Z</time>
      </trkpt>
      <trkpt lat="48.58934" lon="-2.49161">
        <ele>107</ele>
        <time>2015-10-12T14:58:10Z</time>
      </trkpt>
      <trkpt lat="48.58945" lon="-2.49169">
        <ele>107.3</ele>
        <time>2015-10-12T14:58:13Z</time>
      </trkpt>
      <trkpt lat="48.58957" lon="-2.49173">
        <ele>107.7</ele>
        <time>2015-10-12T14:58:16Z</time>
      </trkpt>
      <trkpt lat="48.5897" lon="-2.49178">
        <ele>108</ele>
        <time>2015-10-12T14:58:19Z</time>
      </trkpt>
      <trkpt lat="48.58983" lon="-2.49182">
        <ele>108.4</ele>
        <time>2015-10-12T14:58:22Z</time>
      </trkpt>
      <trkpt lat="48.58995" lon="-2.49187">
        <ele>108.6</ele>
        <time>2015-10-12T14:58:25Z</time>
      </trkpt>
      <trkpt lat="48.59008" lon="-2.49192">
        <ele>108.9</ele>
        <time>2015-10-12T14:58:28Z</time>
      </trkpt>
      <trkpt lat="48.59018" lon="-2.49196">
        <ele>109</ele>
        <time>2015-10-12T14:58:30Z</time>
      </trkpt>
      <trkpt lat="48.59028" lon="-2.49199">
        <ele>109.2</ele>
        <time>2015-10-12T14:58:32Z</time>
      </trkpt>
      <trkpt lat="48.59037" lon="-2.49203">
        <ele>109.3</ele>
        <time>2015-10-12T14:58:34Z</time>
      </trkpt>
      <trkpt lat="48.59047" lon="-2.49207">
        <ele>109.4</ele>
        <time>2015-10-12T14:58:36Z</time>
      </trkpt>
      <trkpt lat="48.59057" lon="-2.49211">
        <ele>109.5</ele>
        <time>2015-10-12T14:58:38Z</time>
      </trkpt>
      <trkpt lat="48.59067" lon="-2.49216">
        <ele>109.6</ele>
        <time>2015-10-12T14:58:40Z</time>
      </trkpt>
      <trkpt lat="48.59077" lon="-2.4922">
        <ele>109.7</ele>
        <time>2015-10-12T14:58:42Z</time>
      </trkpt>
      <trkpt lat="48.59086" lon="-2.49223">
        <ele>109.8</ele>
        <time>2015-10-12T14:58:44Z</time>
      </trkpt>
      <trkpt lat="48.59095" lon="-2.49228">
        <ele>109.9</ele>
        <time>2015-10-12T14:58:46Z</time>
      </trkpt>
      <trkpt lat="48.59104" lon="-2.49231">
        <ele>110</ele>
        <time>2015-10-12T14:58:48Z</time>
      </trkpt>
      <trkpt lat="48.59115" lon="-2.49236">
        <ele>110.1</ele>
        <time>2015-10-12T14:58:51Z</time>
      </trkpt>
      <trkpt lat="48.59124" lon="-2.49239">
        <ele>110.2</ele>
        <time>2015-10-12T14:58:54Z</time>
      </trkpt>
      <trkpt lat="48.59134" lon="-2.49248">
        <ele>110.4</ele>
        <time>2015-10-12T14:59:03Z</time>
      </trkpt>
      <trkpt lat="48.59141" lon="-2.49258">
        <ele>110.5</ele>
        <time>2015-10-12T14:59:08Z</time>
      </trkpt>
      <trkpt lat="48.59152" lon="-2.49256">
        <ele>110.5</ele>
        <time>2015-10-12T14:59:14Z</time>
      </trkpt>
      <trkpt lat="48.59158" lon="-2.49245">
        <ele>110.5</ele>
        <time>2015-10-12T14:59:16Z</time>
      </trkpt>
      <trkpt lat="48.59165" lon="-2.49232">
        <ele>110.4</ele>
        <time>2015-10-12T14:59:18Z</time>
      </trkpt>
      <trkpt lat="48.59172" lon="-2.49218">
        <ele>110.4</ele>
        <time>2015-10-12T14:59:20Z</time>
      </trkpt>
      <trkpt lat="48.59181" lon="-2.49206">
        <ele>110.3</ele>
        <time>2015-10-12T14:59:22Z</time>
      </trkpt>
      <trkpt lat="48.59192" lon="-2.49201">
        <ele>110.3</ele>
        <time>2015-10-12T14:59:24Z</time>
      </trkpt>
      <trkpt lat="48.59204" lon="-2.49202">
        <ele>110.2</ele>
        <time>2015-10-12T14:59:26Z</time>
      </trkpt>
      <trkpt lat="48.59216" lon="-2.49204">
        <ele>110.1</ele>
        <time>2015-10-12T14:59:28Z</time>
      </trkpt>
      <trkpt lat="48.59228" lon="-2.49207">
        <ele>110</ele>
        <time>2015-10-12T14:59:30Z</time>
      </trkpt>
      <trkpt lat="48.59241" lon="-2.4921">
        <ele>109.9</ele>
        <time>2015-10-12T14:59:32Z</time>
      </trkpt>
      <trkpt lat="48.59253" lon="-2.49211">
        <ele>109.7</ele>
        <time>2015-10-12T14:59:34Z</time>
      </trkpt>
      <trkpt lat="48.59265" lon="-2.49212">
        <ele>109.6</ele>
        <time>2015-10-12T14:59:36Z</time>
      </trkpt>
      <trkpt lat="48.59276" lon="-2.49213">
        <ele>109.5</ele>
        <time>2015-10-12T14:59:38Z</time>
      </trkpt>
      <trkpt lat="48.59286" lon="-2.49214">
        <ele>109.4</ele>
        <time>2015-10-12T14:59:40Z</time>
      </trkpt>
      <trkpt lat="48.59296" lon="-2.49214">
        <ele>109.2</ele>
        <time>2015-10-12T14:59:43Z</time>
      </trkpt>
      <trkpt lat="48.59306" lon="-2.4921">
        <ele>108.9</ele>
        <time>2015-10-12T14:59:47Z</time>
      </trkpt>
      <trkpt lat="48.59313" lon="-2.49196">
        <ele>108.7</ele>
        <time>2015-10-12T14:59:50Z</time>
      </trkpt>
      <trkpt lat="48.59319" lon="-2.49185">
        <ele>108.6</ele>
        <time>2015-10-12T14:59:52Z</time>
      </trkpt>
      <trkpt lat="48.59325" lon="-2.49175">
        <ele>108.5</ele>
        <time>2015-10-12T14:59:54Z</time>
      </trkpt>
      <trkpt lat="48.59334" lon="-2.49163">
        <ele>108.3</ele>
        <time>2015-10-12T14:59:57Z</time>
      </trkpt>
      <trkpt lat="48.59345" lon="-2.49152">
        <ele>107.9</ele>
        <time>2015-10-12T15:00:00Z</time>
      </trkpt>
      <trkpt lat="48.59353" lon="-2.49146">
        <ele>107.6</ele>
        <time>2015-10-12T15:00:02Z</time>
      </trkpt>
      <trkpt lat="48.59364" lon="-2.49136">
        <ele>107.3</ele>
        <time>2015-10-12T15:00:05Z</time>
      </trkpt>
      <trkpt lat="48.59376" lon="-2.4913">
        <ele>107.1</ele>
        <time>2015-10-12T15:00:08Z</time>
      </trkpt>
      <trkpt lat="48.59389" lon="-2.49128">
        <ele>106.8</ele>
        <time>2015-10-12T15:00:11Z</time>
      </trkpt>
      <trkpt lat="48.59399" lon="-2.49128">
        <ele>106.7</ele>
        <time>2015-10-12T15:00:13Z</time>
      </trkpt>
      <trkpt lat="48.59409" lon="-2.4913">
        <ele>106.5</ele>
        <time>2015-10-12T15:00:15Z</time>
      </trkpt>
      <trkpt lat="48.5942" lon="-2.49132">
        <ele>106.2</ele>
        <time>2015-10-12T15:00:17Z</time>
      </trkpt>
      <trkpt lat="48.59431" lon="-2.49134">
        <ele>106</ele>
        <time>2015-10-12T15:00:19Z</time>
      </trkpt>
      <trkpt lat="48.59443" lon="-2.49135">
        <ele>105.6</ele>
        <time>2015-10-12T15:00:21Z</time>
      </trkpt>
      <trkpt lat="48.59456" lon="-2.49137">
        <ele>105.3</ele>
        <time>2015-10-12T15:00:23Z</time>
      </trkpt>
      <trkpt lat="48.59469" lon="-2.49139">
        <ele>104.9</ele>
        <time>2015-10-12T15:00:25Z</time>
      </trkpt>
      <trkpt lat="48.59481" lon="-2.49141">
        <ele>104.6</ele>
        <time>2015-10-12T15:00:27Z</time>
      </trkpt>
      <trkpt lat="48.59494" lon="-2.49142">
        <ele>104.2</ele>
        <time>2015-10-12T15:00:29Z</time>
      </trkpt>
      <trkpt lat="48.59507" lon="-2.49144">
        <ele>103.7</ele>
        <time>2015-10-12T15:00:31Z</time>
      </trkpt>
      <trkpt lat="48.59521" lon="-2.49145">
        <ele>103.2</ele>
        <time>2015-10-12T15:00:33Z</time>
      </trkpt>
      <trkpt lat="48.59535" lon="-2.49146">
        <ele>102.6</ele>
        <time>2015-10-12T15:00:35Z</time>
      </trkpt>
      <trkpt lat="48.59548" lon="-2.49148">
        <ele>102.1</ele>
        <time>2015-10-12T15:00:37Z</time>
      </trkpt>
      <trkpt lat="48.59562" lon="-2.49149">
        <ele>101.5</ele>
        <time>2015-10-12T15:00:39Z</time>
      </trkpt>
      <trkpt lat="48.59577" lon="-2.49148">
        <ele>100.9</ele>
        <time>2015-10-12T15:00:41Z</time>
      </trkpt>
      <trkpt lat="48.59591" lon="-2.49147">
        <ele>100.2</ele>
        <time>2015-10-12T15:00:43Z</time>
      </trkpt>
      <trkpt lat="48.59607" lon="-2.49146">
        <ele>99.4</ele>
        <time>2015-10-12T15:00:45Z</time>
      </trkpt>
      <trkpt lat="48.59622" lon="-2.49144">
        <ele>98.7</ele>
        <time>2015-10-12T15:00:47Z</time>
      </trkpt>
      <trkpt lat="48.59638" lon="-2.49143">
        <ele>97.9</ele>
        <time>2015-10-12T15:00:49Z</time>
      </trkpt>
      <trkpt lat="48.59654" lon="-2.49141">
        <ele>97.1</ele>
        <time>2015-10-12T15:00:51Z</time>
      </trkpt>
      <trkpt lat="48.59671" lon="-2.4914">
        <ele>96.1</ele>
        <time>2015-10-12T15:00:53Z</time>
      </trkpt>
      <trkpt lat="48.59687" lon="-2.49138">
        <ele>95.1</ele>
        <time>2015-10-12T15:00:55Z</time>
      </trkpt>
      <trkpt lat="48.59704" lon="-2.49136">
        <ele>94.1</ele>
        <time>2015-10-12T15:00:57Z</time>
      </trkpt>
      <trkpt lat="48.59721" lon="-2.49135">
        <ele>93</ele>
        <time>2015-10-12T15:00:59Z</time>
      </trkpt>
      <trkpt lat="48.59739" lon="-2.49133">
        <ele>91.8</ele>
        <time>2015-10-12T15:01:01Z</time>
      </trkpt>
      <trkpt lat="48.59756" lon="-2.49133">
        <ele>90.6</ele>
        <time>2015-10-12T15:01:03Z</time>
      </trkpt>
      <trkpt lat="48.59765" lon="-2.49134">
        <ele>90</ele>
        <time>2015-10-12T15:01:04Z</time>
      </trkpt>
      <trkpt lat="48.59775" lon="-2.49134">
        <ele>89.4</ele>
        <time>2015-10-12T15:01:05Z</time>
      </trkpt>
      <trkpt lat="48.59792" lon="-2.49135">
        <ele>88.2</ele>
        <time>2015-10-12T15:01:07Z</time>
      </trkpt>
      <trkpt lat="48.5981" lon="-2.49137">
        <ele>87</ele>
        <time>2015-10-12T15:01:09Z</time>
      </trkpt>
      <trkpt lat="48.59827" lon="-2.49141">
        <ele>85.7</ele>
        <time>2015-10-12T15:01:11Z</time>
      </trkpt>
      <trkpt lat="48.59845" lon="-2.49146">
        <ele>84.5</ele>
        <time>2015-10-12T15:01:13Z</time>
      </trkpt>
      <trkpt lat="48.59863" lon="-2.49151">
        <ele>83.3</ele>
        <time>2015-10-12T15:01:15Z</time>
      </trkpt>
      <trkpt lat="48.5988" lon="-2.49155">
        <ele>82</ele>
        <time>2015-10-12T15:01:17Z</time>
      </trkpt>
      <trkpt lat="48.59897" lon="-2.49159">
        <ele>80.8</ele>
        <time>2015-10-12T15:01:19Z</time>
      </trkpt>
      <trkpt lat="48.59913" lon="-2.49162">
        <ele>79.6</ele>
        <time>2015-10-12T15:01:21Z</time>
      </trkpt>
      <trkpt lat="48.5993" lon="-2.49166">
        <ele>78.4</ele>
        <time>2015-10-12T15:01:23Z</time>
      </trkpt>
      <trkpt lat="48.59946" lon="-2.49169">
        <ele>77.2</ele>
        <time>2015-10-12T15:01:25Z</time>
      </trkpt>
      <trkpt lat="48.59963" lon="-2.49172">
        <ele>76</ele>
        <time>2015-10-12T15:01:27Z</time>
      </trkpt>
      <trkpt lat="48.59978" lon="-2.4917">
        <ele>74.8</ele>
        <time>2015-10-12T15:01:29Z</time>
      </trkpt>
      <trkpt lat="48.59992" lon="-2.49163">
        <ele>73.6</ele>
        <time>2015-10-12T15:01:31Z</time>
      </trkpt>
      <trkpt lat="48.60005" lon="-2.49149">
        <ele>72.4</ele>
        <time>2015-10-12T15:01:33Z</time>
      </trkpt>
      <trkpt lat="48.60017" lon="-2.49133">
        <ele>71.2</ele>
        <time>2015-10-12T15:01:35Z</time>
      </trkpt>
      <trkpt lat="48.60029" lon="-2.49116">
        <ele>70.2</ele>
        <time>2015-10-12T15:01:37Z</time>
      </trkpt>
      <trkpt lat="48.6004" lon="-2.49098">
        <ele>69.2</ele>
        <time>2015-10-12T15:01:39Z</time>
      </trkpt>
      <trkpt lat="48.6005" lon="-2.49082">
        <ele>68.2</ele>
        <time>2015-10-12T15:01:41Z</time>
      </trkpt>
      <trkpt lat="48.60059" lon="-2.49068">
        <ele>67.3</ele>
        <time>2015-10-12T15:01:43Z</time>
      </trkpt>
      <trkpt lat="48.60067" lon="-2.49054">
        <ele>66.5</ele>
        <time>2015-10-12T15:01:45Z</time>
      </trkpt>
      <trkpt lat="48.60075" lon="-2.4904">
        <ele>65.8</ele>
        <time>2015-10-12T15:01:47Z</time>
      </trkpt>
      <trkpt lat="48.60081" lon="-2.49028">
        <ele>65.2</ele>
        <time>2015-10-12T15:01:49Z</time>
      </trkpt>
      <trkpt lat="48.60087" lon="-2.49015">
        <ele>64.6</ele>
        <time>2015-10-12T15:01:51Z</time>
      </trkpt>
      <trkpt lat="48.60093" lon="-2.49002">
        <ele>64.1</ele>
        <time>2015-10-12T15:01:53Z</time>
      </trkpt>
      <trkpt lat="48.60098" lon="-2.48988">
        <ele>63.7</ele>
        <time>2015-10-12T15:01:55Z</time>
      </trkpt>
      <trkpt lat="48.60103" lon="-2.48973">
        <ele>63.2</ele>
        <time>2015-10-12T15:01:57Z</time>
      </trkpt>
      <trkpt lat="48.60109" lon="-2.48958">
        <ele>62.8</ele>
        <time>2015-10-12T15:01:59Z</time>
      </trkpt>
      <trkpt lat="48.60114" lon="-2.48943">
        <ele>62.5</ele>
        <time>2015-10-12T15:02:01Z</time>
      </trkpt>
      <trkpt lat="48.6012" lon="-2.48927">
        <ele>62.2</ele>
        <time>2015-10-12T15:02:03Z</time>
      </trkpt>
      <trkpt lat="48.60125" lon="-2.4891">
        <ele>61.9</ele>
        <time>2015-10-12T15:02:05Z</time>
      </trkpt>
      <trkpt lat="48.6013" lon="-2.48894">
        <ele>61.7</ele>
        <time>2015-10-12T15:02:07Z</time>
      </trkpt>
      <trkpt lat="48.60134" lon="-2.48877">
        <ele>61.5</ele>
        <time>2015-10-12T15:02:09Z</time>
      </trkpt>
      <trkpt lat="48.60139" lon="-2.48862">
        <ele>61.3</ele>
        <time>2015-10-12T15:02:11Z</time>
      </trkpt>
      <trkpt lat="48.60143" lon="-2.48848">
        <ele>61.1</ele>
        <time>2015-10-12T15:02:13Z</time>
      </trkpt>
      <trkpt lat="48.60149" lon="-2.48834">
        <ele>61</ele>
        <time>2015-10-12T15:02:15Z</time>
      </trkpt>
      <trkpt lat="48.60154" lon="-2.48819">
        <ele>60.9</ele>
        <time>2015-10-12T15:02:17Z</time>
      </trkpt>
      <trkpt lat="48.60159" lon="-2.48803">
        <ele>60.8</ele>
        <time>2015-10-12T15:02:19Z</time>
      </trkpt>
      <trkpt lat="48.60165" lon="-2.48788">
        <ele>60.7</ele>
        <time>2015-10-12T15:02:21Z</time>
      </trkpt>
      <trkpt lat="48.60171" lon="-2.48771">
        <ele>60.6</ele>
        <time>2015-10-12T15:02:23Z</time>
      </trkpt>
      <trkpt lat="48.60178" lon="-2.48756">
        <ele>60.5</ele>
        <time>2015-10-12T15:02:25Z</time>
      </trkpt>
      <trkpt lat="48.60185" lon="-2.4874">
        <ele>60.4</ele>
        <time>2015-10-12T15:02:27Z</time>
      </trkpt>
      <trkpt lat="48.60192" lon="-2.48724">
        <ele>60.4</ele>
        <time>2015-10-12T15:02:29Z</time>
      </trkpt>
      <trkpt lat="48.602" lon="-2.48709">
        <ele>60.3</ele>
        <time>2015-10-12T15:02:31Z</time>
      </trkpt>
      <trkpt lat="48.60207" lon="-2.48693">
        <ele>60.3</ele>
        <time>2015-10-12T15:02:33Z</time>
      </trkpt>
      <trkpt lat="48.60214" lon="-2.48678">
        <ele>60.3</ele>
        <time>2015-10-12T15:02:35Z</time>
      </trkpt>
      <trkpt lat="48.60221" lon="-2.48664">
        <ele>60.2</ele>
        <time>2015-10-12T15:02:37Z</time>
      </trkpt>
      <trkpt lat="48.60228" lon="-2.4865">
        <ele>60.2</ele>
        <time>2015-10-12T15:02:39Z</time>
      </trkpt>
      <trkpt lat="48.60235" lon="-2.48636">
        <ele>60.2</ele>
        <time>2015-10-12T15:02:41Z</time>
      </trkpt>
      <trkpt lat="48.60242" lon="-2.48622">
        <ele>60.1</ele>
        <time>2015-10-12T15:02:43Z</time>
      </trkpt>
      <trkpt lat="48.60248" lon="-2.48609">
        <ele>60.1</ele>
        <time>2015-10-12T15:02:45Z</time>
      </trkpt>
      <trkpt lat="48.60254" lon="-2.48595">
        <ele>60.1</ele>
        <time>2015-10-12T15:02:47Z</time>
      </trkpt>
      <trkpt lat="48.6026" lon="-2.48582">
        <ele>60.1</ele>
        <time>2015-10-12T15:02:49Z</time>
      </trkpt>
      <trkpt lat="48.60266" lon="-2.48569">
        <ele>60.2</ele>
        <time>2015-10-12T15:02:51Z</time>
      </trkpt>
      <trkpt lat="48.60272" lon="-2.48556">
        <ele>60.3</ele>
        <time>2015-10-12T15:02:53Z</time>
      </trkpt>
      <trkpt lat="48.60278" lon="-2.48544">
        <ele>60.4</ele>
        <time>2015-10-12T15:02:55Z</time>
      </trkpt>
      <trkpt lat="48.60283" lon="-2.48531">
        <ele>60.5</ele>
        <time>2015-10-12T15:02:57Z</time>
      </trkpt>
      <trkpt lat="48.60289" lon="-2.48519">
        <ele>60.6</ele>
        <time>2015-10-12T15:02:59Z</time>
      </trkpt>
      <trkpt lat="48.60295" lon="-2.48508">
        <ele>60.7</ele>
        <time>2015-10-12T15:03:01Z</time>
      </trkpt>
      <trkpt lat="48.60301" lon="-2.48496">
        <ele>60.8</ele>
        <time>2015-10-12T15:03:03Z</time>
      </trkpt>
      <trkpt lat="48.60307" lon="-2.48485">
        <ele>60.9</ele>
        <time>2015-10-12T15:03:05Z</time>
      </trkpt>
      <trkpt lat="48.60313" lon="-2.48474">
        <ele>61.1</ele>
        <time>2015-10-12T15:03:07Z</time>
      </trkpt>
      <trkpt lat="48.60319" lon="-2.48463">
        <ele>61.2</ele>
        <time>2015-10-12T15:03:09Z</time>
      </trkpt>
      <trkpt lat="48.60326" lon="-2.48452">
        <ele>61.4</ele>
        <time>2015-10-12T15:03:11Z</time>
      </trkpt>
      <trkpt lat="48.60333" lon="-2.48441">
        <ele>61.5</ele>
        <time>2015-10-12T15:03:13Z</time>
      </trkpt>
      <trkpt lat="48.60339" lon="-2.4843">
        <ele>61.7</ele>
        <time>2015-10-12T15:03:15Z</time>
      </trkpt>
      <trkpt lat="48.60345" lon="-2.48419">
        <ele>61.9</ele>
        <time>2015-10-12T15:03:17Z</time>
      </trkpt>
      <trkpt lat="48.60351" lon="-2.48408">
        <ele>62</ele>
        <time>2015-10-12T15:03:19Z</time>
      </trkpt>
      <trkpt lat="48.60358" lon="-2.48395">
        <ele>62.1</ele>
        <time>2015-10-12T15:03:21Z</time>
      </trkpt>
      <trkpt lat="48.60365" lon="-2.48382">
        <ele>62.2</ele>
        <time>2015-10-12T15:03:23Z</time>
      </trkpt>
      <trkpt lat="48.60373" lon="-2.48369">
        <ele>62.3</ele>
        <time>2015-10-12T15:03:25Z</time>
      </trkpt>
      <trkpt lat="48.6038" lon="-2.48354">
        <ele>62.4</ele>
        <time>2015-10-12T15:03:27Z</time>
      </trkpt>
      <trkpt lat="48.60388" lon="-2.4834">
        <ele>62.5</ele>
        <time>2015-10-12T15:03:29Z</time>
      </trkpt>
      <trkpt lat="48.60396" lon="-2.48325">
        <ele>62.5</ele>
        <time>2015-10-12T15:03:31Z</time>
      </trkpt>
      <trkpt lat="48.60404" lon="-2.48311">
        <ele>62.6</ele>
        <time>2015-10-12T15:03:33Z</time>
      </trkpt>
      <trkpt lat="48.60411" lon="-2.48296">
        <ele>62.6</ele>
        <time>2015-10-12T15:03:35Z</time>
      </trkpt>
      <trkpt lat="48.60419" lon="-2.48281">
        <ele>62.6</ele>
        <time>2015-10-12T15:03:37Z</time>
      </trkpt>
      <trkpt lat="48.60426" lon="-2.48266">
        <ele>62.5</ele>
        <time>2015-10-12T15:03:39Z</time>
      </trkpt>
      <trkpt lat="48.60433" lon="-2.4825">
        <ele>62.5</ele>
        <time>2015-10-12T15:03:41Z</time>
      </trkpt>
      <trkpt lat="48.60441" lon="-2.48235">
        <ele>62.4</ele>
        <time>2015-10-12T15:03:43Z</time>
      </trkpt>
      <trkpt lat="48.60449" lon="-2.48219">
        <ele>62.3</ele>
        <time>2015-10-12T15:03:45Z</time>
      </trkpt>
      <trkpt lat="48.60457" lon="-2.48204">
        <ele>62.1</ele>
        <time>2015-10-12T15:03:47Z</time>
      </trkpt>
      <trkpt lat="48.60466" lon="-2.48188">
        <ele>62</ele>
        <time>2015-10-12T15:03:49Z</time>
      </trkpt>
      <trkpt lat="48.60475" lon="-2.48172">
        <ele>61.7</ele>
        <time>2015-10-12T15:03:51Z</time>
      </trkpt>
      <trkpt lat="48.60485" lon="-2.48157">
        <ele>61.6</ele>
        <time>2015-10-12T15:03:53Z</time>
      </trkpt>
      <trkpt lat="48.60495" lon="-2.48142">
        <ele>61.4</ele>
        <time>2015-10-12T15:03:55Z</time>
      </trkpt>
      <trkpt lat="48.60505" lon="-2.48128">
        <ele>61.1</ele>
        <time>2015-10-12T15:03:57Z</time>
      </trkpt>
      <trkpt lat="48.60515" lon="-2.48114">
        <ele>60.9</ele>
        <time>2015-10-12T15:03:59Z</time>
      </trkpt>
      <trkpt lat="48.60524" lon="-2.481">
        <ele>60.6</ele>
        <time>2015-10-12T15:04:01Z</time>
      </trkpt>
      <trkpt lat="48.60533" lon="-2.48085">
        <ele>60.3</ele>
        <time>2015-10-12T15:04:03Z</time>
      </trkpt>
      <trkpt lat="48.60541" lon="-2.4807">
        <ele>60.1</ele>
        <time>2015-10-12T15:04:05Z</time>
      </trkpt>
      <trkpt lat="48.60548" lon="-2.48056">
        <ele>59.8</ele>
        <time>2015-10-12T15:04:07Z</time>
      </trkpt>
      <trkpt lat="48.60554" lon="-2.48042">
        <ele>59.6</ele>
        <time>2015-10-12T15:04:09Z</time>
      </trkpt>
      <trkpt lat="48.60561" lon="-2.48029">
        <ele>59.5</ele>
        <time>2015-10-12T15:04:11Z</time>
      </trkpt>
      <trkpt lat="48.60569" lon="-2.4802">
        <ele>59.3</ele>
        <time>2015-10-12T15:04:13Z</time>
      </trkpt>
      <trkpt lat="48.60579" lon="-2.48013">
        <ele>59.2</ele>
        <time>2015-10-12T15:04:15Z</time>
      </trkpt>
      <trkpt lat="48.60589" lon="-2.48008">
        <ele>59.2</ele>
        <time>2015-10-12T15:04:17Z</time>
      </trkpt>
      <trkpt lat="48.60599" lon="-2.48003">
        <ele>59.1</ele>
        <time>2015-10-12T15:04:19Z</time>
      </trkpt>
      <trkpt lat="48.6061" lon="-2.47999">
        <ele>59.1</ele>
        <time>2015-10-12T15:04:21Z</time>
      </trkpt>
      <trkpt lat="48.6062" lon="-2.47996">
        <ele>59.1</ele>
        <time>2015-10-12T15:04:23Z</time>
      </trkpt>
      <trkpt lat="48.60629" lon="-2.47994">
        <ele>59.2</ele>
        <time>2015-10-12T15:04:25Z</time>
      </trkpt>
      <trkpt lat="48.60638" lon="-2.47991">
        <ele>59.2</ele>
        <time>2015-10-12T15:04:27Z</time>
      </trkpt>
      <trkpt lat="48.60649" lon="-2.47988">
        <ele>59.2</ele>
        <time>2015-10-12T15:04:30Z</time>
      </trkpt>
      <trkpt lat="48.60662" lon="-2.47985">
        <ele>59.3</ele>
        <time>2015-10-12T15:04:32Z</time>
      </trkpt>
      <trkpt lat="48.60674" lon="-2.47981">
        <ele>59.4</ele>
        <time>2015-10-12T15:04:34Z</time>
      </trkpt>
      <trkpt lat="48.60687" lon="-2.47976">
        <ele>59.5</ele>
        <time>2015-10-12T15:04:36Z</time>
      </trkpt>
      <trkpt lat="48.60699" lon="-2.47972">
        <ele>59.5</ele>
        <time>2015-10-12T15:04:38Z</time>
      </trkpt>
      <trkpt lat="48.6071" lon="-2.47969">
        <ele>59.7</ele>
        <time>2015-10-12T15:04:40Z</time>
      </trkpt>
      <trkpt lat="48.60721" lon="-2.47967">
        <ele>59.8</ele>
        <time>2015-10-12T15:04:42Z</time>
      </trkpt>
      <trkpt lat="48.60732" lon="-2.47967">
        <ele>60</ele>
        <time>2015-10-12T15:04:44Z</time>
      </trkpt>
      <trkpt lat="48.60742" lon="-2.47969">
        <ele>60.1</ele>
        <time>2015-10-12T15:04:46Z</time>
      </trkpt>
      <trkpt lat="48.60752" lon="-2.47971">
        <ele>60.3</ele>
        <time>2015-10-12T15:04:48Z</time>
      </trkpt>
      <trkpt lat="48.60761" lon="-2.47974">
        <ele>60.5</ele>
        <time>2015-10-12T15:04:50Z</time>
      </trkpt>
      <trkpt lat="48.6077" lon="-2.47978">
        <ele>60.7</ele>
        <time>2015-10-12T15:04:52Z</time>
      </trkpt>
      <trkpt lat="48.60779" lon="-2.47984">
        <ele>61</ele>
        <time>2015-10-12T15:04:54Z</time>
      </trkpt>
      <trkpt lat="48.60787" lon="-2.47991">
        <ele>61.3</ele>
        <time>2015-10-12T15:04:56Z</time>
      </trkpt>
      <trkpt lat="48.60795" lon="-2.47999">
        <ele>61.6</ele>
        <time>2015-10-12T15:04:58Z</time>
      </trkpt>
      <trkpt lat="48.60802" lon="-2.48007">
        <ele>61.9</ele>
        <time>2015-10-12T15:05:00Z</time>
      </trkpt>
      <trkpt lat="48.6081" lon="-2.48017">
        <ele>62.4</ele>
        <time>2015-10-12T15:05:03Z</time>
      </trkpt>
      <trkpt lat="48.60802" lon="-2.48006">
        <ele>63.1</ele>
        <time>2015-10-12T15:05:09Z</time>
      </trkpt>
      <trkpt lat="48.60809" lon="-2.48015">
        <ele>63.9</ele>
        <time>2015-10-12T15:05:17Z</time>
      </trkpt>
      <trkpt lat="48.60817" lon="-2.48025">
        <ele>64.1</ele>
        <time>2015-10-12T15:05:20Z</time>
      </trkpt>
      <trkpt lat="48.60827" lon="-2.48036">
        <ele>64.3</ele>
        <time>2015-10-12T15:05:23Z</time>
      </trkpt>
      <trkpt lat="48.60838" lon="-2.48045">
        <ele>64.5</ele>
        <time>2015-10-12T15:05:26Z</time>
      </trkpt>
      <trkpt lat="48.60846" lon="-2.48052">
        <ele>64.6</ele>
        <time>2015-10-12T15:05:28Z</time>
      </trkpt>
      <trkpt lat="48.60857" lon="-2.48062">
        <ele>64.9</ele>
        <time>2015-10-12T15:05:31Z</time>
      </trkpt>
      <trkpt lat="48.60866" lon="-2.48069">
        <ele>65.1</ele>
        <time>2015-10-12T15:05:33Z</time>
      </trkpt>
      <trkpt lat="48.60875" lon="-2.48075">
        <ele>65.2</ele>
        <time>2015-10-12T15:05:35Z</time>
      </trkpt>
      <trkpt lat="48.60885" lon="-2.48083">
        <ele>65.2</ele>
        <time>2015-10-12T15:05:37Z</time>
      </trkpt>
      <trkpt lat="48.60895" lon="-2.48091">
        <ele>65</ele>
        <time>2015-10-12T15:05:39Z</time>
      </trkpt>
      <trkpt lat="48.60907" lon="-2.48098">
        <ele>64.8</ele>
        <time>2015-10-12T15:05:41Z</time>
      </trkpt>
      <trkpt lat="48.6092" lon="-2.48104">
        <ele>64.6</ele>
        <time>2015-10-12T15:05:43Z</time>
      </trkpt>
      <trkpt lat="48.60934" lon="-2.48107">
        <ele>64.3</ele>
        <time>2015-10-12T15:05:45Z</time>
      </trkpt>
      <trkpt lat="48.60944" lon="-2.48104">
        <ele>63.8</ele>
        <time>2015-10-12T15:05:47Z</time>
      </trkpt>
      <trkpt lat="48.60953" lon="-2.48095">
        <ele>63.5</ele>
        <time>2015-10-12T15:05:49Z</time>
      </trkpt>
      <trkpt lat="48.60961" lon="-2.48085">
        <ele>63.1</ele>
        <time>2015-10-12T15:05:51Z</time>
      </trkpt>
      <trkpt lat="48.6097" lon="-2.48074">
        <ele>62.8</ele>
        <time>2015-10-12T15:05:53Z</time>
      </trkpt>
      <trkpt lat="48.60979" lon="-2.48063">
        <ele>62.5</ele>
        <time>2015-10-12T15:05:55Z</time>
      </trkpt>
      <trkpt lat="48.60989" lon="-2.48052">
        <ele>62.2</ele>
        <time>2015-10-12T15:05:57Z</time>
      </trkpt>
      <trkpt lat="48.60999" lon="-2.48041">
        <ele>61.8</ele>
        <time>2015-10-12T15:05:59Z</time>
      </trkpt>
      <trkpt lat="48.61009" lon="-2.4803">
        <ele>61.4</ele>
        <time>2015-10-12T15:06:01Z</time>
      </trkpt>
      <trkpt lat="48.61019" lon="-2.48019">
        <ele>61</ele>
        <time>2015-10-12T15:06:03Z</time>
      </trkpt>
      <trkpt lat="48.61028" lon="-2.48007">
        <ele>60.7</ele>
        <time>2015-10-12T15:06:05Z</time>
      </trkpt>
      <trkpt lat="48.61037" lon="-2.47997">
        <ele>60.2</ele>
        <time>2015-10-12T15:06:07Z</time>
      </trkpt>
      <trkpt lat="48.61047" lon="-2.47987">
        <ele>59.9</ele>
        <time>2015-10-12T15:06:09Z</time>
      </trkpt>
      <trkpt lat="48.61057" lon="-2.47976">
        <ele>59.5</ele>
        <time>2015-10-12T15:06:11Z</time>
      </trkpt>
      <trkpt lat="48.61067" lon="-2.47966">
        <ele>59.1</ele>
        <time>2015-10-12T15:06:13Z</time>
      </trkpt>
      <trkpt lat="48.61076" lon="-2.47955">
        <ele>58.6</ele>
        <time>2015-10-12T15:06:15Z</time>
      </trkpt>
      <trkpt lat="48.61086" lon="-2.47944">
        <ele>58.2</ele>
        <time>2015-10-12T15:06:17Z</time>
      </trkpt>
      <trkpt lat="48.61096" lon="-2.47933">
        <ele>57.7</ele>
        <time>2015-10-12T15:06:19Z</time>
      </trkpt>
      <trkpt lat="48.61106" lon="-2.47923">
        <ele>57.3</ele>
        <time>2015-10-12T15:06:21Z</time>
      </trkpt>
      <trkpt lat="48.61114" lon="-2.47913">
        <ele>56.8</ele>
        <time>2015-10-12T15:06:23Z</time>
      </trkpt>
      <trkpt lat="48.61124" lon="-2.47902">
        <ele>56.3</ele>
        <time>2015-10-12T15:06:25Z</time>
      </trkpt>
      <trkpt lat="48.61133" lon="-2.47892">
        <ele>55.8</ele>
        <time>2015-10-12T15:06:27Z</time>
      </trkpt>
      <trkpt lat="48.61142" lon="-2.47881">
        <ele>55.4</ele>
        <time>2015-10-12T15:06:29Z</time>
      </trkpt>
      <trkpt lat="48.61151" lon="-2.4787">
        <ele>54.9</ele>
        <time>2015-10-12T15:06:31Z</time>
      </trkpt>
      <trkpt lat="48.6116" lon="-2.47859">
        <ele>54.4</ele>
        <time>2015-10-12T15:06:33Z</time>
      </trkpt>
      <trkpt lat="48.61169" lon="-2.47847">
        <ele>54</ele>
        <time>2015-10-12T15:06:35Z</time>
      </trkpt>
      <trkpt lat="48.61178" lon="-2.47834">
        <ele>53.6</ele>
        <time>2015-10-12T15:06:37Z</time>
      </trkpt>
      <trkpt lat="48.61186" lon="-2.47822">
        <ele>53.2</ele>
        <time>2015-10-12T15:06:39Z</time>
      </trkpt>
      <trkpt lat="48.61195" lon="-2.4781">
        <ele>52.8</ele>
        <time>2015-10-12T15:06:41Z</time>
      </trkpt>
      <trkpt lat="48.61204" lon="-2.47797">
        <ele>52.4</ele>
        <time>2015-10-12T15:06:43Z</time>
      </trkpt>
      <trkpt lat="48.61212" lon="-2.47785">
        <ele>52</ele>
        <time>2015-10-12T15:06:45Z</time>
      </trkpt>
      <trkpt lat="48.61221" lon="-2.47772">
        <ele>51.6</ele>
        <time>2015-10-12T15:06:47Z</time>
      </trkpt>
      <trkpt lat="48.6123" lon="-2.47759">
        <ele>51.3</ele>
        <time>2015-10-12T15:06:49Z</time>
      </trkpt>
      <trkpt lat="48.61239" lon="-2.47746">
        <ele>50.9</ele>
        <time>2015-10-12T15:06:51Z</time>
      </trkpt>
      <trkpt lat="48.61248" lon="-2.47734">
        <ele>50.4</ele>
        <time>2015-10-12T15:06:53Z</time>
      </trkpt>
      <trkpt lat="48.61258" lon="-2.47723">
        <ele>50</ele>
        <time>2015-10-12T15:06:55Z</time>
      </trkpt>
      <trkpt lat="48.61267" lon="-2.47712">
        <ele>49.6</ele>
        <time>2015-10-12T15:06:57Z</time>
      </trkpt>
      <trkpt lat="48.61277" lon="-2.47702">
        <ele>49.2</ele>
        <time>2015-10-12T15:06:59Z</time>
      </trkpt>
      <trkpt lat="48.61287" lon="-2.47692">
        <ele>48.7</ele>
        <time>2015-10-12T15:07:01Z</time>
      </trkpt>
      <trkpt lat="48.61297" lon="-2.47682">
        <ele>48.3</ele>
        <time>2015-10-12T15:07:03Z</time>
      </trkpt>
      <trkpt lat="48.61307" lon="-2.47672">
        <ele>47.9</ele>
        <time>2015-10-12T15:07:05Z</time>
      </trkpt>
      <trkpt lat="48.61318" lon="-2.47662">
        <ele>47.4</ele>
        <time>2015-10-12T15:07:07Z</time>
      </trkpt>
      <trkpt lat="48.61328" lon="-2.47652">
        <ele>47</ele>
        <time>2015-10-12T15:07:09Z</time>
      </trkpt>
      <trkpt lat="48.61337" lon="-2.47641">
        <ele>46.7</ele>
        <time>2015-10-12T15:07:11Z</time>
      </trkpt>
      <trkpt lat="48.61346" lon="-2.4763">
        <ele>46.3</ele>
        <time>2015-10-12T15:07:13Z</time>
      </trkpt>
      <trkpt lat="48.61355" lon="-2.47618">
        <ele>46</ele>
        <time>2015-10-12T15:07:15Z</time>
      </trkpt>
      <trkpt lat="48.61362" lon="-2.47606">
        <ele>45.7</ele>
        <time>2015-10-12T15:07:17Z</time>
      </trkpt>
      <trkpt lat="48.61369" lon="-2.47593">
        <ele>45.4</ele>
        <time>2015-10-12T15:07:19Z</time>
      </trkpt>
      <trkpt lat="48.61376" lon="-2.47581">
        <ele>45.1</ele>
        <time>2015-10-12T15:07:21Z</time>
      </trkpt>
      <trkpt lat="48.61382" lon="-2.47568">
        <ele>44.8</ele>
        <time>2015-10-12T15:07:23Z</time>
      </trkpt>
      <trkpt lat="48.61388" lon="-2.47554">
        <ele>44.6</ele>
        <time>2015-10-12T15:07:25Z</time>
      </trkpt>
      <trkpt lat="48.61394" lon="-2.47541">
        <ele>44.4</ele>
        <time>2015-10-12T15:07:27Z</time>
      </trkpt>
      <trkpt lat="48.614" lon="-2.47528">
        <ele>44.1</ele>
        <time>2015-10-12T15:07:29Z</time>
      </trkpt>
      <trkpt lat="48.61406" lon="-2.47515">
        <ele>43.9</ele>
        <time>2015-10-12T15:07:31Z</time>
      </trkpt>
      <trkpt lat="48.61412" lon="-2.47503">
        <ele>43.7</ele>
        <time>2015-10-12T15:07:33Z</time>
      </trkpt>
      <trkpt lat="48.61418" lon="-2.47489">
        <ele>43.4</ele>
        <time>2015-10-12T15:07:35Z</time>
      </trkpt>
      <trkpt lat="48.61424" lon="-2.47475">
        <ele>43.1</ele>
        <time>2015-10-12T15:07:37Z</time>
      </trkpt>
      <trkpt lat="48.61431" lon="-2.4746">
        <ele>42.8</ele>
        <time>2015-10-12T15:07:39Z</time>
      </trkpt>
      <trkpt lat="48.61438" lon="-2.47445">
        <ele>42.4</ele>
        <time>2015-10-12T15:07:41Z</time>
      </trkpt>
      <trkpt lat="48.61444" lon="-2.4743">
        <ele>42</ele>
        <time>2015-10-12T15:07:43Z</time>
      </trkpt>
      <trkpt lat="48.61451" lon="-2.47416">
        <ele>41.7</ele>
        <time>2015-10-12T15:07:45Z</time>
      </trkpt>
      <trkpt lat="48.61457" lon="-2.47402">
        <ele>41.3</ele>
        <time>2015-10-12T15:07:47Z</time>
      </trkpt>
      <trkpt lat="48.61463" lon="-2.47389">
        <ele>40.9</ele>
        <time>2015-10-12T15:07:49Z</time>
      </trkpt>
      <trkpt lat="48.61469" lon="-2.47375">
        <ele>40.5</ele>
        <time>2015-10-12T15:07:51Z</time>
      </trkpt>
      <trkpt lat="48.61476" lon="-2.47362">
        <ele>40.1</ele>
        <time>2015-10-12T15:07:53Z</time>
      </trkpt>
      <trkpt lat="48.61482" lon="-2.47349">
        <ele>39.8</ele>
        <time>2015-10-12T15:07:55Z</time>
      </trkpt>
      <trkpt lat="48.6149" lon="-2.47337">
        <ele>39.5</ele>
        <time>2015-10-12T15:07:57Z</time>
      </trkpt>
      <trkpt lat="48.61498" lon="-2.47327">
        <ele>39.1</ele>
        <time>2015-10-12T15:07:59Z</time>
      </trkpt>
      <trkpt lat="48.61504" lon="-2.47317">
        <ele>38.8</ele>
        <time>2015-10-12T15:08:01Z</time>
      </trkpt>
      <trkpt lat="48.61502" lon="-2.47301">
        <ele>37.9</ele>
        <time>2015-10-12T15:08:07Z</time>
      </trkpt>
      <trkpt lat="48.61495" lon="-2.47289">
        <ele>37.5</ele>
        <time>2015-10-12T15:08:10Z</time>
      </trkpt>
      <trkpt lat="48.61487" lon="-2.47274">
        <ele>37.2</ele>
        <time>2015-10-12T15:08:13Z</time>
      </trkpt>
      <trkpt lat="48.61482" lon="-2.47263">
        <ele>37.1</ele>
        <time>2015-10-12T15:08:15Z</time>
      </trkpt>
      <trkpt lat="48.61476" lon="-2.47252">
        <ele>37</ele>
        <time>2015-10-12T15:08:17Z</time>
      </trkpt>
      <trkpt lat="48.61471" lon="-2.4724">
        <ele>37</ele>
        <time>2015-10-12T15:08:19Z</time>
      </trkpt>
      <trkpt lat="48.61466" lon="-2.47228">
        <ele>37</ele>
        <time>2015-10-12T15:08:21Z</time>
      </trkpt>
      <trkpt lat="48.61462" lon="-2.47215">
        <ele>37.1</ele>
        <time>2015-10-12T15:08:23Z</time>
      </trkpt>
      <trkpt lat="48.61458" lon="-2.47202">
        <ele>37.2</ele>
        <time>2015-10-12T15:08:25Z</time>
      </trkpt>
      <trkpt lat="48.61455" lon="-2.47188">
        <ele>37.3</ele>
        <time>2015-10-12T15:08:27Z</time>
      </trkpt>
      <trkpt lat="48.61452" lon="-2.47174">
        <ele>37.5</ele>
        <time>2015-10-12T15:08:29Z</time>
      </trkpt>
      <trkpt lat="48.6145" lon="-2.4716">
        <ele>37.7</ele>
        <time>2015-10-12T15:08:31Z</time>
      </trkpt>
      <trkpt lat="48.61448" lon="-2.47145">
        <ele>38</ele>
        <time>2015-10-12T15:08:33Z</time>
      </trkpt>
      <trkpt lat="48.61447" lon="-2.47131">
        <ele>38.2</ele>
        <time>2015-10-12T15:08:35Z</time>
      </trkpt>
      <trkpt lat="48.61447" lon="-2.47117">
        <ele>38.5</ele>
        <time>2015-10-12T15:08:37Z</time>
      </trkpt>
      <trkpt lat="48.61449" lon="-2.47098">
        <ele>39</ele>
        <time>2015-10-12T15:08:40Z</time>
      </trkpt>
      <trkpt lat="48.61458" lon="-2.47089">
        <ele>39.4</ele>
        <time>2015-10-12T15:08:43Z</time>
      </trkpt>
      <trkpt lat="48.61468" lon="-2.4709">
        <ele>39.7</ele>
        <time>2015-10-12T15:08:45Z</time>
      </trkpt>
      <trkpt lat="48.61478" lon="-2.47095">
        <ele>39.9</ele>
        <time>2015-10-12T15:08:47Z</time>
      </trkpt>
      <trkpt lat="48.61488" lon="-2.47101">
        <ele>40.1</ele>
        <time>2015-10-12T15:08:49Z</time>
      </trkpt>
      <trkpt lat="48.61498" lon="-2.47105">
        <ele>40.2</ele>
        <time>2015-10-12T15:08:51Z</time>
      </trkpt>
      <trkpt lat="48.61508" lon="-2.47112">
        <ele>40.4</ele>
        <time>2015-10-12T15:08:53Z</time>
      </trkpt>
      <trkpt lat="48.61518" lon="-2.47121">
        <ele>40.5</ele>
        <time>2015-10-12T15:08:55Z</time>
      </trkpt>
      <trkpt lat="48.61526" lon="-2.47129">
        <ele>40.6</ele>
        <time>2015-10-12T15:08:57Z</time>
      </trkpt>
      <trkpt lat="48.61534" lon="-2.47139">
        <ele>40.6</ele>
        <time>2015-10-12T15:08:59Z</time>
      </trkpt>
      <trkpt lat="48.61542" lon="-2.47148">
        <ele>40.7</ele>
        <time>2015-10-12T15:09:01Z</time>
      </trkpt>
      <trkpt lat="48.61552" lon="-2.47154">
        <ele>40.8</ele>
        <time>2015-10-12T15:09:03Z</time>
      </trkpt>
      <trkpt lat="48.61562" lon="-2.47154">
        <ele>41.1</ele>
        <time>2015-10-12T15:09:05Z</time>
      </trkpt>
      <trkpt lat="48.61573" lon="-2.47153">
        <ele>41.6</ele>
        <time>2015-10-12T15:09:08Z</time>
      </trkpt>
      <trkpt lat="48.61583" lon="-2.47149">
        <ele>42.2</ele>
        <time>2015-10-12T15:09:11Z</time>
      </trkpt>
      <trkpt lat="48.61593" lon="-2.47145">
        <ele>42.7</ele>
        <time>2015-10-12T15:09:14Z</time>
      </trkpt>
      <trkpt lat="48.61602" lon="-2.47142">
        <ele>43.2</ele>
        <time>2015-10-12T15:09:17Z</time>
      </trkpt>
      <trkpt lat="48.61614" lon="-2.47138">
        <ele>43.6</ele>
        <time>2015-10-12T15:09:20Z</time>
      </trkpt>
      <trkpt lat="48.61627" lon="-2.47132">
        <ele>44</ele>
        <time>2015-10-12T15:09:23Z</time>
      </trkpt>
      <trkpt lat="48.61636" lon="-2.47126">
        <ele>44.2</ele>
        <time>2015-10-12T15:09:25Z</time>
      </trkpt>
      <trkpt lat="48.61646" lon="-2.47117">
        <ele>44.3</ele>
        <time>2015-10-12T15:09:27Z</time>
      </trkpt>
      <trkpt lat="48.61654" lon="-2.47105">
        <ele>44.2</ele>
        <time>2015-10-12T15:09:29Z</time>
      </trkpt>
      <trkpt lat="48.61661" lon="-2.47092">
        <ele>44.2</ele>
        <time>2015-10-12T15:09:31Z</time>
      </trkpt>
      <trkpt lat="48.61669" lon="-2.47078">
        <ele>44.1</ele>
        <time>2015-10-12T15:09:33Z</time>
      </trkpt>
      <trkpt lat="48.61677" lon="-2.47063">
        <ele>44</ele>
        <time>2015-10-12T15:09:35Z</time>
      </trkpt>
      <trkpt lat="48.61685" lon="-2.47047">
        <ele>43.9</ele>
        <time>2015-10-12T15:09:37Z</time>
      </trkpt>
      <trkpt lat="48.61694" lon="-2.47031">
        <ele>43.7</ele>
        <time>2015-10-12T15:09:39Z</time>
      </trkpt>
      <trkpt lat="48.61702" lon="-2.47016">
        <ele>43.5</ele>
        <time>2015-10-12T15:09:41Z</time>
      </trkpt>
      <trkpt lat="48.6171" lon="-2.47001">
        <ele>43.3</ele>
        <time>2015-10-12T15:09:43Z</time>
      </trkpt>
      <trkpt lat="48.61718" lon="-2.46987">
        <ele>43</ele>
        <time>2015-10-12T15:09:45Z</time>
      </trkpt>
      <trkpt lat="48.61726" lon="-2.46973">
        <ele>42.7</ele>
        <time>2015-10-12T15:09:47Z</time>
      </trkpt>
      <trkpt lat="48.61736" lon="-2.46961">
        <ele>42.4</ele>
        <time>2015-10-12T15:09:49Z</time>
      </trkpt>
      <trkpt lat="48.61745" lon="-2.46949">
        <ele>42.1</ele>
        <time>2015-10-12T15:09:51Z</time>
      </trkpt>
      <trkpt lat="48.61754" lon="-2.46939">
        <ele>41.9</ele>
        <time>2015-10-12T15:09:53Z</time>
      </trkpt>
      <trkpt lat="48.61763" lon="-2.46929">
        <ele>41.6</ele>
        <time>2015-10-12T15:09:55Z</time>
      </trkpt>
      <trkpt lat="48.61771" lon="-2.46919">
        <ele>41.4</ele>
        <time>2015-10-12T15:09:57Z</time>
      </trkpt>
      <trkpt lat="48.61779" lon="-2.46908">
        <ele>41.3</ele>
        <time>2015-10-12T15:09:59Z</time>
      </trkpt>
      <trkpt lat="48.61787" lon="-2.46897">
        <ele>41.1</ele>
        <time>2015-10-12T15:10:01Z</time>
      </trkpt>
      <trkpt lat="48.61795" lon="-2.46886">
        <ele>40.9</ele>
        <time>2015-10-12T15:10:03Z</time>
      </trkpt>
      <trkpt lat="48.61802" lon="-2.46875">
        <ele>40.7</ele>
        <time>2015-10-12T15:10:05Z</time>
      </trkpt>
      <trkpt lat="48.6181" lon="-2.46864">
        <ele>40.5</ele>
        <time>2015-10-12T15:10:07Z</time>
      </trkpt>
      <trkpt lat="48.61819" lon="-2.46854">
        <ele>40.3</ele>
        <time>2015-10-12T15:10:09Z</time>
      </trkpt>
      <trkpt lat="48.61827" lon="-2.46845">
        <ele>40.1</ele>
        <time>2015-10-12T15:10:11Z</time>
      </trkpt>
      <trkpt lat="48.61836" lon="-2.46836">
        <ele>39.9</ele>
        <time>2015-10-12T15:10:13Z</time>
      </trkpt>
      <trkpt lat="48.61845" lon="-2.46826">
        <ele>39.6</ele>
        <time>2015-10-12T15:10:15Z</time>
      </trkpt>
      <trkpt lat="48.61855" lon="-2.46815">
        <ele>39.3</ele>
        <time>2015-10-12T15:10:17Z</time>
      </trkpt>
      <trkpt lat="48.61864" lon="-2.46802">
        <ele>39</ele>
        <time>2015-10-12T15:10:19Z</time>
      </trkpt>
      <trkpt lat="48.61873" lon="-2.46789">
        <ele>38.7</ele>
        <time>2015-10-12T15:10:21Z</time>
      </trkpt>
      <trkpt lat="48.61881" lon="-2.46776">
        <ele>38.4</ele>
        <time>2015-10-12T15:10:23Z</time>
      </trkpt>
      <trkpt lat="48.61889" lon="-2.46762">
        <ele>38.1</ele>
        <time>2015-10-12T15:10:25Z</time>
      </trkpt>
      <trkpt lat="48.61897" lon="-2.46749">
        <ele>37.8</ele>
        <time>2015-10-12T15:10:27Z</time>
      </trkpt>
      <trkpt lat="48.61904" lon="-2.46735">
        <ele>37.5</ele>
        <time>2015-10-12T15:10:29Z</time>
      </trkpt>
      <trkpt lat="48.6191" lon="-2.46721">
        <ele>37.1</ele>
        <time>2015-10-12T15:10:31Z</time>
      </trkpt>
      <trkpt lat="48.61915" lon="-2.46706">
        <ele>36.8</ele>
        <time>2015-10-12T15:10:33Z</time>
      </trkpt>
      <trkpt lat="48.6192" lon="-2.46693">
        <ele>36.5</ele>
        <time>2015-10-12T15:10:35Z</time>
      </trkpt>
      <trkpt lat="48.61925" lon="-2.46679">
        <ele>36.3</ele>
        <time>2015-10-12T15:10:37Z</time>
      </trkpt>
      <trkpt lat="48.61929" lon="-2.46666">
        <ele>36.1</ele>
        <time>2015-10-12T15:10:39Z</time>
      </trkpt>
      <trkpt lat="48.61934" lon="-2.46652">
        <ele>35.7</ele>
        <time>2015-10-12T15:10:41Z</time>
      </trkpt>
      <trkpt lat="48.6194" lon="-2.46636">
        <ele>35.1</ele>
        <time>2015-10-12T15:10:43Z</time>
      </trkpt>
      <trkpt lat="48.61945" lon="-2.46622">
        <ele>34.6</ele>
        <time>2015-10-12T15:10:45Z</time>
      </trkpt>
      <trkpt lat="48.61949" lon="-2.46608">
        <ele>33.7</ele>
        <time>2015-10-12T15:10:48Z</time>
      </trkpt>
      <trkpt lat="48.6196" lon="-2.46602">
        <ele>32.4</ele>
        <time>2015-10-12T15:10:53Z</time>
      </trkpt>
      <trkpt lat="48.61971" lon="-2.46599">
        <ele>31.6</ele>
        <time>2015-10-12T15:10:56Z</time>
      </trkpt>
      <trkpt lat="48.61981" lon="-2.46597">
        <ele>31.1</ele>
        <time>2015-10-12T15:10:58Z</time>
      </trkpt>
      <trkpt lat="48.61991" lon="-2.46596">
        <ele>30.5</ele>
        <time>2015-10-12T15:11:00Z</time>
      </trkpt>
      <trkpt lat="48.62003" lon="-2.46593">
        <ele>30</ele>
        <time>2015-10-12T15:11:02Z</time>
      </trkpt>
      <trkpt lat="48.62015" lon="-2.46589">
        <ele>29.4</ele>
        <time>2015-10-12T15:11:04Z</time>
      </trkpt>
      <trkpt lat="48.62027" lon="-2.46585">
        <ele>28.8</ele>
        <time>2015-10-12T15:11:06Z</time>
      </trkpt>
      <trkpt lat="48.62039" lon="-2.4658">
        <ele>28.3</ele>
        <time>2015-10-12T15:11:08Z</time>
      </trkpt>
      <trkpt lat="48.62052" lon="-2.46575">
        <ele>27.6</ele>
        <time>2015-10-12T15:11:10Z</time>
      </trkpt>
      <trkpt lat="48.62066" lon="-2.46572">
        <ele>26.9</ele>
        <time>2015-10-12T15:11:12Z</time>
      </trkpt>
      <trkpt lat="48.62079" lon="-2.4657">
        <ele>26.1</ele>
        <time>2015-10-12T15:11:14Z</time>
      </trkpt>
      <trkpt lat="48.62093" lon="-2.4657">
        <ele>25.1</ele>
        <time>2015-10-12T15:11:16Z</time>
      </trkpt>
      <trkpt lat="48.6211" lon="-2.46569">
        <ele>24.1</ele>
        <time>2015-10-12T15:11:18Z</time>
      </trkpt>
      <trkpt lat="48.6212" lon="-2.46568">
        <ele>23.7</ele>
        <time>2015-10-12T15:11:19Z</time>
      </trkpt>
      <trkpt lat="48.62129" lon="-2.46566">
        <ele>23.2</ele>
        <time>2015-10-12T15:11:20Z</time>
      </trkpt>
      <trkpt lat="48.62138" lon="-2.46562">
        <ele>22.8</ele>
        <time>2015-10-12T15:11:21Z</time>
      </trkpt>
      <trkpt lat="48.62147" lon="-2.46558">
        <ele>22.4</ele>
        <time>2015-10-12T15:11:22Z</time>
      </trkpt>
      <trkpt lat="48.62162" lon="-2.46552">
        <ele>21.6</ele>
        <time>2015-10-12T15:11:24Z</time>
      </trkpt>
      <trkpt lat="48.62176" lon="-2.46551">
        <ele>20.9</ele>
        <time>2015-10-12T15:11:26Z</time>
      </trkpt>
      <trkpt lat="48.62189" lon="-2.46553">
        <ele>20.3</ele>
        <time>2015-10-12T15:11:28Z</time>
      </trkpt>
      <trkpt lat="48.622" lon="-2.46559">
        <ele>19.8</ele>
        <time>2015-10-12T15:11:30Z</time>
      </trkpt>
      <trkpt lat="48.6221" lon="-2.46566">
        <ele>19.6</ele>
        <time>2015-10-12T15:11:32Z</time>
      </trkpt>
      <trkpt lat="48.62221" lon="-2.46575">
        <ele>19.5</ele>
        <time>2015-10-12T15:11:35Z</time>
      </trkpt>
      <trkpt lat="48.62226" lon="-2.46588">
        <ele>19.7</ele>
        <time>2015-10-12T15:11:40Z</time>
      </trkpt>
      <trkpt lat="48.62233" lon="-2.46607">
        <ele>19.8</ele>
        <time>2015-10-12T15:11:43Z</time>
      </trkpt>
      <trkpt lat="48.62239" lon="-2.46625">
        <ele>19.6</ele>
        <time>2015-10-12T15:11:45Z</time>
      </trkpt>
      <trkpt lat="48.62245" lon="-2.46644">
        <ele>19.3</ele>
        <time>2015-10-12T15:11:47Z</time>
      </trkpt>
      <trkpt lat="48.6225" lon="-2.46663">
        <ele>19</ele>
        <time>2015-10-12T15:11:49Z</time>
      </trkpt>
      <trkpt lat="48.62254" lon="-2.4668">
        <ele>18.8</ele>
        <time>2015-10-12T15:11:51Z</time>
      </trkpt>
      <trkpt lat="48.62255" lon="-2.46695">
        <ele>18.6</ele>
        <time>2015-10-12T15:11:53Z</time>
      </trkpt>
      <trkpt lat="48.62256" lon="-2.4671">
        <ele>18.4</ele>
        <time>2015-10-12T15:11:55Z</time>
      </trkpt>
      <trkpt lat="48.62257" lon="-2.46728">
        <ele>18.2</ele>
        <time>2015-10-12T15:11:59Z</time>
      </trkpt>
      <trkpt lat="48.62255" lon="-2.46743">
        <ele>18.2</ele>
        <time>2015-10-12T15:12:02Z</time>
      </trkpt>
      <trkpt lat="48.6225" lon="-2.46761">
        <ele>18.4</ele>
        <time>2015-10-12T15:12:05Z</time>
      </trkpt>
      <trkpt lat="48.62244" lon="-2.46774">
        <ele>18.7</ele>
        <time>2015-10-12T15:12:08Z</time>
      </trkpt>
      <trkpt lat="48.62237" lon="-2.46784">
        <ele>19.1</ele>
        <time>2015-10-12T15:12:12Z</time>
      </trkpt>
      <trkpt lat="48.6223" lon="-2.46796">
        <ele>19.5</ele>
        <time>2015-10-12T15:12:16Z</time>
      </trkpt>
      <trkpt lat="48.62222" lon="-2.46809">
        <ele>20.1</ele>
        <time>2015-10-12T15:12:20Z</time>
      </trkpt>
      <trkpt lat="48.62213" lon="-2.46818">
        <ele>21</ele>
        <time>2015-10-12T15:12:25Z</time>
      </trkpt>
      <trkpt lat="48.62205" lon="-2.46826">
        <ele>21.5</ele>
        <time>2015-10-12T15:12:28Z</time>
      </trkpt>
      <trkpt lat="48.62196" lon="-2.46836">
        <ele>22</ele>
        <time>2015-10-12T15:12:31Z</time>
      </trkpt>
      <trkpt lat="48.62188" lon="-2.46847">
        <ele>22.4</ele>
        <time>2015-10-12T15:12:34Z</time>
      </trkpt>
      <trkpt lat="48.62181" lon="-2.46859">
        <ele>23.3</ele>
        <time>2015-10-12T15:12:38Z</time>
      </trkpt>
      <trkpt lat="48.62175" lon="-2.46872">
        <ele>24.7</ele>
        <time>2015-10-12T15:12:43Z</time>
      </trkpt>
      <trkpt lat="48.62167" lon="-2.4688">
        <ele>25.9</ele>
        <time>2015-10-12T15:12:47Z</time>
      </trkpt>
      <trkpt lat="48.62175" lon="-2.46888">
        <ele>27.9</ele>
        <time>2015-10-12T15:12:54Z</time>
      </trkpt>
      <trkpt lat="48.62184" lon="-2.4688">
        <ele>28.9</ele>
        <time>2015-10-12T15:12:58Z</time>
      </trkpt>
      <trkpt lat="48.62193" lon="-2.46872">
        <ele>29.8</ele>
        <time>2015-10-12T15:13:02Z</time>
      </trkpt>
      <trkpt lat="48.62203" lon="-2.46862">
        <ele>30.6</ele>
        <time>2015-10-12T15:13:06Z</time>
      </trkpt>
      <trkpt lat="48.62212" lon="-2.46854">
        <ele>31.2</ele>
        <time>2015-10-12T15:13:09Z</time>
      </trkpt>
      <trkpt lat="48.6222" lon="-2.46847">
        <ele>31.7</ele>
        <time>2015-10-12T15:13:12Z</time>
      </trkpt>
      <trkpt lat="48.62228" lon="-2.4684">
        <ele>32.2</ele>
        <time>2015-10-12T15:13:15Z</time>
      </trkpt>
      <trkpt lat="48.62236" lon="-2.4683">
        <ele>32.9</ele>
        <time>2015-10-12T15:13:19Z</time>
      </trkpt>
      <trkpt lat="48.62244" lon="-2.4682">
        <ele>33.7</ele>
        <time>2015-10-12T15:13:23Z</time>
      </trkpt>
      <trkpt lat="48.62251" lon="-2.46809">
        <ele>34.1</ele>
        <time>2015-10-12T15:13:26Z</time>
      </trkpt>
      <trkpt lat="48.6226" lon="-2.46799">
        <ele>34.5</ele>
        <time>2015-10-12T15:13:29Z</time>
      </trkpt>
      <trkpt lat="48.62267" lon="-2.4679">
        <ele>34.8</ele>
        <time>2015-10-12T15:13:31Z</time>
      </trkpt>
      <trkpt lat="48.62275" lon="-2.46781">
        <ele>35</ele>
        <time>2015-10-12T15:13:33Z</time>
      </trkpt>
      <trkpt lat="48.62284" lon="-2.46771">
        <ele>35.4</ele>
        <time>2015-10-12T15:13:36Z</time>
      </trkpt>
      <trkpt lat="48.62291" lon="-2.46761">
        <ele>35.7</ele>
        <time>2015-10-12T15:13:38Z</time>
      </trkpt>
      <trkpt lat="48.62299" lon="-2.46748">
        <ele>36.1</ele>
        <time>2015-10-12T15:13:41Z</time>
      </trkpt>
      <trkpt lat="48.62305" lon="-2.46737">
        <ele>36.6</ele>
        <time>2015-10-12T15:13:44Z</time>
      </trkpt>
      <trkpt lat="48.62314" lon="-2.46722">
        <ele>36.9</ele>
        <time>2015-10-12T15:13:47Z</time>
      </trkpt>
      <trkpt lat="48.62322" lon="-2.46709">
        <ele>37.4</ele>
        <time>2015-10-12T15:13:50Z</time>
      </trkpt>
      <trkpt lat="48.62328" lon="-2.46697">
        <ele>37.8</ele>
        <time>2015-10-12T15:13:53Z</time>
      </trkpt>
      <trkpt lat="48.62334" lon="-2.46686">
        <ele>38.2</ele>
        <time>2015-10-12T15:13:56Z</time>
      </trkpt>
      <trkpt lat="48.62342" lon="-2.46672">
        <ele>38.6</ele>
        <time>2015-10-12T15:13:59Z</time>
      </trkpt>
      <trkpt lat="48.62351" lon="-2.46658">
        <ele>39</ele>
        <time>2015-10-12T15:14:02Z</time>
      </trkpt>
      <trkpt lat="48.62358" lon="-2.46643">
        <ele>39.4</ele>
        <time>2015-10-12T15:14:05Z</time>
      </trkpt>
      <trkpt lat="48.62366" lon="-2.46631">
        <ele>39.8</ele>
        <time>2015-10-12T15:14:08Z</time>
      </trkpt>
      <trkpt lat="48.62373" lon="-2.46618">
        <ele>40.2</ele>
        <time>2015-10-12T15:14:11Z</time>
      </trkpt>
      <trkpt lat="48.6238" lon="-2.46607">
        <ele>40.6</ele>
        <time>2015-10-12T15:14:14Z</time>
      </trkpt>
      <trkpt lat="48.62388" lon="-2.46597">
        <ele>41</ele>
        <time>2015-10-12T15:14:17Z</time>
      </trkpt>
      <trkpt lat="48.62396" lon="-2.46587">
        <ele>41.4</ele>
        <time>2015-10-12T15:14:20Z</time>
      </trkpt>
      <trkpt lat="48.62404" lon="-2.46578">
        <ele>41.8</ele>
        <time>2015-10-12T15:14:23Z</time>
      </trkpt>
      <trkpt lat="48.6241" lon="-2.46567">
        <ele>42.2</ele>
        <time>2015-10-12T15:14:26Z</time>
      </trkpt>
      <trkpt lat="48.62418" lon="-2.46559">
        <ele>42.5</ele>
        <time>2015-10-12T15:14:29Z</time>
      </trkpt>
      <trkpt lat="48.62427" lon="-2.46556">
        <ele>42.9</ele>
        <time>2015-10-12T15:14:33Z</time>
      </trkpt>
      <trkpt lat="48.62437" lon="-2.46559">
        <ele>43.3</ele>
        <time>2015-10-12T15:14:36Z</time>
      </trkpt>
      <trkpt lat="48.62449" lon="-2.46559">
        <ele>43.6</ele>
        <time>2015-10-12T15:14:39Z</time>
      </trkpt>
      <trkpt lat="48.6246" lon="-2.4656">
        <ele>44</ele>
        <time>2015-10-12T15:14:42Z</time>
      </trkpt>
      <trkpt lat="48.62468" lon="-2.46567">
        <ele>44.3</ele>
        <time>2015-10-12T15:14:45Z</time>
      </trkpt>
      <trkpt lat="48.62462" lon="-2.46582">
        <ele>46.8</ele>
        <time>2015-10-12T15:15:29Z</time>
      </trkpt>
      <trkpt lat="48.62456" lon="-2.46594">
        <ele>46.8</ele>
        <time>2015-10-12T15:15:32Z</time>
      </trkpt>
      <trkpt lat="48.6245" lon="-2.46606">
        <ele>46.9</ele>
        <time>2015-10-12T15:15:36Z</time>
      </trkpt>
      <trkpt lat="48.62446" lon="-2.46619">
        <ele>47.3</ele>
        <time>2015-10-12T15:15:56Z</time>
      </trkpt>
      <trkpt lat="48.62437" lon="-2.46632">
        <ele>47.4</ele>
        <time>2015-10-12T15:16:00Z</time>
      </trkpt>
      <trkpt lat="48.62429" lon="-2.46642">
        <ele>47.4</ele>
        <time>2015-10-12T15:16:03Z</time>
      </trkpt>
      <trkpt lat="48.62422" lon="-2.46652">
        <ele>47.5</ele>
        <time>2015-10-12T15:16:06Z</time>
      </trkpt>
      <trkpt lat="48.62414" lon="-2.46661">
        <ele>47.5</ele>
        <time>2015-10-12T15:16:09Z</time>
      </trkpt>
      <trkpt lat="48.62404" lon="-2.46671">
        <ele>47.6</ele>
        <time>2015-10-12T15:16:13Z</time>
      </trkpt>
      <trkpt lat="48.62394" lon="-2.46682">
        <ele>47.8</ele>
        <time>2015-10-12T15:16:17Z</time>
      </trkpt>
      <trkpt lat="48.62384" lon="-2.46691">
        <ele>48</ele>
        <time>2015-10-12T15:16:20Z</time>
      </trkpt>
      <trkpt lat="48.62374" lon="-2.467">
        <ele>48.1</ele>
        <time>2015-10-12T15:16:23Z</time>
      </trkpt>
      <trkpt lat="48.62365" lon="-2.46709">
        <ele>48.3</ele>
        <time>2015-10-12T15:16:26Z</time>
      </trkpt>
      <trkpt lat="48.62358" lon="-2.46722">
        <ele>48.4</ele>
        <time>2015-10-12T15:16:29Z</time>
      </trkpt>
      <trkpt lat="48.62357" lon="-2.46738">
        <ele>48.5</ele>
        <time>2015-10-12T15:16:32Z</time>
      </trkpt>
      <trkpt lat="48.62362" lon="-2.46751">
        <ele>48.9</ele>
        <time>2015-10-12T15:16:35Z</time>
      </trkpt>
      <trkpt lat="48.62365" lon="-2.46767">
        <ele>49.3</ele>
        <time>2015-10-12T15:16:38Z</time>
      </trkpt>
      <trkpt lat="48.62368" lon="-2.46785">
        <ele>49.6</ele>
        <time>2015-10-12T15:16:41Z</time>
      </trkpt>
      <trkpt lat="48.62371" lon="-2.46804">
        <ele>49.9</ele>
        <time>2015-10-12T15:16:44Z</time>
      </trkpt>
      <trkpt lat="48.62374" lon="-2.46821">
        <ele>50.1</ele>
        <time>2015-10-12T15:16:47Z</time>
      </trkpt>
      <trkpt lat="48.62378" lon="-2.46838">
        <ele>50.3</ele>
        <time>2015-10-12T15:16:50Z</time>
      </trkpt>
      <trkpt lat="48.62385" lon="-2.46853">
        <ele>50.4</ele>
        <time>2015-10-12T15:16:53Z</time>
      </trkpt>
      <trkpt lat="48.62393" lon="-2.46867">
        <ele>50.6</ele>
        <time>2015-10-12T15:16:56Z</time>
      </trkpt>
      <trkpt lat="48.62401" lon="-2.46879">
        <ele>50.7</ele>
        <time>2015-10-12T15:16:59Z</time>
      </trkpt>
      <trkpt lat="48.62411" lon="-2.4689">
        <ele>50.7</ele>
        <time>2015-10-12T15:17:02Z</time>
      </trkpt>
      <trkpt lat="48.6242" lon="-2.469">
        <ele>50.8</ele>
        <time>2015-10-12T15:17:05Z</time>
      </trkpt>
      <trkpt lat="48.62428" lon="-2.46911">
        <ele>50.9</ele>
        <time>2015-10-12T15:17:08Z</time>
      </trkpt>
      <trkpt lat="48.62437" lon="-2.46922">
        <ele>50.9</ele>
        <time>2015-10-12T15:17:11Z</time>
      </trkpt>
      <trkpt lat="48.62445" lon="-2.46933">
        <ele>50.8</ele>
        <time>2015-10-12T15:17:14Z</time>
      </trkpt>
      <trkpt lat="48.62453" lon="-2.46943">
        <ele>50.7</ele>
        <time>2015-10-12T15:17:17Z</time>
      </trkpt>
      <trkpt lat="48.62463" lon="-2.46953">
        <ele>50.5</ele>
        <time>2015-10-12T15:17:20Z</time>
      </trkpt>
      <trkpt lat="48.62472" lon="-2.46965">
        <ele>50.3</ele>
        <time>2015-10-12T15:17:23Z</time>
      </trkpt>
      <trkpt lat="48.62482" lon="-2.46978">
        <ele>50.1</ele>
        <time>2015-10-12T15:17:26Z</time>
      </trkpt>
      <trkpt lat="48.62492" lon="-2.46991">
        <ele>49.9</ele>
        <time>2015-10-12T15:17:29Z</time>
      </trkpt>
      <trkpt lat="48.62501" lon="-2.47001">
        <ele>49.6</ele>
        <time>2015-10-12T15:17:31Z</time>
      </trkpt>
      <trkpt lat="48.62511" lon="-2.47012">
        <ele>49.2</ele>
        <time>2015-10-12T15:17:33Z</time>
      </trkpt>
      <trkpt lat="48.62522" lon="-2.47026">
        <ele>48.8</ele>
        <time>2015-10-12T15:17:35Z</time>
      </trkpt>
      <trkpt lat="48.62534" lon="-2.47039">
        <ele>48.2</ele>
        <time>2015-10-12T15:17:37Z</time>
      </trkpt>
      <trkpt lat="48.62543" lon="-2.47046">
        <ele>47.6</ele>
        <time>2015-10-12T15:17:39Z</time>
      </trkpt>
      <trkpt lat="48.62553" lon="-2.47034">
        <ele>46.6</ele>
        <time>2015-10-12T15:17:42Z</time>
      </trkpt>
      <trkpt lat="48.6256" lon="-2.47024">
        <ele>46</ele>
        <time>2015-10-12T15:17:44Z</time>
      </trkpt>
      <trkpt lat="48.62566" lon="-2.47012">
        <ele>45.4</ele>
        <time>2015-10-12T15:17:46Z</time>
      </trkpt>
      <trkpt lat="48.62572" lon="-2.47">
        <ele>44.8</ele>
        <time>2015-10-12T15:17:48Z</time>
      </trkpt>
      <trkpt lat="48.62581" lon="-2.46988">
        <ele>44.2</ele>
        <time>2015-10-12T15:17:50Z</time>
      </trkpt>
      <trkpt lat="48.62591" lon="-2.46989">
        <ele>43.7</ele>
        <time>2015-10-12T15:17:52Z</time>
      </trkpt>
      <trkpt lat="48.62599" lon="-2.46998">
        <ele>43.2</ele>
        <time>2015-10-12T15:17:54Z</time>
      </trkpt>
      <trkpt lat="48.62607" lon="-2.47008">
        <ele>42.7</ele>
        <time>2015-10-12T15:17:56Z</time>
      </trkpt>
      <trkpt lat="48.62615" lon="-2.47018">
        <ele>42.2</ele>
        <time>2015-10-12T15:17:58Z</time>
      </trkpt>
      <trkpt lat="48.62623" lon="-2.47029">
        <ele>41.7</ele>
        <time>2015-10-12T15:18:00Z</time>
      </trkpt>
      <trkpt lat="48.62632" lon="-2.47042">
        <ele>41.3</ele>
        <time>2015-10-12T15:18:02Z</time>
      </trkpt>
      <trkpt lat="48.6264" lon="-2.47058">
        <ele>40.8</ele>
        <time>2015-10-12T15:18:04Z</time>
      </trkpt>
      <trkpt lat="48.62647" lon="-2.47074">
        <ele>40.3</ele>
        <time>2015-10-12T15:18:06Z</time>
      </trkpt>
      <trkpt lat="48.62653" lon="-2.47091">
        <ele>39.8</ele>
        <time>2015-10-12T15:18:08Z</time>
      </trkpt>
      <trkpt lat="48.62662" lon="-2.47104">
        <ele>39.2</ele>
        <time>2015-10-12T15:18:10Z</time>
      </trkpt>
      <trkpt lat="48.62674" lon="-2.4711">
        <ele>38.7</ele>
        <time>2015-10-12T15:18:12Z</time>
      </trkpt>
      <trkpt lat="48.62686" lon="-2.47109">
        <ele>38.2</ele>
        <time>2015-10-12T15:18:14Z</time>
      </trkpt>
      <trkpt lat="48.62697" lon="-2.471">
        <ele>37.7</ele>
        <time>2015-10-12T15:18:16Z</time>
      </trkpt>
      <trkpt lat="48.62706" lon="-2.47086">
        <ele>37.2</ele>
        <time>2015-10-12T15:18:18Z</time>
      </trkpt>
      <trkpt lat="48.62713" lon="-2.4707">
        <ele>36.7</ele>
        <time>2015-10-12T15:18:20Z</time>
      </trkpt>
      <trkpt lat="48.62719" lon="-2.47054">
        <ele>36.2</ele>
        <time>2015-10-12T15:18:22Z</time>
      </trkpt>
      <trkpt lat="48.62725" lon="-2.47038">
        <ele>35.7</ele>
        <time>2015-10-12T15:18:24Z</time>
      </trkpt>
      <trkpt lat="48.62731" lon="-2.47022">
        <ele>35.2</ele>
        <time>2015-10-12T15:18:26Z</time>
      </trkpt>
      <trkpt lat="48.62736" lon="-2.47007">
        <ele>34.5</ele>
        <time>2015-10-12T15:18:28Z</time>
      </trkpt>
      <trkpt lat="48.62739" lon="-2.46994">
        <ele>33.9</ele>
        <time>2015-10-12T15:18:30Z</time>
      </trkpt>
      <trkpt lat="48.62744" lon="-2.46978">
        <ele>33.2</ele>
        <time>2015-10-12T15:18:32Z</time>
      </trkpt>
      <trkpt lat="48.62748" lon="-2.46962">
        <ele>32.6</ele>
        <time>2015-10-12T15:18:34Z</time>
      </trkpt>
      <trkpt lat="48.62752" lon="-2.46949">
        <ele>31.9</ele>
        <time>2015-10-12T15:18:36Z</time>
      </trkpt>
      <trkpt lat="48.62754" lon="-2.46934">
        <ele>30</ele>
        <time>2015-10-12T15:18:42Z</time>
      </trkpt>
      <trkpt lat="48.62743" lon="-2.46933">
        <ele>27.9</ele>
        <time>2015-10-12T15:18:53Z</time>
      </trkpt>
      <trkpt lat="48.62732" lon="-2.46926">
        <ele>27.5</ele>
        <time>2015-10-12T15:18:56Z</time>
      </trkpt>
      <trkpt lat="48.6272" lon="-2.46917">
        <ele>27.3</ele>
        <time>2015-10-12T15:18:59Z</time>
      </trkpt>
      <trkpt lat="48.62712" lon="-2.4691">
        <ele>27.4</ele>
        <time>2015-10-12T15:19:01Z</time>
      </trkpt>
      <trkpt lat="48.62703" lon="-2.46902">
        <ele>27.7</ele>
        <time>2015-10-12T15:19:03Z</time>
      </trkpt>
      <trkpt lat="48.62698" lon="-2.46887">
        <ele>28.1</ele>
        <time>2015-10-12T15:19:06Z</time>
      </trkpt>
      <trkpt lat="48.62704" lon="-2.46874">
        <ele>28.5</ele>
        <time>2015-10-12T15:19:09Z</time>
      </trkpt>
      <trkpt lat="48.62711" lon="-2.46865">
        <ele>28.8</ele>
        <time>2015-10-12T15:19:11Z</time>
      </trkpt>
      <trkpt lat="48.62719" lon="-2.46854">
        <ele>28.9</ele>
        <time>2015-10-12T15:19:13Z</time>
      </trkpt>
      <trkpt lat="48.62727" lon="-2.46842">
        <ele>28.9</ele>
        <time>2015-10-12T15:19:15Z</time>
      </trkpt>
      <trkpt lat="48.62736" lon="-2.4683">
        <ele>28.8</ele>
        <time>2015-10-12T15:19:17Z</time>
      </trkpt>
      <trkpt lat="48.62745" lon="-2.46816">
        <ele>28.6</ele>
        <time>2015-10-12T15:19:19Z</time>
      </trkpt>
      <trkpt lat="48.62755" lon="-2.46802">
        <ele>28.3</ele>
        <time>2015-10-12T15:19:21Z</time>
      </trkpt>
      <trkpt lat="48.62765" lon="-2.46787">
        <ele>27.8</ele>
        <time>2015-10-12T15:19:23Z</time>
      </trkpt>
      <trkpt lat="48.62775" lon="-2.46769">
        <ele>27.3</ele>
        <time>2015-10-12T15:19:25Z</time>
      </trkpt>
      <trkpt lat="48.62785" lon="-2.46749">
        <ele>26.6</ele>
        <time>2015-10-12T15:19:27Z</time>
      </trkpt>
      <trkpt lat="48.62795" lon="-2.46729">
        <ele>25.9</ele>
        <time>2015-10-12T15:19:29Z</time>
      </trkpt>
      <trkpt lat="48.62803" lon="-2.46707">
        <ele>25</ele>
        <time>2015-10-12T15:19:31Z</time>
      </trkpt>
      <trkpt lat="48.62811" lon="-2.46685">
        <ele>24.1</ele>
        <time>2015-10-12T15:19:33Z</time>
      </trkpt>
      <trkpt lat="48.62816" lon="-2.46664">
        <ele>23.2</ele>
        <time>2015-10-12T15:19:35Z</time>
      </trkpt>
      <trkpt lat="48.62822" lon="-2.46645">
        <ele>22.4</ele>
        <time>2015-10-12T15:19:37Z</time>
      </trkpt>
      <trkpt lat="48.62828" lon="-2.46634">
        <ele>21.6</ele>
        <time>2015-10-12T15:19:39Z</time>
      </trkpt>
      <trkpt lat="48.6284" lon="-2.46631">
        <ele>20.7</ele>
        <time>2015-10-12T15:19:41Z</time>
      </trkpt>
      <trkpt lat="48.62853" lon="-2.46634">
        <ele>19.8</ele>
        <time>2015-10-12T15:19:43Z</time>
      </trkpt>
      <trkpt lat="48.62866" lon="-2.46645">
        <ele>18.8</ele>
        <time>2015-10-12T15:19:45Z</time>
      </trkpt>
      <trkpt lat="48.62879" lon="-2.46654">
        <ele>17.7</ele>
        <time>2015-10-12T15:19:47Z</time>
      </trkpt>
      <trkpt lat="48.62891" lon="-2.46662">
        <ele>16.8</ele>
        <time>2015-10-12T15:19:49Z</time>
      </trkpt>
      <trkpt lat="48.629" lon="-2.46668">
        <ele>15.8</ele>
        <time>2015-10-12T15:19:51Z</time>
      </trkpt>
      <trkpt lat="48.6291" lon="-2.46671">
        <ele>13.5</ele>
        <time>2015-10-12T15:19:56Z</time>
      </trkpt>
      <trkpt lat="48.62918" lon="-2.4668">
        <ele>11.5</ele>
        <time>2015-10-12T15:20:02Z</time>
      </trkpt>
      <trkpt lat="48.62927" lon="-2.46689">
        <ele>10.6</ele>
        <time>2015-10-12T15:20:05Z</time>
      </trkpt>
      <trkpt lat="48.62937" lon="-2.467">
        <ele>9.9</ele>
        <time>2015-10-12T15:20:08Z</time>
      </trkpt>
      <trkpt lat="48.62944" lon="-2.46708">
        <ele>9.5</ele>
        <time>2015-10-12T15:20:10Z</time>
      </trkpt>
      <trkpt lat="48.62951" lon="-2.46717">
        <ele>9.2</ele>
        <time>2015-10-12T15:20:12Z</time>
      </trkpt>
      <trkpt lat="48.62959" lon="-2.46725">
        <ele>8.9</ele>
        <time>2015-10-12T15:20:14Z</time>
      </trkpt>
      <trkpt lat="48.62966" lon="-2.46733">
        <ele>8.6</ele>
        <time>2015-10-12T15:20:16Z</time>
      </trkpt>
      <trkpt lat="48.62977" lon="-2.46744">
        <ele>8.3</ele>
        <time>2015-10-12T15:20:19Z</time>
      </trkpt>
      <trkpt lat="48.62987" lon="-2.46755">
        <ele>8</ele>
        <time>2015-10-12T15:20:22Z</time>
      </trkpt>
      <trkpt lat="48.62995" lon="-2.46762">
        <ele>7.8</ele>
        <time>2015-10-12T15:20:25Z</time>
      </trkpt>
      <trkpt lat="48.63006" lon="-2.46758">
        <ele>7.6</ele>
        <time>2015-10-12T15:20:28Z</time>
      </trkpt>
      <trkpt lat="48.63016" lon="-2.46752">
        <ele>7.5</ele>
        <time>2015-10-12T15:20:31Z</time>
      </trkpt>
      <trkpt lat="48.63027" lon="-2.46743">
        <ele>7.4</ele>
        <time>2015-10-12T15:20:34Z</time>
      </trkpt>
      <trkpt lat="48.63038" lon="-2.46734">
        <ele>7.4</ele>
        <time>2015-10-12T15:20:37Z</time>
      </trkpt>
      <trkpt lat="48.63051" lon="-2.46725">
        <ele>7.4</ele>
        <time>2015-10-12T15:20:40Z</time>
      </trkpt>
      <trkpt lat="48.63059" lon="-2.46719">
        <ele>7.5</ele>
        <time>2015-10-12T15:20:42Z</time>
      </trkpt>
      <trkpt lat="48.63068" lon="-2.46714">
        <ele>7.5</ele>
        <time>2015-10-12T15:20:44Z</time>
      </trkpt>
      <trkpt lat="48.63077" lon="-2.46709">
        <ele>7.5</ele>
        <time>2015-10-12T15:20:46Z</time>
      </trkpt>
      <trkpt lat="48.63085" lon="-2.46704">
        <ele>7.5</ele>
        <time>2015-10-12T15:20:48Z</time>
      </trkpt>
      <trkpt lat="48.63094" lon="-2.46699">
        <ele>7.6</ele>
        <time>2015-10-12T15:20:50Z</time>
      </trkpt>
      <trkpt lat="48.63103" lon="-2.46694">
        <ele>7.6</ele>
        <time>2015-10-12T15:20:52Z</time>
      </trkpt>
      <trkpt lat="48.63116" lon="-2.46688">
        <ele>7.6</ele>
        <time>2015-10-12T15:20:55Z</time>
      </trkpt>
      <trkpt lat="48.63125" lon="-2.46684">
        <ele>7.6</ele>
        <time>2015-10-12T15:20:57Z</time>
      </trkpt>
      <trkpt lat="48.63134" lon="-2.4668">
        <ele>7.6</ele>
        <time>2015-10-12T15:20:59Z</time>
      </trkpt>
      <trkpt lat="48.63144" lon="-2.46675">
        <ele>7.6</ele>
        <time>2015-10-12T15:21:01Z</time>
      </trkpt>
      <trkpt lat="48.63153" lon="-2.46671">
        <ele>7.6</ele>
        <time>2015-10-12T15:21:03Z</time>
      </trkpt>
      <trkpt lat="48.63162" lon="-2.46667">
        <ele>7.6</ele>
        <time>2015-10-12T15:21:05Z</time>
      </trkpt>
      <trkpt lat="48.63171" lon="-2.46663">
        <ele>7.6</ele>
        <time>2015-10-12T15:21:07Z</time>
      </trkpt>
      <trkpt lat="48.63181" lon="-2.46659">
        <ele>7.6</ele>
        <time>2015-10-12T15:21:09Z</time>
      </trkpt>
      <trkpt lat="48.6319" lon="-2.46654">
        <ele>7.6</ele>
        <time>2015-10-12T15:21:11Z</time>
      </trkpt>
      <trkpt lat="48.63199" lon="-2.46652">
        <ele>7.6</ele>
        <time>2015-10-12T15:21:13Z</time>
      </trkpt>
      <trkpt lat="48.63211" lon="-2.4666">
        <ele>7.6</ele>
        <time>2015-10-12T15:21:16Z</time>
      </trkpt>
      <trkpt lat="48.63221" lon="-2.46669">
        <ele>7.7</ele>
        <time>2015-10-12T15:21:19Z</time>
      </trkpt>
      <trkpt lat="48.63233" lon="-2.46668">
        <ele>7.7</ele>
        <time>2015-10-12T15:21:22Z</time>
      </trkpt>
      <trkpt lat="48.63245" lon="-2.46666">
        <ele>7.7</ele>
        <time>2015-10-12T15:21:25Z</time>
      </trkpt>
      <trkpt lat="48.63256" lon="-2.46663">
        <ele>7.7</ele>
        <time>2015-10-12T15:21:28Z</time>
      </trkpt>
      <trkpt lat="48.63266" lon="-2.46662">
        <ele>7.7</ele>
        <time>2015-10-12T15:21:31Z</time>
      </trkpt>
      <trkpt lat="48.63277" lon="-2.46662">
        <ele>7.7</ele>
        <time>2015-10-12T15:21:35Z</time>
      </trkpt>
      <trkpt lat="48.63279" lon="-2.46662">
        <ele>7.7</ele>
        <time>2015-10-12T15:21:36Z</time>
      </trkpt>
    </trkseg>
  </trk>
</gpx>